Wetterdaten: Dienstag, 07.11.2017
Datum Zeit Temp. A. Temp. A. max Feuchte A. Luftdruck Regen Wind Richtung Richtung Sonnenschein ET UV Solar Taupunkt Windchill Windböen
07.11.2017 00:00 1,4 °C 1,4 °C 95 % 1020,9 hPa 0,0 mm 2,3 km/h (1 Bft) O-NO 66 ° 0 min 0,000 mm 0,0 UV-I 0 W/m² 0,7 °C 1,4 °C 4,8 km/h (1 Bft)
07.11.2017 00:01 1,4 °C 1,4 °C 95 % 1020,9 hPa 0,0 mm 3,5 km/h (1 Bft) O-NO 76 ° 0 min 0,000 mm 0,0 UV-I 0 W/m² 0,7 °C 1,4 °C 4,8 km/h (1 Bft)
07.11.2017 00:02 1,4 °C 1,4 °C 95 % 1020,8 hPa 0,0 mm 3,8 km/h (1 Bft) O 98 ° 0 min 0,000 mm 0,0 UV-I 0 W/m² 0,7 °C 1,4 °C 6,4 km/h (2 Bft)
07.11.2017 00:03 1,4 °C 1,4 °C 95 % 1020,9 hPa 0,0 mm 1,5 km/h (1 Bft) O 98 ° 0 min 0,000 mm 0,0 UV-I 0 W/m² 0,7 °C 1,4 °C 3,2 km/h (1 Bft)
07.11.2017 00:04 1,4 °C 1,4 °C 95 % 1020,8 hPa 0,0 mm 0,5 km/h (0 Bft) O 98 ° 0 min 0,000 mm 0,0 UV-I 0 W/m² 0,7 °C 1,4 °C 1,6 km/h (1 Bft)
07.11.2017 00:05 1,4 °C 1,4 °C 95 % 1020,8 hPa 0,0 mm 1,1 km/h (1 Bft) O 98 ° 0 min 0,000 mm 0,0 UV-I 0 W/m² 0,7 °C 1,4 °C 3,2 km/h (1 Bft)
07.11.2017 00:06 1,4 °C 1,4 °C 95 % 1020,8 hPa 0,0 mm 0,9 km/h (0 Bft) O 98 ° 0 min 0,000 mm 0,0 UV-I 0 W/m² 0,7 °C 1,4 °C 3,2 km/h (1 Bft)
07.11.2017 00:07 1,4 °C 1,4 °C 95 % 1020,8 hPa 0,0 mm 1,9 km/h (1 Bft) O 98 ° 0 min 0,000 mm 0,0 UV-I 0 W/m² 0,7 °C 1,4 °C 3,2 km/h (1 Bft)
07.11.2017 00:08 1,4 °C 1,4 °C 95 % 1020,8 hPa 0,0 mm 2,9 km/h (1 Bft) O 98 ° 0 min 0,000 mm 0,0 UV-I 0 W/m² 0,7 °C 1,4 °C 3,2 km/h (1 Bft)
07.11.2017 00:09 1,4 °C 1,4 °C 95 % 1020,8 hPa 0,0 mm 3,4 km/h (1 Bft) O-NO 71 ° 0 min 0,000 mm 0,0 UV-I 0 W/m² 0,7 °C 1,4 °C 4,8 km/h (1 Bft)
07.11.2017 00:10 1,4 °C 1,4 °C 95 % 1020,8 hPa 0,0 mm 4,5 km/h (1 Bft) O-NO 74 ° 0 min 0,000 mm 0,0 UV-I 0 W/m² 0,7 °C 1,4 °C 6,4 km/h (2 Bft)
07.11.2017 00:11 1,4 °C 1,4 °C 95 % 1020,8 hPa 0,0 mm 1,5 km/h (1 Bft) O 86 ° 0 min 0,000 mm 0,0 UV-I 0 W/m² 0,7 °C 1,4 °C 3,2 km/h (1 Bft)
07.11.2017 00:12 1,4 °C 1,4 °C 95 % 1020,8 hPa 0,0 mm 2,9 km/h (1 Bft) O 84 ° 0 min 0,000 mm 0,0 UV-I 0 W/m² 0,7 °C 1,4 °C 4,8 km/h (1 Bft)
07.11.2017 00:13 1,4 °C 1,4 °C 95 % 1020,8 hPa 0,0 mm 1,9 km/h (1 Bft) O 84 ° 0 min 0,000 mm 0,0 UV-I 0 W/m² 0,7 °C 1,4 °C 4,8 km/h (1 Bft)
07.11.2017 00:14 1,4 °C 1,4 °C 95 % 1020,8 hPa 0,0 mm 1,5 km/h (1 Bft) O 84 ° 0 min 0,000 mm 0,0 UV-I 0 W/m² 0,7 °C 1,4 °C 3,2 km/h (1 Bft)
07.11.2017 00:15 1,4 °C 1,4 °C 95 % 1020,8 hPa 0,0 mm 3,8 km/h (1 Bft) O 84 ° 0 min 0,000 mm 0,0 UV-I 0 W/m² 0,7 °C 1,4 °C 4,8 km/h (1 Bft)
07.11.2017 00:16 1,4 °C 1,4 °C 95 % 1020,8 hPa 0,0 mm 4,8 km/h (1 Bft) O-NO 74 ° 0 min 0,000 mm 0,0 UV-I 0 W/m² 0,7 °C 0,1 °C 6,4 km/h (2 Bft)
07.11.2017 00:17 1,4 °C 1,4 °C 95 % 1020,8 hPa 0,0 mm 4,7 km/h (1 Bft) O-NO 71 ° 0 min 0,000 mm 0,0 UV-I 0 W/m² 0,7 °C 0,1 °C 6,4 km/h (2 Bft)
07.11.2017 00:18 1,4 °C 1,4 °C 95 % 1020,8 hPa 0,0 mm 4,4 km/h (1 Bft) O 83 ° 0 min 0,000 mm 0,0 UV-I 0 W/m² 0,7 °C 1,4 °C 6,4 km/h (2 Bft)
07.11.2017 00:19 1,4 °C 1,4 °C 96 % 1020,8 hPa 0,2 mm 2,0 km/h (1 Bft) O 83 ° 0 min 0,000 mm 0,0 UV-I 0 W/m² 0,8 °C 1,4 °C 3,2 km/h (1 Bft)
07.11.2017 00:20 1,4 °C 1,4 °C 95 % 1020,8 hPa 0,0 mm 1,5 km/h (1 Bft) O 83 ° 0 min 0,000 mm 0,0 UV-I 0 W/m² 0,7 °C 1,4 °C 3,2 km/h (1 Bft)
07.11.2017 00:21 1,4 °C 1,4 °C 95 % 1020,8 hPa 0,0 mm 3,2 km/h (1 Bft) NO 49 ° 0 min 0,000 mm 0,0 UV-I 0 W/m² 0,7 °C 1,4 °C 6,4 km/h (2 Bft)
07.11.2017 00:22 1,4 °C 1,4 °C 96 % 1020,8 hPa 0,0 mm 4,0 km/h (1 Bft) O-NO 76 ° 0 min 0,000 mm 0,0 UV-I 0 W/m² 0,8 °C 1,4 °C 6,4 km/h (2 Bft)
07.11.2017 00:23 1,4 °C 1,4 °C 96 % 1020,8 hPa 0,0 mm 3,0 km/h (1 Bft) O-NO 76 ° 0 min 0,000 mm 0,0 UV-I 0 W/m² 0,8 °C 1,4 °C 4,8 km/h (1 Bft)
07.11.2017 00:24 1,4 °C 1,4 °C 96 % 1020,8 hPa 0,0 mm 0,6 km/h (0 Bft) O-NO 76 ° 0 min 0,000 mm 0,0 UV-I 0 W/m² 0,8 °C 1,4 °C 1,6 km/h (1 Bft)
07.11.2017 00:25 1,4 °C 1,4 °C 96 % 1020,7 hPa 0,0 mm 0,0 km/h (0 Bft) O-NO 76 ° 0 min 0,000 mm 0,0 UV-I 0 W/m² 0,8 °C 1,4 °C 0,0 km/h (0 Bft)
07.11.2017 00:26 1,4 °C 1,4 °C 96 % 1020,7 hPa 0,0 mm 4,1 km/h (1 Bft) O-NO 72 ° 0 min 0,000 mm 0,0 UV-I 0 W/m² 0,8 °C 1,4 °C 6,4 km/h (2 Bft)
07.11.2017 00:27 1,4 °C 1,4 °C 95 % 1020,7 hPa 0,0 mm 3,6 km/h (1 Bft) O-NO 61 ° 0 min 0,000 mm 0,0 UV-I 0 W/m² 0,7 °C 1,4 °C 6,4 km/h (2 Bft)
07.11.2017 00:28 1,4 °C 1,4 °C 96 % 1020,7 hPa 0,0 mm 1,9 km/h (1 Bft) O-NO 72 ° 0 min 0,000 mm 0,0 UV-I 0 W/m² 0,8 °C 1,4 °C 4,8 km/h (1 Bft)
07.11.2017 00:29 1,4 °C 1,4 °C 96 % 1020,7 hPa 0,0 mm 2,9 km/h (1 Bft) O-NO 69 ° 0 min 0,000 mm 0,0 UV-I 0 W/m² 0,8 °C 1,4 °C 4,8 km/h (1 Bft)
07.11.2017 00:30 1,4 °C 1,4 °C 96 % 1020,7 hPa 0,0 mm 4,6 km/h (1 Bft) O-NO 64 ° 0 min 0,000 mm 0,0 UV-I 0 W/m² 0,8 °C 0,2 °C 8,0 km/h (2 Bft)
07.11.2017 00:31 1,4 °C 1,4 °C 96 % 1020,7 hPa 0,0 mm 4,1 km/h (1 Bft) O-NO 77 ° 0 min 0,000 mm 0,0 UV-I 0 W/m² 0,8 °C 1,4 °C 6,4 km/h (2 Bft)
07.11.2017 00:32 1,4 °C 1,5 °C 96 % 1020,7 hPa 0,0 mm 2,6 km/h (1 Bft) O-NO 77 ° 0 min 0,000 mm 0,0 UV-I 0 W/m² 0,8 °C 1,4 °C 3,2 km/h (1 Bft)
07.11.2017 00:33 1,5 °C 1,5 °C 96 % 1020,7 hPa 0,0 mm 4,0 km/h (1 Bft) O-NO 76 ° 0 min 0,000 mm 0,0 UV-I 0 W/m² 0,9 °C 1,5 °C 4,8 km/h (1 Bft)
07.11.2017 00:34 1,5 °C 1,5 °C 96 % 1020,7 hPa 0,0 mm 3,7 km/h (1 Bft) O 94 ° 0 min 0,000 mm 0,0 UV-I 0 W/m² 0,9 °C 1,5 °C 4,8 km/h (1 Bft)
07.11.2017 00:35 1,5 °C 1,5 °C 96 % 1020,6 hPa 0,0 mm 3,5 km/h (1 Bft) O-NO 73 ° 0 min 0,000 mm 0,0 UV-I 0 W/m² 0,9 °C 1,5 °C 6,4 km/h (2 Bft)
07.11.2017 00:36 1,4 °C 1,5 °C 96 % 1020,6 hPa 0,0 mm 1,9 km/h (1 Bft) O-NO 73 ° 0 min 0,000 mm 0,0 UV-I 0 W/m² 0,8 °C 1,4 °C 3,2 km/h (1 Bft)
07.11.2017 00:37 1,5 °C 1,5 °C 96 % 1020,6 hPa 0,0 mm 4,0 km/h (1 Bft) O 93 ° 0 min 0,000 mm 0,0 UV-I 0 W/m² 0,9 °C 1,5 °C 6,4 km/h (2 Bft)
07.11.2017 00:38 1,5 °C 1,5 °C 96 % 1020,6 hPa 0,0 mm 1,9 km/h (1 Bft) O 93 ° 0 min 0,000 mm 0,0 UV-I 0 W/m² 0,9 °C 1,5 °C 3,2 km/h (1 Bft)
07.11.2017 00:39 1,4 °C 1,5 °C 96 % 1020,6 hPa 0,0 mm 3,5 km/h (1 Bft) O 87 ° 0 min 0,000 mm 0,0 UV-I 0 W/m² 0,8 °C 1,4 °C 6,4 km/h (2 Bft)
07.11.2017 00:40 1,4 °C 1,4 °C 96 % 1020,6 hPa 0,0 mm 3,0 km/h (1 Bft) O-NO 78 ° 0 min 0,000 mm 0,0 UV-I 0 W/m² 0,8 °C 1,4 °C 6,4 km/h (2 Bft)
07.11.2017 00:41 1,5 °C 1,5 °C 96 % 1020,6 hPa 0,0 mm 4,7 km/h (1 Bft) O-NO 64 ° 0 min 0,000 mm 0,0 UV-I 0 W/m² 0,9 °C 0,2 °C 8,0 km/h (2 Bft)
07.11.2017 00:42 1,4 °C 1,5 °C 96 % 1020,6 hPa 0,0 mm 3,4 km/h (1 Bft) NO 55 ° 0 min 0,000 mm 0,0 UV-I 0 W/m² 0,8 °C 1,4 °C 4,8 km/h (1 Bft)
07.11.2017 00:43 1,4 °C 1,4 °C 96 % 1020,6 hPa 0,0 mm 1,9 km/h (1 Bft) O-NO 59 ° 0 min 0,000 mm 0,0 UV-I 0 W/m² 0,8 °C 1,4 °C 4,8 km/h (1 Bft)
07.11.2017 00:44 1,4 °C 1,5 °C 96 % 1020,6 hPa 0,0 mm 2,1 km/h (1 Bft) O-NO 59 ° 0 min 0,000 mm 0,0 UV-I 0 W/m² 0,8 °C 1,4 °C 4,8 km/h (1 Bft)
07.11.2017 00:45 1,4 °C 1,4 °C 96 % 1020,6 hPa 0,0 mm 2,0 km/h (1 Bft) O-NO 59 ° 0 min 0,000 mm 0,0 UV-I 0 W/m² 0,8 °C 1,4 °C 3,2 km/h (1 Bft)
07.11.2017 00:46 1,5 °C 1,5 °C 96 % 1020,6 hPa 0,0 mm 0,8 km/h (0 Bft) O-NO 60 ° 0 min 0,000 mm 0,0 UV-I 0 W/m² 0,9 °C 1,5 °C 1,6 km/h (1 Bft)
07.11.2017 00:47 1,5 °C 1,5 °C 96 % 1020,6 hPa 0,0 mm 2,7 km/h (1 Bft) O-NO 60 ° 0 min 0,000 mm 0,0 UV-I 0 W/m² 0,9 °C 1,5 °C 4,8 km/h (1 Bft)
07.11.2017 00:48 1,4 °C 1,5 °C 96 % 1020,6 hPa 0,0 mm 2,3 km/h (1 Bft) O-NO 60 ° 0 min 0,000 mm 0,0 UV-I 0 W/m² 0,8 °C 1,4 °C 3,2 km/h (1 Bft)
07.11.2017 00:49 1,4 °C 1,5 °C 96 % 1020,7 hPa 0,0 mm 3,5 km/h (1 Bft) O-NO 61 ° 0 min 0,000 mm 0,0 UV-I 0 W/m² 0,8 °C 1,4 °C 6,4 km/h (2 Bft)
07.11.2017 00:50 1,4 °C 1,5 °C 96 % 1020,7 hPa 0,0 mm 3,1 km/h (1 Bft) O-NO 67 ° 0 min 0,000 mm 0,0 UV-I 0 W/m² 0,8 °C 1,4 °C 6,4 km/h (2 Bft)
07.11.2017 00:51 1,4 °C 1,4 °C 96 % 1020,6 hPa 0,0 mm 1,1 km/h (1 Bft) O-NO 66 ° 0 min 0,000 mm 0,0 UV-I 0 W/m² 0,8 °C 1,4 °C 3,2 km/h (1 Bft)
07.11.2017 00:52 1,5 °C 1,5 °C 96 % 1020,6 hPa 0,0 mm 1,3 km/h (1 Bft) O-NO 67 ° 0 min 0,000 mm 0,0 UV-I 0 W/m² 0,9 °C 1,5 °C 3,2 km/h (1 Bft)
07.11.2017 00:53 1,4 °C 1,5 °C 96 % 1020,6 hPa 0,0 mm 2,9 km/h (1 Bft) O-NO 66 ° 0 min 0,000 mm 0,0 UV-I 0 W/m² 0,8 °C 1,4 °C 4,8 km/h (1 Bft)
07.11.2017 00:54 1,4 °C 1,5 °C 96 % 1020,6 hPa 0,0 mm 1,8 km/h (1 Bft) O-NO 66 ° 0 min 0,000 mm 0,0 UV-I 0 W/m² 0,8 °C 1,4 °C 3,2 km/h (1 Bft)
07.11.2017 00:55 1,4 °C 1,4 °C 96 % 1020,6 hPa 0,0 mm 0,7 km/h (0 Bft) O-NO 66 ° 0 min 0,000 mm 0,0 UV-I 0 W/m² 0,8 °C 1,4 °C 1,6 km/h (1 Bft)
07.11.2017 00:56 1,4 °C 1,4 °C 96 % 1020,5 hPa 0,0 mm 2,3 km/h (1 Bft) O-NO 66 ° 0 min 0,000 mm 0,0 UV-I 0 W/m² 0,8 °C 1,4 °C 4,8 km/h (1 Bft)
07.11.2017 00:57 1,4 °C 1,4 °C 96 % 1020,6 hPa 0,0 mm 2,7 km/h (1 Bft) O 92 ° 0 min 0,000 mm 0,0 UV-I 0 W/m² 0,8 °C 1,4 °C 4,8 km/h (1 Bft)
07.11.2017 00:58 1,4 °C 1,4 °C 96 % 1020,6 hPa 0,0 mm 3,2 km/h (1 Bft) O-NO 59 ° 0 min 0,000 mm 0,0 UV-I 0 W/m² 0,8 °C 1,4 °C 4,8 km/h (1 Bft)
07.11.2017 00:59 1,4 °C 1,4 °C 96 % 1020,6 hPa 0,0 mm 4,4 km/h (1 Bft) O-NO 71 ° 0 min 0,000 mm 0,0 UV-I 0 W/m² 0,8 °C 1,4 °C 6,4 km/h (2 Bft)
07.11.2017 01:00 1,4 °C 1,5 °C 96 % 1020,6 hPa 0,0 mm 4,0 km/h (1 Bft) O-NO 71 ° 0 min 0,000 mm 0,0 UV-I 0 W/m² 0,8 °C 1,4 °C 6,4 km/h (2 Bft)
07.11.2017 01:01 1,4 °C 1,5 °C 96 % 1020,6 hPa 0,0 mm 3,4 km/h (1 Bft) O-NO 71 ° 0 min 0,000 mm 0,0 UV-I 0 W/m² 0,8 °C 1,4 °C 4,8 km/h (1 Bft)
07.11.2017 01:02 1,4 °C 1,5 °C 96 % 1020,6 hPa 0,0 mm 2,3 km/h (1 Bft) O-NO 64 ° 0 min 0,000 mm 0,0 UV-I 0 W/m² 0,8 °C 1,4 °C 4,8 km/h (1 Bft)
07.11.2017 01:03 1,5 °C 1,5 °C 96 % 1020,6 hPa 0,0 mm 3,7 km/h (1 Bft) O-NO 65 ° 0 min 0,000 mm 0,0 UV-I 0 W/m² 0,9 °C 1,5 °C 4,8 km/h (1 Bft)
07.11.2017 01:04 1,5 °C 1,5 °C 96 % 1020,6 hPa 0,0 mm 1,9 km/h (1 Bft) O-NO 65 ° 0 min 0,000 mm 0,0 UV-I 0 W/m² 0,9 °C 1,5 °C 3,2 km/h (1 Bft)
07.11.2017 01:05 1,5 °C 1,5 °C 96 % 1020,6 hPa 0,0 mm 4,6 km/h (1 Bft) O-SO 111 ° 0 min 0,000 mm 0,0 UV-I 0 W/m² 0,9 °C 0,3 °C 6,4 km/h (2 Bft)
07.11.2017 01:06 1,4 °C 1,5 °C 96 % 1020,5 hPa 0,0 mm 2,9 km/h (1 Bft) O-SO 113 ° 0 min 0,000 mm 0,0 UV-I 0 W/m² 0,8 °C 1,4 °C 9,7 km/h (2 Bft)
07.11.2017 01:07 1,4 °C 1,4 °C 96 % 1020,6 hPa 0,0 mm 6,4 km/h (2 Bft) O-SO 112 ° 0 min 0,000 mm 0,0 UV-I 0 W/m² 0,8 °C -0,6 °C 6,4 km/h (2 Bft)
07.11.2017 01:08 1,4 °C 1,5 °C 96 % 1020,6 hPa 0,2 mm 1,6 km/h (1 Bft) O 90 ° 0 min 0,000 mm 0,0 UV-I 0 W/m² 0,8 °C 1,4 °C 4,8 km/h (1 Bft)
07.11.2017 01:09 1,4 °C 1,5 °C 96 % 1020,6 hPa 0,0 mm 1,6 km/h (1 Bft) O 90 ° 0 min 0,000 mm 0,0 UV-I 0 W/m² 0,8 °C 1,4 °C 3,2 km/h (1 Bft)
07.11.2017 01:10 1,5 °C 1,5 °C 96 % 1020,6 hPa 0,0 mm 1,6 km/h (1 Bft) O 90 ° 0 min 0,000 mm 0,0 UV-I 0 W/m² 0,9 °C 1,5 °C 3,2 km/h (1 Bft)
07.11.2017 01:11 1,4 °C 1,5 °C 96 % 1020,6 hPa 0,0 mm 4,8 km/h (1 Bft) O-NO 67 ° 0 min 0,000 mm 0,0 UV-I 0 W/m² 0,8 °C 0,1 °C 6,4 km/h (2 Bft)
07.11.2017 01:12 1,4 °C 1,5 °C 96 % 1020,6 hPa 0,0 mm 1,6 km/h (1 Bft) O 90 ° 0 min 0,000 mm 0,0 UV-I 0 W/m² 0,8 °C 1,4 °C 3,2 km/h (1 Bft)
07.11.2017 01:13 1,4 °C 1,5 °C 96 % 1020,5 hPa 0,0 mm 1,6 km/h (1 Bft) O 90 ° 0 min 0,000 mm 0,0 UV-I 0 W/m² 0,8 °C 1,4 °C 4,8 km/h (1 Bft)
07.11.2017 01:14 1,4 °C 1,5 °C 96 % 1020,5 hPa 0,0 mm 3,2 km/h (1 Bft) O 90 ° 0 min 0,000 mm 0,0 UV-I 0 W/m² 0,8 °C 1,4 °C 3,2 km/h (1 Bft)
07.11.2017 01:15 1,4 °C 1,5 °C 96 % 1020,5 hPa 0,0 mm 1,6 km/h (1 Bft) O 90 ° 0 min 0,000 mm 0,0 UV-I 0 W/m² 0,8 °C 1,4 °C 4,8 km/h (1 Bft)
07.11.2017 01:16 1,5 °C 1,5 °C 96 % 1020,5 hPa 0,0 mm 6,4 km/h (2 Bft) O-NO 67 ° 0 min 0,000 mm 0,0 UV-I 0 W/m² 0,9 °C -0,4 °C 11,3 km/h (2 Bft)
07.11.2017 01:17 1,5 °C 1,5 °C 96 % 1020,5 hPa 0,0 mm 4,8 km/h (1 Bft) O-SO 112 ° 0 min 0,000 mm 0,0 UV-I 0 W/m² 0,9 °C 0,2 °C 11,3 km/h (2 Bft)
07.11.2017 01:18 1,4 °C 1,5 °C 96 % 1020,6 hPa 0,0 mm 3,2 km/h (1 Bft) O-NO 70 ° 0 min 0,000 mm 0,0 UV-I 0 W/m² 0,8 °C 1,4 °C 3,2 km/h (1 Bft)
07.11.2017 01:19 1,4 °C 1,5 °C 96 % 1020,5 hPa 0,0 mm 4,0 km/h (1 Bft) O-NO 69 ° 0 min 0,000 mm 0,0 UV-I 0 W/m² 0,8 °C 1,4 °C 4,8 km/h (1 Bft)
07.11.2017 01:20 1,4 °C 1,5 °C 96 % 1020,6 hPa 0,0 mm 3,4 km/h (1 Bft) O-NO 58 ° 0 min 0,000 mm 0,0 UV-I 0 W/m² 0,8 °C 1,4 °C 6,4 km/h (2 Bft)
07.11.2017 01:21 1,5 °C 1,5 °C 96 % 1020,5 hPa 0,0 mm 1,2 km/h (1 Bft) O-NO 58 ° 0 min 0,000 mm 0,0 UV-I 0 W/m² 0,9 °C 1,5 °C 3,2 km/h (1 Bft)
07.11.2017 01:22 1,4 °C 1,5 °C 96 % 1020,5 hPa 0,0 mm 2,9 km/h (1 Bft) O 87 ° 0 min 0,000 mm 0,0 UV-I 0 W/m² 0,8 °C 1,4 °C 8,0 km/h (2 Bft)
07.11.2017 01:23 1,5 °C 1,5 °C 96 % 1020,5 hPa 0,0 mm 6,2 km/h (2 Bft) O 82 ° 0 min 0,000 mm 0,0 UV-I 0 W/m² 0,9 °C -0,4 °C 9,7 km/h (2 Bft)
07.11.2017 01:24 1,5 °C 1,5 °C 96 % 1020,5 hPa 0,0 mm 1,7 km/h (1 Bft) O-NO 67 ° 0 min 0,000 mm 0,0 UV-I 0 W/m² 0,9 °C 1,5 °C 3,2 km/h (1 Bft)
07.11.2017 01:25 1,5 °C 1,5 °C 96 % 1020,5 hPa 0,0 mm 4,2 km/h (1 Bft) O-NO 76 ° 0 min 0,000 mm 0,0 UV-I 0 W/m² 0,9 °C 1,5 °C 6,4 km/h (2 Bft)
07.11.2017 01:26 1,5 °C 1,5 °C 96 % 1020,4 hPa 0,0 mm 2,1 km/h (1 Bft) O 80 ° 0 min 0,000 mm 0,0 UV-I 0 W/m² 0,9 °C 1,5 °C 14,5 km/h (3 Bft)
07.11.2017 01:27 1,5 °C 1,5 °C 96 % 1020,4 hPa 0,0 mm 6,3 km/h (2 Bft) O 95 ° 0 min 0,000 mm 0,0 UV-I 0 W/m² 0,9 °C -0,4 °C 12,9 km/h (3 Bft)
07.11.2017 01:28 1,5 °C 1,5 °C 96 % 1020,4 hPa 0,0 mm 4,3 km/h (1 Bft) O-NO 63 ° 0 min 0,000 mm 0,0 UV-I 0 W/m² 0,9 °C 1,5 °C 6,4 km/h (2 Bft)
07.11.2017 01:29 1,5 °C 1,5 °C 96 % 1020,4 hPa 0,0 mm 5,2 km/h (1 Bft) O 80 ° 0 min 0,000 mm 0,0 UV-I 0 W/m² 0,9 °C 0,0 °C 11,3 km/h (2 Bft)
07.11.2017 01:30 1,5 °C 1,5 °C 96 % 1020,4 hPa 0,0 mm 6,5 km/h (2 Bft) O-NO 66 ° 0 min 0,000 mm 0,0 UV-I 0 W/m² 0,9 °C -0,5 °C 11,3 km/h (2 Bft)
07.11.2017 01:31 1,5 °C 1,5 °C 96 % 1020,4 hPa 0,0 mm 1,8 km/h (1 Bft) O-NO 66 ° 0 min 0,000 mm 0,0 UV-I 0 W/m² 0,9 °C 1,5 °C 3,2 km/h (1 Bft)
07.11.2017 01:32 1,5 °C 1,5 °C 96 % 1020,4 hPa 0,0 mm 5,4 km/h (1 Bft) O 81 ° 0 min 0,000 mm 0,0 UV-I 0 W/m² 0,9 °C -0,1 °C 9,7 km/h (2 Bft)
07.11.2017 01:33 1,5 °C 1,5 °C 96 % 1020,4 hPa 0,0 mm 4,2 km/h (1 Bft) O-NO 67 ° 0 min 0,000 mm 0,0 UV-I 0 W/m² 0,9 °C 1,5 °C 4,8 km/h (1 Bft)
07.11.2017 01:34 1,5 °C 1,5 °C 96 % 1020,3 hPa 0,0 mm 2,7 km/h (1 Bft) NO 55 ° 0 min 0,000 mm 0,0 UV-I 0 W/m² 0,9 °C 1,5 °C 6,4 km/h (2 Bft)
07.11.2017 01:35 1,5 °C 1,5 °C 96 % 1020,3 hPa 0,0 mm 0,1 km/h (0 Bft) NO 55 ° 0 min 0,000 mm 0,0 UV-I 0 W/m² 0,9 °C 1,5 °C 1,6 km/h (1 Bft)
07.11.2017 01:36 1,4 °C 1,5 °C 96 % 1020,3 hPa 0,0 mm 4,0 km/h (1 Bft) O-NO 64 ° 0 min 0,000 mm 0,0 UV-I 0 W/m² 0,8 °C 1,4 °C 8,0 km/h (2 Bft)
07.11.2017 01:37 1,5 °C 1,5 °C 96 % 1020,3 hPa 0,0 mm 6,6 km/h (2 Bft) NO 56 ° 0 min 0,000 mm 0,0 UV-I 0 W/m² 0,9 °C -0,5 °C 11,3 km/h (2 Bft)
07.11.2017 01:38 1,5 °C 1,5 °C 96 % 1020,3 hPa 0,0 mm 3,4 km/h (1 Bft) NO 54 ° 0 min 0,000 mm 0,0 UV-I 0 W/m² 0,9 °C 1,5 °C 6,4 km/h (2 Bft)
07.11.2017 01:39 1,5 °C 1,5 °C 96 % 1020,3 hPa 0,0 mm 2,5 km/h (1 Bft) NO 54 ° 0 min 0,000 mm 0,0 UV-I 0 W/m² 0,9 °C 1,5 °C 4,8 km/h (1 Bft)
07.11.2017 01:40 1,4 °C 1,5 °C 96 % 1020,3 hPa 0,0 mm 2,2 km/h (1 Bft) O-NO 67 ° 0 min 0,000 mm 0,0 UV-I 0 W/m² 0,8 °C 1,4 °C 4,8 km/h (1 Bft)
07.11.2017 01:41 1,5 °C 1,5 °C 96 % 1020,3 hPa 0,0 mm 4,7 km/h (1 Bft) O-NO 67 ° 0 min 0,000 mm 0,0 UV-I 0 W/m² 0,9 °C 0,2 °C 6,4 km/h (2 Bft)
07.11.2017 01:42 1,5 °C 1,5 °C 96 % 1020,3 hPa 0,0 mm 1,7 km/h (1 Bft) O-NO 67 ° 0 min 0,000 mm 0,0 UV-I 0 W/m² 0,9 °C 1,5 °C 3,2 km/h (1 Bft)
07.11.2017 01:43 1,5 °C 1,5 °C 96 % 1020,2 hPa 0,0 mm 2,4 km/h (1 Bft) NO 55 ° 0 min 0,000 mm 0,0 UV-I 0 W/m² 0,9 °C 1,5 °C 4,8 km/h (1 Bft)
07.11.2017 01:44 1,4 °C 1,5 °C 96 % 1020,3 hPa 0,0 mm 2,6 km/h (1 Bft) NO 55 ° 0 min 0,000 mm 0,0 UV-I 0 W/m² 0,8 °C 1,4 °C 6,4 km/h (2 Bft)
07.11.2017 01:45 1,5 °C 1,5 °C 96 % 1020,3 hPa 0,2 mm 1,7 km/h (1 Bft) NO 55 ° 0 min 0,000 mm 0,0 UV-I 0 W/m² 0,9 °C 1,5 °C 3,2 km/h (1 Bft)
07.11.2017 01:46 1,5 °C 1,5 °C 96 % 1020,3 hPa 0,0 mm 1,5 km/h (1 Bft) NO 55 ° 0 min 0,000 mm 0,0 UV-I 0 W/m² 0,9 °C 1,5 °C 3,2 km/h (1 Bft)
07.11.2017 01:47 1,5 °C 1,5 °C 96 % 1020,3 hPa 0,0 mm 1,1 km/h (1 Bft) NO 55 ° 0 min 0,000 mm 0,0 UV-I 0 W/m² 0,9 °C 1,5 °C 3,2 km/h (1 Bft)
07.11.2017 01:48 1,5 °C 1,5 °C 96 % 1020,3 hPa 0,0 mm 0,7 km/h (0 Bft) NO 55 ° 0 min 0,000 mm 0,0 UV-I 0 W/m² 0,9 °C 1,5 °C 1,6 km/h (1 Bft)
07.11.2017 01:49 1,5 °C 1,5 °C 96 % 1020,3 hPa 0,0 mm 0,4 km/h (0 Bft) NO 55 ° 0 min 0,000 mm 0,0 UV-I 0 W/m² 0,9 °C 1,5 °C 1,6 km/h (1 Bft)
07.11.2017 01:50 1,5 °C 1,5 °C 96 % 1020,3 hPa 0,0 mm 2,7 km/h (1 Bft) O-NO 73 ° 0 min 0,000 mm 0,0 UV-I 0 W/m² 0,9 °C 1,5 °C 4,8 km/h (1 Bft)
07.11.2017 01:51 1,5 °C 1,6 °C 96 % 1020,3 hPa 0,0 mm 5,7 km/h (1 Bft) O-NO 76 ° 0 min 0,000 mm 0,0 UV-I 0 W/m² 0,9 °C -0,2 °C 8,0 km/h (2 Bft)
07.11.2017 01:52 1,5 °C 1,5 °C 96 % 1020,2 hPa 0,0 mm 4,1 km/h (1 Bft) O-NO 59 ° 0 min 0,000 mm 0,0 UV-I 0 W/m² 0,9 °C 1,5 °C 6,4 km/h (2 Bft)
07.11.2017 01:53 1,5 °C 1,5 °C 96 % 1020,3 hPa 0,0 mm 0,5 km/h (0 Bft) O-NO 59 ° 0 min 0,000 mm 0,0 UV-I 0 W/m² 0,9 °C 1,5 °C 3,2 km/h (1 Bft)
07.11.2017 01:54 1,5 °C 1,5 °C 96 % 1020,3 hPa 0,0 mm 4,5 km/h (1 Bft) O-NO 78 ° 0 min 0,000 mm 0,0 UV-I 0 W/m² 0,9 °C 1,5 °C 8,0 km/h (2 Bft)
07.11.2017 01:55 1,5 °C 1,5 °C 96 % 1020,3 hPa 0,0 mm 3,3 km/h (1 Bft) O 79 ° 0 min 0,000 mm 0,0 UV-I 0 W/m² 0,9 °C 1,5 °C 6,4 km/h (2 Bft)
07.11.2017 01:56 1,5 °C 1,5 °C 96 % 1020,2 hPa 0,0 mm 4,9 km/h (1 Bft) S 169 ° 0 min 0,000 mm 0,0 UV-I 0 W/m² 0,9 °C 0,2 °C 11,3 km/h (2 Bft)
07.11.2017 01:57 1,4 °C 1,5 °C 96 % 1020,3 hPa 0,0 mm 5,6 km/h (1 Bft) O-NO 69 ° 0 min 0,000 mm 0,0 UV-I 0 W/m² 0,8 °C -0,3 °C 9,7 km/h (2 Bft)
07.11.2017 01:58 1,4 °C 1,5 °C 96 % 1020,2 hPa 0,0 mm 5,5 km/h (1 Bft) O-NO 70 ° 0 min 0,000 mm 0,0 UV-I 0 W/m² 0,8 °C -0,2 °C 8,0 km/h (2 Bft)
07.11.2017 01:59 1,5 °C 1,5 °C 96 % 1020,2 hPa 0,0 mm 3,8 km/h (1 Bft) O-NO 64 ° 0 min 0,000 mm 0,0 UV-I 0 W/m² 0,9 °C 1,5 °C 4,8 km/h (1 Bft)
07.11.2017 02:00 1,5 °C 1,5 °C 96 % 1020,2 hPa 0,0 mm 4,0 km/h (1 Bft) O-SO 113 ° 0 min 0,000 mm 0,0 UV-I 0 W/m² 0,9 °C 1,5 °C 6,4 km/h (2 Bft)
07.11.2017 02:01 1,5 °C 1,5 °C 96 % 1020,2 hPa 0,0 mm 4,1 km/h (1 Bft) O-NO 70 ° 0 min 0,000 mm 0,0 UV-I 0 W/m² 0,9 °C 1,5 °C 6,4 km/h (2 Bft)
07.11.2017 02:02 1,5 °C 1,5 °C 96 % 1020,2 hPa 0,0 mm 0,7 km/h (0 Bft) O-NO 70 ° 0 min 0,000 mm 0,0 UV-I 0 W/m² 0,9 °C 1,5 °C 3,2 km/h (1 Bft)
07.11.2017 02:03 1,4 °C 1,5 °C 96 % 1020,1 hPa 0,0 mm 1,1 km/h (1 Bft) O-NO 70 ° 0 min 0,000 mm 0,0 UV-I 0 W/m² 0,8 °C 1,4 °C 1,6 km/h (1 Bft)
07.11.2017 02:04 1,5 °C 1,5 °C 96 % 1020,1 hPa 0,0 mm 0,1 km/h (0 Bft) O-NO 70 ° 0 min 0,000 mm 0,0 UV-I 0 W/m² 0,9 °C 1,5 °C 1,6 km/h (1 Bft)
07.11.2017 02:05 1,4 °C 1,5 °C 96 % 1020,2 hPa 0,0 mm 0,0 km/h (0 Bft) O-NO 70 ° 0 min 0,000 mm 0,0 UV-I 0 W/m² 0,8 °C 1,4 °C 0,0 km/h (0 Bft)
07.11.2017 02:06 1,5 °C 1,5 °C 96 % 1020,1 hPa 0,0 mm 0,0 km/h (0 Bft) O-NO 70 ° 0 min 0,000 mm 0,0 UV-I 0 W/m² 0,9 °C 1,5 °C 0,0 km/h (0 Bft)
07.11.2017 02:07 1,4 °C 1,5 °C 96 % 1020,1 hPa 0,0 mm 3,4 km/h (1 Bft) O-NO 65 ° 0 min 0,000 mm 0,0 UV-I 0 W/m² 0,8 °C 1,4 °C 4,8 km/h (1 Bft)
07.11.2017 02:08 1,4 °C 1,5 °C 96 % 1020,1 hPa 0,0 mm 1,4 km/h (1 Bft) O-NO 61 ° 0 min 0,000 mm 0,0 UV-I 0 W/m² 0,8 °C 1,4 °C 3,2 km/h (1 Bft)
07.11.2017 02:09 1,4 °C 1,5 °C 96 % 1020,0 hPa 0,0 mm 3,4 km/h (1 Bft) O-NO 61 ° 0 min 0,000 mm 0,0 UV-I 0 W/m² 0,8 °C 1,4 °C 4,8 km/h (1 Bft)
07.11.2017 02:10 1,5 °C 1,5 °C 96 % 1020,0 hPa 0,0 mm 1,3 km/h (1 Bft) O-NO 61 ° 0 min 0,000 mm 0,0 UV-I 0 W/m² 0,9 °C 1,5 °C 3,2 km/h (1 Bft)
07.11.2017 02:11 1,5 °C 1,5 °C 96 % 1020,0 hPa 0,0 mm 2,1 km/h (1 Bft) O-NO 57 ° 0 min 0,000 mm 0,0 UV-I 0 W/m² 0,9 °C 1,5 °C 3,2 km/h (1 Bft)
07.11.2017 02:12 1,5 °C 1,5 °C 96 % 1020,0 hPa 0,0 mm 0,9 km/h (0 Bft) O-NO 57 ° 0 min 0,000 mm 0,0 UV-I 0 W/m² 0,9 °C 1,5 °C 4,8 km/h (1 Bft)
07.11.2017 02:13 1,4 °C 1,5 °C 96 % 1020,0 hPa 0,0 mm 2,3 km/h (1 Bft) O-NO 59 ° 0 min 0,000 mm 0,0 UV-I 0 W/m² 0,8 °C 1,4 °C 8,0 km/h (2 Bft)
07.11.2017 02:14 1,4 °C 1,4 °C 96 % 1020,0 hPa 0,0 mm 5,8 km/h (2 Bft) O-NO 69 ° 0 min 0,000 mm 0,0 UV-I 0 W/m² 0,8 °C -0,3 °C 9,7 km/h (2 Bft)
07.11.2017 02:15 1,4 °C 1,5 °C 96 % 1020,0 hPa 0,0 mm 4,4 km/h (1 Bft) O-NO 69 ° 0 min 0,000 mm 0,0 UV-I 0 W/m² 0,8 °C 1,4 °C 8,0 km/h (2 Bft)
07.11.2017 02:16 1,4 °C 1,5 °C 96 % 1020,0 hPa 0,0 mm 3,4 km/h (1 Bft) O-NO 74 ° 0 min 0,000 mm 0,0 UV-I 0 W/m² 0,8 °C 1,4 °C 4,8 km/h (1 Bft)
07.11.2017 02:17 1,4 °C 1,5 °C 96 % 1020,0 hPa 0,0 mm 2,7 km/h (1 Bft) S-SO 157 ° 0 min 0,000 mm 0,0 UV-I 0 W/m² 0,8 °C 1,4 °C 8,0 km/h (2 Bft)
07.11.2017 02:18 1,5 °C 1,5 °C 96 % 1020,0 hPa 0,0 mm 0,6 km/h (0 Bft) O-NO 77 ° 0 min 0,000 mm 0,0 UV-I 0 W/m² 0,9 °C 1,5 °C 3,2 km/h (1 Bft)
07.11.2017 02:19 1,5 °C 1,5 °C 96 % 1020,0 hPa 0,0 mm 5,2 km/h (1 Bft) O-SO 106 ° 0 min 0,000 mm 0,0 UV-I 0 W/m² 0,9 °C 0,0 °C 11,3 km/h (2 Bft)
07.11.2017 02:20 1,5 °C 1,5 °C 96 % 1019,9 hPa 0,0 mm 2,8 km/h (1 Bft) O 86 ° 0 min 0,000 mm 0,0 UV-I 0 W/m² 0,9 °C 1,5 °C 6,4 km/h (2 Bft)
07.11.2017 02:21 1,5 °C 1,5 °C 96 % 1019,9 hPa 0,0 mm 5,9 km/h (2 Bft) O-NO 76 ° 0 min 0,000 mm 0,0 UV-I 0 W/m² 0,9 °C -0,3 °C 9,7 km/h (2 Bft)
07.11.2017 02:22 1,4 °C 1,5 °C 96 % 1019,9 hPa 0,0 mm 3,6 km/h (1 Bft) O-NO 65 ° 0 min 0,000 mm 0,0 UV-I 0 W/m² 0,8 °C 1,4 °C 6,4 km/h (2 Bft)
07.11.2017 02:23 1,5 °C 1,5 °C 96 % 1019,9 hPa 0,0 mm 2,3 km/h (1 Bft) O 83 ° 0 min 0,000 mm 0,0 UV-I 0 W/m² 0,9 °C 1,5 °C 6,4 km/h (2 Bft)
07.11.2017 02:24 1,5 °C 1,5 °C 96 % 1019,9 hPa 0,0 mm 4,0 km/h (1 Bft) O-NO 58 ° 0 min 0,000 mm 0,0 UV-I 0 W/m² 0,9 °C 1,5 °C 6,4 km/h (2 Bft)
07.11.2017 02:25 1,4 °C 1,5 °C 96 % 1019,9 hPa 0,0 mm 2,4 km/h (1 Bft) SO 137 ° 0 min 0,000 mm 0,0 UV-I 0 W/m² 0,8 °C 1,4 °C 4,8 km/h (1 Bft)
07.11.2017 02:26 1,4 °C 1,5 °C 96 % 1019,9 hPa 0,0 mm 1,5 km/h (1 Bft) O 85 ° 0 min 0,000 mm 0,0 UV-I 0 W/m² 0,8 °C 1,4 °C 3,2 km/h (1 Bft)
07.11.2017 02:27 1,5 °C 1,5 °C 96 % 1019,9 hPa 0,0 mm 5,6 km/h (1 Bft) O-NO 69 ° 0 min 0,000 mm 0,0 UV-I 0 W/m² 0,9 °C -0,1 °C 8,0 km/h (2 Bft)
07.11.2017 02:28 1,5 °C 1,5 °C 96 % 1019,9 hPa 0,0 mm 3,5 km/h (1 Bft) O-NO 72 ° 0 min 0,000 mm 0,0 UV-I 0 W/m² 0,9 °C 1,5 °C 4,8 km/h (1 Bft)
07.11.2017 02:29 1,5 °C 1,5 °C 96 % 1019,9 hPa 0,2 mm 0,8 km/h (0 Bft) O-NO 62 ° 0 min 0,000 mm 0,0 UV-I 0 W/m² 0,9 °C 1,5 °C 3,2 km/h (1 Bft)
07.11.2017 02:30 1,5 °C 1,5 °C 96 % 1019,9 hPa 0,0 mm 3,6 km/h (1 Bft) NO 41 ° 0 min 0,000 mm 0,0 UV-I 0 W/m² 0,9 °C 1,5 °C 4,8 km/h (1 Bft)
07.11.2017 02:31 1,5 °C 1,6 °C 96 % 1019,9 hPa 0,0 mm 4,2 km/h (1 Bft) O 79 ° 0 min 0,000 mm 0,0 UV-I 0 W/m² 0,9 °C 1,5 °C 6,4 km/h (2 Bft)
07.11.2017 02:32 1,5 °C 1,6 °C 96 % 1019,8 hPa 0,0 mm 1,9 km/h (1 Bft) NO 49 ° 0 min 0,000 mm 0,0 UV-I 0 W/m² 0,9 °C 1,5 °C 6,4 km/h (2 Bft)
07.11.2017 02:33 1,5 °C 1,5 °C 96 % 1019,9 hPa 0,0 mm 3,9 km/h (1 Bft) O-NO 60 ° 0 min 0,000 mm 0,0 UV-I 0 W/m² 0,9 °C 1,5 °C 6,4 km/h (2 Bft)
07.11.2017 02:34 1,5 °C 1,5 °C 96 % 1019,9 hPa 0,0 mm 4,4 km/h (1 Bft) O 96 ° 0 min 0,000 mm 0,0 UV-I 0 W/m² 0,9 °C 1,5 °C 9,7 km/h (2 Bft)
07.11.2017 02:35 1,5 °C 1,5 °C 96 % 1019,8 hPa 0,0 mm 3,0 km/h (1 Bft) O 87 ° 0 min 0,000 mm 0,0 UV-I 0 W/m² 0,9 °C 1,5 °C 6,4 km/h (2 Bft)
07.11.2017 02:36 1,5 °C 1,6 °C 96 % 1019,9 hPa 0,0 mm 1,3 km/h (1 Bft) O 87 ° 0 min 0,000 mm 0,0 UV-I 0 W/m² 0,9 °C 1,5 °C 3,2 km/h (1 Bft)
07.11.2017 02:37 1,5 °C 1,5 °C 96 % 1019,8 hPa 0,0 mm 2,1 km/h (1 Bft) O 87 ° 0 min 0,000 mm 0,0 UV-I 0 W/m² 0,9 °C 1,5 °C 4,8 km/h (1 Bft)
07.11.2017 02:38 1,5 °C 1,5 °C 96 % 1019,8 hPa 0,0 mm 0,5 km/h (0 Bft) O 87 ° 0 min 0,000 mm 0,0 UV-I 0 W/m² 0,9 °C 1,5 °C 1,6 km/h (1 Bft)
07.11.2017 02:39 1,5 °C 1,5 °C 96 % 1019,8 hPa 0,0 mm 2,5 km/h (1 Bft) O 80 ° 0 min 0,000 mm 0,0 UV-I 0 W/m² 0,9 °C 1,5 °C 3,2 km/h (1 Bft)
07.11.2017 02:40 1,5 °C 1,5 °C 96 % 1019,8 hPa 0,0 mm 1,9 km/h (1 Bft) NO 35 ° 0 min 0,000 mm 0,0 UV-I 0 W/m² 0,9 °C 1,5 °C 6,4 km/h (2 Bft)
07.11.2017 02:41 1,5 °C 1,5 °C 96 % 1019,8 hPa 0,0 mm 3,0 km/h (1 Bft) O-NO 71 ° 0 min 0,000 mm 0,0 UV-I 0 W/m² 0,9 °C 1,5 °C 4,8 km/h (1 Bft)
07.11.2017 02:42 1,5 °C 1,5 °C 96 % 1019,8 hPa 0,0 mm 2,1 km/h (1 Bft) O 91 ° 0 min 0,000 mm 0,0 UV-I 0 W/m² 0,9 °C 1,5 °C 4,8 km/h (1 Bft)
07.11.2017 02:43 1,5 °C 1,6 °C 96 % 1019,8 hPa 0,0 mm 6,0 km/h (2 Bft) O-SO 106 ° 0 min 0,000 mm 0,0 UV-I 0 W/m² 0,9 °C -0,3 °C 11,3 km/h (2 Bft)
07.11.2017 02:44 1,5 °C 1,6 °C 96 % 1019,7 hPa 0,0 mm 4,4 km/h (1 Bft) O 101 ° 0 min 0,000 mm 0,0 UV-I 0 W/m² 0,9 °C 1,5 °C 9,7 km/h (2 Bft)
07.11.2017 02:45 1,5 °C 1,6 °C 96 % 1019,7 hPa 0,0 mm 2,3 km/h (1 Bft) O-SO 117 ° 0 min 0,000 mm 0,0 UV-I 0 W/m² 0,9 °C 1,5 °C 4,8 km/h (1 Bft)
07.11.2017 02:46 1,5 °C 1,5 °C 96 % 1019,7 hPa 0,0 mm 1,4 km/h (1 Bft) O-SO 111 ° 0 min 0,000 mm 0,0 UV-I 0 W/m² 0,9 °C 1,5 °C 3,2 km/h (1 Bft)
07.11.2017 02:47 1,6 °C 1,6 °C 96 % 1019,6 hPa 0,0 mm 3,7 km/h (1 Bft) O 84 ° 0 min 0,000 mm 0,0 UV-I 0 W/m² 1,0 °C 1,6 °C 6,4 km/h (2 Bft)
07.11.2017 02:48 1,5 °C 1,6 °C 96 % 1019,6 hPa 0,0 mm 4,6 km/h (1 Bft) O-NO 67 ° 0 min 0,000 mm 0,0 UV-I 0 W/m² 0,9 °C 0,3 °C 8,0 km/h (2 Bft)
07.11.2017 02:49 1,5 °C 1,6 °C 96 % 1019,6 hPa 0,0 mm 2,7 km/h (1 Bft) O-NO 73 ° 0 min 0,000 mm 0,0 UV-I 0 W/m² 0,9 °C 1,5 °C 4,8 km/h (1 Bft)
07.11.2017 02:50 1,5 °C 1,5 °C 96 % 1019,6 hPa 0,0 mm 3,3 km/h (1 Bft) O-NO 61 ° 0 min 0,000 mm 0,0 UV-I 0 W/m² 0,9 °C 1,5 °C 4,8 km/h (1 Bft)
07.11.2017 02:51 1,6 °C 1,6 °C 96 % 1019,6 hPa 0,0 mm 3,2 km/h (1 Bft) O-NO 61 ° 0 min 0,000 mm 0,0 UV-I 0 W/m² 1,0 °C 1,6 °C 4,8 km/h (1 Bft)
07.11.2017 02:52 1,6 °C 1,6 °C 96 % 1019,6 hPa 0,0 mm 3,2 km/h (1 Bft) O-NO 61 ° 0 min 0,000 mm 0,0 UV-I 0 W/m² 1,0 °C 1,6 °C 4,8 km/h (1 Bft)
07.11.2017 02:53 1,6 °C 1,6 °C 96 % 1019,6 hPa 0,0 mm 4,4 km/h (1 Bft) O 92 ° 0 min 0,000 mm 0,0 UV-I 0 W/m² 1,0 °C 1,6 °C 9,7 km/h (2 Bft)
07.11.2017 02:54 1,6 °C 1,6 °C 96 % 1019,6 hPa 0,0 mm 5,1 km/h (1 Bft) O 81 ° 0 min 0,000 mm 0,0 UV-I 0 W/m² 1,0 °C 0,2 °C 9,7 km/h (2 Bft)
07.11.2017 02:55 1,6 °C 1,6 °C 96 % 1019,6 hPa 0,0 mm 4,6 km/h (1 Bft) O-NO 63 ° 0 min 0,000 mm 0,0 UV-I 0 W/m² 1,0 °C 0,4 °C 8,0 km/h (2 Bft)
07.11.2017 02:56 1,6 °C 1,6 °C 96 % 1019,6 hPa 0,0 mm 4,2 km/h (1 Bft) NO 37 ° 0 min 0,000 mm 0,0 UV-I 0 W/m² 1,0 °C 1,6 °C 9,7 km/h (2 Bft)
07.11.2017 02:57 1,6 °C 1,6 °C 96 % 1019,6 hPa 0,0 mm 1,3 km/h (1 Bft) NO 44 ° 0 min 0,000 mm 0,0 UV-I 0 W/m² 1,0 °C 1,6 °C 3,2 km/h (1 Bft)
07.11.2017 02:58 1,6 °C 1,6 °C 96 % 1019,6 hPa 0,0 mm 2,1 km/h (1 Bft) O 83 ° 0 min 0,000 mm 0,0 UV-I 0 W/m² 1,0 °C 1,6 °C 4,8 km/h (1 Bft)
07.11.2017 02:59 1,6 °C 1,6 °C 96 % 1019,6 hPa 0,0 mm 5,2 km/h (1 Bft) O-NO 61 ° 0 min 0,000 mm 0,0 UV-I 0 W/m² 1,0 °C 0,1 °C 8,0 km/h (2 Bft)
07.11.2017 03:00 1,6 °C 1,6 °C 96 % 1019,6 hPa 0,0 mm 7,6 km/h (2 Bft) SO 142 ° 0 min 0,000 mm 0,0 UV-I 0 W/m² 1,0 °C -0,7 °C 11,3 km/h (2 Bft)
07.11.2017 03:01 1,6 °C 1,6 °C 96 % 1019,7 hPa 0,0 mm 3,6 km/h (1 Bft) O-NO 59 ° 0 min 0,000 mm 0,0 UV-I 0 W/m² 1,0 °C 1,6 °C 8,0 km/h (2 Bft)
07.11.2017 03:02 1,6 °C 1,6 °C 96 % 1019,6 hPa 0,0 mm 6,1 km/h (2 Bft) O-NO 57 ° 0 min 0,000 mm 0,0 UV-I 0 W/m² 1,0 °C -0,2 °C 9,7 km/h (2 Bft)
07.11.2017 03:03 1,6 °C 1,6 °C 96 % 1019,6 hPa 0,0 mm 3,8 km/h (1 Bft) O-NO 76 ° 0 min 0,000 mm 0,0 UV-I 0 W/m² 1,0 °C 1,6 °C 6,4 km/h (2 Bft)
07.11.2017 03:04 1,6 °C 1,6 °C 96 % 1019,6 hPa 0,0 mm 2,5 km/h (1 Bft) O 81 ° 0 min 0,000 mm 0,0 UV-I 0 W/m² 1,0 °C 1,6 °C 4,8 km/h (1 Bft)
07.11.2017 03:05 1,6 °C 1,6 °C 96 % 1019,6 hPa 0,0 mm 2,6 km/h (1 Bft) O-NO 62 ° 0 min 0,000 mm 0,0 UV-I 0 W/m² 1,0 °C 1,6 °C 4,8 km/h (1 Bft)
07.11.2017 03:06 1,6 °C 1,6 °C 96 % 1019,6 hPa 0,0 mm 1,2 km/h (1 Bft) O-NO 69 ° 0 min 0,000 mm 0,0 UV-I 0 W/m² 1,0 °C 1,6 °C 4,8 km/h (1 Bft)
07.11.2017 03:07 1,6 °C 1,6 °C 96 % 1019,6 hPa 0,0 mm 4,4 km/h (1 Bft) NO 48 ° 0 min 0,000 mm 0,0 UV-I 0 W/m² 1,0 °C 1,6 °C 6,4 km/h (2 Bft)
07.11.2017 03:08 1,6 °C 1,6 °C 96 % 1019,6 hPa 0,0 mm 4,2 km/h (1 Bft) O-NO 63 ° 0 min 0,000 mm 0,0 UV-I 0 W/m² 1,0 °C 1,6 °C 8,0 km/h (2 Bft)
07.11.2017 03:09 1,6 °C 1,6 °C 96 % 1019,6 hPa 0,0 mm 5,5 km/h (1 Bft) S-SO 165 ° 0 min 0,000 mm 0,0 UV-I 0 W/m² 1,0 °C 0,0 °C 9,7 km/h (2 Bft)
07.11.2017 03:10 1,6 °C 1,6 °C 96 % 1019,6 hPa 0,0 mm 3,5 km/h (1 Bft) O-NO 60 ° 0 min 0,000 mm 0,0 UV-I 0 W/m² 1,0 °C 1,6 °C 6,4 km/h (2 Bft)
07.11.2017 03:11 1,5 °C 1,6 °C 96 % 1019,6 hPa 0,0 mm 7,2 km/h (2 Bft) O 92 ° 0 min 0,000 mm 0,0 UV-I 0 W/m² 0,9 °C -0,7 °C 12,9 km/h (3 Bft)
07.11.2017 03:12 1,5 °C 1,6 °C 96 % 1019,5 hPa 0,0 mm 6,2 km/h (2 Bft) NO 34 ° 0 min 0,000 mm 0,0 UV-I 0 W/m² 0,9 °C -0,4 °C 9,7 km/h (2 Bft)
07.11.2017 03:13 1,6 °C 1,6 °C 96 % 1019,6 hPa 0,0 mm 5,6 km/h (1 Bft) O-NO 70 ° 0 min 0,000 mm 0,0 UV-I 0 W/m² 1,0 °C -0,0 °C 8,0 km/h (2 Bft)
07.11.2017 03:14 1,6 °C 1,6 °C 96 % 1019,6 hPa 0,0 mm 7,0 km/h (2 Bft) O 89 ° 0 min 0,000 mm 0,0 UV-I 0 W/m² 1,0 °C -0,5 °C 9,7 km/h (2 Bft)
07.11.2017 03:15 1,6 °C 1,6 °C 96 % 1019,5 hPa 0,0 mm 3,5 km/h (1 Bft) O 84 ° 0 min 0,000 mm 0,0 UV-I 0 W/m² 1,0 °C 1,6 °C 4,8 km/h (1 Bft)
07.11.2017 03:16 1,6 °C 1,6 °C 96 % 1019,5 hPa 0,0 mm 2,9 km/h (1 Bft) O-SO 103 ° 0 min 0,000 mm 0,0 UV-I 0 W/m² 1,0 °C 1,6 °C 8,0 km/h (2 Bft)
07.11.2017 03:17 1,6 °C 1,6 °C 96 % 1019,5 hPa 0,0 mm 3,3 km/h (1 Bft) O-NO 61 ° 0 min 0,000 mm 0,0 UV-I 0 W/m² 1,0 °C 1,6 °C 6,4 km/h (2 Bft)
07.11.2017 03:18 1,6 °C 1,6 °C 96 % 1019,5 hPa 0,0 mm 5,9 km/h (2 Bft) O-NO 77 ° 0 min 0,000 mm 0,0 UV-I 0 W/m² 1,0 °C -0,1 °C 9,7 km/h (2 Bft)
07.11.2017 03:19 1,6 °C 1,6 °C 96 % 1019,5 hPa 0,0 mm 6,5 km/h (2 Bft) O 82 ° 0 min 0,000 mm 0,0 UV-I 0 W/m² 1,0 °C -0,4 °C 8,0 km/h (2 Bft)
07.11.2017 03:20 1,6 °C 1,6 °C 96 % 1019,5 hPa 0,0 mm 4,6 km/h (1 Bft) O-NO 57 ° 0 min 0,000 mm 0,0 UV-I 0 W/m² 1,0 °C 0,4 °C 6,4 km/h (2 Bft)
07.11.2017 03:21 1,6 °C 1,6 °C 96 % 1019,5 hPa 0,0 mm 6,4 km/h (2 Bft) O-NO 74 ° 0 min 0,000 mm 0,0 UV-I 0 W/m² 1,0 °C -0,3 °C 8,0 km/h (2 Bft)
07.11.2017 03:22 1,6 °C 1,6 °C 96 % 1019,5 hPa 0,0 mm 5,2 km/h (1 Bft) O-NO 74 ° 0 min 0,000 mm 0,0 UV-I 0 W/m² 1,0 °C 0,1 °C 8,0 km/h (2 Bft)
07.11.2017 03:23 1,6 °C 1,6 °C 96 % 1019,4 hPa 0,0 mm 5,4 km/h (1 Bft) O-NO 76 ° 0 min 0,000 mm 0,0 UV-I 0 W/m² 1,0 °C 0,1 °C 8,0 km/h (2 Bft)
07.11.2017 03:24 1,6 °C 1,6 °C 96 % 1019,5 hPa 0,0 mm 3,4 km/h (1 Bft) O-NO 76 ° 0 min 0,000 mm 0,0 UV-I 0 W/m² 1,0 °C 1,6 °C 4,8 km/h (1 Bft)
07.11.2017 03:25 1,6 °C 1,6 °C 96 % 1019,4 hPa 0,0 mm 3,2 km/h (1 Bft) O 88 ° 0 min 0,000 mm 0,0 UV-I 0 W/m² 1,0 °C 1,6 °C 4,8 km/h (1 Bft)
07.11.2017 03:26 1,6 °C 1,6 °C 96 % 1019,4 hPa 0,0 mm 2,9 km/h (1 Bft) O 84 ° 0 min 0,000 mm 0,0 UV-I 0 W/m² 1,0 °C 1,6 °C 4,8 km/h (1 Bft)
07.11.2017 03:27 1,6 °C 1,6 °C 96 % 1019,4 hPa 0,0 mm 5,3 km/h (1 Bft) O-NO 71 ° 0 min 0,000 mm 0,0 UV-I 0 W/m² 1,0 °C 0,1 °C 9,7 km/h (2 Bft)
07.11.2017 03:28 1,6 °C 1,6 °C 96 % 1019,4 hPa 0,0 mm 3,7 km/h (1 Bft) O-NO 66 ° 0 min 0,000 mm 0,0 UV-I 0 W/m² 1,0 °C 1,6 °C 6,4 km/h (2 Bft)
07.11.2017 03:29 1,6 °C 1,6 °C 96 % 1019,3 hPa 0,0 mm 4,4 km/h (1 Bft) O 93 ° 0 min 0,000 mm 0,0 UV-I 0 W/m² 1,0 °C 1,6 °C 6,4 km/h (2 Bft)
07.11.2017 03:30 1,6 °C 1,6 °C 96 % 1019,3 hPa 0,0 mm 1,5 km/h (1 Bft) SO 128 ° 0 min 0,000 mm 0,0 UV-I 0 W/m² 1,0 °C 1,6 °C 4,8 km/h (1 Bft)
07.11.2017 03:31 1,6 °C 1,6 °C 96 % 1019,3 hPa 0,0 mm 5,3 km/h (1 Bft) O-NO 57 ° 0 min 0,000 mm 0,0 UV-I 0 W/m² 1,0 °C 0,1 °C 8,0 km/h (2 Bft)
07.11.2017 03:32 1,6 °C 1,6 °C 96 % 1019,3 hPa 0,0 mm 3,6 km/h (1 Bft) O 84 ° 0 min 0,000 mm 0,0 UV-I 0 W/m² 1,0 °C 1,6 °C 8,0 km/h (2 Bft)
07.11.2017 03:33 1,6 °C 1,6 °C 96 % 1019,3 hPa 0,0 mm 6,6 km/h (2 Bft) O 101 ° 0 min 0,000 mm 0,0 UV-I 0 W/m² 1,0 °C -0,4 °C 9,7 km/h (2 Bft)
07.11.2017 03:34 1,6 °C 1,6 °C 96 % 1019,4 hPa 0,0 mm 4,8 km/h (1 Bft) O-NO 59 ° 0 min 0,000 mm 0,0 UV-I 0 W/m² 1,0 °C 0,3 °C 8,0 km/h (2 Bft)
07.11.2017 03:35 1,6 °C 1,6 °C 96 % 1019,3 hPa 0,0 mm 6,5 km/h (2 Bft) O-NO 71 ° 0 min 0,000 mm 0,0 UV-I 0 W/m² 1,0 °C -0,4 °C 11,3 km/h (2 Bft)
07.11.2017 03:36 1,6 °C 1,6 °C 96 % 1019,3 hPa 0,0 mm 6,6 km/h (2 Bft) O-NO 60 ° 0 min 0,000 mm 0,0 UV-I 0 W/m² 1,0 °C -0,4 °C 9,7 km/h (2 Bft)
07.11.2017 03:37 1,6 °C 1,6 °C 96 % 1019,3 hPa 0,2 mm 5,5 km/h (1 Bft) O-NO 71 ° 0 min 0,000 mm 0,0 UV-I 0 W/m² 1,0 °C 0,0 °C 9,7 km/h (2 Bft)
07.11.2017 03:38 1,6 °C 1,6 °C 96 % 1019,2 hPa 0,0 mm 6,0 km/h (2 Bft) O 85 ° 0 min 0,000 mm 0,0 UV-I 0 W/m² 1,0 °C -0,2 °C 11,3 km/h (2 Bft)
07.11.2017 03:39 1,6 °C 1,6 °C 96 % 1019,3 hPa 0,0 mm 4,6 km/h (1 Bft) O 99 ° 0 min 0,000 mm 0,0 UV-I 0 W/m² 1,0 °C 0,4 °C 8,0 km/h (2 Bft)
07.11.2017 03:40 1,6 °C 1,6 °C 96 % 1019,3 hPa 0,0 mm 4,2 km/h (1 Bft) O-NO 78 ° 0 min 0,000 mm 0,0 UV-I 0 W/m² 1,0 °C 1,6 °C 9,7 km/h (2 Bft)
07.11.2017 03:41 1,6 °C 1,6 °C 96 % 1019,3 hPa 0,0 mm 3,7 km/h (1 Bft) O-SO 114 ° 0 min 0,000 mm 0,0 UV-I 0 W/m² 1,0 °C 1,6 °C 4,8 km/h (1 Bft)
07.11.2017 03:42 1,6 °C 1,6 °C 96 % 1019,3 hPa 0,0 mm 1,2 km/h (1 Bft) O-SO 109 ° 0 min 0,000 mm 0,0 UV-I 0 W/m² 1,0 °C 1,6 °C 4,8 km/h (1 Bft)
07.11.2017 03:43 1,6 °C 1,6 °C 96 % 1019,3 hPa 0,0 mm 3,1 km/h (1 Bft) NO 53 ° 0 min 0,000 mm 0,0 UV-I 0 W/m² 1,0 °C 1,6 °C 6,4 km/h (2 Bft)
07.11.2017 03:44 1,6 °C 1,6 °C 96 % 1019,3 hPa 0,0 mm 3,8 km/h (1 Bft) NO 51 ° 0 min 0,000 mm 0,0 UV-I 0 W/m² 1,0 °C 1,6 °C 6,4 km/h (2 Bft)
07.11.2017 03:45 1,6 °C 1,6 °C 96 % 1019,3 hPa 0,0 mm 4,8 km/h (1 Bft) O-NO 68 ° 0 min 0,000 mm 0,0 UV-I 0 W/m² 1,0 °C 0,3 °C 6,4 km/h (2 Bft)
07.11.2017 03:46 1,6 °C 1,6 °C 96 % 1019,3 hPa 0,0 mm 3,4 km/h (1 Bft) NO 50 ° 0 min 0,000 mm 0,0 UV-I 0 W/m² 1,0 °C 1,6 °C 4,8 km/h (1 Bft)
07.11.2017 03:47 1,6 °C 1,6 °C 96 % 1019,3 hPa 0,0 mm 4,2 km/h (1 Bft) O 87 ° 0 min 0,000 mm 0,0 UV-I 0 W/m² 1,0 °C 1,6 °C 9,7 km/h (2 Bft)
07.11.2017 03:48 1,6 °C 1,6 °C 96 % 1019,3 hPa 0,0 mm 1,1 km/h (1 Bft) O 87 ° 0 min 0,000 mm 0,0 UV-I 0 W/m² 1,0 °C 1,6 °C 3,2 km/h (1 Bft)
07.11.2017 03:49 1,6 °C 1,6 °C 96 % 1019,3 hPa 0,0 mm 2,3 km/h (1 Bft) O 87 ° 0 min 0,000 mm 0,0 UV-I 0 W/m² 1,0 °C 1,6 °C 4,8 km/h (1 Bft)
07.11.2017 03:50 1,6 °C 1,6 °C 96 % 1019,3 hPa 0,0 mm 4,0 km/h (1 Bft) O-SO 111 ° 0 min 0,000 mm 0,0 UV-I 0 W/m² 1,0 °C 1,6 °C 6,4 km/h (2 Bft)
07.11.2017 03:51 1,6 °C 1,6 °C 96 % 1019,3 hPa 0,0 mm 0,6 km/h (0 Bft) O-SO 111 ° 0 min 0,000 mm 0,0 UV-I 0 W/m² 1,0 °C 1,6 °C 3,2 km/h (1 Bft)
07.11.2017 03:52 1,6 °C 1,6 °C 96 % 1019,3 hPa 0,0 mm 3,0 km/h (1 Bft) NO 51 ° 0 min 0,000 mm 0,0 UV-I 0 W/m² 1,0 °C 1,6 °C 9,7 km/h (2 Bft)
07.11.2017 03:53 1,6 °C 1,6 °C 96 % 1019,3 hPa 0,0 mm 5,3 km/h (1 Bft) O-NO 77 ° 0 min 0,000 mm 0,0 UV-I 0 W/m² 1,0 °C 0,1 °C 8,0 km/h (2 Bft)
07.11.2017 03:54 1,6 °C 1,6 °C 96 % 1019,2 hPa 0,0 mm 3,3 km/h (1 Bft) O-NO 76 ° 0 min 0,000 mm 0,0 UV-I 0 W/m² 1,0 °C 1,6 °C 4,8 km/h (1 Bft)
07.11.2017 03:55 1,6 °C 1,6 °C 96 % 1019,2 hPa 0,0 mm 1,0 km/h (0 Bft) NO 38 ° 0 min 0,000 mm 0,0 UV-I 0 W/m² 1,0 °C 1,6 °C 3,2 km/h (1 Bft)
07.11.2017 03:56 1,6 °C 1,6 °C 96 % 1019,2 hPa 0,0 mm 5,6 km/h (1 Bft) O 90 ° 0 min 0,000 mm 0,0 UV-I 0 W/m² 1,0 °C -0,0 °C 8,0 km/h (2 Bft)
07.11.2017 03:57 1,6 °C 1,6 °C 96 % 1019,2 hPa 0,0 mm 2,0 km/h (1 Bft) O-NO 61 ° 0 min 0,000 mm 0,0 UV-I 0 W/m² 1,0 °C 1,6 °C 4,8 km/h (1 Bft)
07.11.2017 03:58 1,6 °C 1,6 °C 96 % 1019,2 hPa 0,0 mm 4,9 km/h (1 Bft) O-NO 68 ° 0 min 0,000 mm 0,0 UV-I 0 W/m² 1,0 °C 0,3 °C 6,4 km/h (2 Bft)
07.11.2017 03:59 1,6 °C 1,6 °C 96 % 1019,2 hPa 0,0 mm 3,5 km/h (1 Bft) O 89 ° 0 min 0,000 mm 0,0 UV-I 0 W/m² 1,0 °C 1,6 °C 9,7 km/h (2 Bft)
07.11.2017 04:00 1,6 °C 1,6 °C 96 % 1019,2 hPa 0,0 mm 4,1 km/h (1 Bft) O 86 ° 0 min 0,000 mm 0,0 UV-I 0 W/m² 1,0 °C 1,6 °C 6,4 km/h (2 Bft)
07.11.2017 04:01 1,6 °C 1,6 °C 96 % 1019,1 hPa 0,0 mm 3,6 km/h (1 Bft) O-NO 71 ° 0 min 0,000 mm 0,0 UV-I 0 W/m² 1,0 °C 1,6 °C 4,8 km/h (1 Bft)
07.11.2017 04:02 1,6 °C 1,6 °C 96 % 1019,2 hPa 0,0 mm 4,5 km/h (1 Bft) O-NO 61 ° 0 min 0,000 mm 0,0 UV-I 0 W/m² 1,0 °C 1,6 °C 6,4 km/h (2 Bft)
07.11.2017 04:03 1,6 °C 1,6 °C 96 % 1019,1 hPa 0,0 mm 1,0 km/h (0 Bft) O-NO 61 ° 0 min 0,000 mm 0,0 UV-I 0 W/m² 1,0 °C 1,6 °C 1,6 km/h (1 Bft)
07.11.2017 04:04 1,6 °C 1,6 °C 96 % 1019,1 hPa 0,0 mm 2,4 km/h (1 Bft) O-NO 65 ° 0 min 0,000 mm 0,0 UV-I 0 W/m² 1,0 °C 1,6 °C 4,8 km/h (1 Bft)
07.11.2017 04:05 1,6 °C 1,6 °C 96 % 1019,1 hPa 0,0 mm 3,2 km/h (1 Bft) O-NO 64 ° 0 min 0,000 mm 0,0 UV-I 0 W/m² 1,0 °C 1,6 °C 6,4 km/h (2 Bft)
07.11.2017 04:06 1,6 °C 1,6 °C 96 % 1019,1 hPa 0,0 mm 2,1 km/h (1 Bft) O-NO 65 ° 0 min 0,000 mm 0,0 UV-I 0 W/m² 1,0 °C 1,6 °C 4,8 km/h (1 Bft)
07.11.2017 04:07 1,6 °C 1,6 °C 96 % 1019,1 hPa 0,0 mm 6,2 km/h (2 Bft) O 79 ° 0 min 0,000 mm 0,0 UV-I 0 W/m² 1,0 °C -0,3 °C 11,3 km/h (2 Bft)
07.11.2017 04:08 1,6 °C 1,6 °C 96 % 1019,1 hPa 0,0 mm 3,6 km/h (1 Bft) O-NO 72 ° 0 min 0,000 mm 0,0 UV-I 0 W/m² 1,0 °C 1,6 °C 8,0 km/h (2 Bft)
07.11.2017 04:09 1,6 °C 1,6 °C 96 % 1019,0 hPa 0,0 mm 4,6 km/h (1 Bft) O-NO 60 ° 0 min 0,000 mm 0,0 UV-I 0 W/m² 1,0 °C 0,4 °C 8,0 km/h (2 Bft)
07.11.2017 04:10 1,6 °C 1,6 °C 96 % 1019,1 hPa 0,0 mm 3,2 km/h (1 Bft) O-NO 71 ° 0 min 0,000 mm 0,0 UV-I 0 W/m² 1,0 °C 1,6 °C 4,8 km/h (1 Bft)
07.11.2017 04:11 1,7 °C 1,7 °C 96 % 1019,1 hPa 0,0 mm 1,7 km/h (1 Bft) O-NO 71 ° 0 min 0,000 mm 0,0 UV-I 0 W/m² 1,1 °C 1,7 °C 4,8 km/h (1 Bft)
07.11.2017 04:12 1,6 °C 1,7 °C 96 % 1019,1 hPa 0,0 mm 1,2 km/h (1 Bft) O-NO 71 ° 0 min 0,000 mm 0,0 UV-I 0 W/m² 1,0 °C 1,6 °C 4,8 km/h (1 Bft)
07.11.2017 04:13 1,6 °C 1,7 °C 96 % 1019,0 hPa 0,0 mm 2,0 km/h (1 Bft) O-NO 61 ° 0 min 0,000 mm 0,0 UV-I 0 W/m² 1,0 °C 1,6 °C 3,2 km/h (1 Bft)
07.11.2017 04:14 1,7 °C 1,7 °C 96 % 1019,0 hPa 0,0 mm 2,5 km/h (1 Bft) O-NO 61 ° 0 min 0,000 mm 0,0 UV-I 0 W/m² 1,1 °C 1,7 °C 4,8 km/h (1 Bft)
07.11.2017 04:15 1,6 °C 1,7 °C 96 % 1019,0 hPa 0,0 mm 2,8 km/h (1 Bft) O-NO 78 ° 0 min 0,000 mm 0,0 UV-I 0 W/m² 1,0 °C 1,6 °C 6,4 km/h (2 Bft)
07.11.2017 04:16 1,7 °C 1,7 °C 96 % 1019,0 hPa 0,0 mm 4,4 km/h (1 Bft) O-NO 76 ° 0 min 0,000 mm 0,0 UV-I 0 W/m² 1,1 °C 1,7 °C 8,0 km/h (2 Bft)
07.11.2017 04:17 1,7 °C 1,7 °C 96 % 1018,9 hPa 0,0 mm 4,5 km/h (1 Bft) O 79 ° 0 min 0,000 mm 0,0 UV-I 0 W/m² 1,1 °C 1,7 °C 9,7 km/h (2 Bft)
07.11.2017 04:18 1,6 °C 1,7 °C 96 % 1019,0 hPa 0,0 mm 5,5 km/h (1 Bft) O 90 ° 0 min 0,000 mm 0,0 UV-I 0 W/m² 1,0 °C 0,0 °C 9,7 km/h (2 Bft)
07.11.2017 04:19 1,6 °C 1,6 °C 96 % 1019,0 hPa 0,0 mm 7,2 km/h (2 Bft) O-NO 74 ° 0 min 0,000 mm 0,0 UV-I 0 W/m² 1,0 °C -0,6 °C 12,9 km/h (3 Bft)
07.11.2017 04:20 1,6 °C 1,6 °C 96 % 1018,9 hPa 0,0 mm 5,8 km/h (2 Bft) O 81 ° 0 min 0,000 mm 0,0 UV-I 0 W/m² 1,0 °C -0,1 °C 11,3 km/h (2 Bft)
07.11.2017 04:21 1,6 °C 1,7 °C 96 % 1019,0 hPa 0,0 mm 3,8 km/h (1 Bft) O 90 ° 0 min 0,000 mm 0,0 UV-I 0 W/m² 1,0 °C 1,6 °C 4,8 km/h (1 Bft)
07.11.2017 04:22 1,7 °C 1,7 °C 96 % 1019,0 hPa 0,0 mm 2,7 km/h (1 Bft) O-NO 69 ° 0 min 0,000 mm 0,0 UV-I 0 W/m² 1,1 °C 1,7 °C 4,8 km/h (1 Bft)
07.11.2017 04:23 1,7 °C 1,7 °C 96 % 1018,9 hPa 0,0 mm 1,7 km/h (1 Bft) O-NO 69 ° 0 min 0,000 mm 0,0 UV-I 0 W/m² 1,1 °C 1,7 °C 3,2 km/h (1 Bft)
07.11.2017 04:24 1,6 °C 1,7 °C 96 % 1018,9 hPa 0,0 mm 4,8 km/h (1 Bft) O-NO 67 ° 0 min 0,000 mm 0,0 UV-I 0 W/m² 1,0 °C 0,3 °C 8,0 km/h (2 Bft)
07.11.2017 04:25 1,7 °C 1,7 °C 96 % 1018,9 hPa 0,0 mm 3,8 km/h (1 Bft) O-NO 63 ° 0 min 0,000 mm 0,0 UV-I 0 W/m² 1,1 °C 1,7 °C 6,4 km/h (2 Bft)
07.11.2017 04:26 1,6 °C 1,7 °C 96 % 1018,9 hPa 0,0 mm 1,1 km/h (1 Bft) O-NO 63 ° 0 min 0,000 mm 0,0 UV-I 0 W/m² 1,0 °C 1,6 °C 3,2 km/h (1 Bft)
07.11.2017 04:27 1,7 °C 1,7 °C 96 % 1018,9 hPa 0,0 mm 4,0 km/h (1 Bft) O-NO 69 ° 0 min 0,000 mm 0,0 UV-I 0 W/m² 1,1 °C 1,7 °C 6,4 km/h (2 Bft)
07.11.2017 04:28 1,7 °C 1,7 °C 96 % 1018,9 hPa 0,0 mm 1,2 km/h (1 Bft) O-NO 69 ° 0 min 0,000 mm 0,0 UV-I 0 W/m² 1,1 °C 1,7 °C 3,2 km/h (1 Bft)
07.11.2017 04:29 1,6 °C 1,7 °C 96 % 1018,9 hPa 0,0 mm 3,0 km/h (1 Bft) O-NO 71 ° 0 min 0,000 mm 0,0 UV-I 0 W/m² 1,0 °C 1,6 °C 4,8 km/h (1 Bft)
07.11.2017 04:30 1,7 °C 1,7 °C 96 % 1018,9 hPa 0,0 mm 2,4 km/h (1 Bft) O-NO 71 ° 0 min 0,000 mm 0,0 UV-I 0 W/m² 1,1 °C 1,7 °C 4,8 km/h (1 Bft)
07.11.2017 04:31 1,7 °C 1,7 °C 96 % 1018,9 hPa 0,0 mm 3,1 km/h (1 Bft) O-NO 61 ° 0 min 0,000 mm 0,0 UV-I 0 W/m² 1,1 °C 1,7 °C 4,8 km/h (1 Bft)
07.11.2017 04:32 1,7 °C 1,7 °C 96 % 1018,9 hPa 0,0 mm 4,9 km/h (1 Bft) O 80 ° 0 min 0,000 mm 0,0 UV-I 0 W/m² 1,1 °C 0,4 °C 8,0 km/h (2 Bft)
07.11.2017 04:33 1,7 °C 1,7 °C 96 % 1018,8 hPa 0,0 mm 4,4 km/h (1 Bft) O 80 ° 0 min 0,000 mm 0,0 UV-I 0 W/m² 1,1 °C 1,7 °C 11,3 km/h (2 Bft)
07.11.2017 04:34 1,7 °C 1,7 °C 96 % 1018,8 hPa 0,0 mm 3,4 km/h (1 Bft) O-NO 67 ° 0 min 0,000 mm 0,0 UV-I 0 W/m² 1,1 °C 1,7 °C 8,0 km/h (2 Bft)
07.11.2017 04:35 1,7 °C 1,7 °C 96 % 1018,8 hPa 0,0 mm 3,1 km/h (1 Bft) NO 50 ° 0 min 0,000 mm 0,0 UV-I 0 W/m² 1,1 °C 1,7 °C 4,8 km/h (1 Bft)
07.11.2017 04:36 1,7 °C 1,7 °C 96 % 1018,9 hPa 0,0 mm 2,8 km/h (1 Bft) O-NO 62 ° 0 min 0,000 mm 0,0 UV-I 0 W/m² 1,1 °C 1,7 °C 6,4 km/h (2 Bft)
07.11.2017 04:37 1,7 °C 1,7 °C 96 % 1018,9 hPa 0,0 mm 2,9 km/h (1 Bft) O-NO 78 ° 0 min 0,000 mm 0,0 UV-I 0 W/m² 1,1 °C 1,7 °C 6,4 km/h (2 Bft)
07.11.2017 04:38 1,7 °C 1,7 °C 96 % 1018,9 hPa 0,0 mm 3,6 km/h (1 Bft) O-NO 57 ° 0 min 0,000 mm 0,0 UV-I 0 W/m² 1,1 °C 1,7 °C 6,4 km/h (2 Bft)
07.11.2017 04:39 1,7 °C 1,7 °C 96 % 1018,8 hPa 0,0 mm 4,2 km/h (1 Bft) O 79 ° 0 min 0,000 mm 0,0 UV-I 0 W/m² 1,1 °C 1,7 °C 6,4 km/h (2 Bft)
07.11.2017 04:40 1,7 °C 1,7 °C 96 % 1018,8 hPa 0,0 mm 3,9 km/h (1 Bft) O-NO 68 ° 0 min 0,000 mm 0,0 UV-I 0 W/m² 1,1 °C 1,7 °C 6,4 km/h (2 Bft)
07.11.2017 04:41 1,6 °C 1,7 °C 96 % 1018,8 hPa 0,0 mm 3,2 km/h (1 Bft) O-NO 73 ° 0 min 0,000 mm 0,0 UV-I 0 W/m² 1,0 °C 1,6 °C 4,8 km/h (1 Bft)
07.11.2017 04:42 1,7 °C 1,7 °C 96 % 1018,8 hPa 0,0 mm 2,5 km/h (1 Bft) NO 53 ° 0 min 0,000 mm 0,0 UV-I 0 W/m² 1,1 °C 1,7 °C 4,8 km/h (1 Bft)
07.11.2017 04:43 1,7 °C 1,7 °C 96 % 1018,7 hPa 0,0 mm 5,4 km/h (1 Bft) NO 56 ° 0 min 0,000 mm 0,0 UV-I 0 W/m² 1,1 °C 0,2 °C 11,3 km/h (2 Bft)
07.11.2017 04:44 1,7 °C 1,7 °C 96 % 1018,7 hPa 0,0 mm 4,4 km/h (1 Bft) O-NO 63 ° 0 min 0,000 mm 0,0 UV-I 0 W/m² 1,1 °C 1,7 °C 6,4 km/h (2 Bft)
07.11.2017 04:45 1,7 °C 1,7 °C 96 % 1018,7 hPa 0,0 mm 3,0 km/h (1 Bft) O-NO 69 ° 0 min 0,000 mm 0,0 UV-I 0 W/m² 1,1 °C 1,7 °C 4,8 km/h (1 Bft)
07.11.2017 04:46 1,7 °C 1,7 °C 96 % 1018,6 hPa 0,0 mm 4,0 km/h (1 Bft) O 84 ° 0 min 0,000 mm 0,0 UV-I 0 W/m² 1,1 °C 1,7 °C 6,4 km/h (2 Bft)
07.11.2017 04:47 1,7 °C 1,7 °C 96 % 1018,6 hPa 0,2 mm 4,2 km/h (1 Bft) O-NO 63 ° 0 min 0,000 mm 0,0 UV-I 0 W/m² 1,1 °C 1,7 °C 4,8 km/h (1 Bft)
07.11.2017 04:48 1,7 °C 1,7 °C 96 % 1018,6 hPa 0,0 mm 4,2 km/h (1 Bft) O-NO 61 ° 0 min 0,000 mm 0,0 UV-I 0 W/m² 1,1 °C 1,7 °C 6,4 km/h (2 Bft)
07.11.2017 04:49 1,7 °C 1,7 °C 96 % 1018,6 hPa 0,0 mm 6,5 km/h (2 Bft) O-NO 57 ° 0 min 0,000 mm 0,0 UV-I 0 W/m² 1,1 °C -0,3 °C 11,3 km/h (2 Bft)
07.11.2017 04:50 1,7 °C 1,7 °C 96 % 1018,6 hPa 0,0 mm 3,8 km/h (1 Bft) NO 55 ° 0 min 0,000 mm 0,0 UV-I 0 W/m² 1,1 °C 1,7 °C 4,8 km/h (1 Bft)
07.11.2017 04:51 1,7 °C 1,7 °C 96 % 1018,6 hPa 0,0 mm 4,3 km/h (1 Bft) O-NO 72 ° 0 min 0,000 mm 0,0 UV-I 0 W/m² 1,1 °C 1,7 °C 8,0 km/h (2 Bft)
07.11.2017 04:52 1,7 °C 1,7 °C 96 % 1018,6 hPa 0,0 mm 1,9 km/h (1 Bft) O 80 ° 0 min 0,000 mm 0,0 UV-I 0 W/m² 1,1 °C 1,7 °C 4,8 km/h (1 Bft)
07.11.2017 04:53 1,7 °C 1,7 °C 96 % 1018,6 hPa 0,0 mm 5,4 km/h (1 Bft) NO 55 ° 0 min 0,000 mm 0,0 UV-I 0 W/m² 1,1 °C 0,2 °C 11,3 km/h (2 Bft)
07.11.2017 04:54 1,6 °C 1,7 °C 96 % 1018,5 hPa 0,0 mm 5,1 km/h (1 Bft) O 81 ° 0 min 0,000 mm 0,0 UV-I 0 W/m² 1,0 °C 0,2 °C 8,0 km/h (2 Bft)
07.11.2017 04:55 1,7 °C 1,7 °C 96 % 1018,5 hPa 0,0 mm 2,7 km/h (1 Bft) NO 47 ° 0 min 0,000 mm 0,0 UV-I 0 W/m² 1,1 °C 1,7 °C 4,8 km/h (1 Bft)
07.11.2017 04:56 1,7 °C 1,7 °C 96 % 1018,5 hPa 0,0 mm 5,3 km/h (1 Bft) O-NO 66 ° 0 min 0,000 mm 0,0 UV-I 0 W/m² 1,1 °C 0,2 °C 9,7 km/h (2 Bft)
07.11.2017 04:57 1,7 °C 1,7 °C 96 % 1018,6 hPa 0,0 mm 4,1 km/h (1 Bft) O-NO 71 ° 0 min 0,000 mm 0,0 UV-I 0 W/m² 1,1 °C 1,7 °C 6,4 km/h (2 Bft)
07.11.2017 04:58 1,7 °C 1,7 °C 96 % 1018,6 hPa 0,0 mm 5,8 km/h (2 Bft) NO 50 ° 0 min 0,000 mm 0,0 UV-I 0 W/m² 1,1 °C 0,0 °C 9,7 km/h (2 Bft)
07.11.2017 04:59 1,7 °C 1,7 °C 96 % 1018,6 hPa 0,0 mm 6,1 km/h (2 Bft) O 96 ° 0 min 0,000 mm 0,0 UV-I 0 W/m² 1,1 °C -0,1 °C 11,3 km/h (2 Bft)
07.11.2017 05:00 1,7 °C 1,7 °C 96 % 1018,6 hPa 0,0 mm 5,4 km/h (1 Bft) O-NO 71 ° 0 min 0,000 mm 0,0 UV-I 0 W/m² 1,1 °C 0,2 °C 9,7 km/h (2 Bft)
07.11.2017 05:01 1,6 °C 1,7 °C 96 % 1018,6 hPa 0,0 mm 5,6 km/h (1 Bft) O-NO 65 ° 0 min 0,000 mm 0,0 UV-I 0 W/m² 1,0 °C -0,0 °C 8,0 km/h (2 Bft)
07.11.2017 05:02 1,7 °C 1,7 °C 96 % 1018,6 hPa 0,0 mm 5,7 km/h (1 Bft) O-NO 63 ° 0 min 0,000 mm 0,0 UV-I 0 W/m² 1,1 °C 0,0 °C 8,0 km/h (2 Bft)
07.11.2017 05:03 1,7 °C 1,7 °C 96 % 1018,6 hPa 0,0 mm 6,8 km/h (2 Bft) O-NO 76 ° 0 min 0,000 mm 0,0 UV-I 0 W/m² 1,1 °C -0,4 °C 11,3 km/h (2 Bft)
07.11.2017 05:04 1,7 °C 1,7 °C 96 % 1018,6 hPa 0,0 mm 5,3 km/h (1 Bft) O-NO 60 ° 0 min 0,000 mm 0,0 UV-I 0 W/m² 1,1 °C 0,2 °C 9,7 km/h (2 Bft)
07.11.2017 05:05 1,7 °C 1,7 °C 96 % 1018,6 hPa 0,0 mm 5,1 km/h (1 Bft) O-NO 74 ° 0 min 0,000 mm 0,0 UV-I 0 W/m² 1,1 °C 0,3 °C 8,0 km/h (2 Bft)
07.11.2017 05:06 1,6 °C 1,7 °C 96 % 1018,6 hPa 0,0 mm 3,6 km/h (1 Bft) O 85 ° 0 min 0,000 mm 0,0 UV-I 0 W/m² 1,0 °C 1,6 °C 4,8 km/h (1 Bft)
07.11.2017 05:07 1,7 °C 1,7 °C 96 % 1018,5 hPa 0,0 mm 6,0 km/h (2 Bft) O-NO 61 ° 0 min 0,000 mm 0,0 UV-I 0 W/m² 1,1 °C -0,1 °C 8,0 km/h (2 Bft)
07.11.2017 05:08 1,7 °C 1,7 °C 96 % 1018,5 hPa 0,0 mm 4,7 km/h (1 Bft) SO 146 ° 0 min 0,000 mm 0,0 UV-I 0 W/m² 1,1 °C 0,5 °C 8,0 km/h (2 Bft)
07.11.2017 05:09 1,6 °C 1,7 °C 96 % 1018,5 hPa 0,0 mm 1,7 km/h (1 Bft) SO 136 ° 0 min 0,000 mm 0,0 UV-I 0 W/m² 1,0 °C 1,6 °C 3,2 km/h (1 Bft)
07.11.2017 05:10 1,6 °C 1,7 °C 96 % 1018,5 hPa 0,0 mm 3,8 km/h (1 Bft) O 92 ° 0 min 0,000 mm 0,0 UV-I 0 W/m² 1,0 °C 1,6 °C 6,4 km/h (2 Bft)
07.11.2017 05:11 1,6 °C 1,6 °C 96 % 1018,5 hPa 0,0 mm 6,3 km/h (2 Bft) NO 52 ° 0 min 0,000 mm 0,0 UV-I 0 W/m² 1,0 °C -0,3 °C 11,3 km/h (2 Bft)
07.11.2017 05:12 1,6 °C 1,7 °C 96 % 1018,5 hPa 0,0 mm 8,0 km/h (2 Bft) O-NO 77 ° 0 min 0,000 mm 0,0 UV-I 0 W/m² 1,0 °C -0,9 °C 12,9 km/h (3 Bft)
07.11.2017 05:13 1,7 °C 1,7 °C 96 % 1018,5 hPa 0,0 mm 6,0 km/h (2 Bft) O-NO 76 ° 0 min 0,000 mm 0,0 UV-I 0 W/m² 1,1 °C -0,1 °C 8,0 km/h (2 Bft)
07.11.2017 05:14 1,6 °C 1,7 °C 96 % 1018,5 hPa 0,0 mm 3,5 km/h (1 Bft) O 86 ° 0 min 0,000 mm 0,0 UV-I 0 W/m² 1,0 °C 1,6 °C 6,4 km/h (2 Bft)
07.11.2017 05:15 1,6 °C 1,6 °C 96 % 1018,5 hPa 0,0 mm 2,9 km/h (1 Bft) O 84 ° 0 min 0,000 mm 0,0 UV-I 0 W/m² 1,0 °C 1,6 °C 4,8 km/h (1 Bft)
07.11.2017 05:16 1,7 °C 1,7 °C 96 % 1018,5 hPa 0,0 mm 2,9 km/h (1 Bft) O-NO 74 ° 0 min 0,000 mm 0,0 UV-I 0 W/m² 1,1 °C 1,7 °C 4,8 km/h (1 Bft)
07.11.2017 05:17 1,6 °C 1,7 °C 96 % 1018,5 hPa 0,0 mm 5,6 km/h (1 Bft) O 89 ° 0 min 0,000 mm 0,0 UV-I 0 W/m² 1,0 °C -0,0 °C 9,7 km/h (2 Bft)
07.11.2017 05:18 1,6 °C 1,6 °C 96 % 1018,5 hPa 0,0 mm 1,7 km/h (1 Bft) O 91 ° 0 min 0,000 mm 0,0 UV-I 0 W/m² 1,0 °C 1,6 °C 4,8 km/h (1 Bft)
07.11.2017 05:19 1,7 °C 1,7 °C 96 % 1018,5 hPa 0,0 mm 2,1 km/h (1 Bft) O-NO 71 ° 0 min 0,000 mm 0,0 UV-I 0 W/m² 1,1 °C 1,7 °C 6,4 km/h (2 Bft)
07.11.2017 05:20 1,6 °C 1,7 °C 96 % 1018,5 hPa 0,0 mm 3,4 km/h (1 Bft) O 88 ° 0 min 0,000 mm 0,0 UV-I 0 W/m² 1,0 °C 1,6 °C 4,8 km/h (1 Bft)
07.11.2017 05:21 1,6 °C 1,6 °C 96 % 1018,4 hPa 0,0 mm 3,4 km/h (1 Bft) O 83 ° 0 min 0,000 mm 0,0 UV-I 0 W/m² 1,0 °C 1,6 °C 4,8 km/h (1 Bft)
07.11.2017 05:22 1,6 °C 1,6 °C 96 % 1018,5 hPa 0,0 mm 2,1 km/h (1 Bft) O-NO 76 ° 0 min 0,000 mm 0,0 UV-I 0 W/m² 1,0 °C 1,6 °C 3,2 km/h (1 Bft)
07.11.2017 05:23 1,7 °C 1,7 °C 96 % 1018,5 hPa 0,0 mm 4,2 km/h (1 Bft) O 81 ° 0 min 0,000 mm 0,0 UV-I 0 W/m² 1,1 °C 1,7 °C 4,8 km/h (1 Bft)
07.11.2017 05:24 1,6 °C 1,7 °C 96 % 1018,5 hPa 0,0 mm 5,5 km/h (1 Bft) O-NO 69 ° 0 min 0,000 mm 0,0 UV-I 0 W/m² 1,0 °C 0,0 °C 11,3 km/h (2 Bft)
07.11.2017 05:25 1,6 °C 1,6 °C 96 % 1018,4 hPa 0,0 mm 4,9 km/h (1 Bft) O-NO 73 ° 0 min 0,000 mm 0,0 UV-I 0 W/m² 1,0 °C 0,3 °C 8,0 km/h (2 Bft)
07.11.2017 05:26 1,6 °C 1,7 °C 96 % 1018,5 hPa 0,0 mm 6,0 km/h (2 Bft) O-NO 74 ° 0 min 0,000 mm 0,0 UV-I 0 W/m² 1,0 °C -0,2 °C 9,7 km/h (2 Bft)
07.11.2017 05:27 1,6 °C 1,6 °C 96 % 1018,4 hPa 0,0 mm 4,4 km/h (1 Bft) O-NO 62 ° 0 min 0,000 mm 0,0 UV-I 0 W/m² 1,0 °C 1,6 °C 9,7 km/h (2 Bft)
07.11.2017 05:28 1,6 °C 1,6 °C 96 % 1018,4 hPa 0,0 mm 7,2 km/h (2 Bft) O-NO 73 ° 0 min 0,000 mm 0,0 UV-I 0 W/m² 1,0 °C -0,6 °C 12,9 km/h (3 Bft)
07.11.2017 05:29 1,6 °C 1,7 °C 96 % 1018,4 hPa 0,0 mm 5,0 km/h (1 Bft) O 82 ° 0 min 0,000 mm 0,0 UV-I 0 W/m² 1,0 °C 0,2 °C 8,0 km/h (2 Bft)
07.11.2017 05:30 1,6 °C 1,6 °C 96 % 1018,4 hPa 0,0 mm 3,6 km/h (1 Bft) O-NO 67 ° 0 min 0,000 mm 0,0 UV-I 0 W/m² 1,0 °C 1,6 °C 6,4 km/h (2 Bft)
07.11.2017 05:31 1,6 °C 1,6 °C 96 % 1018,4 hPa 0,0 mm 3,3 km/h (1 Bft) NO 44 ° 0 min 0,000 mm 0,0 UV-I 0 W/m² 1,0 °C 1,6 °C 6,4 km/h (2 Bft)
07.11.2017 05:32 1,6 °C 1,7 °C 96 % 1018,4 hPa 0,0 mm 4,7 km/h (1 Bft) S-SO 162 ° 0 min 0,000 mm 0,0 UV-I 0 W/m² 1,0 °C 0,4 °C 8,0 km/h (2 Bft)
07.11.2017 05:33 1,6 °C 1,6 °C 96 % 1018,4 hPa 0,0 mm 4,8 km/h (1 Bft) O-SO 103 ° 0 min 0,000 mm 0,0 UV-I 0 W/m² 1,0 °C 0,3 °C 11,3 km/h (2 Bft)
07.11.2017 05:34 1,6 °C 1,6 °C 96 % 1018,4 hPa 0,0 mm 4,7 km/h (1 Bft) NO 51 ° 0 min 0,000 mm 0,0 UV-I 0 W/m² 1,0 °C 0,4 °C 8,0 km/h (2 Bft)
07.11.2017 05:35 1,6 °C 1,6 °C 96 % 1018,4 hPa 0,0 mm 1,4 km/h (1 Bft) NO 51 ° 0 min 0,000 mm 0,0 UV-I 0 W/m² 1,0 °C 1,6 °C 3,2 km/h (1 Bft)
07.11.2017 05:36 1,6 °C 1,6 °C 96 % 1018,4 hPa 0,0 mm 2,2 km/h (1 Bft) NO 37 ° 0 min 0,000 mm 0,0 UV-I 0 W/m² 1,0 °C 1,6 °C 4,8 km/h (1 Bft)
07.11.2017 05:37 1,6 °C 1,7 °C 96 % 1018,5 hPa 0,0 mm 4,0 km/h (1 Bft) O-NO 65 ° 0 min 0,000 mm 0,0 UV-I 0 W/m² 1,0 °C 1,6 °C 6,4 km/h (2 Bft)
07.11.2017 05:38 1,7 °C 1,7 °C 96 % 1018,5 hPa 0,0 mm 3,2 km/h (1 Bft) O-NO 65 ° 0 min 0,000 mm 0,0 UV-I 0 W/m² 1,1 °C 1,7 °C 4,8 km/h (1 Bft)
07.11.2017 05:39 1,6 °C 1,7 °C 96 % 1018,5 hPa 0,0 mm 3,0 km/h (1 Bft) O-NO 67 ° 0 min 0,000 mm 0,0 UV-I 0 W/m² 1,0 °C 1,6 °C 4,8 km/h (1 Bft)
07.11.2017 05:40 1,6 °C 1,7 °C 96 % 1018,4 hPa 0,0 mm 4,8 km/h (1 Bft) O 87 ° 0 min 0,000 mm 0,0 UV-I 0 W/m² 1,0 °C 0,3 °C 6,4 km/h (2 Bft)
07.11.2017 05:41 1,7 °C 1,7 °C 96 % 1018,4 hPa 0,0 mm 4,8 km/h (1 Bft) O 79 ° 0 min 0,000 mm 0,0 UV-I 0 W/m² 1,1 °C 0,4 °C 8,0 km/h (2 Bft)
07.11.2017 05:42 1,6 °C 1,7 °C 96 % 1018,4 hPa 0,0 mm 2,3 km/h (1 Bft) O 79 ° 0 min 0,000 mm 0,0 UV-I 0 W/m² 1,0 °C 1,6 °C 3,2 km/h (1 Bft)
07.11.2017 05:43 1,7 °C 1,7 °C 96 % 1018,4 hPa 0,0 mm 1,8 km/h (1 Bft) O 79 ° 0 min 0,000 mm 0,0 UV-I 0 W/m² 1,1 °C 1,7 °C 3,2 km/h (1 Bft)
07.11.2017 05:44 1,7 °C 1,7 °C 96 % 1018,4 hPa 0,0 mm 0,1 km/h (0 Bft) O 79 ° 0 min 0,000 mm 0,0 UV-I 0 W/m² 1,1 °C 1,7 °C 1,6 km/h (1 Bft)
07.11.2017 05:45 1,6 °C 1,7 °C 96 % 1018,4 hPa 0,0 mm 1,9 km/h (1 Bft) O 79 ° 0 min 0,000 mm 0,0 UV-I 0 W/m² 1,0 °C 1,6 °C 3,2 km/h (1 Bft)
07.11.2017 05:46 1,6 °C 1,7 °C 96 % 1018,4 hPa 0,0 mm 0,9 km/h (0 Bft) O 79 ° 0 min 0,000 mm 0,0 UV-I 0 W/m² 1,0 °C 1,6 °C 3,2 km/h (1 Bft)
07.11.2017 05:47 1,6 °C 1,7 °C 96 % 1018,3 hPa 0,2 mm 1,2 km/h (1 Bft) O 79 ° 0 min 0,000 mm 0,0 UV-I 0 W/m² 1,0 °C 1,6 °C 3,2 km/h (1 Bft)
07.11.2017 05:48 1,7 °C 1,7 °C 96 % 1018,3 hPa 0,0 mm 2,3 km/h (1 Bft) O-NO 69 ° 0 min 0,000 mm 0,0 UV-I 0 W/m² 1,1 °C 1,7 °C 4,8 km/h (1 Bft)
07.11.2017 05:49 1,7 °C 1,7 °C 96 % 1018,3 hPa 0,0 mm 1,6 km/h (1 Bft) O-NO 68 ° 0 min 0,000 mm 0,0 UV-I 0 W/m² 1,1 °C 1,7 °C 4,8 km/h (1 Bft)
07.11.2017 05:50 1,7 °C 1,7 °C 96 % 1018,2 hPa 0,0 mm 3,4 km/h (1 Bft) O-SO 103 ° 0 min 0,000 mm 0,0 UV-I 0 W/m² 1,1 °C 1,7 °C 9,7 km/h (2 Bft)
07.11.2017 05:51 1,7 °C 1,7 °C 96 % 1018,3 hPa 0,0 mm 3,8 km/h (1 Bft) O-NO 68 ° 0 min 0,000 mm 0,0 UV-I 0 W/m² 1,1 °C 1,7 °C 9,7 km/h (2 Bft)
07.11.2017 05:52 1,7 °C 1,7 °C 96 % 1018,3 hPa 0,0 mm 1,1 km/h (1 Bft) O-NO 68 ° 0 min 0,000 mm 0,0 UV-I 0 W/m² 1,1 °C 1,7 °C 3,2 km/h (1 Bft)
07.11.2017 05:53 1,7 °C 1,7 °C 96 % 1018,3 hPa 0,0 mm 1,9 km/h (1 Bft) O-NO 68 ° 0 min 0,000 mm 0,0 UV-I 0 W/m² 1,1 °C 1,7 °C 3,2 km/h (1 Bft)
07.11.2017 05:54 1,7 °C 1,7 °C 96 % 1018,3 hPa 0,0 mm 1,7 km/h (1 Bft) O-NO 68 ° 0 min 0,000 mm 0,0 UV-I 0 W/m² 1,1 °C 1,7 °C 4,8 km/h (1 Bft)
07.11.2017 05:55 1,7 °C 1,7 °C 96 % 1018,3 hPa 0,0 mm 2,5 km/h (1 Bft) O-NO 67 ° 0 min 0,000 mm 0,0 UV-I 0 W/m² 1,1 °C 1,7 °C 6,4 km/h (2 Bft)
07.11.2017 05:56 1,7 °C 1,7 °C 96 % 1018,3 hPa 0,0 mm 4,1 km/h (1 Bft) O-NO 64 ° 0 min 0,000 mm 0,0 UV-I 0 W/m² 1,1 °C 1,7 °C 6,4 km/h (2 Bft)
07.11.2017 05:57 1,7 °C 1,7 °C 96 % 1018,3 hPa 0,0 mm 4,6 km/h (1 Bft) O-NO 68 ° 0 min 0,000 mm 0,0 UV-I 0 W/m² 1,1 °C 0,5 °C 6,4 km/h (2 Bft)
07.11.2017 05:58 1,7 °C 1,7 °C 96 % 1018,3 hPa 0,0 mm 3,1 km/h (1 Bft) O-NO 68 ° 0 min 0,000 mm 0,0 UV-I 0 W/m² 1,1 °C 1,7 °C 4,8 km/h (1 Bft)
07.11.2017 05:59 1,6 °C 1,7 °C 96 % 1018,3 hPa 0,0 mm 0,4 km/h (0 Bft) O-NO 68 ° 0 min 0,000 mm 0,0 UV-I 0 W/m² 1,0 °C 1,6 °C 1,6 km/h (1 Bft)
07.11.2017 06:00 1,7 °C 1,7 °C 96 % 1018,3 hPa 0,0 mm 1,5 km/h (1 Bft) O-NO 68 ° 0 min 0,000 mm 0,0 UV-I 0 W/m² 1,1 °C 1,7 °C 3,2 km/h (1 Bft)
07.11.2017 06:01 1,7 °C 1,7 °C 96 % 1018,3 hPa 0,0 mm 4,1 km/h (1 Bft) O 92 ° 0 min 0,000 mm 0,0 UV-I 0 W/m² 1,1 °C 1,7 °C 6,4 km/h (2 Bft)
07.11.2017 06:02 1,7 °C 1,7 °C 96 % 1018,3 hPa 0,0 mm 3,8 km/h (1 Bft) O-NO 78 ° 0 min 0,000 mm 0,0 UV-I 0 W/m² 1,1 °C 1,7 °C 4,8 km/h (1 Bft)
07.11.2017 06:03 1,7 °C 1,7 °C 96 % 1018,3 hPa 0,0 mm 4,1 km/h (1 Bft) O-SO 113 ° 0 min 0,000 mm 0,0 UV-I 0 W/m² 1,1 °C 1,7 °C 4,8 km/h (1 Bft)
07.11.2017 06:04 1,6 °C 1,7 °C 96 % 1018,3 hPa 0,0 mm 2,2 km/h (1 Bft) O 83 ° 0 min 0,000 mm 0,0 UV-I 0 W/m² 1,0 °C 1,6 °C 4,8 km/h (1 Bft)
07.11.2017 06:05 1,7 °C 1,7 °C 96 % 1018,3 hPa 0,0 mm 2,3 km/h (1 Bft) SO 136 ° 0 min 0,000 mm 0,0 UV-I 0 W/m² 1,1 °C 1,7 °C 4,8 km/h (1 Bft)
07.11.2017 06:06 1,6 °C 1,7 °C 96 % 1018,3 hPa 0,0 mm 2,7 km/h (1 Bft) O-NO 76 ° 0 min 0,000 mm 0,0 UV-I 0 W/m² 1,0 °C 1,6 °C 6,4 km/h (2 Bft)
07.11.2017 06:07 1,6 °C 1,7 °C 96 % 1018,3 hPa 0,0 mm 2,7 km/h (1 Bft) NO 53 ° 0 min 0,000 mm 0,0 UV-I 0 W/m² 1,0 °C 1,6 °C 4,8 km/h (1 Bft)
07.11.2017 06:08 1,6 °C 1,6 °C 96 % 1018,4 hPa 0,0 mm 1,9 km/h (1 Bft) NO 53 ° 0 min 0,000 mm 0,0 UV-I 0 W/m² 1,0 °C 1,6 °C 4,8 km/h (1 Bft)
07.11.2017 06:09 1,6 °C 1,7 °C 96 % 1018,4 hPa 0,0 mm 0,2 km/h (0 Bft) NO 53 ° 0 min 0,000 mm 0,0 UV-I 0 W/m² 1,0 °C 1,6 °C 1,6 km/h (1 Bft)
07.11.2017 06:10 1,6 °C 1,6 °C 96 % 1018,3 hPa 0,0 mm 0,9 km/h (0 Bft) NO 53 ° 0 min 0,000 mm 0,0 UV-I 0 W/m² 1,0 °C 1,6 °C 3,2 km/h (1 Bft)
07.11.2017 06:11 1,6 °C 1,7 °C 96 % 1018,3 hPa 0,0 mm 1,7 km/h (1 Bft) NO 53 ° 0 min 0,000 mm 0,0 UV-I 0 W/m² 1,0 °C 1,6 °C 4,8 km/h (1 Bft)
07.11.2017 06:12 1,6 °C 1,6 °C 96 % 1018,3 hPa 0,0 mm 4,2 km/h (1 Bft) O 82 ° 0 min 0,000 mm 0,0 UV-I 0 W/m² 1,0 °C 1,6 °C 6,4 km/h (2 Bft)
07.11.2017 06:13 1,7 °C 1,7 °C 96 % 1018,2 hPa 0,0 mm 5,2 km/h (1 Bft) O-NO 72 ° 0 min 0,000 mm 0,0 UV-I 0 W/m² 1,1 °C 0,3 °C 8,0 km/h (2 Bft)
07.11.2017 06:14 1,6 °C 1,7 °C 96 % 1018,3 hPa 0,0 mm 2,7 km/h (1 Bft) O-NO 72 ° 0 min 0,000 mm 0,0 UV-I 0 W/m² 1,0 °C 1,6 °C 4,8 km/h (1 Bft)
07.11.2017 06:15 1,6 °C 1,7 °C 96 % 1018,2 hPa 0,0 mm 2,9 km/h (1 Bft) O-NO 72 ° 0 min 0,000 mm 0,0 UV-I 0 W/m² 1,0 °C 1,6 °C 3,2 km/h (1 Bft)
07.11.2017 06:16 1,7 °C 1,7 °C 96 % 1018,2 hPa 0,0 mm 3,7 km/h (1 Bft) SO 141 ° 0 min 0,000 mm 0,0 UV-I 0 W/m² 1,1 °C 1,7 °C 4,8 km/h (1 Bft)
07.11.2017 06:17 1,6 °C 1,7 °C 96 % 1018,2 hPa 0,0 mm 2,2 km/h (1 Bft) SO 142 ° 0 min 0,000 mm 0,0 UV-I 0 W/m² 1,0 °C 1,6 °C 4,8 km/h (1 Bft)
07.11.2017 06:18 1,7 °C 1,7 °C 96 % 1018,2 hPa 0,0 mm 0,0 km/h (0 Bft) SO 142 ° 0 min 0,000 mm 0,0 UV-I 0 W/m² 1,1 °C 1,7 °C 0,0 km/h (0 Bft)
07.11.2017 06:19 1,7 °C 1,7 °C 96 % 1018,2 hPa 0,0 mm 0,0 km/h (0 Bft) SO 142 ° 0 min 0,000 mm 0,0 UV-I 0 W/m² 1,1 °C 1,7 °C 0,0 km/h (0 Bft)
07.11.2017 06:20 1,6 °C 1,7 °C 96 % 1018,2 hPa 0,0 mm 0,0 km/h (0 Bft) SO 142 ° 0 min 0,000 mm 0,0 UV-I 0 W/m² 1,0 °C 1,6 °C 0,0 km/h (0 Bft)
07.11.2017 06:21 1,7 °C 1,7 °C 96 % 1018,3 hPa 0,0 mm 0,7 km/h (0 Bft) O-NO 78 ° 0 min 0,000 mm 0,0 UV-I 0 W/m² 1,1 °C 1,7 °C 1,6 km/h (1 Bft)
07.11.2017 06:22 1,7 °C 1,7 °C 96 % 1018,2 hPa 0,0 mm 2,0 km/h (1 Bft) NO 53 ° 0 min 0,000 mm 0,0 UV-I 0 W/m² 1,1 °C 1,7 °C 4,8 km/h (1 Bft)
07.11.2017 06:23 1,7 °C 1,7 °C 96 % 1018,3 hPa 0,0 mm 2,5 km/h (1 Bft) NO 53 ° 0 min 0,000 mm 0,0 UV-I 0 W/m² 1,1 °C 1,7 °C 4,8 km/h (1 Bft)
07.11.2017 06:24 1,7 °C 1,7 °C 96 % 1018,3 hPa 0,0 mm 0,3 km/h (0 Bft) NO 53 ° 0 min 0,000 mm 0,0 UV-I 0 W/m² 1,1 °C 1,7 °C 1,6 km/h (1 Bft)
07.11.2017 06:25 1,7 °C 1,7 °C 96 % 1018,3 hPa 0,0 mm 0,3 km/h (0 Bft) NO 53 ° 0 min 0,000 mm 0,0 UV-I 0 W/m² 1,1 °C 1,7 °C 1,6 km/h (1 Bft)
07.11.2017 06:26 1,7 °C 1,7 °C 96 % 1018,3 hPa 0,0 mm 1,1 km/h (1 Bft) NO 53 ° 0 min 0,000 mm 0,0 UV-I 0 W/m² 1,1 °C 1,7 °C 3,2 km/h (1 Bft)
07.11.2017 06:27 1,7 °C 1,7 °C 96 % 1018,3 hPa 0,0 mm 3,3 km/h (1 Bft) NO 51 ° 0 min 0,000 mm 0,0 UV-I 0 W/m² 1,1 °C 1,7 °C 4,8 km/h (1 Bft)
07.11.2017 06:28 1,7 °C 1,7 °C 96 % 1018,3 hPa 0,0 mm 0,4 km/h (0 Bft) NO 51 ° 0 min 0,000 mm 0,0 UV-I 0 W/m² 1,1 °C 1,7 °C 1,6 km/h (1 Bft)
07.11.2017 06:29 1,7 °C 1,7 °C 96 % 1018,3 hPa 0,0 mm 3,2 km/h (1 Bft) O 88 ° 0 min 0,000 mm 0,0 UV-I 0 W/m² 1,1 °C 1,7 °C 4,8 km/h (1 Bft)
07.11.2017 06:30 1,7 °C 1,7 °C 96 % 1018,3 hPa 0,0 mm 1,9 km/h (1 Bft) O-NO 78 ° 0 min 0,000 mm 0,0 UV-I 0 W/m² 1,1 °C 1,7 °C 4,8 km/h (1 Bft)
07.11.2017 06:31 1,7 °C 1,7 °C 96 % 1018,4 hPa 0,0 mm 5,0 km/h (1 Bft) NO 49 ° 0 min 0,000 mm 0,0 UV-I 0 W/m² 1,1 °C 0,3 °C 8,0 km/h (2 Bft)
07.11.2017 06:32 1,7 °C 1,7 °C 96 % 1018,3 hPa 0,0 mm 3,5 km/h (1 Bft) O-NO 66 ° 0 min 0,000 mm 0,0 UV-I 0 W/m² 1,1 °C 1,7 °C 4,8 km/h (1 Bft)
07.11.2017 06:33 1,7 °C 1,7 °C 96 % 1018,3 hPa 0,0 mm 3,3 km/h (1 Bft) O-NO 77 ° 0 min 0,000 mm 0,0 UV-I 0 W/m² 1,1 °C 1,7 °C 6,4 km/h (2 Bft)
07.11.2017 06:34 1,7 °C 1,7 °C 96 % 1018,3 hPa 0,0 mm 1,1 km/h (1 Bft) O-NO 77 ° 0 min 0,000 mm 0,0 UV-I 0 W/m² 1,1 °C 1,7 °C 3,2 km/h (1 Bft)
07.11.2017 06:35 1,7 °C 1,7 °C 96 % 1018,3 hPa 0,0 mm 1,1 km/h (1 Bft) O-NO 77 ° 0 min 0,000 mm 0,0 UV-I 0 W/m² 1,1 °C 1,7 °C 3,2 km/h (1 Bft)
07.11.2017 06:36 1,7 °C 1,7 °C 96 % 1018,4 hPa 0,0 mm 2,5 km/h (1 Bft) O-NO 77 ° 0 min 0,000 mm 0,0 UV-I 0 W/m² 1,1 °C 1,7 °C 4,8 km/h (1 Bft)
07.11.2017 06:37 1,7 °C 1,7 °C 96 % 1018,4 hPa 0,0 mm 1,7 km/h (1 Bft) O-NO 77 ° 0 min 0,000 mm 0,0 UV-I 0 W/m² 1,1 °C 1,7 °C 3,2 km/h (1 Bft)
07.11.2017 06:38 1,7 °C 1,7 °C 96 % 1018,3 hPa 0,0 mm 2,1 km/h (1 Bft) O-NO 77 ° 0 min 0,000 mm 0,0 UV-I 0 W/m² 1,1 °C 1,7 °C 3,2 km/h (1 Bft)
07.11.2017 06:39 1,7 °C 1,7 °C 96 % 1018,4 hPa 0,0 mm 0,3 km/h (0 Bft) O-NO 77 ° 0 min 0,000 mm 0,0 UV-I 0 W/m² 1,1 °C 1,7 °C 1,6 km/h (1 Bft)
07.11.2017 06:40 1,7 °C 1,7 °C 96 % 1018,3 hPa 0,0 mm 0,0 km/h (0 Bft) O-NO 77 ° 0 min 0,000 mm 0,0 UV-I 0 W/m² 1,1 °C 1,7 °C 0,0 km/h (0 Bft)
07.11.2017 06:41 1,7 °C 1,7 °C 96 % 1018,3 hPa 0,0 mm 0,9 km/h (0 Bft) O-NO 77 ° 0 min 0,000 mm 0,0 UV-I 0 W/m² 1,1 °C 1,7 °C 3,2 km/h (1 Bft)
07.11.2017 06:42 1,7 °C 1,7 °C 96 % 1018,3 hPa 0,0 mm 1,6 km/h (1 Bft) O-NO 77 ° 0 min 0,000 mm 0,0 UV-I 0 W/m² 1,1 °C 1,7 °C 3,2 km/h (1 Bft)
07.11.2017 06:43 1,7 °C 1,7 °C 96 % 1018,2 hPa 0,0 mm 0,9 km/h (0 Bft) O-NO 77 ° 0 min 0,000 mm 0,0 UV-I 0 W/m² 1,1 °C 1,7 °C 3,2 km/h (1 Bft)
07.11.2017 06:44 1,7 °C 1,7 °C 96 % 1018,4 hPa 0,0 mm 2,7 km/h (1 Bft) O-NO 65 ° 0 min 0,000 mm 0,0 UV-I 0 W/m² 1,1 °C 1,7 °C 4,8 km/h (1 Bft)
07.11.2017 06:45 1,7 °C 1,7 °C 96 % 1018,2 hPa 0,0 mm 2,5 km/h (1 Bft) O-NO 65 ° 0 min 0,000 mm 0,0 UV-I 0 W/m² 1,1 °C 1,7 °C 3,2 km/h (1 Bft)
07.11.2017 06:46 1,7 °C 1,7 °C 96 % 1018,3 hPa 0,0 mm 1,1 km/h (1 Bft) O-NO 65 ° 0 min 0,000 mm 0,0 UV-I 0 W/m² 1,1 °C 1,7 °C 3,2 km/h (1 Bft)
07.11.2017 06:47 1,7 °C 1,7 °C 96 % 1018,3 hPa 0,0 mm 0,0 km/h (0 Bft) O-NO 65 ° 0 min 0,000 mm 0,0 UV-I 0 W/m² 1,1 °C 1,7 °C 0,0 km/h (0 Bft)
07.11.2017 06:48 1,7 °C 1,7 °C 96 % 1018,3 hPa 0,0 mm 0,1 km/h (0 Bft) O-NO 65 ° 0 min 0,000 mm 0,0 UV-I 0 W/m² 1,1 °C 1,7 °C 1,6 km/h (1 Bft)
07.11.2017 06:49 1,7 °C 1,7 °C 96 % 1018,3 hPa 0,0 mm 0,0 km/h (0 Bft) O-NO 65 ° 0 min 0,000 mm 0,0 UV-I 0 W/m² 1,1 °C 1,7 °C 0,0 km/h (0 Bft)
07.11.2017 06:50 1,7 °C 1,7 °C 96 % 1018,2 hPa 0,0 mm 0,7 km/h (0 Bft) O-NO 65 ° 0 min 0,000 mm 0,0 UV-I 0 W/m² 1,1 °C 1,7 °C 1,6 km/h (1 Bft)
07.11.2017 06:51 1,7 °C 1,7 °C 96 % 1018,2 hPa 0,0 mm 3,0 km/h (1 Bft) O-NO 65 ° 0 min 0,000 mm 0,0 UV-I 0 W/m² 1,1 °C 1,7 °C 4,8 km/h (1 Bft)
07.11.2017 06:52 1,7 °C 1,7 °C 96 % 1018,2 hPa 0,0 mm 2,8 km/h (1 Bft) O-NO 70 ° 0 min 0,000 mm 0,0 UV-I 0 W/m² 1,1 °C 1,7 °C 4,8 km/h (1 Bft)
07.11.2017 06:53 1,7 °C 1,7 °C 96 % 1018,2 hPa 0,0 mm 3,7 km/h (1 Bft) O-NO 70 ° 0 min 0,000 mm 0,0 UV-I 0 W/m² 1,1 °C 1,7 °C 4,8 km/h (1 Bft)
07.11.2017 06:54 1,7 °C 1,7 °C 96 % 1018,2 hPa 0,0 mm 3,3 km/h (1 Bft) O-NO 70 ° 0 min 0,000 mm 0,0 UV-I 0 W/m² 1,1 °C 1,7 °C 4,8 km/h (1 Bft)
07.11.2017 06:55 1,7 °C 1,7 °C 96 % 1018,2 hPa 0,0 mm 1,7 km/h (1 Bft) O-NO 70 ° 0 min 0,000 mm 0,0 UV-I 0 W/m² 1,1 °C 1,7 °C 3,2 km/h (1 Bft)
07.11.2017 06:56 1,7 °C 1,7 °C 96 % 1018,1 hPa 0,0 mm 2,2 km/h (1 Bft) O-NO 70 ° 0 min 0,000 mm 0,0 UV-I 0 W/m² 1,1 °C 1,7 °C 4,8 km/h (1 Bft)
07.11.2017 06:57 1,7 °C 1,7 °C 96 % 1018,2 hPa 0,0 mm 1,0 km/h (0 Bft) O-NO 70 ° 0 min 0,000 mm 0,0 UV-I 0 W/m² 1,1 °C 1,7 °C 3,2 km/h (1 Bft)
07.11.2017 06:58 1,7 °C 1,7 °C 96 % 1018,2 hPa 0,0 mm 0,3 km/h (0 Bft) O-NO 70 ° 0 min 0,000 mm 0,0 UV-I 0 W/m² 1,1 °C 1,7 °C 1,6 km/h (1 Bft)
07.11.2017 06:59 1,7 °C 1,7 °C 96 % 1018,1 hPa 0,0 mm 2,0 km/h (1 Bft) O-NO 70 ° 0 min 0,000 mm 0,0 UV-I 0 W/m² 1,1 °C 1,7 °C 3,2 km/h (1 Bft)
07.11.2017 07:00 1,7 °C 1,7 °C 96 % 1018,1 hPa 0,0 mm 1,7 km/h (1 Bft) O-NO 70 ° 0 min 0,000 mm 0,0 UV-I 0 W/m² 1,1 °C 1,7 °C 3,2 km/h (1 Bft)
07.11.2017 07:01 1,7 °C 1,7 °C 96 % 1018,1 hPa 0,0 mm 2,0 km/h (1 Bft) O-NO 70 ° 0 min 0,000 mm 0,0 UV-I 0 W/m² 1,1 °C 1,7 °C 3,2 km/h (1 Bft)
07.11.2017 07:02 1,7 °C 1,7 °C 96 % 1018,1 hPa 0,0 mm 2,5 km/h (1 Bft) O-NO 70 ° 0 min 0,000 mm 0,0 UV-I 0 W/m² 1,1 °C 1,7 °C 4,8 km/h (1 Bft)
07.11.2017 07:03 1,7 °C 1,7 °C 96 % 1018,1 hPa 0,0 mm 2,1 km/h (1 Bft) O-NO 76 ° 0 min 0,000 mm 0,0 UV-I 0 W/m² 1,1 °C 1,7 °C 6,4 km/h (2 Bft)
07.11.2017 07:04 1,7 °C 1,7 °C 96 % 1018,2 hPa 0,0 mm 3,5 km/h (1 Bft) O-NO 76 ° 0 min 0,000 mm 0,0 UV-I 0 W/m² 1,1 °C 1,7 °C 6,4 km/h (2 Bft)
07.11.2017 07:05 1,7 °C 1,7 °C 96 % 1018,1 hPa 0,0 mm 2,7 km/h (1 Bft) O-NO 76 ° 0 min 0,000 mm 0,0 UV-I 0 W/m² 1,1 °C 1,7 °C 4,8 km/h (1 Bft)
07.11.2017 07:06 1,7 °C 1,7 °C 96 % 1018,1 hPa 0,0 mm 2,0 km/h (1 Bft) O-NO 76 ° 0 min 0,000 mm 0,0 UV-I 0 W/m² 1,1 °C 1,7 °C 3,2 km/h (1 Bft)
07.11.2017 07:07 1,7 °C 1,7 °C 96 % 1018,2 hPa 0,0 mm 2,4 km/h (1 Bft) O-NO 76 ° 0 min 0,000 mm 0,0 UV-I 0 W/m² 1,1 °C 1,7 °C 4,8 km/h (1 Bft)
07.11.2017 07:08 1,7 °C 1,7 °C 96 % 1018,2 hPa 0,0 mm 1,9 km/h (1 Bft) O-NO 76 ° 0 min 0,000 mm 0,0 UV-I 0 W/m² 1,1 °C 1,7 °C 4,8 km/h (1 Bft)
07.11.2017 07:09 1,7 °C 1,7 °C 96 % 1018,2 hPa 0,0 mm 2,4 km/h (1 Bft) O-NO 76 ° 0 min 0,000 mm 0,0 UV-I 0 W/m² 1,1 °C 1,7 °C 4,8 km/h (1 Bft)
07.11.2017 07:10 1,7 °C 1,7 °C 96 % 1018,2 hPa 0,0 mm 2,0 km/h (1 Bft) O-NO 76 ° 0 min 0,000 mm 0,0 UV-I 0 W/m² 1,1 °C 1,7 °C 3,2 km/h (1 Bft)
07.11.2017 07:11 1,7 °C 1,7 °C 96 % 1018,2 hPa 0,0 mm 3,0 km/h (1 Bft) NO 36 ° 0 min 0,000 mm 0,0 UV-I 0 W/m² 1,1 °C 1,7 °C 4,8 km/h (1 Bft)
07.11.2017 07:12 1,7 °C 1,7 °C 96 % 1018,2 hPa 0,0 mm 5,1 km/h (1 Bft) O-NO 57 ° 0 min 0,000 mm 0,0 UV-I 0 W/m² 1,1 °C 0,3 °C 8,0 km/h (2 Bft)
07.11.2017 07:13 1,7 °C 1,7 °C 96 % 1018,1 hPa 0,0 mm 3,5 km/h (1 Bft) NO 50 ° 0 min 0,000 mm 0,0 UV-I 0 W/m² 1,1 °C 1,7 °C 6,4 km/h (2 Bft)
07.11.2017 07:14 1,7 °C 1,7 °C 96 % 1018,2 hPa 0,0 mm 3,4 km/h (1 Bft) NO 50 ° 0 min 0,000 mm 0,0 UV-I 0 W/m² 1,1 °C 1,7 °C 4,8 km/h (1 Bft)
07.11.2017 07:15 1,8 °C 1,8 °C 96 % 1018,2 hPa 0,0 mm 3,4 km/h (1 Bft) NO 50 ° 0 min 0,000 mm 0,0 UV-I 0 W/m² 1,2 °C 1,8 °C 4,8 km/h (1 Bft)
07.11.2017 07:16 1,7 °C 1,8 °C 96 % 1018,2 hPa 0,0 mm 3,3 km/h (1 Bft) NO 50 ° 0 min 0,000 mm 0,0 UV-I 0 W/m² 1,1 °C 1,7 °C 4,8 km/h (1 Bft)
07.11.2017 07:17 1,7 °C 1,7 °C 96 % 1018,2 hPa 0,0 mm 2,6 km/h (1 Bft) NO 51 ° 0 min 0,000 mm 0,0 UV-I 0 W/m² 1,1 °C 1,7 °C 4,8 km/h (1 Bft)
07.11.2017 07:18 1,7 °C 1,7 °C 96 % 1018,2 hPa 0,0 mm 2,6 km/h (1 Bft) NO 51 ° 0 min 0,000 mm 0,0 UV-I 0 W/m² 1,1 °C 1,7 °C 3,2 km/h (1 Bft)
07.11.2017 07:19 1,7 °C 1,8 °C 96 % 1018,2 hPa 0,0 mm 0,1 km/h (0 Bft) NO 51 ° 0 min 0,000 mm 0,0 UV-I 0 W/m² 1,1 °C 1,7 °C 1,6 km/h (1 Bft)
07.11.2017 07:20 1,7 °C 1,8 °C 96 % 1018,2 hPa 0,0 mm 0,2 km/h (0 Bft) NO 51 ° 0 min 0,000 mm 0,0 UV-I 0 W/m² 1,1 °C 1,7 °C 1,6 km/h (1 Bft)
07.11.2017 07:21 1,7 °C 1,7 °C 96 % 1018,2 hPa 0,0 mm 2,6 km/h (1 Bft) O-NO 67 ° 0 min 0,000 mm 0,0 UV-I 0 W/m² 1,1 °C 1,7 °C 4,8 km/h (1 Bft)
07.11.2017 07:22 1,7 °C 1,8 °C 96 % 1018,2 hPa 0,0 mm 1,7 km/h (1 Bft) O-NO 66 ° 0 min 0,000 mm 0,0 UV-I 0 W/m² 1,1 °C 1,7 °C 4,8 km/h (1 Bft)
07.11.2017 07:23 1,7 °C 1,7 °C 96 % 1018,2 hPa 0,0 mm 2,3 km/h (1 Bft) O-NO 66 ° 0 min 0,000 mm 0,0 UV-I 0 W/m² 1,1 °C 1,7 °C 3,2 km/h (1 Bft)
07.11.2017 07:24 1,7 °C 1,7 °C 96 % 1018,2 hPa 0,0 mm 1,5 km/h (1 Bft) O-NO 66 ° 0 min 0,000 mm 0,0 UV-I 0 W/m² 1,1 °C 1,7 °C 3,2 km/h (1 Bft)
07.11.2017 07:25 1,7 °C 1,7 °C 96 % 1018,2 hPa 0,0 mm 1,1 km/h (1 Bft) O-NO 66 ° 0 min 0,000 mm 0,0 UV-I 0 W/m² 1,1 °C 1,7 °C 3,2 km/h (1 Bft)
07.11.2017 07:26 1,7 °C 1,7 °C 96 % 1018,2 hPa 0,0 mm 3,0 km/h (1 Bft) O-NO 66 ° 0 min 0,000 mm 0,0 UV-I 0 W/m² 1,1 °C 1,7 °C 4,8 km/h (1 Bft)
07.11.2017 07:27 1,7 °C 1,7 °C 96 % 1018,2 hPa 0,0 mm 1,0 km/h (0 Bft) O-NO 66 ° 0 min 0,000 mm 0,0 UV-I 0 W/m² 1,1 °C 1,7 °C 3,2 km/h (1 Bft)
07.11.2017 07:28 1,7 °C 1,7 °C 96 % 1018,2 hPa 0,0 mm 1,4 km/h (1 Bft) O-NO 66 ° 0 min 0,000 mm 0,0 UV-I 0 W/m² 1,1 °C 1,7 °C 3,2 km/h (1 Bft)
07.11.2017 07:29 1,7 °C 1,7 °C 96 % 1018,2 hPa 0,0 mm 1,6 km/h (1 Bft) O-NO 66 ° 0 min 0,000 mm 0,0 UV-I 0 W/m² 1,1 °C 1,7 °C 3,2 km/h (1 Bft)
07.11.2017 07:30 1,7 °C 1,8 °C 96 % 1018,2 hPa 0,0 mm 3,8 km/h (1 Bft) O-NO 71 ° 0 min 0,000 mm 0,0 UV-I 0 W/m² 1,1 °C 1,7 °C 4,8 km/h (1 Bft)
07.11.2017 07:31 1,8 °C 1,8 °C 96 % 1018,3 hPa 0,0 mm 3,1 km/h (1 Bft) O-NO 61 ° 0 min 0,000 mm 0,0 UV-I 0 W/m² 1,2 °C 1,8 °C 4,8 km/h (1 Bft)
07.11.2017 07:32 1,7 °C 1,8 °C 96 % 1018,3 hPa 0,0 mm 4,8 km/h (1 Bft) O-NO 72 ° 0 min 0,000 mm 0,0 UV-I 0 W/m² 1,1 °C 0,4 °C 9,7 km/h (2 Bft)
07.11.2017 07:33 1,7 °C 1,8 °C 96 % 1018,3 hPa 0,2 mm 2,1 km/h (1 Bft) O-NO 73 ° 0 min 0,000 mm 0,0 UV-I 0 W/m² 1,1 °C 1,7 °C 3,2 km/h (1 Bft)
07.11.2017 07:34 1,7 °C 1,8 °C 96 % 1018,3 hPa 0,0 mm 4,0 km/h (1 Bft) O 82 ° 0 min 0,000 mm 0,0 UV-I 0 W/m² 1,1 °C 1,7 °C 6,4 km/h (2 Bft)
07.11.2017 07:35 1,7 °C 1,7 °C 96 % 1018,3 hPa 0,0 mm 2,0 km/h (1 Bft) O 82 ° 0 min 0,000 mm 0,0 UV-I 5 W/m² 1,1 °C 1,7 °C 4,8 km/h (1 Bft)
07.11.2017 07:36 1,7 °C 1,7 °C 96 % 1018,2 hPa 0,0 mm 3,7 km/h (1 Bft) O-NO 60 ° 0 min 0,000 mm 0,0 UV-I 5 W/m² 1,1 °C 1,7 °C 6,4 km/h (2 Bft)
07.11.2017 07:37 1,7 °C 1,8 °C 96 % 1018,2 hPa 0,0 mm 3,1 km/h (1 Bft) O-NO 60 ° 0 min 0,000 mm 0,0 UV-I 5 W/m² 1,1 °C 1,7 °C 4,8 km/h (1 Bft)
07.11.2017 07:38 1,7 °C 1,8 °C 96 % 1018,2 hPa 0,0 mm 1,7 km/h (1 Bft) O-NO 60 ° 0 min 0,000 mm 0,0 UV-I 5 W/m² 1,1 °C 1,7 °C 3,2 km/h (1 Bft)
07.11.2017 07:39 1,7 °C 1,8 °C 96 % 1018,2 hPa 0,0 mm 0,7 km/h (0 Bft) O-NO 60 ° 0 min 0,000 mm 0,0 UV-I 5 W/m² 1,1 °C 1,7 °C 1,6 km/h (1 Bft)
07.11.2017 07:40 1,8 °C 1,8 °C 96 % 1018,2 hPa 0,0 mm 1,9 km/h (1 Bft) O-NO 60 ° 0 min 0,000 mm 0,0 UV-I 5 W/m² 1,2 °C 1,8 °C 3,2 km/h (1 Bft)
07.11.2017 07:41 1,8 °C 1,8 °C 96 % 1018,2 hPa 0,0 mm 1,6 km/h (1 Bft) O-NO 60 ° 0 min 0,000 mm 0,0 UV-I 5 W/m² 1,2 °C 1,8 °C 4,8 km/h (1 Bft)
07.11.2017 07:42 1,8 °C 1,8 °C 96 % 1018,2 hPa 0,0 mm 3,8 km/h (1 Bft) O-NO 60 ° 0 min 0,000 mm 0,0 UV-I 5 W/m² 1,2 °C 1,8 °C 4,8 km/h (1 Bft)
07.11.2017 07:43 1,8 °C 1,8 °C 96 % 1018,2 hPa 0,0 mm 2,3 km/h (1 Bft) O-NO 60 ° 0 min 0,000 mm 0,0 UV-I 5 W/m² 1,2 °C 1,8 °C 4,8 km/h (1 Bft)
07.11.2017 07:44 1,8 °C 1,8 °C 96 % 1018,2 hPa 0,0 mm 2,5 km/h (1 Bft) O-NO 60 ° 0 min 0,000 mm 0,0 UV-I 5 W/m² 1,2 °C 1,8 °C 4,8 km/h (1 Bft)
07.11.2017 07:45 1,8 °C 1,8 °C 96 % 1018,2 hPa 0,0 mm 2,6 km/h (1 Bft) O-NO 60 ° 0 min 0,000 mm 0,0 UV-I 5 W/m² 1,2 °C 1,8 °C 4,8 km/h (1 Bft)
07.11.2017 07:46 1,7 °C 1,8 °C 96 % 1018,2 hPa 0,0 mm 4,1 km/h (1 Bft) O-NO 77 ° 0 min 0,000 mm 0,0 UV-I 5 W/m² 1,1 °C 1,7 °C 6,4 km/h (2 Bft)
07.11.2017 07:47 1,8 °C 1,8 °C 96 % 1018,2 hPa 0,0 mm 1,1 km/h (1 Bft) O-NO 77 ° 0 min 0,000 mm 0,0 UV-I 5 W/m² 1,2 °C 1,8 °C 3,2 km/h (1 Bft)
07.11.2017 07:48 1,8 °C 1,8 °C 96 % 1018,2 hPa 0,0 mm 2,7 km/h (1 Bft) O 80 ° 0 min 0,000 mm 0,0 UV-I 5 W/m² 1,2 °C 1,8 °C 4,8 km/h (1 Bft)
07.11.2017 07:49 1,8 °C 1,8 °C 96 % 1018,2 hPa 0,0 mm 4,7 km/h (1 Bft) NO 53 ° 0 min 0,000 mm 0,0 UV-I 5 W/m² 1,2 °C 0,6 °C 8,0 km/h (2 Bft)
07.11.2017 07:50 1,8 °C 1,8 °C 96 % 1018,1 hPa 0,0 mm 3,6 km/h (1 Bft) O-NO 59 ° 0 min 0,000 mm 0,0 UV-I 5 W/m² 1,2 °C 1,8 °C 4,8 km/h (1 Bft)
07.11.2017 07:51 1,7 °C 1,8 °C 96 % 1018,0 hPa 0,0 mm 3,2 km/h (1 Bft) O-NO 57 ° 0 min 0,000 mm 0,0 UV-I 5 W/m² 1,1 °C 1,7 °C 4,8 km/h (1 Bft)
07.11.2017 07:52 1,7 °C 1,8 °C 96 % 1018,1 hPa 0,0 mm 3,0 km/h (1 Bft) O-NO 57 ° 0 min 0,000 mm 0,0 UV-I 5 W/m² 1,1 °C 1,7 °C 4,8 km/h (1 Bft)
07.11.2017 07:53 1,8 °C 1,8 °C 96 % 1018,1 hPa 0,0 mm 2,4 km/h (1 Bft) O-NO 57 ° 0 min 0,000 mm 0,0 UV-I 5 W/m² 1,2 °C 1,8 °C 4,8 km/h (1 Bft)
07.11.2017 07:54 1,8 °C 1,8 °C 96 % 1018,2 hPa 0,0 mm 1,8 km/h (1 Bft) O-NO 57 ° 0 min 0,000 mm 0,0 UV-I 5 W/m² 1,2 °C 1,8 °C 4,8 km/h (1 Bft)
07.11.2017 07:55 1,8 °C 1,8 °C 96 % 1018,2 hPa 0,0 mm 3,5 km/h (1 Bft) O-NO 57 ° 0 min 0,000 mm 0,0 UV-I 5 W/m² 1,2 °C 1,8 °C 6,4 km/h (2 Bft)
07.11.2017 07:56 1,8 °C 1,8 °C 96 % 1018,2 hPa 0,0 mm 5,0 km/h (1 Bft) O 83 ° 0 min 0,000 mm 0,0 UV-I 5 W/m² 1,2 °C 0,5 °C 6,4 km/h (2 Bft)
07.11.2017 07:57 1,8 °C 1,8 °C 96 % 1018,2 hPa 0,0 mm 0,6 km/h (0 Bft) O-NO 74 ° 0 min 0,000 mm 0,0 UV-I 5 W/m² 1,2 °C 1,8 °C 3,2 km/h (1 Bft)
07.11.2017 07:58 1,8 °C 1,8 °C 96 % 1018,2 hPa 0,0 mm 2,7 km/h (1 Bft) O-NO 69 ° 0 min 0,000 mm 0,0 UV-I 5 W/m² 1,2 °C 1,8 °C 4,8 km/h (1 Bft)
07.11.2017 07:59 1,8 °C 1,8 °C 96 % 1018,2 hPa 0,0 mm 3,4 km/h (1 Bft) NO 49 ° 0 min 0,000 mm 0,0 UV-I 7 W/m² 1,2 °C 1,8 °C 6,4 km/h (2 Bft)
07.11.2017 08:00 1,8 °C 1,8 °C 96 % 1018,2 hPa 0,0 mm 4,5 km/h (1 Bft) O-NO 65 ° 0 min 0,000 mm 0,0 UV-I 7 W/m² 1,2 °C 1,8 °C 6,4 km/h (2 Bft)
07.11.2017 08:01 1,8 °C 1,8 °C 96 % 1018,2 hPa 0,0 mm 0,6 km/h (0 Bft) O-NO 65 ° 0 min 0,000 mm 0,0 UV-I 7 W/m² 1,2 °C 1,8 °C 3,2 km/h (1 Bft)
07.11.2017 08:02 1,8 °C 1,8 °C 96 % 1018,2 hPa 0,0 mm 2,5 km/h (1 Bft) O-NO 61 ° 0 min 0,000 mm 0,0 UV-I 9 W/m² 1,2 °C 1,8 °C 6,4 km/h (2 Bft)
07.11.2017 08:03 1,8 °C 1,8 °C 96 % 1018,2 hPa 0,0 mm 3,6 km/h (1 Bft) O-NO 61 ° 0 min 0,000 mm 0,0 UV-I 9 W/m² 1,2 °C 1,8 °C 4,8 km/h (1 Bft)
07.11.2017 08:04 1,8 °C 1,8 °C 96 % 1018,2 hPa 0,0 mm 1,4 km/h (1 Bft) O-NO 61 ° 0 min 0,000 mm 0,0 UV-I 9 W/m² 1,2 °C 1,8 °C 3,2 km/h (1 Bft)
07.11.2017 08:05 1,8 °C 1,8 °C 96 % 1018,2 hPa 0,0 mm 1,1 km/h (1 Bft) O-NO 61 ° 0 min 0,000 mm 0,0 UV-I 9 W/m² 1,2 °C 1,8 °C 3,2 km/h (1 Bft)
07.11.2017 08:06 1,8 °C 1,8 °C 96 % 1018,2 hPa 0,0 mm 2,3 km/h (1 Bft) O-NO 78 ° 0 min 0,000 mm 0,0 UV-I 11 W/m² 1,2 °C 1,8 °C 4,8 km/h (1 Bft)
07.11.2017 08:07 1,8 °C 1,8 °C 96 % 1018,2 hPa 0,0 mm 1,6 km/h (1 Bft) O-NO 78 ° 0 min 0,000 mm 0,0 UV-I 11 W/m² 1,2 °C 1,8 °C 3,2 km/h (1 Bft)
07.11.2017 08:08 1,8 °C 1,8 °C 96 % 1018,1 hPa 0,0 mm 1,5 km/h (1 Bft) O-NO 78 ° 0 min 0,000 mm 0,0 UV-I 11 W/m² 1,2 °C 1,8 °C 3,2 km/h (1 Bft)
07.11.2017 08:09 1,8 °C 1,8 °C 96 % 1018,1 hPa 0,0 mm 1,0 km/h (0 Bft) O-NO 78 ° 0 min 0,000 mm 0,0 UV-I 11 W/m² 1,2 °C 1,8 °C 3,2 km/h (1 Bft)
07.11.2017 08:10 1,8 °C 1,8 °C 96 % 1018,1 hPa 0,0 mm 3,2 km/h (1 Bft) O-NO 78 ° 0 min 0,000 mm 0,0 UV-I 11 W/m² 1,2 °C 1,8 °C 4,8 km/h (1 Bft)
07.11.2017 08:11 1,8 °C 1,8 °C 96 % 1018,1 hPa 0,0 mm 5,3 km/h (1 Bft) O-NO 70 ° 0 min 0,000 mm 0,0 UV-I 12 W/m² 1,2 °C 0,3 °C 8,0 km/h (2 Bft)
07.11.2017 08:12 1,8 °C 1,8 °C 96 % 1018,1 hPa 0,0 mm 4,1 km/h (1 Bft) NO 47 ° 0 min 0,000 mm 0,0 UV-I 12 W/m² 1,2 °C 1,8 °C 8,0 km/h (2 Bft)
07.11.2017 08:13 1,8 °C 1,8 °C 96 % 1018,1 hPa 0,0 mm 6,4 km/h (2 Bft) NO 46 ° 0 min 0,000 mm 0,0 UV-I 12 W/m² 1,2 °C -0,1 °C 8,0 km/h (2 Bft)
07.11.2017 08:14 1,8 °C 1,8 °C 96 % 1018,1 hPa 0,0 mm 4,4 km/h (1 Bft) O-NO 76 ° 0 min 0,000 mm 0,0 UV-I 12 W/m² 1,2 °C 1,8 °C 6,4 km/h (2 Bft)
07.11.2017 08:15 1,8 °C 1,8 °C 96 % 1018,1 hPa 0,0 mm 4,0 km/h (1 Bft) O-NO 77 ° 0 min 0,000 mm 0,0 UV-I 12 W/m² 1,2 °C 1,8 °C 6,4 km/h (2 Bft)
07.11.2017 08:16 1,8 °C 1,8 °C 96 % 1018,1 hPa 0,0 mm 2,7 km/h (1 Bft) NO 48 ° 0 min 0,000 mm 0,0 UV-I 12 W/m² 1,2 °C 1,8 °C 6,4 km/h (2 Bft)
07.11.2017 08:17 1,8 °C 1,8 °C 96 % 1018,1 hPa 0,0 mm 1,7 km/h (1 Bft) NO 48 ° 0 min 0,000 mm 0,0 UV-I 11 W/m² 1,2 °C 1,8 °C 3,2 km/h (1 Bft)
07.11.2017 08:18 1,8 °C 1,8 °C 96 % 1018,1 hPa 0,0 mm 2,2 km/h (1 Bft) NO 48 ° 0 min 0,000 mm 0,0 UV-I 11 W/m² 1,2 °C 1,8 °C 3,2 km/h (1 Bft)
07.11.2017 08:19 1,8 °C 1,8 °C 96 % 1018,0 hPa 0,0 mm 1,9 km/h (1 Bft) NO 49 ° 0 min 0,000 mm 0,0 UV-I 11 W/m² 1,2 °C 1,8 °C 4,8 km/h (1 Bft)
07.11.2017 08:20 1,8 °C 1,8 °C 96 % 1018,0 hPa 0,0 mm 4,5 km/h (1 Bft) NO 48 ° 0 min 0,000 mm 0,0 UV-I 12 W/m² 1,2 °C 1,8 °C 6,4 km/h (2 Bft)
07.11.2017 08:21 1,8 °C 1,8 °C 96 % 1018,1 hPa 0,0 mm 6,2 km/h (2 Bft) NO 51 ° 0 min 0,000 mm 0,0 UV-I 12 W/m² 1,2 °C -0,0 °C 8,0 km/h (2 Bft)
07.11.2017 08:22 1,8 °C 1,8 °C 96 % 1018,0 hPa 0,0 mm 2,7 km/h (1 Bft) O-NO 74 ° 0 min 0,000 mm 0,0 UV-I 14 W/m² 1,2 °C 1,8 °C 4,8 km/h (1 Bft)
07.11.2017 08:23 1,8 °C 1,8 °C 96 % 1018,0 hPa 0,0 mm 2,8 km/h (1 Bft) O-NO 74 ° 0 min 0,000 mm 0,0 UV-I 18 W/m² 1,2 °C 1,8 °C 6,4 km/h (2 Bft)
07.11.2017 08:24 1,8 °C 1,8 °C 96 % 1018,0 hPa 0,0 mm 2,0 km/h (1 Bft) O-NO 74 ° 0 min 0,000 mm 0,0 UV-I 19 W/m² 1,2 °C 1,8 °C 4,8 km/h (1 Bft)
07.11.2017 08:25 1,8 °C 1,8 °C 96 % 1017,9 hPa 0,0 mm 3,2 km/h (1 Bft) O-NO 74 ° 0 min 0,000 mm 0,0 UV-I 21 W/m² 1,2 °C 1,8 °C 4,8 km/h (1 Bft)
07.11.2017 08:26 1,8 °C 1,8 °C 96 % 1018,0 hPa 0,0 mm 1,7 km/h (1 Bft) O-NO 74 ° 0 min 0,000 mm 0,0 UV-I 21 W/m² 1,2 °C 1,8 °C 3,2 km/h (1 Bft)
07.11.2017 08:27 1,8 °C 1,8 °C 96 % 1018,0 hPa 0,0 mm 0,0 km/h (0 Bft) O-NO 74 ° 0 min 0,000 mm 0,0 UV-I 21 W/m² 1,2 °C 1,8 °C 0,0 km/h (0 Bft)
07.11.2017 08:28 1,8 °C 1,8 °C 96 % 1018,0 hPa 0,0 mm 1,3 km/h (1 Bft) O-NO 74 ° 0 min 0,000 mm 0,0 UV-I 21 W/m² 1,2 °C 1,8 °C 3,2 km/h (1 Bft)
07.11.2017 08:29 1,8 °C 1,8 °C 96 % 1018,0 hPa 0,0 mm 0,9 km/h (0 Bft) O-NO 74 ° 0 min 0,000 mm 0,0 UV-I 25 W/m² 1,2 °C 1,8 °C 1,6 km/h (1 Bft)
07.11.2017 08:30 1,8 °C 1,9 °C 96 % 1017,9 hPa 0,0 mm 2,7 km/h (1 Bft) O-NO 63 ° 0 min 0,000 mm 0,0 UV-I 25 W/m² 1,2 °C 1,8 °C 4,8 km/h (1 Bft)
07.11.2017 08:31 1,8 °C 1,9 °C 96 % 1017,9 hPa 0,0 mm 3,3 km/h (1 Bft) O-NO 63 ° 0 min 0,000 mm 0,0 UV-I 25 W/m² 1,2 °C 1,8 °C 4,8 km/h (1 Bft)
07.11.2017 08:32 1,8 °C 1,8 °C 96 % 1017,9 hPa 0,0 mm 3,9 km/h (1 Bft) O-NO 60 ° 0 min 0,000 mm 0,0 UV-I 25 W/m² 1,2 °C 1,8 °C 4,8 km/h (1 Bft)
07.11.2017 08:33 1,8 °C 1,8 °C 96 % 1017,8 hPa 0,0 mm 0,7 km/h (0 Bft) O-NO 60 ° 0 min 0,000 mm 0,0 UV-I 26 W/m² 1,2 °C 1,8 °C 1,6 km/h (1 Bft)
07.11.2017 08:34 1,8 °C 1,8 °C 96 % 1017,8 hPa 0,0 mm 0,1 km/h (0 Bft) O-NO 60 ° 0 min 0,000 mm 0,0 UV-I 26 W/m² 1,2 °C 1,8 °C 1,6 km/h (1 Bft)
07.11.2017 08:35 1,9 °C 1,9 °C 96 % 1017,8 hPa 0,0 mm 1,1 km/h (1 Bft) O-NO 60 ° 0 min 0,000 mm 0,0 UV-I 23 W/m² 1,3 °C 1,9 °C 3,2 km/h (1 Bft)
07.11.2017 08:36 1,8 °C 1,9 °C 96 % 1017,9 hPa 0,0 mm 3,4 km/h (1 Bft) O-NO 77 ° 0 min 0,000 mm 0,0 UV-I 23 W/m² 1,2 °C 1,8 °C 6,4 km/h (2 Bft)
07.11.2017 08:37 1,8 °C 1,8 °C 96 % 1017,9 hPa 0,0 mm 0,0 km/h (0 Bft) O-NO 77 ° 0 min 0,000 mm 0,0 UV-I 23 W/m² 1,2 °C 1,8 °C 0,0 km/h (0 Bft)
07.11.2017 08:38 1,8 °C 1,9 °C 96 % 1018,0 hPa 0,0 mm 2,3 km/h (1 Bft) NO 56 ° 0 min 0,000 mm 0,0 UV-I 23 W/m² 1,2 °C 1,8 °C 4,8 km/h (1 Bft)
07.11.2017 08:39 1,9 °C 1,9 °C 96 % 1017,8 hPa 0,0 mm 0,4 km/h (0 Bft) NO 56 ° 0 min 0,000 mm 0,0 UV-I 23 W/m² 1,3 °C 1,9 °C 3,2 km/h (1 Bft)
07.11.2017 08:40 1,9 °C 1,9 °C 96 % 1017,8 hPa 0,0 mm 5,2 km/h (1 Bft) N-NO 29 ° 0 min 0,000 mm 0,0 UV-I 23 W/m² 1,3 °C 0,5 °C 8,0 km/h (2 Bft)
07.11.2017 08:41 1,9 °C 1,9 °C 96 % 1017,8 hPa 0,0 mm 4,0 km/h (1 Bft) O-NO 63 ° 0 min 0,000 mm 0,0 UV-I 25 W/m² 1,3 °C 1,9 °C 4,8 km/h (1 Bft)
07.11.2017 08:42 1,9 °C 1,9 °C 96 % 1017,8 hPa 0,0 mm 6,2 km/h (2 Bft) O 90 ° 0 min 0,000 mm 0,0 UV-I 25 W/m² 1,3 °C 0,1 °C 8,0 km/h (2 Bft)
07.11.2017 08:43 1,9 °C 1,9 °C 96 % 1017,8 hPa 0,0 mm 4,4 km/h (1 Bft) O-NO 76 ° 0 min 0,000 mm 0,0 UV-I 25 W/m² 1,3 °C 1,9 °C 9,7 km/h (2 Bft)
07.11.2017 08:44 1,9 °C 1,9 °C 96 % 1017,8 hPa 0,0 mm 2,5 km/h (1 Bft) O-NO 76 ° 0 min 0,000 mm 0,0 UV-I 25 W/m² 1,3 °C 1,9 °C 3,2 km/h (1 Bft)
07.11.2017 08:45 1,8 °C 1,9 °C 96 % 1017,8 hPa 0,0 mm 3,2 km/h (1 Bft) O-NO 76 ° 0 min 0,000 mm 0,0 UV-I 28 W/m² 1,2 °C 1,8 °C 4,8 km/h (1 Bft)
07.11.2017 08:46 1,9 °C 1,9 °C 96 % 1017,8 hPa 0,0 mm 3,0 km/h (1 Bft) O-NO 76 ° 0 min 0,000 mm 0,0 UV-I 30 W/m² 1,3 °C 1,9 °C 4,8 km/h (1 Bft)
07.11.2017 08:47 1,9 °C 1,9 °C 96 % 1017,8 hPa 0,0 mm 2,2 km/h (1 Bft) O-NO 76 ° 0 min 0,000 mm 0,0 UV-I 39 W/m² 1,3 °C 1,9 °C 3,2 km/h (1 Bft)
07.11.2017 08:48 1,9 °C 1,9 °C 96 % 1017,8 hPa 0,0 mm 1,3 km/h (1 Bft) O-NO 76 ° 0 min 0,000 mm 0,0 UV-I 42 W/m² 1,3 °C 1,9 °C 3,2 km/h (1 Bft)
07.11.2017 08:49 1,9 °C 1,9 °C 96 % 1017,8 hPa 0,0 mm 2,9 km/h (1 Bft) O-NO 67 ° 0 min 0,000 mm 0,0 UV-I 51 W/m² 1,3 °C 1,9 °C 4,8 km/h (1 Bft)
07.11.2017 08:50 1,9 °C 1,9 °C 96 % 1017,8 hPa 0,0 mm 2,0 km/h (1 Bft) O-NO 67 ° 0 min 0,000 mm 0,0 UV-I 54 W/m² 1,3 °C 1,9 °C 3,2 km/h (1 Bft)
07.11.2017 08:51 1,9 °C 1,9 °C 96 % 1017,7 hPa 0,0 mm 1,7 km/h (1 Bft) O 86 ° 0 min 0,000 mm 0,0 UV-I 58 W/m² 1,3 °C 1,9 °C 4,8 km/h (1 Bft)
07.11.2017 08:52 1,9 °C 1,9 °C 96 % 1017,7 hPa 0,0 mm 0,0 km/h (0 Bft) O 86 ° 0 min 0,000 mm 0,0 UV-I 56 W/m² 1,3 °C 1,9 °C 0,0 km/h (0 Bft)
07.11.2017 08:53 1,9 °C 1,9 °C 96 % 1017,8 hPa 0,0 mm 0,0 km/h (0 Bft) O 86 ° 0 min 0,000 mm 0,0 UV-I 56 W/m² 1,3 °C 1,9 °C 0,0 km/h (0 Bft)
07.11.2017 08:54 2,0 °C 2,0 °C 96 % 1017,8 hPa 0,0 mm 3,0 km/h (1 Bft) O-NO 72 ° 0 min 0,000 mm 0,0 UV-I 56 W/m² 1,4 °C 2,0 °C 4,8 km/h (1 Bft)
07.11.2017 08:55 1,9 °C 2,0 °C 96 % 1017,8 hPa 0,0 mm 3,1 km/h (1 Bft) O-NO 72 ° 0 min 0,000 mm 0,0 UV-I 56 W/m² 1,3 °C 1,9 °C 4,8 km/h (1 Bft)
07.11.2017 08:56 1,9 °C 2,0 °C 96 % 1017,8 hPa 0,0 mm 2,8 km/h (1 Bft) O-NO 72 ° 0 min 0,000 mm 0,0 UV-I 56 W/m² 1,3 °C 1,9 °C 3,2 km/h (1 Bft)
07.11.2017 08:57 2,0 °C 2,0 °C 96 % 1017,8 hPa 0,0 mm 2,3 km/h (1 Bft) O-NO 69 ° 0 min 0,000 mm 0,0 UV-I 62 W/m² 1,4 °C 2,0 °C 4,8 km/h (1 Bft)
07.11.2017 08:58 2,0 °C 2,0 °C 96 % 1017,8 hPa 0,0 mm 3,0 km/h (1 Bft) O-NO 69 ° 0 min 0,000 mm 0,0 UV-I 62 W/m² 1,4 °C 2,0 °C 4,8 km/h (1 Bft)
07.11.2017 08:59 2,1 °C 2,1 °C 96 % 1017,8 hPa 0,0 mm 5,4 km/h (1 Bft) O-NO 64 ° 0 min 0,000 mm 0,0 UV-I 56 W/m² 1,5 °C 0,6 °C 8,0 km/h (2 Bft)
07.11.2017 09:00 2,1 °C 2,1 °C 96 % 1017,8 hPa 0,0 mm 3,8 km/h (1 Bft) O-NO 64 ° 0 min 0,000 mm 0,0 UV-I 53 W/m² 1,5 °C 2,1 °C 4,8 km/h (1 Bft)
07.11.2017 09:01 2,1 °C 2,1 °C 96 % 1017,8 hPa 0,0 mm 3,0 km/h (1 Bft) O-NO 71 ° 0 min 0,000 mm 0,0 UV-I 51 W/m² 1,5 °C 2,1 °C 6,4 km/h (2 Bft)
07.11.2017 09:02 2,1 °C 2,1 °C 96 % 1017,8 hPa 0,0 mm 0,1 km/h (0 Bft) O-NO 71 ° 0 min 0,000 mm 0,0 UV-I 47 W/m² 1,5 °C 2,1 °C 1,6 km/h (1 Bft)
07.11.2017 09:03 2,1 °C 2,1 °C 96 % 1017,8 hPa 0,0 mm 4,3 km/h (1 Bft) O-NO 65 ° 0 min 0,000 mm 0,0 UV-I 47 W/m² 1,5 °C 2,1 °C 6,4 km/h (2 Bft)
07.11.2017 09:04 2,1 °C 2,1 °C 96 % 1017,8 hPa 0,0 mm 1,9 km/h (1 Bft) O-NO 65 ° 0 min 0,000 mm 0,0 UV-I 46 W/m² 1,5 °C 2,1 °C 3,2 km/h (1 Bft)
07.11.2017 09:05 2,1 °C 2,1 °C 96 % 1017,7 hPa 0,0 mm 4,0 km/h (1 Bft) O 82 ° 0 min 0,000 mm 0,0 UV-I 42 W/m² 1,5 °C 2,1 °C 4,8 km/h (1 Bft)
07.11.2017 09:06 2,1 °C 2,1 °C 96 % 1017,8 hPa 0,0 mm 2,7 km/h (1 Bft) O 82 ° 0 min 0,000 mm 0,0 UV-I 40 W/m² 1,5 °C 2,1 °C 4,8 km/h (1 Bft)
07.11.2017 09:07 2,1 °C 2,1 °C 96 % 1017,8 hPa 0,0 mm 2,3 km/h (1 Bft) O 82 ° 0 min 0,000 mm 0,0 UV-I 39 W/m² 1,5 °C 2,1 °C 4,8 km/h (1 Bft)
07.11.2017 09:08 2,1 °C 2,1 °C 96 % 1017,7 hPa 0,0 mm 3,0 km/h (1 Bft) O-NO 59 ° 0 min 0,000 mm 0,0 UV-I 39 W/m² 1,5 °C 2,1 °C 4,8 km/h (1 Bft)
07.11.2017 09:09 2,0 °C 2,1 °C 96 % 1017,8 hPa 0,0 mm 4,4 km/h (1 Bft) NO 56 ° 0 min 0,000 mm 0,0 UV-I 37 W/m² 1,4 °C 2,0 °C 6,4 km/h (2 Bft)
07.11.2017 09:10 2,1 °C 2,1 °C 96 % 1017,8 hPa 0,0 mm 4,0 km/h (1 Bft) NO 56 ° 0 min 0,000 mm 0,0 UV-I 33 W/m² 1,5 °C 2,1 °C 6,4 km/h (2 Bft)
07.11.2017 09:11 2,1 °C 2,1 °C 96 % 1017,7 hPa 0,0 mm 2,6 km/h (1 Bft) NO 50 ° 0 min 0,000 mm 0,0 UV-I 32 W/m² 1,5 °C 2,1 °C 4,8 km/h (1 Bft)
07.11.2017 09:12 2,0 °C 2,1 °C 96 % 1017,7 hPa 0,0 mm 2,3 km/h (1 Bft) O-NO 60 ° 0 min 0,000 mm 0,0 UV-I 32 W/m² 1,4 °C 2,0 °C 4,8 km/h (1 Bft)
07.11.2017 09:13 2,1 °C 2,1 °C 96 % 1017,8 hPa 0,0 mm 1,8 km/h (1 Bft) NO 51 ° 0 min 0,000 mm 0,0 UV-I 30 W/m² 1,5 °C 2,1 °C 6,4 km/h (2 Bft)
07.11.2017 09:14 2,1 °C 2,1 °C 96 % 1017,7 hPa 0,0 mm 5,4 km/h (1 Bft) O-NO 74 ° 0 min 0,000 mm 0,0 UV-I 28 W/m² 1,5 °C 0,6 °C 6,4 km/h (2 Bft)
07.11.2017 09:15 2,1 °C 2,1 °C 96 % 1017,7 hPa 0,0 mm 2,2 km/h (1 Bft) O-NO 74 ° 0 min 0,000 mm 0,0 UV-I 26 W/m² 1,5 °C 2,1 °C 4,8 km/h (1 Bft)
07.11.2017 09:16 2,1 °C 2,1 °C 96 % 1017,7 hPa 0,0 mm 0,1 km/h (0 Bft) O-NO 70 ° 0 min 0,000 mm 0,0 UV-I 28 W/m² 1,5 °C 2,1 °C 1,6 km/h (1 Bft)
07.11.2017 09:17 2,1 °C 2,1 °C 96 % 1017,7 hPa 0,0 mm 4,6 km/h (1 Bft) N-NO 32 ° 0 min 0,000 mm 0,0 UV-I 33 W/m² 1,5 °C 1,0 °C 8,0 km/h (2 Bft)
07.11.2017 09:18 2,1 °C 2,1 °C 96 % 1017,7 hPa 0,0 mm 3,6 km/h (1 Bft) NO 46 ° 0 min 0,000 mm 0,0 UV-I 39 W/m² 1,5 °C 2,1 °C 4,8 km/h (1 Bft)
07.11.2017 09:19 2,1 °C 2,1 °C 96 % 1017,7 hPa 0,0 mm 4,4 km/h (1 Bft) O-NO 66 ° 0 min 0,000 mm 0,0 UV-I 46 W/m² 1,5 °C 2,1 °C 6,4 km/h (2 Bft)
07.11.2017 09:20 2,1 °C 2,1 °C 96 % 1017,7 hPa 0,0 mm 3,2 km/h (1 Bft) N-NO 32 ° 0 min 0,000 mm 0,0 UV-I 47 W/m² 1,5 °C 2,1 °C 4,8 km/h (1 Bft)
07.11.2017 09:21 2,1 °C 2,1 °C 96 % 1017,7 hPa 0,0 mm 3,3 km/h (1 Bft) N-NO 32 ° 0 min 0,000 mm 0,0 UV-I 51 W/m² 1,5 °C 2,1 °C 4,8 km/h (1 Bft)
07.11.2017 09:22 2,1 °C 2,1 °C 96 % 1017,7 hPa 0,0 mm 0,8 km/h (0 Bft) N-NO 32 ° 0 min 0,000 mm 0,0 UV-I 49 W/m² 1,5 °C 2,1 °C 1,6 km/h (1 Bft)
07.11.2017 09:23 2,1 °C 2,1 °C 96 % 1017,6 hPa 0,0 mm 2,3 km/h (1 Bft) N-NO 32 ° 0 min 0,000 mm 0,0 UV-I 51 W/m² 1,5 °C 2,1 °C 4,8 km/h (1 Bft)
07.11.2017 09:24 2,1 °C 2,1 °C 96 % 1017,6 hPa 0,0 mm 1,0 km/h (0 Bft) N-NO 32 ° 0 min 0,000 mm 0,0 UV-I 58 W/m² 1,5 °C 2,1 °C 3,2 km/h (1 Bft)
07.11.2017 09:25 2,1 °C 2,1 °C 96 % 1017,6 hPa 0,0 mm 4,0 km/h (1 Bft) N-NO 29 ° 0 min 0,000 mm 0,0 UV-I 65 W/m² 1,5 °C 2,1 °C 6,4 km/h (2 Bft)
07.11.2017 09:26 2,1 °C 2,1 °C 96 % 1017,6 hPa 0,0 mm 5,5 km/h (1 Bft) NO 46 ° 0 min 0,000 mm 0,5 UV-I 67 W/m² 1,5 °C 0,6 °C 8,0 km/h (2 Bft)
07.11.2017 09:27 2,1 °C 2,1 °C 96 % 1017,5 hPa 0,0 mm 4,3 km/h (1 Bft) O-NO 57 ° 0 min 0,000 mm 0,5 UV-I 63 W/m² 1,5 °C 2,1 °C 8,0 km/h (2 Bft)
07.11.2017 09:28 2,1 °C 2,1 °C 96 % 1017,5 hPa 0,0 mm 2,3 km/h (1 Bft) O-NO 57 ° 0 min 0,000 mm 0,0 UV-I 54 W/m² 1,5 °C 2,1 °C 3,2 km/h (1 Bft)
07.11.2017 09:29 2,1 °C 2,1 °C 96 % 1017,5 hPa 0,0 mm 4,0 km/h (1 Bft) O 81 ° 0 min 0,000 mm 0,0 UV-I 49 W/m² 1,5 °C 2,1 °C 6,4 km/h (2 Bft)
07.11.2017 09:30 2,1 °C 2,1 °C 96 % 1017,6 hPa 0,0 mm 3,7 km/h (1 Bft) O 84 ° 0 min 0,000 mm 0,0 UV-I 47 W/m² 1,5 °C 2,1 °C 6,4 km/h (2 Bft)
07.11.2017 09:31 2,2 °C 2,2 °C 96 % 1017,6 hPa 0,0 mm 3,5 km/h (1 Bft) O 84 ° 0 min 0,000 mm 0,0 UV-I 51 W/m² 1,6 °C 2,2 °C 4,8 km/h (1 Bft)
07.11.2017 09:32 2,1 °C 2,2 °C 96 % 1017,6 hPa 0,0 mm 3,4 km/h (1 Bft) O-NO 63 ° 0 min 0,000 mm 0,0 UV-I 54 W/m² 1,5 °C 2,1 °C 6,4 km/h (2 Bft)
07.11.2017 09:33 2,1 °C 2,1 °C 96 % 1017,6 hPa 0,0 mm 1,9 km/h (1 Bft) O-NO 63 ° 0 min 0,000 mm 0,0 UV-I 60 W/m² 1,5 °C 2,1 °C 3,2 km/h (1 Bft)
07.11.2017 09:34 2,1 °C 2,2 °C 96 % 1017,6 hPa 0,0 mm 2,3 km/h (1 Bft) O-NO 63 ° 0 min 0,000 mm 0,0 UV-I 54 W/m² 1,5 °C 2,1 °C 3,2 km/h (1 Bft)
07.11.2017 09:35 2,1 °C 2,1 °C 96 % 1017,5 hPa 0,0 mm 1,0 km/h (0 Bft) O-NO 63 ° 0 min 0,000 mm 0,0 UV-I 51 W/m² 1,5 °C 2,1 °C 3,2 km/h (1 Bft)
07.11.2017 09:36 2,1 °C 2,1 °C 96 % 1017,5 hPa 0,0 mm 1,7 km/h (1 Bft) O-NO 63 ° 0 min 0,000 mm 0,0 UV-I 49 W/m² 1,5 °C 2,1 °C 4,8 km/h (1 Bft)
07.11.2017 09:37 2,1 °C 2,1 °C 96 % 1017,5 hPa 0,0 mm 2,8 km/h (1 Bft) O-NO 63 ° 0 min 0,000 mm 0,0 UV-I 49 W/m² 1,5 °C 2,1 °C 3,2 km/h (1 Bft)
07.11.2017 09:38 2,1 °C 2,1 °C 96 % 1017,5 hPa 0,0 mm 3,6 km/h (1 Bft) O-NO 63 ° 0 min 0,000 mm 0,0 UV-I 51 W/m² 1,5 °C 2,1 °C 4,8 km/h (1 Bft)
07.11.2017 09:39 2,1 °C 2,1 °C 96 % 1017,5 hPa 0,0 mm 2,6 km/h (1 Bft) O-NO 63 ° 0 min 0,000 mm 0,0 UV-I 51 W/m² 1,5 °C 2,1 °C 3,2 km/h (1 Bft)
07.11.2017 09:40 2,1 °C 2,1 °C 96 % 1017,5 hPa 0,0 mm 2,1 km/h (1 Bft) O-NO 63 ° 0 min 0,000 mm 0,0 UV-I 53 W/m² 1,5 °C 2,1 °C 4,8 km/h (1 Bft)
07.11.2017 09:41 2,1 °C 2,1 °C 96 % 1017,6 hPa 0,0 mm 4,0 km/h (1 Bft) O-NO 74 ° 0 min 0,000 mm 0,0 UV-I 51 W/m² 1,5 °C 2,1 °C 4,8 km/h (1 Bft)
07.11.2017 09:42 2,2 °C 2,2 °C 96 % 1017,6 hPa 0,0 mm 3,1 km/h (1 Bft) O-NO 74 ° 0 min 0,000 mm 0,0 UV-I 47 W/m² 1,6 °C 2,2 °C 4,8 km/h (1 Bft)
07.11.2017 09:43 2,2 °C 2,2 °C 96 % 1017,6 hPa 0,0 mm 5,5 km/h (1 Bft) O-NO 74 ° 0 min 0,000 mm 0,0 UV-I 47 W/m² 1,6 °C 0,7 °C 8,0 km/h (2 Bft)
07.11.2017 09:44 2,2 °C 2,2 °C 96 % 1017,5 hPa 0,0 mm 3,0 km/h (1 Bft) O 94 ° 0 min 0,000 mm 0,0 UV-I 54 W/m² 1,6 °C 2,2 °C 6,4 km/h (2 Bft)
07.11.2017 09:45 2,2 °C 2,2 °C 96 % 1017,5 hPa 0,0 mm 6,8 km/h (2 Bft) SO 132 ° 0 min 0,000 mm 0,0 UV-I 58 W/m² 1,6 °C 0,2 °C 9,7 km/h (2 Bft)
07.11.2017 09:46 2,2 °C 2,2 °C 96 % 1017,5 hPa 0,0 mm 4,3 km/h (1 Bft) O-SO 105 ° 0 min 0,000 mm 0,0 UV-I 54 W/m² 1,6 °C 2,2 °C 6,4 km/h (2 Bft)
07.11.2017 09:47 2,2 °C 2,2 °C 96 % 1017,5 hPa 0,0 mm 4,3 km/h (1 Bft) O-NO 59 ° 0 min 0,000 mm 0,0 UV-I 51 W/m² 1,6 °C 2,2 °C 6,4 km/h (2 Bft)
07.11.2017 09:48 2,2 °C 2,2 °C 96 % 1017,5 hPa 0,0 mm 3,6 km/h (1 Bft) O-NO 61 ° 0 min 0,000 mm 0,0 UV-I 47 W/m² 1,6 °C 2,2 °C 6,4 km/h (2 Bft)
07.11.2017 09:49 2,2 °C 2,2 °C 96 % 1017,5 hPa 0,0 mm 3,0 km/h (1 Bft) O-NO 61 ° 0 min 0,000 mm 0,0 UV-I 47 W/m² 1,6 °C 2,2 °C 4,8 km/h (1 Bft)
07.11.2017 09:50 2,1 °C 2,2 °C 96 % 1017,5 hPa 0,0 mm 2,9 km/h (1 Bft) O-NO 59 ° 0 min 0,000 mm 0,0 UV-I 47 W/m² 1,5 °C 2,1 °C 4,8 km/h (1 Bft)
07.11.2017 09:51 2,2 °C 2,2 °C 96 % 1017,5 hPa 0,0 mm 4,0 km/h (1 Bft) O 84 ° 0 min 0,000 mm 0,0 UV-I 58 W/m² 1,6 °C 2,2 °C 8,0 km/h (2 Bft)
07.11.2017 09:52 2,2 °C 2,2 °C 96 % 1017,5 hPa 0,0 mm 5,8 km/h (2 Bft) O-NO 77 ° 0 min 0,000 mm 0,5 UV-I 62 W/m² 1,6 °C 0,6 °C 8,0 km/h (2 Bft)
07.11.2017 09:53 2,2 °C 2,2 °C 96 % 1017,5 hPa 0,0 mm 4,4 km/h (1 Bft) NO 48 ° 0 min 0,000 mm 0,5 UV-I 69 W/m² 1,6 °C 2,2 °C 6,4 km/h (2 Bft)
07.11.2017 09:54 2,2 °C 2,2 °C 96 % 1017,5 hPa 0,0 mm 2,7 km/h (1 Bft) O-NO 62 ° 0 min 0,000 mm 0,5 UV-I 77 W/m² 1,6 °C 2,2 °C 4,8 km/h (1 Bft)
07.11.2017 09:55 2,2 °C 2,2 °C 96 % 1017,5 hPa 0,0 mm 2,4 km/h (1 Bft) O-NO 62 ° 0 min 0,000 mm 0,6 UV-I 81 W/m² 1,6 °C 2,2 °C 4,8 km/h (1 Bft)
07.11.2017 09:56 2,2 °C 2,2 °C 96 % 1017,5 hPa 0,0 mm 3,1 km/h (1 Bft) O 80 ° 0 min 0,000 mm 0,6 UV-I 83 W/m² 1,6 °C 2,2 °C 6,4 km/h (2 Bft)
07.11.2017 09:57 2,2 °C 2,2 °C 96 % 1017,5 hPa 0,0 mm 3,9 km/h (1 Bft) O 82 ° 0 min 0,000 mm 0,6 UV-I 84 W/m² 1,6 °C 2,2 °C 6,4 km/h (2 Bft)
07.11.2017 09:58 2,2 °C 2,2 °C 96 % 1017,5 hPa 0,0 mm 3,6 km/h (1 Bft) O-NO 57 ° 0 min 0,000 mm 0,6 UV-I 81 W/m² 1,6 °C 2,2 °C 4,8 km/h (1 Bft)
07.11.2017 09:59 2,2 °C 2,3 °C 96 % 1017,5 hPa 0,0 mm 6,1 km/h (2 Bft) O 81 ° 0 min 0,000 mm 0,6 UV-I 83 W/m² 1,6 °C 0,5 °C 8,0 km/h (2 Bft)
07.11.2017 10:00 2,3 °C 2,3 °C 96 % 1017,5 hPa 0,0 mm 4,0 km/h (1 Bft) O-NO 67 ° 0 min 0,000 mm 0,6 UV-I 84 W/m² 1,7 °C 2,3 °C 6,4 km/h (2 Bft)
07.11.2017 10:01 2,3 °C 2,3 °C 96 % 1017,5 hPa 0,0 mm 0,8 km/h (0 Bft) O-NO 67 ° 0 min 0,025 mm 0,7 UV-I 88 W/m² 1,7 °C 2,3 °C 3,2 km/h (1 Bft)
07.11.2017 10:02 2,3 °C 2,3 °C 96 % 1017,5 hPa 0,0 mm 2,9 km/h (1 Bft) O-NO 65 ° 0 min 0,000 mm 0,7 UV-I 98 W/m² 1,7 °C 2,3 °C 6,4 km/h (2 Bft)
07.11.2017 10:03 2,3 °C 2,3 °C 96 % 1017,5 hPa 0,0 mm 4,8 km/h (1 Bft) O-NO 65 ° 0 min 0,000 mm 0,8 UV-I 111 W/m² 1,7 °C 1,1 °C 6,4 km/h (2 Bft)
07.11.2017 10:04 2,3 °C 2,3 °C 96 % 1017,5 hPa 0,0 mm 5,1 km/h (1 Bft) O-NO 66 ° 0 min 0,000 mm 0,7 UV-I 107 W/m² 1,7 °C 1,0 °C 6,4 km/h (2 Bft)
07.11.2017 10:05 2,3 °C 2,3 °C 96 % 1017,4 hPa 0,0 mm 4,0 km/h (1 Bft) O-NO 71 ° 0 min 0,000 mm 0,7 UV-I 102 W/m² 1,7 °C 2,3 °C 6,4 km/h (2 Bft)
07.11.2017 10:06 2,3 °C 2,3 °C 96 % 1017,4 hPa 0,0 mm 4,5 km/h (1 Bft) NO 42 ° 0 min 0,000 mm 0,7 UV-I 104 W/m² 1,7 °C 2,3 °C 6,4 km/h (2 Bft)
07.11.2017 10:07 2,3 °C 2,3 °C 96 % 1017,3 hPa 0,0 mm 1,2 km/h (1 Bft) NO 42 ° 0 min 0,000 mm 0,7 UV-I 111 W/m² 1,7 °C 2,3 °C 4,8 km/h (1 Bft)
07.11.2017 10:08 2,3 °C 2,3 °C 96 % 1017,3 hPa 0,0 mm 1,0 km/h (0 Bft) NO 42 ° 0 min 0,000 mm 0,6 UV-I 111 W/m² 1,7 °C 2,3 °C 3,2 km/h (1 Bft)
07.11.2017 10:09 2,3 °C 2,4 °C 96 % 1017,3 hPa 0,0 mm 1,9 km/h (1 Bft) NO 47 ° 0 min 0,000 mm 0,6 UV-I 123 W/m² 1,7 °C 2,3 °C 3,2 km/h (1 Bft)
07.11.2017 10:10 2,4 °C 2,4 °C 96 % 1017,3 hPa 0,0 mm 4,2 km/h (1 Bft) NO 46 ° 0 min 0,000 mm 0,7 UV-I 130 W/m² 1,8 °C 2,4 °C 8,0 km/h (2 Bft)
07.11.2017 10:11 2,4 °C 2,4 °C 96 % 1017,2 hPa 0,0 mm 2,9 km/h (1 Bft) O-NO 65 ° 0 min 0,000 mm 0,7 UV-I 125 W/m² 1,8 °C 2,4 °C 4,8 km/h (1 Bft)
07.11.2017 10:12 2,4 °C 2,4 °C 96 % 1017,2 hPa 0,0 mm 5,4 km/h (1 Bft) O-NO 76 ° 0 min 0,000 mm 0,7 UV-I 123 W/m² 1,8 °C 1,0 °C 6,4 km/h (2 Bft)
07.11.2017 10:13 2,4 °C 2,5 °C 96 % 1017,1 hPa 0,0 mm 3,9 km/h (1 Bft) O-NO 65 ° 0 min 0,000 mm 0,7 UV-I 141 W/m² 1,8 °C 2,4 °C 4,8 km/h (1 Bft)
07.11.2017 10:14 2,4 °C 2,5 °C 96 % 1017,1 hPa 0,0 mm 4,2 km/h (1 Bft) O-NO 63 ° 0 min 0,000 mm 0,7 UV-I 149 W/m² 1,8 °C 2,4 °C 6,4 km/h (2 Bft)
07.11.2017 10:15 2,5 °C 2,5 °C 96 % 1017,2 hPa 0,0 mm 3,6 km/h (1 Bft) O-NO 60 ° 0 min 0,000 mm 0,8 UV-I 162 W/m² 1,9 °C 2,5 °C 6,4 km/h (2 Bft)
07.11.2017 10:16 2,5 °C 2,5 °C 96 % 1017,2 hPa 0,0 mm 3,4 km/h (1 Bft) O-NO 70 ° 0 min 0,000 mm 0,8 UV-I 158 W/m² 1,9 °C 2,5 °C 6,4 km/h (2 Bft)
07.11.2017 10:17 2,6 °C 2,6 °C 96 % 1017,2 hPa 0,0 mm 4,1 km/h (1 Bft) NO 46 ° 0 min 0,000 mm 0,8 UV-I 158 W/m² 2,0 °C 2,6 °C 8,0 km/h (2 Bft)
07.11.2017 10:18 2,6 °C 2,6 °C 96 % 1017,2 hPa 0,0 mm 7,3 km/h (2 Bft) O-NO 72 ° 0 min 0,000 mm 0,8 UV-I 165 W/m² 2,0 °C 0,5 °C 9,7 km/h (2 Bft)
07.11.2017 10:19 2,6 °C 2,6 °C 95 % 1017,2 hPa 0,0 mm 6,5 km/h (2 Bft) NO 55 ° 0 min 0,000 mm 0,8 UV-I 185 W/m² 1,9 °C 0,8 °C 8,0 km/h (2 Bft)
07.11.2017 10:20 2,6 °C 2,6 °C 95 % 1017,2 hPa 0,0 mm 2,6 km/h (1 Bft) NO 55 ° 0 min 0,000 mm 0,8 UV-I 192 W/m² 1,9 °C 2,6 °C 6,4 km/h (2 Bft)
07.11.2017 10:21 2,6 °C 2,6 °C 95 % 1017,2 hPa 0,0 mm 2,2 km/h (1 Bft) NO 55 ° 0 min 0,000 mm 0,8 UV-I 172 W/m² 1,9 °C 2,6 °C 4,8 km/h (1 Bft)
07.11.2017 10:22 2,7 °C 2,7 °C 95 % 1017,2 hPa 0,0 mm 4,2 km/h (1 Bft) O-NO 78 ° 0 min 0,000 mm 0,7 UV-I 146 W/m² 2,0 °C 2,7 °C 6,4 km/h (2 Bft)
07.11.2017 10:23 2,7 °C 2,7 °C 95 % 1017,3 hPa 0,0 mm 4,3 km/h (1 Bft) O-NO 65 ° 0 min 0,000 mm 0,7 UV-I 127 W/m² 2,0 °C 2,7 °C 8,0 km/h (2 Bft)
07.11.2017 10:24 2,7 °C 2,7 °C 95 % 1017,3 hPa 0,0 mm 4,4 km/h (1 Bft) O-NO 65 ° 0 min 0,000 mm 0,6 UV-I 128 W/m² 2,0 °C 2,7 °C 6,4 km/h (2 Bft)
07.11.2017 10:25 2,7 °C 2,7 °C 95 % 1017,2 hPa 0,0 mm 4,8 km/h (1 Bft) O-NO 58 ° 0 min 0,000 mm 0,6 UV-I 118 W/m² 2,0 °C 1,6 °C 8,0 km/h (2 Bft)
07.11.2017 10:26 2,7 °C 2,7 °C 95 % 1017,2 hPa 0,0 mm 1,8 km/h (1 Bft) O-NO 63 ° 0 min 0,000 mm 0,6 UV-I 91 W/m² 2,0 °C 2,7 °C 4,8 km/h (1 Bft)
07.11.2017 10:27 2,7 °C 2,7 °C 95 % 1017,2 hPa 0,0 mm 3,8 km/h (1 Bft) O-NO 63 ° 0 min 0,000 mm 0,5 UV-I 84 W/m² 2,0 °C 2,7 °C 4,8 km/h (1 Bft)
07.11.2017 10:28 2,7 °C 2,7 °C 95 % 1017,2 hPa 0,0 mm 4,0 km/h (1 Bft) O-NO 63 ° 0 min 0,000 mm 0,0 UV-I 79 W/m² 2,0 °C 2,7 °C 6,4 km/h (2 Bft)
07.11.2017 10:29 2,7 °C 2,7 °C 95 % 1017,2 hPa 0,0 mm 5,4 km/h (1 Bft) O-NO 60 ° 0 min 0,000 mm 0,0 UV-I 72 W/m² 2,0 °C 1,3 °C 8,0 km/h (2 Bft)
07.11.2017 10:30 2,7 °C 2,7 °C 95 % 1017,2 hPa 0,0 mm 4,0 km/h (1 Bft) N-NO 32 ° 0 min 0,000 mm 0,0 UV-I 65 W/m² 2,0 °C 2,7 °C 6,4 km/h (2 Bft)
07.11.2017 10:31 2,6 °C 2,7 °C 95 % 1017,2 hPa 0,0 mm 3,4 km/h (1 Bft) NO 40 ° 0 min 0,000 mm 0,0 UV-I 62 W/m² 1,9 °C 2,6 °C 4,8 km/h (1 Bft)
07.11.2017 10:32 2,6 °C 2,7 °C 95 % 1017,2 hPa 0,0 mm 4,3 km/h (1 Bft) NO 44 ° 0 min 0,000 mm 0,0 UV-I 56 W/m² 1,9 °C 2,6 °C 6,4 km/h (2 Bft)
07.11.2017 10:33 2,6 °C 2,6 °C 95 % 1017,2 hPa 0,0 mm 5,3 km/h (1 Bft) O-NO 61 ° 0 min 0,000 mm 0,0 UV-I 58 W/m² 1,9 °C 1,2 °C 6,4 km/h (2 Bft)
07.11.2017 10:34 2,6 °C 2,6 °C 95 % 1017,2 hPa 0,0 mm 3,2 km/h (1 Bft) NO 36 ° 0 min 0,000 mm 0,0 UV-I 63 W/m² 1,9 °C 2,6 °C 6,4 km/h (2 Bft)
07.11.2017 10:35 2,6 °C 2,6 °C 95 % 1017,2 hPa 0,0 mm 6,1 km/h (2 Bft) O-NO 57 ° 0 min 0,000 mm 0,0 UV-I 69 W/m² 1,9 °C 0,9 °C 8,0 km/h (2 Bft)
07.11.2017 10:36 2,6 °C 2,6 °C 95 % 1017,2 hPa 0,0 mm 6,5 km/h (2 Bft) N-NO 32 ° 0 min 0,000 mm 0,5 UV-I 76 W/m² 1,9 °C 0,8 °C 8,0 km/h (2 Bft)
07.11.2017 10:37 2,6 °C 2,6 °C 94 % 1017,2 hPa 0,0 mm 1,7 km/h (1 Bft) N-NO 32 ° 0 min 0,000 mm 0,5 UV-I 81 W/m² 1,7 °C 2,6 °C 4,8 km/h (1 Bft)
07.11.2017 10:38 2,6 °C 2,6 °C 94 % 1017,1 hPa 0,0 mm 1,3 km/h (1 Bft) O-NO 71 ° 0 min 0,000 mm 0,5 UV-I 84 W/m² 1,7 °C 2,6 °C 4,8 km/h (1 Bft)
07.11.2017 10:39 2,6 °C 2,6 °C 94 % 1017,1 hPa 0,0 mm 4,6 km/h (1 Bft) O-NO 57 ° 0 min 0,000 mm 0,5 UV-I 83 W/m² 1,7 °C 1,5 °C 6,4 km/h (2 Bft)
07.11.2017 10:40 2,6 °C 2,6 °C 95 % 1017,1 hPa 0,0 mm 4,8 km/h (1 Bft) O-NO 57 ° 0 min 0,000 mm 0,5 UV-I 81 W/m² 1,9 °C 1,4 °C 6,4 km/h (2 Bft)
07.11.2017 10:41 2,6 °C 2,6 °C 95 % 1017,1 hPa 0,0 mm 3,4 km/h (1 Bft) NO 53 ° 0 min 0,000 mm 0,0 UV-I 76 W/m² 1,9 °C 2,6 °C 4,8 km/h (1 Bft)
07.11.2017 10:42 2,6 °C 2,6 °C 94 % 1017,1 hPa 0,0 mm 4,6 km/h (1 Bft) NO 53 ° 0 min 0,000 mm 0,0 UV-I 76 W/m² 1,7 °C 1,5 °C 6,4 km/h (2 Bft)
07.11.2017 10:43 2,6 °C 2,6 °C 94 % 1017,1 hPa 0,0 mm 5,0 km/h (1 Bft) O 80 ° 0 min 0,000 mm 0,0 UV-I 65 W/m² 1,7 °C 1,4 °C 6,4 km/h (2 Bft)
07.11.2017 10:44 2,6 °C 2,6 °C 94 % 1017,1 hPa 0,0 mm 4,7 km/h (1 Bft) O 80 ° 0 min 0,000 mm 0,0 UV-I 69 W/m² 1,7 °C 1,5 °C 6,4 km/h (2 Bft)
07.11.2017 10:45 2,6 °C 2,6 °C 94 % 1017,1 hPa 0,0 mm 1,7 km/h (1 Bft) O 80 ° 0 min 0,000 mm 0,5 UV-I 70 W/m² 1,7 °C 2,6 °C 4,8 km/h (1 Bft)
07.11.2017 10:46 2,6 °C 2,6 °C 94 % 1017,0 hPa 0,0 mm 1,9 km/h (1 Bft) O-NO 77 ° 0 min 0,000 mm 0,5 UV-I 76 W/m² 1,7 °C 2,6 °C 4,8 km/h (1 Bft)
07.11.2017 10:47 2,6 °C 2,6 °C 94 % 1017,1 hPa 0,0 mm 1,3 km/h (1 Bft) O-NO 77 ° 0 min 0,000 mm 0,5 UV-I 79 W/m² 1,7 °C 2,6 °C 4,8 km/h (1 Bft)
07.11.2017 10:48 2,6 °C 2,6 °C 94 % 1017,1 hPa 0,0 mm 1,0 km/h (0 Bft) O-NO 77 ° 0 min 0,000 mm 0,5 UV-I 81 W/m² 1,7 °C 2,6 °C 3,2 km/h (1 Bft)
07.11.2017 10:49 2,6 °C 2,6 °C 94 % 1017,1 hPa 0,2 mm 2,7 km/h (1 Bft) N-NO 30 ° 0 min 0,000 mm 0,5 UV-I 88 W/m² 1,7 °C 2,6 °C 6,4 km/h (2 Bft)
07.11.2017 10:50 2,7 °C 2,7 °C 94 % 1017,1 hPa 0,0 mm 3,4 km/h (1 Bft) NO 43 ° 0 min 0,000 mm 0,6 UV-I 91 W/m² 1,8 °C 2,7 °C 4,8 km/h (1 Bft)
07.11.2017 10:51 2,6 °C 2,7 °C 95 % 1017,1 hPa 0,0 mm 2,8 km/h (1 Bft) NO 53 ° 0 min 0,000 mm 0,6 UV-I 91 W/m² 1,9 °C 2,6 °C 4,8 km/h (1 Bft)
07.11.2017 10:52 2,7 °C 2,7 °C 94 % 1017,2 hPa 0,0 mm 3,0 km/h (1 Bft) O-NO 67 ° 0 min 0,000 mm 0,5 UV-I 91 W/m² 1,8 °C 2,7 °C 6,4 km/h (2 Bft)
07.11.2017 10:53 2,7 °C 2,7 °C 94 % 1017,1 hPa 0,0 mm 2,3 km/h (1 Bft) O-NO 67 ° 0 min 0,000 mm 0,5 UV-I 90 W/m² 1,8 °C 2,7 °C 4,8 km/h (1 Bft)
07.11.2017 10:54 2,7 °C 2,7 °C 94 % 1017,1 hPa 0,0 mm 3,6 km/h (1 Bft) NO 39 ° 0 min 0,000 mm 0,5 UV-I 91 W/m² 1,8 °C 2,7 °C 6,4 km/h (2 Bft)
07.11.2017 10:55 2,7 °C 2,7 °C 94 % 1017,1 hPa 0,0 mm 3,6 km/h (1 Bft) NO 37 ° 0 min 0,000 mm 0,6 UV-I 93 W/m² 1,8 °C 2,7 °C 6,4 km/h (2 Bft)
07.11.2017 10:56 2,7 °C 2,7 °C 94 % 1017,1 hPa 0,0 mm 4,6 km/h (1 Bft) NO 34 ° 0 min 0,000 mm 0,6 UV-I 86 W/m² 1,8 °C 1,7 °C 6,4 km/h (2 Bft)
07.11.2017 10:57 2,7 °C 2,7 °C 94 % 1017,1 hPa 0,0 mm 4,7 km/h (1 Bft) NO 48 ° 0 min 0,000 mm 0,6 UV-I 84 W/m² 1,8 °C 1,6 °C 6,4 km/h (2 Bft)
07.11.2017 10:58 2,7 °C 2,7 °C 94 % 1017,0 hPa 0,0 mm 5,4 km/h (1 Bft) NO 39 ° 0 min 0,000 mm 0,6 UV-I 90 W/m² 1,8 °C 1,3 °C 6,4 km/h (2 Bft)
07.11.2017 10:59 2,7 °C 2,7 °C 94 % 1017,0 hPa 0,0 mm 3,4 km/h (1 Bft) NO 39 ° 0 min 0,000 mm 0,6 UV-I 98 W/m² 1,8 °C 2,7 °C 6,4 km/h (2 Bft)
07.11.2017 11:00 2,6 °C 2,7 °C 94 % 1017,0 hPa 0,0 mm 4,1 km/h (1 Bft) O-NO 57 ° 0 min 0,051 mm 0,6 UV-I 95 W/m² 1,7 °C 2,6 °C 6,4 km/h (2 Bft)
07.11.2017 11:01 2,6 °C 2,6 °C 94 % 1017,0 hPa 0,0 mm 2,2 km/h (1 Bft) O-NO 57 ° 0 min 0,000 mm 0,5 UV-I 95 W/m² 1,7 °C 2,6 °C 3,2 km/h (1 Bft)
07.11.2017 11:02 2,6 °C 2,6 °C 94 % 1017,0 hPa 0,0 mm 2,2 km/h (1 Bft) O-NO 57 ° 0 min 0,000 mm 0,6 UV-I 104 W/m² 1,7 °C 2,6 °C 3,2 km/h (1 Bft)
07.11.2017 11:03 2,6 °C 2,6 °C 94 % 1017,0 hPa 0,0 mm 1,9 km/h (1 Bft) O-NO 57 ° 0 min 0,000 mm 0,7 UV-I 116 W/m² 1,7 °C 2,6 °C 3,2 km/h (1 Bft)
07.11.2017 11:04 2,6 °C 2,7 °C 94 % 1017,0 hPa 0,0 mm 2,9 km/h (1 Bft) O-NO 57 ° 0 min 0,000 mm 0,7 UV-I 120 W/m² 1,7 °C 2,6 °C 4,8 km/h (1 Bft)
07.11.2017 11:05 2,7 °C 2,7 °C 94 % 1017,0 hPa 0,0 mm 1,8 km/h (1 Bft) O-NO 57 ° 0 min 0,000 mm 0,6 UV-I 114 W/m² 1,8 °C 2,7 °C 3,2 km/h (1 Bft)
07.11.2017 11:06 2,7 °C 2,7 °C 94 % 1017,0 hPa 0,0 mm 4,0 km/h (1 Bft) NO 50 ° 0 min 0,000 mm 0,6 UV-I 113 W/m² 1,8 °C 2,7 °C 6,4 km/h (2 Bft)
07.11.2017 11:07 2,7 °C 2,7 °C 94 % 1017,0 hPa 0,0 mm 6,8 km/h (2 Bft) NO 42 ° 0 min 0,000 mm 0,7 UV-I 113 W/m² 1,8 °C 0,8 °C 8,0 km/h (2 Bft)
07.11.2017 11:08 2,7 °C 2,7 °C 94 % 1017,0 hPa 0,0 mm 3,4 km/h (1 Bft) NO 43 ° 0 min 0,000 mm 0,7 UV-I 111 W/m² 1,8 °C 2,7 °C 4,8 km/h (1 Bft)
07.11.2017 11:09 2,7 °C 2,7 °C 94 % 1017,0 hPa 0,0 mm 5,2 km/h (1 Bft) NO 48 ° 0 min 0,000 mm 0,7 UV-I 118 W/m² 1,8 °C 1,4 °C 6,4 km/h (2 Bft)
07.11.2017 11:10 2,7 °C 2,7 °C 94 % 1017,0 hPa 0,0 mm 4,8 km/h (1 Bft) NO 44 ° 0 min 0,000 mm 0,9 UV-I 134 W/m² 1,8 °C 1,6 °C 8,0 km/h (2 Bft)
07.11.2017 11:11 2,7 °C 2,7 °C 94 % 1017,0 hPa 0,0 mm 5,2 km/h (1 Bft) N-NO 27 ° 0 min 0,000 mm 0,9 UV-I 130 W/m² 1,8 °C 1,4 °C 6,4 km/h (2 Bft)
07.11.2017 11:12 2,7 °C 2,7 °C 94 % 1017,0 hPa 0,0 mm 4,7 km/h (1 Bft) N-NO 31 ° 0 min 0,000 mm 1,0 UV-I 132 W/m² 1,8 °C 1,6 °C 6,4 km/h (2 Bft)
07.11.2017 11:13 2,7 °C 2,7 °C 94 % 1016,9 hPa 0,0 mm 3,9 km/h (1 Bft) N-NO 19 ° 0 min 0,000 mm 1,1 UV-I 149 W/m² 1,8 °C 2,7 °C 6,4 km/h (2 Bft)
07.11.2017 11:14 2,8 °C 2,8 °C 94 % 1016,9 hPa 0,0 mm 3,7 km/h (1 Bft) NO 42 ° 0 min 0,000 mm 1,1 UV-I 151 W/m² 1,9 °C 2,8 °C 6,4 km/h (2 Bft)
07.11.2017 11:15 2,8 °C 2,8 °C 94 % 1016,9 hPa 0,0 mm 4,2 km/h (1 Bft) NO 44 ° 0 min 0,000 mm 1,1 UV-I 160 W/m² 1,9 °C 2,8 °C 6,4 km/h (2 Bft)
07.11.2017 11:16 2,8 °C 2,8 °C 94 % 1016,8 hPa 0,0 mm 4,3 km/h (1 Bft) NO 42 ° 0 min 0,000 mm 1,2 UV-I 171 W/m² 1,9 °C 2,8 °C 6,4 km/h (2 Bft)
07.11.2017 11:17 2,8 °C 2,8 °C 94 % 1016,8 hPa 0,0 mm 3,5 km/h (1 Bft) NO 42 ° 0 min 0,000 mm 1,2 UV-I 176 W/m² 1,9 °C 2,8 °C 8,0 km/h (2 Bft)
07.11.2017 11:18 2,8 °C 2,8 °C 94 % 1016,8 hPa 0,0 mm 3,9 km/h (1 Bft) NO 42 ° 0 min 0,000 mm 1,1 UV-I 169 W/m² 1,9 °C 2,8 °C 6,4 km/h (2 Bft)
07.11.2017 11:19 2,8 °C 2,8 °C 94 % 1016,8 hPa 0,0 mm 3,2 km/h (1 Bft) NO 44 ° 0 min 0,000 mm 1,1 UV-I 148 W/m² 1,9 °C 2,8 °C 4,8 km/h (1 Bft)
07.11.2017 11:20 2,8 °C 2,8 °C 94 % 1016,8 hPa 0,0 mm 1,1 km/h (1 Bft) NO 44 ° 0 min 0,000 mm 1,0 UV-I 141 W/m² 1,9 °C 2,8 °C 3,2 km/h (1 Bft)
07.11.2017 11:21 2,8 °C 2,8 °C 94 % 1016,8 hPa 0,0 mm 3,8 km/h (1 Bft) N-NO 26 ° 0 min 0,000 mm 0,9 UV-I 134 W/m² 1,9 °C 2,8 °C 6,4 km/h (2 Bft)
07.11.2017 11:22 2,8 °C 2,8 °C 94 % 1016,7 hPa 0,0 mm 3,6 km/h (1 Bft) N-NO 25 ° 0 min 0,000 mm 0,8 UV-I 123 W/m² 1,9 °C 2,8 °C 4,8 km/h (1 Bft)
07.11.2017 11:23 2,9 °C 2,9 °C 94 % 1016,8 hPa 0,0 mm 5,7 km/h (1 Bft) NO 38 ° 0 min 0,000 mm 0,7 UV-I 114 W/m² 2,0 °C 1,4 °C 8,0 km/h (2 Bft)
07.11.2017 11:24 2,9 °C 2,9 °C 94 % 1016,8 hPa 0,0 mm 4,6 km/h (1 Bft) NO 39 ° 0 min 0,000 mm 0,7 UV-I 113 W/m² 2,0 °C 1,9 °C 6,4 km/h (2 Bft)
07.11.2017 11:25 2,9 °C 2,9 °C 94 % 1016,8 hPa 0,0 mm 3,1 km/h (1 Bft) N-NO 29 ° 0 min 0,000 mm 0,7 UV-I 105 W/m² 2,0 °C 2,9 °C 6,4 km/h (2 Bft)
07.11.2017 11:26 2,9 °C 2,9 °C 94 % 1016,8 hPa 0,0 mm 5,3 km/h (1 Bft) NO 37 ° 0 min 0,000 mm 0,6 UV-I 100 W/m² 2,0 °C 1,6 °C 8,0 km/h (2 Bft)
07.11.2017 11:27 2,9 °C 2,9 °C 94 % 1016,7 hPa 0,0 mm 5,5 km/h (1 Bft) NO 46 ° 0 min 0,000 mm 0,6 UV-I 95 W/m² 2,0 °C 1,5 °C 8,0 km/h (2 Bft)
07.11.2017 11:28 2,9 °C 2,9 °C 93 % 1016,6 hPa 0,0 mm 6,8 km/h (2 Bft) O-NO 67 ° 0 min 0,000 mm 0,6 UV-I 88 W/m² 1,9 °C 1,0 °C 9,7 km/h (2 Bft)
07.11.2017 11:29 2,9 °C 2,9 °C 94 % 1016,6 hPa 0,0 mm 5,6 km/h (1 Bft) NO 55 ° 0 min 0,000 mm 0,5 UV-I 81 W/m² 2,0 °C 1,5 °C 8,0 km/h (2 Bft)
07.11.2017 11:30 2,8 °C 2,9 °C 94 % 1016,6 hPa 0,0 mm 4,2 km/h (1 Bft) NO 43 ° 0 min 0,000 mm 0,5 UV-I 79 W/m² 1,9 °C 2,8 °C 6,4 km/h (2 Bft)
07.11.2017 11:31 2,9 °C 2,9 °C 94 % 1016,6 hPa 0,0 mm 3,7 km/h (1 Bft) N 5 ° 0 min 0,000 mm 0,5 UV-I 62 W/m² 2,0 °C 2,9 °C 6,4 km/h (2 Bft)
07.11.2017 11:32 2,9 °C 2,9 °C 94 % 1016,6 hPa 0,0 mm 3,2 km/h (1 Bft) N-NO 12 ° 0 min 0,000 mm 0,5 UV-I 65 W/m² 2,0 °C 2,9 °C 6,4 km/h (2 Bft)
07.11.2017 11:33 2,9 °C 2,9 °C 94 % 1016,5 hPa 0,0 mm 3,0 km/h (1 Bft) O-NO 60 ° 0 min 0,000 mm 0,5 UV-I 60 W/m² 2,0 °C 2,9 °C 4,8 km/h (1 Bft)
07.11.2017 11:34 2,9 °C 2,9 °C 94 % 1016,5 hPa 0,0 mm 2,8 km/h (1 Bft) NO 51 ° 0 min 0,000 mm 0,5 UV-I 65 W/m² 2,0 °C 2,9 °C 4,8 km/h (1 Bft)
07.11.2017 11:35 2,9 °C 2,9 °C 94 % 1016,5 hPa 0,0 mm 2,5 km/h (1 Bft) NO 51 ° 0 min 0,000 mm 0,5 UV-I 69 W/m² 2,0 °C 2,9 °C 3,2 km/h (1 Bft)
07.11.2017 11:36 2,8 °C 2,9 °C 94 % 1016,5 hPa 0,0 mm 2,2 km/h (1 Bft) NO 51 ° 0 min 0,000 mm 0,6 UV-I 77 W/m² 1,9 °C 2,8 °C 3,2 km/h (1 Bft)
07.11.2017 11:37 2,9 °C 2,9 °C 94 % 1016,4 hPa 0,0 mm 3,2 km/h (1 Bft) NO 51 ° 0 min 0,000 mm 0,7 UV-I 113 W/m² 2,0 °C 2,9 °C 4,8 km/h (1 Bft)
07.11.2017 11:38 2,8 °C 2,9 °C 94 % 1016,4 hPa 0,0 mm 1,9 km/h (1 Bft) NO 51 ° 0 min 0,000 mm 0,7 UV-I 98 W/m² 1,9 °C 2,8 °C 3,2 km/h (1 Bft)
07.11.2017 11:39 2,8 °C 2,8 °C 93 % 1016,4 hPa 0,0 mm 6,9 km/h (2 Bft) NO 53 ° 0 min 0,000 mm 0,7 UV-I 84 W/m² 1,8 °C 0,9 °C 9,7 km/h (2 Bft)
07.11.2017 11:40 2,8 °C 2,9 °C 93 % 1016,4 hPa 0,0 mm 4,4 km/h (1 Bft) NO 48 ° 0 min 0,000 mm 0,6 UV-I 76 W/m² 1,8 °C 2,8 °C 9,7 km/h (2 Bft)
07.11.2017 11:41 2,8 °C 2,8 °C 93 % 1016,5 hPa 0,0 mm 6,4 km/h (2 Bft) NO 42 ° 0 min 0,000 mm 0,7 UV-I 83 W/m² 1,8 °C 1,1 °C 8,0 km/h (2 Bft)
07.11.2017 11:42 2,8 °C 2,8 °C 93 % 1016,5 hPa 0,0 mm 5,8 km/h (2 Bft) NO 42 ° 0 min 0,000 mm 0,8 UV-I 113 W/m² 1,8 °C 1,3 °C 9,7 km/h (2 Bft)
07.11.2017 11:43 2,8 °C 2,8 °C 93 % 1016,5 hPa 0,0 mm 5,4 km/h (1 Bft) O-NO 57 ° 0 min 0,000 mm 0,8 UV-I 113 W/m² 1,8 °C 1,4 °C 9,7 km/h (2 Bft)
07.11.2017 11:44 2,7 °C 2,8 °C 93 % 1016,5 hPa 0,0 mm 3,0 km/h (1 Bft) O-NO 70 ° 0 min 0,000 mm 0,7 UV-I 86 W/m² 1,7 °C 2,7 °C 6,4 km/h (2 Bft)
07.11.2017 11:45 2,7 °C 2,7 °C 93 % 1016,5 hPa 0,0 mm 6,1 km/h (2 Bft) O 90 ° 0 min 0,000 mm 0,7 UV-I 90 W/m² 1,7 °C 1,0 °C 11,3 km/h (2 Bft)
07.11.2017 11:46 2,7 °C 2,7 °C 93 % 1016,4 hPa 0,0 mm 4,6 km/h (1 Bft) NO 56 ° 0 min 0,000 mm 0,8 UV-I 109 W/m² 1,7 °C 1,7 °C 9,7 km/h (2 Bft)
07.11.2017 11:47 2,7 °C 2,7 °C 93 % 1016,4 hPa 0,0 mm 6,0 km/h (2 Bft) NO 36 ° 0 min 0,000 mm 0,8 UV-I 123 W/m² 1,7 °C 1,1 °C 9,7 km/h (2 Bft)
07.11.2017 11:48 2,7 °C 2,7 °C 93 % 1016,4 hPa 0,0 mm 5,6 km/h (1 Bft) NO 53 ° 0 min 0,000 mm 0,8 UV-I 102 W/m² 1,7 °C 1,2 °C 8,0 km/h (2 Bft)
07.11.2017 11:49 2,8 °C 2,8 °C 93 % 1016,4 hPa 0,0 mm 3,0 km/h (1 Bft) NO 49 ° 0 min 0,000 mm 0,7 UV-I 98 W/m² 1,8 °C 2,8 °C 4,8 km/h (1 Bft)
07.11.2017 11:50 2,8 °C 2,8 °C 93 % 1016,4 hPa 0,0 mm 2,5 km/h (1 Bft) NO 51 ° 0 min 0,000 mm 0,6 UV-I 88 W/m² 1,8 °C 2,8 °C 8,0 km/h (2 Bft)
07.11.2017 11:51 2,8 °C 2,8 °C 93 % 1016,4 hPa 0,0 mm 5,4 km/h (1 Bft) NO 55 ° 0 min 0,000 mm 0,6 UV-I 79 W/m² 1,8 °C 1,4 °C 8,0 km/h (2 Bft)
07.11.2017 11:52 2,7 °C 2,8 °C 93 % 1016,3 hPa 0,0 mm 4,5 km/h (1 Bft) O-NO 57 ° 0 min 0,000 mm 0,6 UV-I 79 W/m² 1,7 °C 2,7 °C 6,4 km/h (2 Bft)
07.11.2017 11:53 2,7 °C 2,8 °C 93 % 1016,4 hPa 0,0 mm 5,2 km/h (1 Bft) NO 48 ° 0 min 0,000 mm 0,5 UV-I 83 W/m² 1,7 °C 1,4 °C 9,7 km/h (2 Bft)
07.11.2017 11:54 2,7 °C 2,8 °C 93 % 1016,4 hPa 0,0 mm 4,7 km/h (1 Bft) NO 47 ° 0 min 0,000 mm 0,5 UV-I 88 W/m² 1,7 °C 1,6 °C 6,4 km/h (2 Bft)
07.11.2017 11:55 2,7 °C 2,7 °C 93 % 1016,4 hPa 0,0 mm 2,1 km/h (1 Bft) NO 47 ° 0 min 0,000 mm 0,5 UV-I 97 W/m² 1,7 °C 2,7 °C 4,8 km/h (1 Bft)
07.11.2017 11:56 2,8 °C 2,8 °C 93 % 1016,4 hPa 0,0 mm 2,5 km/h (1 Bft) NO 47 ° 0 min 0,000 mm 0,6 UV-I 102 W/m² 1,8 °C 2,8 °C 4,8 km/h (1 Bft)
07.11.2017 11:57 2,8 °C 2,8 °C 93 % 1016,4 hPa 0,0 mm 3,9 km/h (1 Bft) NO 43 ° 0 min 0,000 mm 0,7 UV-I 114 W/m² 1,8 °C 2,8 °C 6,4 km/h (2 Bft)
07.11.2017 11:58 2,8 °C 2,8 °C 93 % 1016,3 hPa 0,0 mm 5,0 km/h (1 Bft) NO 51 ° 0 min 0,000 mm 0,7 UV-I 128 W/m² 1,8 °C 1,6 °C 6,4 km/h (2 Bft)
07.11.2017 11:59 2,8 °C 2,8 °C 93 % 1016,3 hPa 0,0 mm 3,9 km/h (1 Bft) NO 52 ° 0 min 0,000 mm 0,8 UV-I 134 W/m² 1,8 °C 2,8 °C 4,8 km/h (1 Bft)
07.11.2017 12:00 2,8 °C 2,8 °C 93 % 1016,3 hPa 0,0 mm 5,4 km/h (1 Bft) O-NO 59 ° 0 min 0,000 mm 0,8 UV-I 156 W/m² 1,8 °C 1,4 °C 8,0 km/h (2 Bft)
07.11.2017 12:01 2,8 °C 2,8 °C 93 % 1016,3 hPa 0,0 mm 6,0 km/h (2 Bft) NO 51 ° 0 min 0,051 mm 1,0 UV-I 174 W/m² 1,8 °C 1,2 °C 8,0 km/h (2 Bft)
07.11.2017 12:02 2,8 °C 2,8 °C 93 % 1016,2 hPa 0,0 mm 4,3 km/h (1 Bft) NO 51 ° 0 min 0,000 mm 1,1 UV-I 179 W/m² 1,8 °C 2,8 °C 6,4 km/h (2 Bft)
07.11.2017 12:03 2,7 °C 2,8 °C 93 % 1016,3 hPa 0,0 mm 4,0 km/h (1 Bft) NO 51 ° 0 min 0,000 mm 1,1 UV-I 176 W/m² 1,7 °C 2,7 °C 6,4 km/h (2 Bft)
07.11.2017 12:04 2,8 °C 2,8 °C 93 % 1016,3 hPa 0,0 mm 3,2 km/h (1 Bft) NO 51 ° 0 min 0,000 mm 1,0 UV-I 162 W/m² 1,8 °C 2,8 °C 4,8 km/h (1 Bft)
07.11.2017 12:05 2,8 °C 2,8 °C 93 % 1016,2 hPa 0,0 mm 3,4 km/h (1 Bft) O 82 ° 0 min 0,000 mm 1,0 UV-I 155 W/m² 1,8 °C 2,8 °C 8,0 km/h (2 Bft)
07.11.2017 12:06 2,8 °C 2,8 °C 93 % 1016,2 hPa 0,0 mm 2,9 km/h (1 Bft) NO 49 ° 0 min 0,000 mm 0,9 UV-I 163 W/m² 1,8 °C 2,8 °C 4,8 km/h (1 Bft)
07.11.2017 12:07 2,8 °C 2,8 °C 93 % 1016,2 hPa 0,0 mm 2,3 km/h (1 Bft) NO 49 ° 0 min 0,000 mm 0,9 UV-I 162 W/m² 1,8 °C 2,8 °C 4,8 km/h (1 Bft)
07.11.2017 12:08 2,9 °C 2,9 °C 93 % 1016,1 hPa 0,0 mm 3,5 km/h (1 Bft) NO 35 ° 0 min 0,000 mm 0,9 UV-I 153 W/m² 1,9 °C 2,9 °C 6,4 km/h (2 Bft)
07.11.2017 12:09 2,9 °C 2,9 °C 93 % 1016,2 hPa 0,0 mm 1,7 km/h (1 Bft) O-NO 62 ° 0 min 0,000 mm 0,8 UV-I 144 W/m² 1,9 °C 2,9 °C 4,8 km/h (1 Bft)
07.11.2017 12:10 3,0 °C 3,0 °C 93 % 1016,1 hPa 0,0 mm 1,5 km/h (1 Bft) O-NO 62 ° 0 min 0,000 mm 0,8 UV-I 142 W/m² 2,0 °C 3,0 °C 3,2 km/h (1 Bft)
07.11.2017 12:11 3,0 °C 3,0 °C 93 % 1016,2 hPa 0,0 mm 1,1 km/h (1 Bft) O-NO 62 ° 0 min 0,000 mm 0,8 UV-I 139 W/m² 2,0 °C 3,0 °C 3,2 km/h (1 Bft)
07.11.2017 12:12 3,0 °C 3,0 °C 93 % 1016,2 hPa 0,0 mm 3,5 km/h (1 Bft) N-NO 31 ° 0 min 0,000 mm 0,7 UV-I 125 W/m² 2,0 °C 3,0 °C 6,4 km/h (2 Bft)
07.11.2017 12:13 3,0 °C 3,0 °C 93 % 1016,2 hPa 0,0 mm 6,8 km/h (2 Bft) NO 35 ° 0 min 0,000 mm 0,7 UV-I 125 W/m² 2,0 °C 1,1 °C 9,7 km/h (2 Bft)
07.11.2017 12:14 3,0 °C 3,0 °C 93 % 1016,1 hPa 0,0 mm 5,9 km/h (2 Bft) O-NO 58 ° 0 min 0,000 mm 0,7 UV-I 121 W/m² 2,0 °C 1,5 °C 8,0 km/h (2 Bft)
07.11.2017 12:15 3,0 °C 3,0 °C 93 % 1016,1 hPa 0,0 mm 4,3 km/h (1 Bft) NO 36 ° 0 min 0,000 mm 0,7 UV-I 107 W/m² 2,0 °C 3,0 °C 6,4 km/h (2 Bft)
07.11.2017 12:16 3,0 °C 3,0 °C 93 % 1016,2 hPa 0,0 mm 2,4 km/h (1 Bft) NO 50 ° 0 min 0,000 mm 0,7 UV-I 95 W/m² 2,0 °C 3,0 °C 4,8 km/h (1 Bft)
07.11.2017 12:17 3,0 °C 3,0 °C 93 % 1016,1 hPa 0,0 mm 2,9 km/h (1 Bft) NO 51 ° 0 min 0,000 mm 0,6 UV-I 84 W/m² 2,0 °C 3,0 °C 4,8 km/h (1 Bft)
07.11.2017 12:18 3,0 °C 3,0 °C 93 % 1016,2 hPa 0,0 mm 1,1 km/h (1 Bft) NO 51 ° 0 min 0,000 mm 0,6 UV-I 72 W/m² 2,0 °C 3,0 °C 3,2 km/h (1 Bft)
07.11.2017 12:19 3,0 °C 3,0 °C 93 % 1016,1 hPa 0,0 mm 1,5 km/h (1 Bft) NO 49 ° 0 min 0,000 mm 0,6 UV-I 72 W/m² 2,0 °C 3,0 °C 4,8 km/h (1 Bft)
07.11.2017 12:20 3,1 °C 3,1 °C 93 % 1016,1 hPa 0,0 mm 3,1 km/h (1 Bft) NO 49 ° 0 min 0,000 mm 0,6 UV-I 72 W/m² 2,1 °C 3,1 °C 4,8 km/h (1 Bft)
07.11.2017 12:21 3,1 °C 3,1 °C 93 % 1016,1 hPa 0,0 mm 3,7 km/h (1 Bft) O-NO 57 ° 0 min 0,000 mm 0,5 UV-I 74 W/m² 2,1 °C 3,1 °C 4,8 km/h (1 Bft)
07.11.2017 12:22 3,1 °C 3,1 °C 93 % 1016,1 hPa 0,0 mm 3,4 km/h (1 Bft) NO 49 ° 0 min 0,000 mm 0,5 UV-I 74 W/m² 2,1 °C 3,1 °C 6,4 km/h (2 Bft)
07.11.2017 12:23 3,0 °C 3,1 °C 93 % 1016,1 hPa 0,0 mm 4,0 km/h (1 Bft) NO 39 ° 0 min 0,000 mm 0,5 UV-I 74 W/m² 2,0 °C 3,0 °C 6,4 km/h (2 Bft)
07.11.2017 12:24 3,1 °C 3,1 °C 93 % 1016,1 hPa 0,0 mm 2,1 km/h (1 Bft) NO 48 ° 0 min 0,000 mm 0,5 UV-I 72 W/m² 2,1 °C 3,1 °C 3,2 km/h (1 Bft)
07.11.2017 12:25 3,0 °C 3,1 °C 93 % 1015,9 hPa 0,0 mm 3,2 km/h (1 Bft) NO 48 ° 0 min 0,000 mm 0,5 UV-I 67 W/m² 2,0 °C 3,0 °C 4,8 km/h (1 Bft)
07.11.2017 12:26 3,0 °C 3,0 °C 93 % 1015,9 hPa 0,0 mm 2,0 km/h (1 Bft) NO 48 ° 0 min 0,000 mm 0,5 UV-I 62 W/m² 2,0 °C 3,0 °C 4,8 km/h (1 Bft)
07.11.2017 12:27 3,0 °C 3,1 °C 93 % 1015,9 hPa 0,0 mm 4,4 km/h (1 Bft) NO 49 ° 0 min 0,000 mm 0,0 UV-I 53 W/m² 2,0 °C 3,0 °C 6,4 km/h (2 Bft)
07.11.2017 12:28 3,0 °C 3,1 °C 93 % 1015,9 hPa 0,0 mm 4,8 km/h (1 Bft) NO 34 ° 0 min 0,000 mm 0,0 UV-I 47 W/m² 2,0 °C 1,9 °C 6,4 km/h (2 Bft)
07.11.2017 12:29 3,0 °C 3,0 °C 93 % 1015,9 hPa 0,0 mm 5,3 km/h (1 Bft) NO 44 ° 0 min 0,000 mm 0,0 UV-I 40 W/m² 2,0 °C 1,7 °C 8,0 km/h (2 Bft)
07.11.2017 12:30 3,0 °C 3,0 °C 93 % 1015,9 hPa 0,0 mm 4,6 km/h (1 Bft) N-NO 33 ° 0 min 0,000 mm 0,0 UV-I 39 W/m² 2,0 °C 2,0 °C 6,4 km/h (2 Bft)
07.11.2017 12:31 3,0 °C 3,0 °C 93 % 1015,9 hPa 0,0 mm 4,9 km/h (1 Bft) NO 45 ° 0 min 0,000 mm 0,0 UV-I 39 W/m² 2,0 °C 1,9 °C 6,4 km/h (2 Bft)
07.11.2017 12:32 2,9 °C 3,0 °C 93 % 1015,8 hPa 0,0 mm 4,9 km/h (1 Bft) O-NO 61 ° 0 min 0,000 mm 0,0 UV-I 39 W/m² 1,9 °C 1,7 °C 9,7 km/h (2 Bft)
07.11.2017 12:33 2,9 °C 2,9 °C 93 % 1015,8 hPa 0,0 mm 5,0 km/h (1 Bft) NO 55 ° 0 min 0,000 mm 0,0 UV-I 39 W/m² 1,9 °C 1,7 °C 6,4 km/h (2 Bft)
07.11.2017 12:34 2,9 °C 3,0 °C 93 % 1015,8 hPa 0,0 mm 3,9 km/h (1 Bft) O-NO 61 ° 0 min 0,000 mm 0,0 UV-I 39 W/m² 1,9 °C 2,9 °C 6,4 km/h (2 Bft)
07.11.2017 12:35 2,9 °C 2,9 °C 93 % 1015,9 hPa 0,0 mm 4,6 km/h (1 Bft) O-NO 65 ° 0 min 0,000 mm 0,0 UV-I 42 W/m² 1,9 °C 1,9 °C 6,4 km/h (2 Bft)
07.11.2017 12:36 2,9 °C 2,9 °C 93 % 1015,9 hPa 0,0 mm 2,1 km/h (1 Bft) O-NO 65 ° 0 min 0,000 mm 0,0 UV-I 44 W/m² 1,9 °C 2,9 °C 3,2 km/h (1 Bft)
07.11.2017 12:37 2,9 °C 2,9 °C 93 % 1016,0 hPa 0,0 mm 2,9 km/h (1 Bft) O-NO 65 ° 0 min 0,000 mm 0,0 UV-I 44 W/m² 1,9 °C 2,9 °C 4,8 km/h (1 Bft)
07.11.2017 12:38 2,9 °C 2,9 °C 93 % 1016,0 hPa 0,0 mm 2,8 km/h (1 Bft) O-NO 63 ° 0 min 0,000 mm 0,0 UV-I 40 W/m² 1,9 °C 2,9 °C 4,8 km/h (1 Bft)
07.11.2017 12:39 2,9 °C 2,9 °C 93 % 1016,0 hPa 0,0 mm 2,1 km/h (1 Bft) O-NO 63 ° 0 min 0,000 mm 0,0 UV-I 37 W/m² 1,9 °C 2,9 °C 3,2 km/h (1 Bft)
07.11.2017 12:40 2,9 °C 2,9 °C 93 % 1016,0 hPa 0,0 mm 3,4 km/h (1 Bft) O-NO 63 ° 0 min 0,000 mm 0,0 UV-I 35 W/m² 1,9 °C 2,9 °C 4,8 km/h (1 Bft)
07.11.2017 12:41 2,9 °C 2,9 °C 93 % 1016,0 hPa 0,0 mm 3,6 km/h (1 Bft) O 83 ° 0 min 0,000 mm 0,0 UV-I 35 W/m² 1,9 °C 2,9 °C 6,4 km/h (2 Bft)
07.11.2017 12:42 2,9 °C 2,9 °C 93 % 1016,0 hPa 0,0 mm 4,4 km/h (1 Bft) O-NO 61 ° 0 min 0,000 mm 0,0 UV-I 33 W/m² 1,9 °C 2,9 °C 6,4 km/h (2 Bft)
07.11.2017 12:43 2,9 °C 2,9 °C 93 % 1016,0 hPa 0,0 mm 1,6 km/h (1 Bft) O-NO 61 ° 0 min 0,000 mm 0,0 UV-I 35 W/m² 1,9 °C 2,9 °C 3,2 km/h (1 Bft)
07.11.2017 12:44 2,9 °C 2,9 °C 93 % 1016,1 hPa 0,0 mm 1,5 km/h (1 Bft) O-NO 61 ° 0 min 0,000 mm 0,0 UV-I 37 W/m² 1,9 °C 2,9 °C 3,2 km/h (1 Bft)
07.11.2017 12:45 2,9 °C 2,9 °C 93 % 1016,0 hPa 0,0 mm 1,0 km/h (0 Bft) O-NO 61 ° 0 min 0,000 mm 0,0 UV-I 37 W/m² 1,9 °C 2,9 °C 3,2 km/h (1 Bft)
07.11.2017 12:46 2,9 °C 2,9 °C 93 % 1016,0 hPa 0,0 mm 3,4 km/h (1 Bft) O-NO 78 ° 0 min 0,000 mm 0,0 UV-I 39 W/m² 1,9 °C 2,9 °C 4,8 km/h (1 Bft)
07.11.2017 12:47 2,9 °C 2,9 °C 93 % 1015,9 hPa 0,0 mm 4,1 km/h (1 Bft) O-NO 76 ° 0 min 0,000 mm 0,0 UV-I 37 W/m² 1,9 °C 2,9 °C 6,4 km/h (2 Bft)
07.11.2017 12:48 2,9 °C 2,9 °C 93 % 1015,9 hPa 0,0 mm 3,5 km/h (1 Bft) O 80 ° 0 min 0,000 mm 0,0 UV-I 39 W/m² 1,9 °C 2,9 °C 4,8 km/h (1 Bft)
07.11.2017 12:49 2,9 °C 2,9 °C 93 % 1015,9 hPa 0,0 mm 3,3 km/h (1 Bft) O-NO 76 ° 0 min 0,000 mm 0,0 UV-I 39 W/m² 1,9 °C 2,9 °C 6,4 km/h (2 Bft)
07.11.2017 12:50 2,9 °C 2,9 °C 93 % 1015,8 hPa 0,0 mm 4,2 km/h (1 Bft) O-NO 74 ° 0 min 0,000 mm 0,0 UV-I 42 W/m² 1,9 °C 2,9 °C 6,4 km/h (2 Bft)
07.11.2017 12:51 2,8 °C 2,9 °C 93 % 1015,8 hPa 0,0 mm 1,0 km/h (0 Bft) O-NO 74 ° 0 min 0,000 mm 0,0 UV-I 47 W/m² 1,8 °C 2,8 °C 3,2 km/h (1 Bft)
07.11.2017 12:52 2,8 °C 2,8 °C 93 % 1015,8 hPa 0,0 mm 1,7 km/h (1 Bft) O-NO 74 ° 0 min 0,000 mm 0,0 UV-I 54 W/m² 1,8 °C 2,8 °C 3,2 km/h (1 Bft)
07.11.2017 12:53 2,8 °C 2,8 °C 93 % 1015,8 hPa 0,0 mm 1,6 km/h (1 Bft) O-NO 74 ° 0 min 0,000 mm 0,0 UV-I 65 W/m² 1,8 °C 2,8 °C 4,8 km/h (1 Bft)
07.11.2017 12:54 2,8 °C 2,9 °C 93 % 1015,8 hPa 0,0 mm 1,5 km/h (1 Bft) O-NO 74 ° 0 min 0,000 mm 0,0 UV-I 69 W/m² 1,8 °C 2,8 °C 3,2 km/h (1 Bft)
07.11.2017 12:55 2,8 °C 2,9 °C 93 % 1015,9 hPa 0,0 mm 1,5 km/h (1 Bft) O-NO 74 ° 0 min 0,000 mm 0,0 UV-I 67 W/m² 1,8 °C 2,8 °C 4,8 km/h (1 Bft)
07.11.2017 12:56 2,9 °C 2,9 °C 93 % 1015,8 hPa 0,0 mm 2,1 km/h (1 Bft) O-NO 74 ° 0 min 0,000 mm 0,0 UV-I 63 W/m² 1,9 °C 2,9 °C 3,2 km/h (1 Bft)
07.11.2017 12:57 2,9 °C 2,9 °C 93 % 1015,8 hPa 0,0 mm 2,2 km/h (1 Bft) O-NO 74 ° 0 min 0,000 mm 0,0 UV-I 62 W/m² 1,9 °C 2,9 °C 3,2 km/h (1 Bft)
07.11.2017 12:58 2,8 °C 2,9 °C 93 % 1015,8 hPa 0,0 mm 3,8 km/h (1 Bft) O-NO 74 ° 0 min 0,000 mm 0,0 UV-I 60 W/m² 1,8 °C 2,8 °C 4,8 km/h (1 Bft)
07.11.2017 12:59 2,9 °C 2,9 °C 93 % 1015,8 hPa 0,0 mm 6,6 km/h (2 Bft) O-NO 78 ° 0 min 0,000 mm 0,0 UV-I 63 W/m² 1,9 °C 1,1 °C 11,3 km/h (2 Bft)
07.11.2017 13:00 2,9 °C 2,9 °C 93 % 1015,7 hPa 0,0 mm 5,2 km/h (1 Bft) O 81 ° 0 min 0,000 mm 0,0 UV-I 60 W/m² 1,9 °C 1,6 °C 8,0 km/h (2 Bft)
07.11.2017 13:01 2,8 °C 2,9 °C 93 % 1015,7 hPa 0,0 mm 3,6 km/h (1 Bft) O-NO 76 ° 0 min 0,025 mm 0,0 UV-I 54 W/m² 1,8 °C 2,8 °C 6,4 km/h (2 Bft)
07.11.2017 13:02 2,8 °C 2,9 °C 93 % 1015,8 hPa 0,0 mm 3,9 km/h (1 Bft) O-NO 78 ° 0 min 0,000 mm 0,0 UV-I 49 W/m² 1,8 °C 2,8 °C 6,4 km/h (2 Bft)
07.11.2017 13:03 2,8 °C 2,8 °C 93 % 1015,7 hPa 0,0 mm 4,4 km/h (1 Bft) O-NO 78 ° 0 min 0,000 mm 0,0 UV-I 44 W/m² 1,8 °C 2,8 °C 6,4 km/h (2 Bft)
07.11.2017 13:04 2,8 °C 2,8 °C 93 % 1015,7 hPa 0,0 mm 3,7 km/h (1 Bft) O-NO 75 ° 0 min 0,000 mm 0,0 UV-I 40 W/m² 1,8 °C 2,8 °C 4,8 km/h (1 Bft)
07.11.2017 13:05 2,8 °C 2,8 °C 93 % 1015,6 hPa 0,0 mm 4,8 km/h (1 Bft) O 82 ° 0 min 0,000 mm 0,0 UV-I 37 W/m² 1,8 °C 1,7 °C 11,3 km/h (2 Bft)
07.11.2017 13:06 2,8 °C 2,8 °C 93 % 1015,7 hPa 0,0 mm 7,3 km/h (2 Bft) O-NO 74 ° 0 min 0,000 mm 0,0 UV-I 35 W/m² 1,8 °C 0,8 °C 9,7 km/h (2 Bft)
07.11.2017 13:07 2,8 °C 2,8 °C 93 % 1015,6 hPa 0,0 mm 4,4 km/h (1 Bft) NO 52 ° 0 min 0,000 mm 0,0 UV-I 35 W/m² 1,8 °C 2,8 °C 8,0 km/h (2 Bft)
07.11.2017 13:08 2,8 °C 2,8 °C 93 % 1015,5 hPa 0,0 mm 6,3 km/h (2 Bft) O 82 ° 0 min 0,000 mm 0,0 UV-I 35 W/m² 1,8 °C 1,1 °C 11,3 km/h (2 Bft)
07.11.2017 13:09 2,7 °C 2,8 °C 93 % 1015,5 hPa 0,0 mm 7,2 km/h (2 Bft) O-NO 57 ° 0 min 0,000 mm 0,0 UV-I 33 W/m² 1,7 °C 0,7 °C 12,9 km/h (3 Bft)
07.11.2017 13:10 2,7 °C 2,7 °C 93 % 1015,5 hPa 0,0 mm 5,3 km/h (1 Bft) O-NO 75 ° 0 min 0,000 mm 0,0 UV-I 32 W/m² 1,7 °C 1,3 °C 8,0 km/h (2 Bft)
07.11.2017 13:11 2,7 °C 2,7 °C 93 % 1015,5 hPa 0,0 mm 2,6 km/h (1 Bft) O-NO 78 ° 0 min 0,000 mm 0,0 UV-I 33 W/m² 1,7 °C 2,7 °C 4,8 km/h (1 Bft)
07.11.2017 13:12 2,6 °C 2,7 °C 93 % 1015,5 hPa 0,0 mm 3,6 km/h (1 Bft) O-NO 78 ° 0 min 0,000 mm 0,0 UV-I 35 W/m² 1,6 °C 2,6 °C 4,8 km/h (1 Bft)
07.11.2017 13:13 2,6 °C 2,6 °C 93 % 1015,5 hPa 0,0 mm 0,2 km/h (0 Bft) O-NO 78 ° 0 min 0,000 mm 0,0 UV-I 33 W/m² 1,6 °C 2,6 °C 1,6 km/h (1 Bft)
07.11.2017 13:14 2,6 °C 2,6 °C 93 % 1015,5 hPa 0,0 mm 0,9 km/h (0 Bft) O-NO 78 ° 0 min 0,000 mm 0,0 UV-I 35 W/m² 1,6 °C 2,6 °C 1,6 km/h (1 Bft)
07.11.2017 13:15 2,6 °C 2,6 °C 93 % 1015,5 hPa 0,0 mm 1,1 km/h (1 Bft) O-NO 78 ° 0 min 0,000 mm 0,0 UV-I 39 W/m² 1,6 °C 2,6 °C 3,2 km/h (1 Bft)
07.11.2017 13:16 2,6 °C 2,6 °C 93 % 1015,4 hPa 0,0 mm 0,0 km/h (0 Bft) O-NO 78 ° 0 min 0,000 mm 0,0 UV-I 46 W/m² 1,6 °C 2,6 °C 0,0 km/h (0 Bft)
07.11.2017 13:17 2,6 °C 2,6 °C 93 % 1015,4 hPa 0,0 mm 0,1 km/h (0 Bft) O-NO 78 ° 0 min 0,000 mm 0,0 UV-I 47 W/m² 1,6 °C 2,6 °C 1,6 km/h (1 Bft)
07.11.2017 13:18 2,6 °C 2,6 °C 93 % 1015,3 hPa 0,0 mm 0,5 km/h (0 Bft) O-NO 78 ° 0 min 0,000 mm 0,0 UV-I 46 W/m² 1,6 °C 2,6 °C 1,6 km/h (1 Bft)
07.11.2017 13:19 2,6 °C 2,6 °C 93 % 1015,3 hPa 0,0 mm 0,7 km/h (0 Bft) O-NO 78 ° 0 min 0,000 mm 0,0 UV-I 46 W/m² 1,6 °C 2,6 °C 3,2 km/h (1 Bft)
07.11.2017 13:20 2,6 °C 2,6 °C 94 % 1015,4 hPa 0,0 mm 0,7 km/h (0 Bft) O-NO 78 ° 0 min 0,000 mm 0,0 UV-I 47 W/m² 1,7 °C 2,6 °C 1,6 km/h (1 Bft)
07.11.2017 13:21 2,7 °C 2,7 °C 94 % 1015,4 hPa 0,0 mm 0,1 km/h (0 Bft) O-NO 78 ° 0 min 0,000 mm 0,0 UV-I 46 W/m² 1,8 °C 2,7 °C 1,6 km/h (1 Bft)
07.11.2017 13:22 2,7 °C 2,7 °C 94 % 1015,4 hPa 0,0 mm 0,4 km/h (0 Bft) O-NO 78 ° 0 min 0,000 mm 0,0 UV-I 46 W/m² 1,8 °C 2,7 °C 1,6 km/h (1 Bft)
07.11.2017 13:23 2,7 °C 2,7 °C 94 % 1015,3 hPa 0,0 mm 1,7 km/h (1 Bft) O-NO 78 ° 0 min 0,000 mm 0,0 UV-I 47 W/m² 1,8 °C 2,7 °C 3,2 km/h (1 Bft)
07.11.2017 13:24 2,7 °C 2,7 °C 94 % 1015,3 hPa 0,0 mm 0,1 km/h (0 Bft) O-NO 78 ° 0 min 0,000 mm 0,0 UV-I 46 W/m² 1,8 °C 2,7 °C 1,6 km/h (1 Bft)
07.11.2017 13:25 2,7 °C 2,7 °C 94 % 1015,3 hPa 0,0 mm 4,1 km/h (1 Bft) NO 54 ° 0 min 0,000 mm 0,0 UV-I 40 W/m² 1,8 °C 2,7 °C 6,4 km/h (2 Bft)
07.11.2017 13:26 2,7 °C 2,7 °C 94 % 1015,3 hPa 0,0 mm 2,4 km/h (1 Bft) NO 54 ° 0 min 0,000 mm 0,0 UV-I 40 W/m² 1,8 °C 2,7 °C 4,8 km/h (1 Bft)
07.11.2017 13:27 2,7 °C 2,7 °C 94 % 1015,2 hPa 0,0 mm 2,8 km/h (1 Bft) NO 37 ° 0 min 0,000 mm 0,0 UV-I 40 W/m² 1,8 °C 2,7 °C 4,8 km/h (1 Bft)
07.11.2017 13:28 2,8 °C 2,8 °C 94 % 1015,2 hPa 0,0 mm 3,6 km/h (1 Bft) NO 46 ° 0 min 0,000 mm 0,0 UV-I 40 W/m² 1,9 °C 2,8 °C 4,8 km/h (1 Bft)
07.11.2017 13:29 2,7 °C 2,8 °C 94 % 1015,2 hPa 0,0 mm 1,7 km/h (1 Bft) NO 46 ° 0 min 0,000 mm 0,0 UV-I 42 W/m² 1,8 °C 2,7 °C 3,2 km/h (1 Bft)
07.11.2017 13:30 2,7 °C 2,7 °C 93 % 1015,2 hPa 0,0 mm 2,5 km/h (1 Bft) NO 46 ° 0 min 0,000 mm 0,0 UV-I 46 W/m² 1,7 °C 2,7 °C 6,4 km/h (2 Bft)
07.11.2017 13:31 2,7 °C 2,7 °C 93 % 1015,2 hPa 0,0 mm 3,4 km/h (1 Bft) O-NO 58 ° 0 min 0,000 mm 0,0 UV-I 47 W/m² 1,7 °C 2,7 °C 4,8 km/h (1 Bft)
07.11.2017 13:32 2,7 °C 2,7 °C 93 % 1015,2 hPa 0,0 mm 5,4 km/h (1 Bft) O-NO 75 ° 0 min 0,000 mm 0,0 UV-I 47 W/m² 1,7 °C 1,3 °C 8,0 km/h (2 Bft)
07.11.2017 13:33 2,7 °C 2,7 °C 93 % 1015,1 hPa 0,0 mm 4,4 km/h (1 Bft) O 81 ° 0 min 0,000 mm 0,0 UV-I 47 W/m² 1,7 °C 2,7 °C 6,4 km/h (2 Bft)
07.11.2017 13:34 2,7 °C 2,7 °C 93 % 1015,1 hPa 0,0 mm 3,5 km/h (1 Bft) NO 53 ° 0 min 0,000 mm 0,0 UV-I 56 W/m² 1,7 °C 2,7 °C 4,8 km/h (1 Bft)
07.11.2017 13:35 2,7 °C 2,7 °C 94 % 1015,1 hPa 0,0 mm 2,4 km/h (1 Bft) O-NO 61 ° 0 min 0,000 mm 0,0 UV-I 60 W/m² 1,8 °C 2,7 °C 4,8 km/h (1 Bft)
07.11.2017 13:36 2,7 °C 2,7 °C 93 % 1015,1 hPa 0,0 mm 2,0 km/h (1 Bft) O-NO 61 ° 0 min 0,000 mm 0,0 UV-I 62 W/m² 1,7 °C 2,7 °C 4,8 km/h (1 Bft)
07.11.2017 13:37 2,7 °C 2,7 °C 93 % 1015,0 hPa 0,0 mm 1,2 km/h (1 Bft) O-NO 61 ° 0 min 0,000 mm 0,0 UV-I 60 W/m² 1,7 °C 2,7 °C 3,2 km/h (1 Bft)
07.11.2017 13:38 2,7 °C 2,7 °C 94 % 1015,1 hPa 0,0 mm 1,5 km/h (1 Bft) O-NO 61 ° 0 min 0,000 mm 0,0 UV-I 47 W/m² 1,8 °C 2,7 °C 3,2 km/h (1 Bft)
07.11.2017 13:39 2,7 °C 2,7 °C 93 % 1015,1 hPa 0,0 mm 2,6 km/h (1 Bft) O-NO 61 ° 0 min 0,000 mm 0,0 UV-I 49 W/m² 1,7 °C 2,7 °C 4,8 km/h (1 Bft)
07.11.2017 13:40 2,7 °C 2,7 °C 93 % 1015,1 hPa 0,0 mm 1,7 km/h (1 Bft) O-NO 61 ° 0 min 0,000 mm 0,0 UV-I 51 W/m² 1,7 °C 2,7 °C 4,8 km/h (1 Bft)
07.11.2017 13:41 2,7 °C 2,7 °C 93 % 1015,0 hPa 0,0 mm 2,8 km/h (1 Bft) O-NO 61 ° 0 min 0,000 mm 0,0 UV-I 40 W/m² 1,7 °C 2,7 °C 4,8 km/h (1 Bft)
07.11.2017 13:42 2,7 °C 2,7 °C 93 % 1015,0 hPa 0,0 mm 1,1 km/h (1 Bft) O-NO 61 ° 0 min 0,000 mm 0,0 UV-I 35 W/m² 1,7 °C 2,7 °C 3,2 km/h (1 Bft)
07.11.2017 13:43 2,7 °C 2,8 °C 93 % 1015,0 hPa 0,0 mm 1,4 km/h (1 Bft) O-NO 61 ° 0 min 0,000 mm 0,0 UV-I 32 W/m² 1,7 °C 2,7 °C 3,2 km/h (1 Bft)
07.11.2017 13:44 2,7 °C 2,7 °C 93 % 1015,0 hPa 0,0 mm 3,2 km/h (1 Bft) O-NO 61 ° 0 min 0,000 mm 0,0 UV-I 33 W/m² 1,7 °C 2,7 °C 6,4 km/h (2 Bft)
07.11.2017 13:45 2,7 °C 2,8 °C 93 % 1015,0 hPa 0,0 mm 2,0 km/h (1 Bft) O-NO 61 ° 0 min 0,000 mm 0,0 UV-I 46 W/m² 1,7 °C 2,7 °C 3,2 km/h (1 Bft)
07.11.2017 13:46 2,7 °C 2,8 °C 93 % 1014,9 hPa 0,0 mm 3,4 km/h (1 Bft) O-NO 61 ° 0 min 0,000 mm 0,0 UV-I 62 W/m² 1,7 °C 2,7 °C 8,0 km/h (2 Bft)
07.11.2017 13:47 2,7 °C 2,7 °C 93 % 1014,9 hPa 0,0 mm 6,2 km/h (2 Bft) O-NO 63 ° 0 min 0,000 mm 0,0 UV-I 60 W/m² 1,7 °C 1,0 °C 8,0 km/h (2 Bft)
07.11.2017 13:48 2,7 °C 2,7 °C 93 % 1015,0 hPa 0,0 mm 3,2 km/h (1 Bft) O-NO 63 ° 0 min 0,000 mm 0,0 UV-I 54 W/m² 1,7 °C 2,7 °C 4,8 km/h (1 Bft)
07.11.2017 13:49 2,7 °C 2,7 °C 93 % 1014,9 hPa 0,0 mm 4,6 km/h (1 Bft) O-NO 74 ° 0 min 0,000 mm 0,0 UV-I 53 W/m² 1,7 °C 1,7 °C 8,0 km/h (2 Bft)
07.11.2017 13:50 2,7 °C 2,7 °C 93 % 1015,0 hPa 0,0 mm 4,8 km/h (1 Bft) O-NO 67 ° 0 min 0,000 mm 0,0 UV-I 51 W/m² 1,7 °C 1,6 °C 6,4 km/h (2 Bft)
07.11.2017 13:51 2,7 °C 2,7 °C 93 % 1015,0 hPa 0,0 mm 3,1 km/h (1 Bft) O-NO 68 ° 0 min 0,000 mm 0,0 UV-I 51 W/m² 1,7 °C 2,7 °C 6,4 km/h (2 Bft)
07.11.2017 13:52 2,7 °C 2,7 °C 93 % 1015,0 hPa 0,0 mm 1,5 km/h (1 Bft) O-NO 68 ° 0 min 0,000 mm 0,0 UV-I 53 W/m² 1,7 °C 2,7 °C 3,2 km/h (1 Bft)
07.11.2017 13:53 2,8 °C 2,8 °C 93 % 1014,9 hPa 0,0 mm 0,1 km/h (0 Bft) O-NO 68 ° 0 min 0,000 mm 0,0 UV-I 54 W/m² 1,8 °C 2,8 °C 1,6 km/h (1 Bft)
07.11.2017 13:54 2,7 °C 2,8 °C 93 % 1015,0 hPa 0,0 mm 0,1 km/h (0 Bft) O-NO 68 ° 0 min 0,000 mm 0,0 UV-I 54 W/m² 1,7 °C 2,7 °C 1,6 km/h (1 Bft)
07.11.2017 13:55 2,7 °C 2,8 °C 93 % 1015,0 hPa 0,0 mm 1,4 km/h (1 Bft) O-NO 68 ° 0 min 0,000 mm 0,0 UV-I 51 W/m² 1,7 °C 2,7 °C 3,2 km/h (1 Bft)
07.11.2017 13:56 2,8 °C 2,8 °C 93 % 1015,0 hPa 0,0 mm 1,5 km/h (1 Bft) O-NO 65 ° 0 min 0,000 mm 0,0 UV-I 49 W/m² 1,8 °C 2,8 °C 3,2 km/h (1 Bft)
07.11.2017 13:57 2,8 °C 2,8 °C 93 % 1014,9 hPa 0,0 mm 3,2 km/h (1 Bft) O-NO 65 ° 0 min 0,000 mm 0,0 UV-I 60 W/m² 1,8 °C 2,8 °C 4,8 km/h (1 Bft)
07.11.2017 13:58 2,8 °C 2,8 °C 93 % 1014,9 hPa 0,0 mm 1,7 km/h (1 Bft) O-NO 65 ° 0 min 0,000 mm 0,0 UV-I 74 W/m² 1,8 °C 2,8 °C 3,2 km/h (1 Bft)
07.11.2017 13:59 2,8 °C 2,8 °C 94 % 1014,9 hPa 0,0 mm 3,1 km/h (1 Bft) O-NO 75 ° 0 min 0,000 mm 0,0 UV-I 76 W/m² 1,9 °C 2,8 °C 4,8 km/h (1 Bft)
07.11.2017 14:00 2,8 °C 2,8 °C 93 % 1014,8 hPa 0,0 mm 2,5 km/h (1 Bft) O-NO 75 ° 0 min 0,000 mm 0,0 UV-I 69 W/m² 1,8 °C 2,8 °C 4,8 km/h (1 Bft)
07.11.2017 14:01 2,8 °C 2,8 °C 93 % 1014,9 hPa 0,0 mm 6,0 km/h (2 Bft) O 81 ° 0 min 0,026 mm 0,0 UV-I 62 W/m² 1,8 °C 1,2 °C 8,0 km/h (2 Bft)
07.11.2017 14:02 2,8 °C 2,8 °C 93 % 1014,8 hPa 0,0 mm 3,8 km/h (1 Bft) NO 53 ° 0 min 0,000 mm 0,0 UV-I 63 W/m² 1,8 °C 2,8 °C 4,8 km/h (1 Bft)
07.11.2017 14:03 2,8 °C 2,8 °C 93 % 1014,8 hPa 0,0 mm 3,0 km/h (1 Bft) NO 54 ° 0 min 0,000 mm 0,0 UV-I 77 W/m² 1,8 °C 2,8 °C 4,8 km/h (1 Bft)
07.11.2017 14:04 2,8 °C 2,8 °C 93 % 1014,8 hPa 0,0 mm 1,5 km/h (1 Bft) NO 54 ° 0 min 0,000 mm 0,0 UV-I 77 W/m² 1,8 °C 2,8 °C 3,2 km/h (1 Bft)
07.11.2017 14:05 2,8 °C 2,8 °C 93 % 1014,8 hPa 0,0 mm 3,6 km/h (1 Bft) NO 54 ° 0 min 0,000 mm 0,0 UV-I 76 W/m² 1,8 °C 2,8 °C 6,4 km/h (2 Bft)
07.11.2017 14:06 2,8 °C 2,8 °C 93 % 1014,8 hPa 0,0 mm 3,4 km/h (1 Bft) NO 53 ° 0 min 0,000 mm 0,0 UV-I 74 W/m² 1,8 °C 2,8 °C 6,4 km/h (2 Bft)
07.11.2017 14:07 2,8 °C 2,8 °C 93 % 1014,8 hPa 0,0 mm 2,9 km/h (1 Bft) NO 54 ° 0 min 0,000 mm 0,0 UV-I 74 W/m² 1,8 °C 2,8 °C 3,2 km/h (1 Bft)
07.11.2017 14:08 2,8 °C 2,9 °C 93 % 1014,9 hPa 0,0 mm 3,7 km/h (1 Bft) O-NO 60 ° 0 min 0,000 mm 0,0 UV-I 69 W/m² 1,8 °C 2,8 °C 4,8 km/h (1 Bft)
07.11.2017 14:09 2,9 °C 2,9 °C 93 % 1014,9 hPa 0,0 mm 4,0 km/h (1 Bft) O-NO 68 ° 0 min 0,000 mm 0,0 UV-I 63 W/m² 1,9 °C 2,9 °C 6,4 km/h (2 Bft)
07.11.2017 14:10 2,9 °C 2,9 °C 93 % 1014,9 hPa 0,0 mm 3,4 km/h (1 Bft) O-NO 68 ° 0 min 0,000 mm 0,0 UV-I 67 W/m² 1,9 °C 2,9 °C 4,8 km/h (1 Bft)
07.11.2017 14:11 2,9 °C 2,9 °C 93 % 1014,9 hPa 0,0 mm 3,6 km/h (1 Bft) O-NO 68 ° 0 min 0,000 mm 0,0 UV-I 67 W/m² 1,9 °C 2,9 °C 4,8 km/h (1 Bft)
07.11.2017 14:12 2,9 °C 2,9 °C 93 % 1014,9 hPa 0,0 mm 5,0 km/h (1 Bft) O-NO 77 ° 0 min 0,000 mm 0,0 UV-I 62 W/m² 1,9 °C 1,7 °C 6,4 km/h (2 Bft)
07.11.2017 14:13 2,9 °C 2,9 °C 93 % 1014,9 hPa 0,0 mm 3,0 km/h (1 Bft) O-NO 77 ° 0 min 0,000 mm 0,0 UV-I 58 W/m² 1,9 °C 2,9 °C 4,8 km/h (1 Bft)
07.11.2017 14:14 2,9 °C 2,9 °C 93 % 1014,9 hPa 0,0 mm 2,3 km/h (1 Bft) O-NO 77 ° 0 min 0,000 mm 0,0 UV-I 53 W/m² 1,9 °C 2,9 °C 4,8 km/h (1 Bft)
07.11.2017 14:15 2,9 °C 2,9 °C 93 % 1014,9 hPa 0,0 mm 2,1 km/h (1 Bft) O-NO 76 ° 0 min 0,000 mm 0,0 UV-I 46 W/m² 1,9 °C 2,9 °C 4,8 km/h (1 Bft)
07.11.2017 14:16 2,9 °C 2,9 °C 93 % 1015,0 hPa 0,0 mm 3,3 km/h (1 Bft) O-NO 77 ° 0 min 0,000 mm 0,0 UV-I 40 W/m² 1,9 °C 2,9 °C 4,8 km/h (1 Bft)
07.11.2017 14:17 2,9 °C 2,9 °C 93 % 1015,0 hPa 0,0 mm 2,2 km/h (1 Bft) O-NO 76 ° 0 min 0,000 mm 0,0 UV-I 35 W/m² 1,9 °C 2,9 °C 4,8 km/h (1 Bft)
07.11.2017 14:18 2,9 °C 2,9 °C 93 % 1015,0 hPa 0,0 mm 3,4 km/h (1 Bft) O-NO 76 ° 0 min 0,000 mm 0,0 UV-I 32 W/m² 1,9 °C 2,9 °C 4,8 km/h (1 Bft)
07.11.2017 14:19 2,9 °C 2,9 °C 93 % 1015,0 hPa 0,0 mm 3,7 km/h (1 Bft) O-NO 76 ° 0 min 0,000 mm 0,0 UV-I 28 W/m² 1,9 °C 2,9 °C 4,8 km/h (1 Bft)
07.11.2017 14:20 2,9 °C 2,9 °C 93 % 1015,0 hPa 0,0 mm 3,8 km/h (1 Bft) O-NO 76 ° 0 min 0,000 mm 0,0 UV-I 26 W/m² 1,9 °C 2,9 °C 4,8 km/h (1 Bft)
07.11.2017 14:21 2,9 °C 2,9 °C 93 % 1015,0 hPa 0,0 mm 1,8 km/h (1 Bft) O-NO 76 ° 0 min 0,000 mm 0,0 UV-I 21 W/m² 1,9 °C 2,9 °C 3,2 km/h (1 Bft)
07.11.2017 14:22 2,9 °C 2,9 °C 93 % 1015,1 hPa 0,0 mm 2,4 km/h (1 Bft) O-NO 78 ° 0 min 0,000 mm 0,0 UV-I 23 W/m² 1,9 °C 2,9 °C 6,4 km/h (2 Bft)
07.11.2017 14:23 2,9 °C 2,9 °C 93 % 1015,1 hPa 0,0 mm 3,5 km/h (1 Bft) O-NO 74 ° 0 min 0,000 mm 0,0 UV-I 26 W/m² 1,9 °C 2,9 °C 4,8 km/h (1 Bft)
07.11.2017 14:24 2,9 °C 2,9 °C 93 % 1015,1 hPa 0,0 mm 2,6 km/h (1 Bft) O-NO 71 ° 0 min 0,000 mm 0,0 UV-I 28 W/m² 1,9 °C 2,9 °C 6,4 km/h (2 Bft)
07.11.2017 14:25 2,9 °C 2,9 °C 93 % 1015,1 hPa 0,0 mm 2,9 km/h (1 Bft) O-NO 71 ° 0 min 0,000 mm 0,0 UV-I 30 W/m² 1,9 °C 2,9 °C 4,8 km/h (1 Bft)
07.11.2017 14:26 2,9 °C 2,9 °C 93 % 1014,9 hPa 0,0 mm 1,8 km/h (1 Bft) O-NO 71 ° 0 min 0,000 mm 0,0 UV-I 33 W/m² 1,9 °C 2,9 °C 3,2 km/h (1 Bft)
07.11.2017 14:27 2,9 °C 2,9 °C 93 % 1015,0 hPa 0,0 mm 2,0 km/h (1 Bft) O-NO 76 ° 0 min 0,000 mm 0,0 UV-I 39 W/m² 1,9 °C 2,9 °C 4,8 km/h (1 Bft)
07.11.2017 14:28 2,9 °C 3,0 °C 93 % 1014,9 hPa 0,0 mm 5,2 km/h (1 Bft) O 83 ° 0 min 0,000 mm 0,0 UV-I 42 W/m² 1,9 °C 1,6 °C 6,4 km/h (2 Bft)
07.11.2017 14:29 3,0 °C 3,0 °C 93 % 1015,0 hPa 0,0 mm 3,5 km/h (1 Bft) O 83 ° 0 min 0,000 mm 0,0 UV-I 46 W/m² 2,0 °C 3,0 °C 4,8 km/h (1 Bft)
07.11.2017 14:30 2,9 °C 3,0 °C 93 % 1015,0 hPa 0,0 mm 3,3 km/h (1 Bft) O-NO 57 ° 0 min 0,000 mm 0,0 UV-I 47 W/m² 1,9 °C 2,9 °C 4,8 km/h (1 Bft)
07.11.2017 14:31 3,0 °C 3,0 °C 93 % 1014,9 hPa 0,0 mm 3,3 km/h (1 Bft) O-NO 78 ° 0 min 0,000 mm 0,0 UV-I 47 W/m² 2,0 °C 3,0 °C 6,4 km/h (2 Bft)
07.11.2017 14:32 2,9 °C 3,0 °C 93 % 1014,9 hPa 0,0 mm 4,0 km/h (1 Bft) O-NO 69 ° 0 min 0,000 mm 0,0 UV-I 49 W/m² 1,9 °C 2,9 °C 6,4 km/h (2 Bft)
07.11.2017 14:33 2,9 °C 3,0 °C 93 % 1014,9 hPa 0,0 mm 2,2 km/h (1 Bft) O-NO 64 ° 0 min 0,000 mm 0,0 UV-I 47 W/m² 1,9 °C 2,9 °C 6,4 km/h (2 Bft)
07.11.2017 14:34 2,9 °C 2,9 °C 93 % 1014,8 hPa 0,0 mm 1,4 km/h (1 Bft) O-NO 64 ° 0 min 0,000 mm 0,0 UV-I 47 W/m² 1,9 °C 2,9 °C 3,2 km/h (1 Bft)
07.11.2017 14:35 2,9 °C 2,9 °C 93 % 1014,9 hPa 0,0 mm 1,7 km/h (1 Bft) O-NO 64 ° 0 min 0,000 mm 0,0 UV-I 49 W/m² 1,9 °C 2,9 °C 3,2 km/h (1 Bft)
07.11.2017 14:36 2,9 °C 3,0 °C 93 % 1014,8 hPa 0,0 mm 0,1 km/h (0 Bft) O-NO 64 ° 0 min 0,000 mm 0,0 UV-I 49 W/m² 1,9 °C 2,9 °C 1,6 km/h (1 Bft)
07.11.2017 14:37 3,0 °C 3,0 °C 93 % 1014,8 hPa 0,0 mm 4,0 km/h (1 Bft) NO 43 ° 0 min 0,000 mm 0,0 UV-I 49 W/m² 2,0 °C 3,0 °C 6,4 km/h (2 Bft)
07.11.2017 14:38 3,0 °C 3,0 °C 93 % 1014,9 hPa 0,0 mm 4,4 km/h (1 Bft) N-NO 32 ° 0 min 0,000 mm 0,0 UV-I 51 W/m² 2,0 °C 3,0 °C 6,4 km/h (2 Bft)
07.11.2017 14:39 3,0 °C 3,0 °C 93 % 1014,8 hPa 0,0 mm 3,4 km/h (1 Bft) NO 40 ° 0 min 0,000 mm 0,0 UV-I 54 W/m² 2,0 °C 3,0 °C 4,8 km/h (1 Bft)
07.11.2017 14:40 3,0 °C 3,0 °C 93 % 1014,8 hPa 0,0 mm 0,8 km/h (0 Bft) NO 39 ° 0 min 0,000 mm 0,0 UV-I 62 W/m² 2,0 °C 3,0 °C 3,2 km/h (1 Bft)
07.11.2017 14:41 3,0 °C 3,0 °C 93 % 1014,8 hPa 0,0 mm 1,1 km/h (1 Bft) NO 40 ° 0 min 0,000 mm 0,0 UV-I 70 W/m² 2,0 °C 3,0 °C 1,6 km/h (1 Bft)
07.11.2017 14:42 3,0 °C 3,1 °C 93 % 1014,8 hPa 0,0 mm 1,7 km/h (1 Bft) NO 39 ° 0 min 0,000 mm 0,0 UV-I 76 W/m² 2,0 °C 3,0 °C 3,2 km/h (1 Bft)
07.11.2017 14:43 3,0 °C 3,1 °C 93 % 1014,7 hPa 0,0 mm 1,9 km/h (1 Bft) NO 39 ° 0 min 0,000 mm 0,5 UV-I 81 W/m² 2,0 °C 3,0 °C 4,8 km/h (1 Bft)
07.11.2017 14:44 3,1 °C 3,1 °C 93 % 1014,7 hPa 0,0 mm 4,5 km/h (1 Bft) O 88 ° 0 min 0,000 mm 0,5 UV-I 95 W/m² 2,1 °C 3,1 °C 6,4 km/h (2 Bft)
07.11.2017 14:45 3,1 °C 3,1 °C 93 % 1014,8 hPa 0,0 mm 1,4 km/h (1 Bft) O 88 ° 0 min 0,000 mm 0,6 UV-I 98 W/m² 2,1 °C 3,1 °C 4,8 km/h (1 Bft)
07.11.2017 14:46 3,1 °C 3,1 °C 93 % 1014,7 hPa 0,0 mm 0,7 km/h (0 Bft) O 88 ° 0 min 0,000 mm 0,6 UV-I 100 W/m² 2,1 °C 3,1 °C 3,2 km/h (1 Bft)
07.11.2017 14:47 3,1 °C 3,1 °C 93 % 1014,8 hPa 0,0 mm 2,8 km/h (1 Bft) NO 54 ° 0 min 0,000 mm 0,6 UV-I 100 W/m² 2,1 °C 3,1 °C 4,8 km/h (1 Bft)
07.11.2017 14:48 3,1 °C 3,1 °C 93 % 1014,7 hPa 0,0 mm 4,0 km/h (1 Bft) NO 54 ° 0 min 0,000 mm 0,6 UV-I 98 W/m² 2,1 °C 3,1 °C 6,4 km/h (2 Bft)
07.11.2017 14:49 3,1 °C 3,2 °C 93 % 1014,7 hPa 0,0 mm 4,6 km/h (1 Bft) O-NO 57 ° 0 min 0,000 mm 0,6 UV-I 97 W/m² 2,1 °C 2,1 °C 8,0 km/h (2 Bft)
07.11.2017 14:50 3,1 °C 3,2 °C 93 % 1014,7 hPa 0,0 mm 4,2 km/h (1 Bft) NO 50 ° 0 min 0,000 mm 0,6 UV-I 95 W/m² 2,1 °C 3,1 °C 6,4 km/h (2 Bft)
07.11.2017 14:51 3,2 °C 3,2 °C 93 % 1014,7 hPa 0,0 mm 2,6 km/h (1 Bft) NO 50 ° 0 min 0,000 mm 0,6 UV-I 95 W/m² 2,2 °C 3,2 °C 4,8 km/h (1 Bft)
07.11.2017 14:52 3,2 °C 3,2 °C 93 % 1014,7 hPa 0,0 mm 3,1 km/h (1 Bft) O-NO 75 ° 0 min 0,000 mm 0,6 UV-I 97 W/m² 2,2 °C 3,2 °C 4,8 km/h (1 Bft)
07.11.2017 14:53 3,2 °C 3,2 °C 93 % 1014,7 hPa 0,0 mm 3,8 km/h (1 Bft) O-NO 75 ° 0 min 0,000 mm 0,6 UV-I 97 W/m² 2,2 °C 3,2 °C 4,8 km/h (1 Bft)
07.11.2017 14:54 3,2 °C 3,2 °C 93 % 1014,7 hPa 0,0 mm 3,7 km/h (1 Bft) O-NO 68 ° 0 min 0,000 mm 0,6 UV-I 98 W/m² 2,2 °C 3,2 °C 4,8 km/h (1 Bft)
07.11.2017 14:55 3,2 °C 3,2 °C 93 % 1014,7 hPa 0,0 mm 1,4 km/h (1 Bft) O-NO 67 ° 0 min 0,000 mm 0,6 UV-I 98 W/m² 2,2 °C 3,2 °C 3,2 km/h (1 Bft)
07.11.2017 14:56 3,2 °C 3,2 °C 93 % 1014,7 hPa 0,0 mm 4,7 km/h (1 Bft) O-NO 76 ° 0 min 0,000 mm 0,6 UV-I 105 W/m² 2,2 °C 2,2 °C 6,4 km/h (2 Bft)
07.11.2017 14:57 3,3 °C 3,3 °C 93 % 1014,7 hPa 0,0 mm 5,8 km/h (2 Bft) O-NO 74 ° 0 min 0,000 mm 0,6 UV-I 107 W/m² 2,3 °C 1,8 °C 8,0 km/h (2 Bft)
07.11.2017 14:58 3,2 °C 3,3 °C 93 % 1014,6 hPa 0,0 mm 5,7 km/h (1 Bft) O-NO 75 ° 0 min 0,000 mm 0,6 UV-I 107 W/m² 2,2 °C 1,8 °C 8,0 km/h (2 Bft)
07.11.2017 14:59 3,2 °C 3,2 °C 93 % 1014,7 hPa 0,0 mm 5,7 km/h (1 Bft) NO 42 ° 0 min 0,000 mm 0,6 UV-I 109 W/m² 2,2 °C 1,8 °C 8,0 km/h (2 Bft)
07.11.2017 15:00 3,2 °C 3,2 °C 93 % 1014,6 hPa 0,0 mm 5,8 km/h (2 Bft) O-NO 58 ° 0 min 0,000 mm 0,6 UV-I 109 W/m² 2,2 °C 1,7 °C 8,0 km/h (2 Bft)
07.11.2017 15:01 3,2 °C 3,2 °C 93 % 1014,6 hPa 0,0 mm 4,2 km/h (1 Bft) NO 56 ° 0 min 0,025 mm 0,6 UV-I 107 W/m² 2,2 °C 3,2 °C 6,4 km/h (2 Bft)
07.11.2017 15:02 3,2 °C 3,2 °C 93 % 1014,6 hPa 0,0 mm 4,1 km/h (1 Bft) NO 56 ° 0 min 0,000 mm 0,6 UV-I 107 W/m² 2,2 °C 3,2 °C 6,4 km/h (2 Bft)
07.11.2017 15:03 3,2 °C 3,2 °C 93 % 1014,6 hPa 0,0 mm 5,4 km/h (1 Bft) O-NO 65 ° 0 min 0,000 mm 0,6 UV-I 105 W/m² 2,2 °C 1,9 °C 8,0 km/h (2 Bft)
07.11.2017 15:04 3,2 °C 3,2 °C 93 % 1014,6 hPa 0,0 mm 3,0 km/h (1 Bft) O-NO 72 ° 0 min 0,000 mm 0,5 UV-I 100 W/m² 2,2 °C 3,2 °C 4,8 km/h (1 Bft)
07.11.2017 15:05 3,2 °C 3,2 °C 93 % 1014,6 hPa 0,0 mm 1,8 km/h (1 Bft) O-NO 72 ° 0 min 0,000 mm 0,5 UV-I 98 W/m² 2,2 °C 3,2 °C 3,2 km/h (1 Bft)
07.11.2017 15:06 3,2 °C 3,3 °C 93 % 1014,6 hPa 0,0 mm 4,7 km/h (1 Bft) O-NO 75 ° 0 min 0,000 mm 0,5 UV-I 98 W/m² 2,2 °C 2,2 °C 6,4 km/h (2 Bft)
07.11.2017 15:07 3,3 °C 3,3 °C 93 % 1014,6 hPa 0,0 mm 3,0 km/h (1 Bft) O-NO 66 ° 0 min 0,000 mm 0,5 UV-I 98 W/m² 2,3 °C 3,3 °C 4,8 km/h (1 Bft)
07.11.2017 15:08 3,3 °C 3,3 °C 93 % 1014,6 hPa 0,0 mm 5,5 km/h (1 Bft) O 79 ° 0 min 0,000 mm 0,5 UV-I 97 W/m² 2,3 °C 2,0 °C 6,4 km/h (2 Bft)
07.11.2017 15:09 3,3 °C 3,3 °C 93 % 1014,6 hPa 0,0 mm 3,8 km/h (1 Bft) O-NO 61 ° 0 min 0,000 mm 0,5 UV-I 95 W/m² 2,3 °C 3,3 °C 4,8 km/h (1 Bft)
07.11.2017 15:10 3,3 °C 3,3 °C 93 % 1014,6 hPa 0,0 mm 4,9 km/h (1 Bft) O-NO 74 ° 0 min 0,000 mm 0,5 UV-I 91 W/m² 2,3 °C 2,2 °C 8,0 km/h (2 Bft)
07.11.2017 15:11 3,3 °C 3,3 °C 93 % 1014,6 hPa 0,0 mm 6,4 km/h (2 Bft) NO 34 ° 0 min 0,000 mm 0,5 UV-I 91 W/m² 2,3 °C 1,6 °C 8,0 km/h (2 Bft)
07.11.2017 15:12 3,3 °C 3,3 °C 92 % 1014,6 hPa 0,0 mm 3,6 km/h (1 Bft) NO 55 ° 0 min 0,000 mm 0,5 UV-I 90 W/m² 2,1 °C 3,3 °C 6,4 km/h (2 Bft)
07.11.2017 15:13 3,3 °C 3,3 °C 92 % 1014,6 hPa 0,0 mm 3,2 km/h (1 Bft) O-NO 57 ° 0 min 0,000 mm 0,5 UV-I 91 W/m² 2,1 °C 3,3 °C 4,8 km/h (1 Bft)
07.11.2017 15:14 3,3 °C 3,3 °C 92 % 1014,6 hPa 0,0 mm 5,2 km/h (1 Bft) O-NO 71 ° 0 min 0,000 mm 0,5 UV-I 93 W/m² 2,1 °C 2,1 °C 8,0 km/h (2 Bft)
07.11.2017 15:15 3,3 °C 3,3 °C 93 % 1014,6 hPa 0,0 mm 4,9 km/h (1 Bft) O 81 ° 0 min 0,000 mm 0,5 UV-I 95 W/m² 2,3 °C 2,2 °C 6,4 km/h (2 Bft)
07.11.2017 15:16 3,3 °C 3,3 °C 92 % 1014,6 hPa 0,0 mm 4,6 km/h (1 Bft) NO 40 ° 0 min 0,000 mm 0,5 UV-I 93 W/m² 2,1 °C 2,3 °C 6,4 km/h (2 Bft)
07.11.2017 15:17 3,3 °C 3,3 °C 92 % 1014,6 hPa 0,0 mm 4,0 km/h (1 Bft) O-NO 75 ° 0 min 0,000 mm 0,0 UV-I 88 W/m² 2,1 °C 3,3 °C 6,4 km/h (2 Bft)
07.11.2017 15:18 3,3 °C 3,3 °C 92 % 1014,6 hPa 0,0 mm 2,2 km/h (1 Bft) O-NO 74 ° 0 min 0,000 mm 0,0 UV-I 84 W/m² 2,1 °C 3,3 °C 4,8 km/h (1 Bft)
07.11.2017 15:19 3,3 °C 3,3 °C 92 % 1014,5 hPa 0,0 mm 6,1 km/h (2 Bft) O 92 ° 0 min 0,000 mm 0,0 UV-I 83 W/m² 2,1 °C 1,7 °C 9,7 km/h (2 Bft)
07.11.2017 15:20 3,3 °C 3,3 °C 92 % 1014,6 hPa 0,0 mm 3,0 km/h (1 Bft) O-NO 59 ° 0 min 0,000 mm 0,0 UV-I 81 W/m² 2,1 °C 3,3 °C 6,4 km/h (2 Bft)
07.11.2017 15:21 3,3 °C 3,3 °C 92 % 1014,6 hPa 0,0 mm 6,7 km/h (2 Bft) O-NO 59 ° 0 min 0,000 mm 0,0 UV-I 77 W/m² 2,1 °C 1,5 °C 11,3 km/h (2 Bft)
07.11.2017 15:22 3,3 °C 3,3 °C 92 % 1014,7 hPa 0,0 mm 5,1 km/h (1 Bft) O-NO 69 ° 0 min 0,000 mm 0,0 UV-I 74 W/m² 2,1 °C 2,1 °C 6,4 km/h (2 Bft)
07.11.2017 15:23 3,3 °C 3,3 °C 92 % 1014,7 hPa 0,0 mm 6,0 km/h (2 Bft) NO 46 ° 0 min 0,000 mm 0,0 UV-I 69 W/m² 2,1 °C 1,8 °C 9,7 km/h (2 Bft)
07.11.2017 15:24 3,3 °C 3,3 °C 92 % 1014,7 hPa 0,0 mm 5,4 km/h (1 Bft) O 80 ° 0 min 0,000 mm 0,0 UV-I 62 W/m² 2,1 °C 2,0 °C 6,4 km/h (2 Bft)
07.11.2017 15:25 3,3 °C 3,3 °C 92 % 1014,7 hPa 0,0 mm 4,2 km/h (1 Bft) O 86 ° 0 min 0,000 mm 0,0 UV-I 60 W/m² 2,1 °C 3,3 °C 6,4 km/h (2 Bft)
07.11.2017 15:26 3,3 °C 3,3 °C 92 % 1014,7 hPa 0,0 mm 3,5 km/h (1 Bft) O-NO 71 ° 0 min 0,000 mm 0,0 UV-I 60 W/m² 2,1 °C 3,3 °C 8,0 km/h (2 Bft)
07.11.2017 15:27 3,3 °C 3,3 °C 92 % 1014,7 hPa 0,0 mm 3,1 km/h (1 Bft) SO 126 ° 0 min 0,000 mm 0,0 UV-I 60 W/m² 2,1 °C 3,3 °C 6,4 km/h (2 Bft)
07.11.2017 15:28 3,2 °C 3,3 °C 92 % 1014,7 hPa 0,0 mm 5,1 km/h (1 Bft) N-NO 25 ° 0 min 0,000 mm 0,0 UV-I 58 W/m² 2,0 °C 2,0 °C 9,7 km/h (2 Bft)
07.11.2017 15:29 3,2 °C 3,2 °C 92 % 1014,7 hPa 0,0 mm 3,9 km/h (1 Bft) NO 38 ° 0 min 0,000 mm 0,0 UV-I 58 W/m² 2,0 °C 3,2 °C 6,4 km/h (2 Bft)
07.11.2017 15:30 3,2 °C 3,2 °C 92 % 1014,7 hPa 0,0 mm 3,1 km/h (1 Bft) O-NO 71 ° 0 min 0,000 mm 0,0 UV-I 54 W/m² 2,0 °C 3,2 °C 4,8 km/h (1 Bft)
07.11.2017 15:31 3,2 °C 3,2 °C 92 % 1014,6 hPa 0,0 mm 4,0 km/h (1 Bft) O 80 ° 0 min 0,000 mm 0,0 UV-I 49 W/m² 2,0 °C 3,2 °C 6,4 km/h (2 Bft)
07.11.2017 15:32 3,2 °C 3,2 °C 92 % 1014,7 hPa 0,0 mm 5,8 km/h (2 Bft) NO 45 ° 0 min 0,000 mm 0,0 UV-I 47 W/m² 2,0 °C 1,7 °C 8,0 km/h (2 Bft)
07.11.2017 15:33 3,2 °C 3,2 °C 92 % 1014,7 hPa 0,0 mm 5,0 km/h (1 Bft) O-NO 68 ° 0 min 0,000 mm 0,0 UV-I 46 W/m² 2,0 °C 2,0 °C 6,4 km/h (2 Bft)
07.11.2017 15:34 3,2 °C 3,2 °C 92 % 1014,6 hPa 0,0 mm 4,6 km/h (1 Bft) NO 46 ° 0 min 0,000 mm 0,0 UV-I 44 W/m² 2,0 °C 2,2 °C 8,0 km/h (2 Bft)
07.11.2017 15:35 3,2 °C 3,2 °C 92 % 1014,6 hPa 0,0 mm 4,3 km/h (1 Bft) NO 45 ° 0 min 0,000 mm 0,0 UV-I 42 W/m² 2,0 °C 3,2 °C 6,4 km/h (2 Bft)
07.11.2017 15:36 3,2 °C 3,2 °C 92 % 1014,5 hPa 0,0 mm 4,3 km/h (1 Bft) NO 46 ° 0 min 0,000 mm 0,0 UV-I 39 W/m² 2,0 °C 3,2 °C 6,4 km/h (2 Bft)
07.11.2017 15:37 3,2 °C 3,2 °C 92 % 1014,5 hPa 0,0 mm 3,9 km/h (1 Bft) NO 46 ° 0 min 0,000 mm 0,0 UV-I 32 W/m² 2,0 °C 3,2 °C 6,4 km/h (2 Bft)
07.11.2017 15:38 3,2 °C 3,2 °C 92 % 1014,6 hPa 0,0 mm 3,4 km/h (1 Bft) NO 43 ° 0 min 0,000 mm 0,0 UV-I 28 W/m² 2,0 °C 3,2 °C 6,4 km/h (2 Bft)
07.11.2017 15:39 3,2 °C 3,2 °C 92 % 1014,6 hPa 0,0 mm 6,3 km/h (2 Bft) NO 56 ° 0 min 0,000 mm 0,0 UV-I 26 W/m² 2,0 °C 1,5 °C 9,7 km/h (2 Bft)
07.11.2017 15:40 3,2 °C 3,2 °C 92 % 1014,6 hPa 0,0 mm 3,4 km/h (1 Bft) NO 56 ° 0 min 0,000 mm 0,0 UV-I 26 W/m² 2,0 °C 3,2 °C 4,8 km/h (1 Bft)
07.11.2017 15:41 3,2 °C 3,2 °C 92 % 1014,6 hPa 0,0 mm 4,6 km/h (1 Bft) NO 56 ° 0 min 0,000 mm 0,0 UV-I 26 W/m² 2,0 °C 2,2 °C 6,4 km/h (2 Bft)
07.11.2017 15:42 3,2 °C 3,2 °C 92 % 1014,6 hPa 0,0 mm 2,5 km/h (1 Bft) NO 56 ° 0 min 0,000 mm 0,0 UV-I 26 W/m² 2,0 °C 3,2 °C 4,8 km/h (1 Bft)
07.11.2017 15:43 3,2 °C 3,2 °C 92 % 1014,6 hPa 0,0 mm 4,2 km/h (1 Bft) O-NO 71 ° 0 min 0,000 mm 0,0 UV-I 30 W/m² 2,0 °C 3,2 °C 6,4 km/h (2 Bft)
07.11.2017 15:44 3,1 °C 3,2 °C 92 % 1014,6 hPa 0,0 mm 3,6 km/h (1 Bft) O 79 ° 0 min 0,000 mm 0,0 UV-I 33 W/m² 1,9 °C 3,1 °C 6,4 km/h (2 Bft)
07.11.2017 15:45 3,1 °C 3,2 °C 92 % 1014,5 hPa 0,0 mm 4,1 km/h (1 Bft) O-NO 76 ° 0 min 0,000 mm 0,0 UV-I 33 W/m² 1,9 °C 3,1 °C 6,4 km/h (2 Bft)
07.11.2017 15:46 3,1 °C 3,1 °C 93 % 1014,6 hPa 0,0 mm 2,0 km/h (1 Bft) O-NO 76 ° 0 min 0,000 mm 0,0 UV-I 35 W/m² 2,1 °C 3,1 °C 4,8 km/h (1 Bft)
07.11.2017 15:47 3,1 °C 3,1 °C 93 % 1014,5 hPa 0,0 mm 2,9 km/h (1 Bft) O-NO 76 ° 0 min 0,000 mm 0,0 UV-I 35 W/m² 2,1 °C 3,1 °C 6,4 km/h (2 Bft)
07.11.2017 15:48 3,1 °C 3,1 °C 93 % 1014,5 hPa 0,0 mm 3,4 km/h (1 Bft) O-NO 74 ° 0 min 0,000 mm 0,0 UV-I 35 W/m² 2,1 °C 3,1 °C 4,8 km/h (1 Bft)
07.11.2017 15:49 3,1 °C 3,1 °C 93 % 1014,5 hPa 0,0 mm 4,1 km/h (1 Bft) O-NO 60 ° 0 min 0,000 mm 0,0 UV-I 37 W/m² 2,1 °C 3,1 °C 6,4 km/h (2 Bft)
07.11.2017 15:50 3,1 °C 3,1 °C 93 % 1014,5 hPa 0,0 mm 3,5 km/h (1 Bft) O-NO 60 ° 0 min 0,000 mm 0,0 UV-I 39 W/m² 2,1 °C 3,1 °C 4,8 km/h (1 Bft)
07.11.2017 15:51 3,1 °C 3,1 °C 93 % 1014,5 hPa 0,0 mm 2,7 km/h (1 Bft) O-NO 60 ° 0 min 0,000 mm 0,0 UV-I 40 W/m² 2,1 °C 3,1 °C 4,8 km/h (1 Bft)
07.11.2017 15:52 3,1 °C 3,1 °C 93 % 1014,5 hPa 0,0 mm 1,3 km/h (1 Bft) O-NO 60 ° 0 min 0,000 mm 0,0 UV-I 40 W/m² 2,1 °C 3,1 °C 3,2 km/h (1 Bft)
07.11.2017 15:53 3,1 °C 3,1 °C 93 % 1014,4 hPa 0,0 mm 2,2 km/h (1 Bft) O-NO 60 ° 0 min 0,000 mm 0,0 UV-I 39 W/m² 2,1 °C 3,1 °C 3,2 km/h (1 Bft)
07.11.2017 15:54 3,1 °C 3,1 °C 93 % 1014,5 hPa 0,0 mm 0,7 km/h (0 Bft) O-NO 60 ° 0 min 0,000 mm 0,0 UV-I 35 W/m² 2,1 °C 3,1 °C 1,6 km/h (1 Bft)
07.11.2017 15:55 3,1 °C 3,1 °C 93 % 1014,4 hPa 0,0 mm 2,2 km/h (1 Bft) O-NO 60 ° 0 min 0,000 mm 0,0 UV-I 35 W/m² 2,1 °C 3,1 °C 4,8 km/h (1 Bft)
07.11.2017 15:56 3,1 °C 3,1 °C 93 % 1014,4 hPa 0,0 mm 2,5 km/h (1 Bft) O-NO 60 ° 0 min 0,000 mm 0,0 UV-I 35 W/m² 2,1 °C 3,1 °C 3,2 km/h (1 Bft)
07.11.2017 15:57 3,1 °C 3,1 °C 93 % 1014,4 hPa 0,0 mm 1,7 km/h (1 Bft) O-NO 60 ° 0 min 0,000 mm 0,0 UV-I 35 W/m² 2,1 °C 3,1 °C 3,2 km/h (1 Bft)
07.11.2017 15:58 3,1 °C 3,1 °C 93 % 1014,4 hPa 0,0 mm 1,5 km/h (1 Bft) O-NO 60 ° 0 min 0,000 mm 0,0 UV-I 33 W/m² 2,1 °C 3,1 °C 3,2 km/h (1 Bft)
07.11.2017 15:59 3,1 °C 3,1 °C 93 % 1014,4 hPa 0,0 mm 1,3 km/h (1 Bft) O-NO 60 ° 0 min 0,000 mm 0,0 UV-I 32 W/m² 2,1 °C 3,1 °C 3,2 km/h (1 Bft)
07.11.2017 16:00 3,1 °C 3,1 °C 93 % 1014,4 hPa 0,0 mm 0,2 km/h (0 Bft) O-NO 60 ° 0 min 0,000 mm 0,0 UV-I 33 W/m² 2,1 °C 3,1 °C 1,6 km/h (1 Bft)
07.11.2017 16:01 3,1 °C 3,1 °C 93 % 1014,4 hPa 0,0 mm 1,8 km/h (1 Bft) O-NO 60 ° 0 min 0,026 mm 0,0 UV-I 37 W/m² 2,1 °C 3,1 °C 3,2 km/h (1 Bft)
07.11.2017 16:02 3,1 °C 3,1 °C 93 % 1014,5 hPa 0,0 mm 2,6 km/h (1 Bft) O-NO 60 ° 0 min 0,000 mm 0,0 UV-I 37 W/m² 2,1 °C 3,1 °C 3,2 km/h (1 Bft)
07.11.2017 16:03 3,1 °C 3,1 °C 93 % 1014,5 hPa 0,0 mm 2,4 km/h (1 Bft) O-NO 60 ° 0 min 0,000 mm 0,0 UV-I 37 W/m² 2,1 °C 3,1 °C 3,2 km/h (1 Bft)
07.11.2017 16:04 3,1 °C 3,1 °C 93 % 1014,5 hPa 0,0 mm 1,5 km/h (1 Bft) O-NO 60 ° 0 min 0,000 mm 0,0 UV-I 35 W/m² 2,1 °C 3,1 °C 3,2 km/h (1 Bft)
07.11.2017 16:05 3,1 °C 3,1 °C 93 % 1014,4 hPa 0,0 mm 1,0 km/h (0 Bft) O-NO 60 ° 0 min 0,000 mm 0,0 UV-I 35 W/m² 2,1 °C 3,1 °C 3,2 km/h (1 Bft)
07.11.2017 16:06 3,1 °C 3,1 °C 93 % 1014,4 hPa 0,0 mm 0,0 km/h (0 Bft) O-NO 60 ° 0 min 0,000 mm 0,0 UV-I 32 W/m² 2,1 °C 3,1 °C 0,0 km/h (0 Bft)
07.11.2017 16:07 3,1 °C 3,1 °C 93 % 1014,4 hPa 0,0 mm 1,5 km/h (1 Bft) O-NO 60 ° 0 min 0,000 mm 0,0 UV-I 30 W/m² 2,1 °C 3,1 °C 3,2 km/h (1 Bft)
07.11.2017 16:08 3,1 °C 3,1 °C 93 % 1014,4 hPa 0,0 mm 2,1 km/h (1 Bft) O-NO 60 ° 0 min 0,000 mm 0,0 UV-I 28 W/m² 2,1 °C 3,1 °C 3,2 km/h (1 Bft)
07.11.2017 16:09 3,1 °C 3,1 °C 93 % 1014,5 hPa 0,0 mm 2,1 km/h (1 Bft) O-NO 60 ° 0 min 0,000 mm 0,0 UV-I 28 W/m² 2,1 °C 3,1 °C 3,2 km/h (1 Bft)
07.11.2017 16:10 3,1 °C 3,1 °C 93 % 1014,4 hPa 0,0 mm 1,9 km/h (1 Bft) O-NO 60 ° 0 min 0,000 mm 0,0 UV-I 26 W/m² 2,1 °C 3,1 °C 3,2 km/h (1 Bft)
07.11.2017 16:11 3,1 °C 3,1 °C 93 % 1014,4 hPa 0,0 mm 0,4 km/h (0 Bft) O-NO 60 ° 0 min 0,000 mm 0,0 UV-I 26 W/m² 2,1 °C 3,1 °C 1,6 km/h (1 Bft)
07.11.2017 16:12 3,1 °C 3,1 °C 93 % 1014,4 hPa 0,0 mm 1,2 km/h (1 Bft) O-NO 60 ° 0 min 0,000 mm 0,0 UV-I 23 W/m² 2,1 °C 3,1 °C 3,2 km/h (1 Bft)
07.11.2017 16:13 3,1 °C 3,1 °C 93 % 1014,4 hPa 0,0 mm 2,6 km/h (1 Bft) O-NO 60 ° 0 min 0,000 mm 0,0 UV-I 21 W/m² 2,1 °C 3,1 °C 3,2 km/h (1 Bft)
07.11.2017 16:14 3,1 °C 3,1 °C 93 % 1014,5 hPa 0,0 mm 1,1 km/h (1 Bft) O-NO 60 ° 0 min 0,000 mm 0,0 UV-I 21 W/m² 2,1 °C 3,1 °C 1,6 km/h (1 Bft)
07.11.2017 16:15 3,1 °C 3,1 °C 93 % 1014,4 hPa 0,0 mm 2,4 km/h (1 Bft) O-NO 60 ° 0 min 0,000 mm 0,0 UV-I 19 W/m² 2,1 °C 3,1 °C 4,8 km/h (1 Bft)
07.11.2017 16:16 3,1 °C 3,1 °C 93 % 1014,5 hPa 0,0 mm 3,4 km/h (1 Bft) NO 52 ° 0 min 0,000 mm 0,0 UV-I 16 W/m² 2,1 °C 3,1 °C 4,8 km/h (1 Bft)
07.11.2017 16:17 3,1 °C 3,1 °C 93 % 1014,4 hPa 0,0 mm 2,4 km/h (1 Bft) NO 52 ° 0 min 0,000 mm 0,0 UV-I 14 W/m² 2,1 °C 3,1 °C 4,8 km/h (1 Bft)
07.11.2017 16:18 3,1 °C 3,1 °C 93 % 1014,4 hPa 0,0 mm 2,3 km/h (1 Bft) NO 51 ° 0 min 0,000 mm 0,0 UV-I 12 W/m² 2,1 °C 3,1 °C 3,2 km/h (1 Bft)
07.11.2017 16:19 3,1 °C 3,1 °C 93 % 1014,5 hPa 0,0 mm 2,1 km/h (1 Bft) NO 51 ° 0 min 0,000 mm 0,0 UV-I 11 W/m² 2,1 °C 3,1 °C 3,2 km/h (1 Bft)
07.11.2017 16:20 3,1 °C 3,1 °C 93 % 1014,5 hPa 0,0 mm 1,3 km/h (1 Bft) NO 49 ° 0 min 0,000 mm 0,0 UV-I 9 W/m² 2,1 °C 3,1 °C 3,2 km/h (1 Bft)
07.11.2017 16:21 3,1 °C 3,1 °C 93 % 1014,5 hPa 0,0 mm 2,1 km/h (1 Bft) NO 49 ° 0 min 0,000 mm 0,0 UV-I 9 W/m² 2,1 °C 3,1 °C 3,2 km/h (1 Bft)
07.11.2017 16:22 3,1 °C 3,1 °C 93 % 1014,6 hPa 0,0 mm 2,1 km/h (1 Bft) NO 49 ° 0 min 0,000 mm 0,0 UV-I 9 W/m² 2,1 °C 3,1 °C 3,2 km/h (1 Bft)
07.11.2017 16:23 3,1 °C 3,1 °C 93 % 1014,6 hPa 0,0 mm 1,7 km/h (1 Bft) NO 49 ° 0 min 0,000 mm 0,0 UV-I 9 W/m² 2,1 °C 3,1 °C 3,2 km/h (1 Bft)
07.11.2017 16:24 3,1 °C 3,1 °C 93 % 1014,6 hPa 0,0 mm 2,8 km/h (1 Bft) N 355 ° 0 min 0,000 mm 0,0 UV-I 9 W/m² 2,1 °C 3,1 °C 4,8 km/h (1 Bft)
07.11.2017 16:25 3,1 °C 3,1 °C 93 % 1014,6 hPa 0,0 mm 1,9 km/h (1 Bft) N 355 ° 0 min 0,000 mm 0,0 UV-I 7 W/m² 2,1 °C 3,1 °C 4,8 km/h (1 Bft)
07.11.2017 16:26 3,1 °C 3,1 °C 93 % 1014,6 hPa 0,0 mm 2,7 km/h (1 Bft) N 355 ° 0 min 0,000 mm 0,0 UV-I 7 W/m² 2,1 °C 3,1 °C 4,8 km/h (1 Bft)
07.11.2017 16:27 3,1 °C 3,1 °C 93 % 1014,6 hPa 0,0 mm 2,0 km/h (1 Bft) N 355 ° 0 min 0,000 mm 0,0 UV-I 7 W/m² 2,1 °C 3,1 °C 4,8 km/h (1 Bft)
07.11.2017 16:28 3,1 °C 3,1 °C 93 % 1014,6 hPa 0,0 mm 2,8 km/h (1 Bft) N 5 ° 0 min 0,000 mm 0,0 UV-I 5 W/m² 2,1 °C 3,1 °C 4,8 km/h (1 Bft)
07.11.2017 16:29 3,1 °C 3,1 °C 93 % 1014,6 hPa 0,0 mm 2,4 km/h (1 Bft) N 5 ° 0 min 0,000 mm 0,0 UV-I 5 W/m² 2,1 °C 3,1 °C 3,2 km/h (1 Bft)
07.11.2017 16:30 3,1 °C 3,1 °C 93 % 1014,6 hPa 0,0 mm 2,0 km/h (1 Bft) N 5 ° 0 min 0,000 mm 0,0 UV-I 5 W/m² 2,1 °C 3,1 °C 3,2 km/h (1 Bft)
07.11.2017 16:31 3,0 °C 3,1 °C 93 % 1014,6 hPa 0,0 mm 2,2 km/h (1 Bft) N 5 ° 0 min 0,000 mm 0,0 UV-I 0 W/m² 2,0 °C 3,0 °C 3,2 km/h (1 Bft)
07.11.2017 16:32 3,0 °C 3,1 °C 93 % 1014,6 hPa 0,0 mm 2,3 km/h (1 Bft) N 5 ° 0 min 0,000 mm 0,0 UV-I 0 W/m² 2,0 °C 3,0 °C 3,2 km/h (1 Bft)
07.11.2017 16:33 3,0 °C 3,0 °C 93 % 1014,6 hPa 0,0 mm 0,1 km/h (0 Bft) N 5 ° 0 min 0,000 mm 0,0 UV-I 0 W/m² 2,0 °C 3,0 °C 1,6 km/h (1 Bft)
07.11.2017 16:34 3,0 °C 3,0 °C 93 % 1014,6 hPa 0,0 mm 0,2 km/h (0 Bft) N 5 ° 0 min 0,000 mm 0,0 UV-I 0 W/m² 2,0 °C 3,0 °C 1,6 km/h (1 Bft)
07.11.2017 16:35 3,0 °C 3,0 °C 93 % 1014,6 hPa 0,0 mm 0,3 km/h (0 Bft) N 5 ° 0 min 0,000 mm 0,0 UV-I 0 W/m² 2,0 °C 3,0 °C 1,6 km/h (1 Bft)
07.11.2017 16:36 3,0 °C 3,0 °C 93 % 1014,6 hPa 0,0 mm 0,0 km/h (0 Bft) N 5 ° 0 min 0,000 mm 0,0 UV-I 0 W/m² 2,0 °C 3,0 °C 0,0 km/h (0 Bft)
07.11.2017 16:37 3,0 °C 3,0 °C 93 % 1014,6 hPa 0,0 mm 0,0 km/h (0 Bft) N 5 ° 0 min 0,000 mm 0,0 UV-I 0 W/m² 2,0 °C 3,0 °C 0,0 km/h (0 Bft)
07.11.2017 16:38 3,0 °C 3,0 °C 93 % 1014,6 hPa 0,0 mm 0,0 km/h (0 Bft) N 5 ° 0 min 0,000 mm 0,0 UV-I 0 W/m² 2,0 °C 3,0 °C 0,0 km/h (0 Bft)
07.11.2017 16:39 3,0 °C 3,0 °C 93 % 1014,6 hPa 0,0 mm 2,2 km/h (1 Bft) N 5 ° 0 min 0,000 mm 0,0 UV-I 0 W/m² 2,0 °C 3,0 °C 3,2 km/h (1 Bft)
07.11.2017 16:40 3,0 °C 3,0 °C 93 % 1014,6 hPa 0,0 mm 3,1 km/h (1 Bft) N 5 ° 0 min 0,000 mm 0,0 UV-I 0 W/m² 2,0 °C 3,0 °C 4,8 km/h (1 Bft)
07.11.2017 16:41 2,9 °C 3,0 °C 93 % 1014,7 hPa 0,0 mm 1,8 km/h (1 Bft) N 5 ° 0 min 0,000 mm 0,0 UV-I 0 W/m² 1,9 °C 2,9 °C 3,2 km/h (1 Bft)
07.11.2017 16:42 2,9 °C 2,9 °C 93 % 1014,6 hPa 0,0 mm 2,2 km/h (1 Bft) N 5 ° 0 min 0,000 mm 0,0 UV-I 0 W/m² 1,9 °C 2,9 °C 3,2 km/h (1 Bft)
07.11.2017 16:43 2,9 °C 2,9 °C 93 % 1014,7 hPa 0,0 mm 2,4 km/h (1 Bft) N 5 ° 0 min 0,000 mm 0,0 UV-I 0 W/m² 1,9 °C 2,9 °C 3,2 km/h (1 Bft)
07.11.2017 16:44 2,9 °C 2,9 °C 93 % 1014,6 hPa 0,0 mm 1,1 km/h (1 Bft) N 5 ° 0 min 0,000 mm 0,0 UV-I 0 W/m² 1,9 °C 2,9 °C 3,2 km/h (1 Bft)
07.11.2017 16:45 2,9 °C 2,9 °C 93 % 1014,6 hPa 0,0 mm 1,0 km/h (0 Bft) N 5 ° 0 min 0,000 mm 0,0 UV-I 0 W/m² 1,9 °C 2,9 °C 1,6 km/h (1 Bft)
07.11.2017 16:46 2,9 °C 2,9 °C 93 % 1014,6 hPa 0,0 mm 0,7 km/h (0 Bft) N 5 ° 0 min 0,000 mm 0,0 UV-I 0 W/m² 1,9 °C 2,9 °C 1,6 km/h (1 Bft)
07.11.2017 16:47 2,9 °C 2,9 °C 93 % 1014,6 hPa 0,0 mm 1,3 km/h (1 Bft) N 5 ° 0 min 0,000 mm 0,0 UV-I 0 W/m² 1,9 °C 2,9 °C 3,2 km/h (1 Bft)
07.11.2017 16:48 2,9 °C 2,9 °C 93 % 1014,6 hPa 0,0 mm 0,1 km/h (0 Bft) N 5 ° 0 min 0,000 mm 0,0 UV-I 0 W/m² 1,9 °C 2,9 °C 1,6 km/h (1 Bft)
07.11.2017 16:49 2,9 °C 2,9 °C 93 % 1014,6 hPa 0,0 mm 0,0 km/h (0 Bft) N 5 ° 0 min 0,000 mm 0,0 UV-I 0 W/m² 1,9 °C 2,9 °C 0,0 km/h (0 Bft)
07.11.2017 16:50 2,9 °C 2,9 °C 93 % 1014,6 hPa 0,0 mm 0,0 km/h (0 Bft) N 5 ° 0 min 0,000 mm 0,0 UV-I 0 W/m² 1,9 °C 2,9 °C 0,0 km/h (0 Bft)
07.11.2017 16:51 2,9 °C 2,9 °C 93 % 1014,6 hPa 0,0 mm 0,0 km/h (0 Bft) N 5 ° 0 min 0,000 mm 0,0 UV-I 0 W/m² 1,9 °C 2,9 °C 0,0 km/h (0 Bft)
07.11.2017 16:52 2,9 °C 2,9 °C 93 % 1014,6 hPa 0,0 mm 1,2 km/h (1 Bft) N 5 ° 0 min 0,000 mm 0,0 UV-I 0 W/m² 1,9 °C 2,9 °C 3,2 km/h (1 Bft)
07.11.2017 16:53 2,9 °C 2,9 °C 93 % 1014,6 hPa 0,0 mm 0,0 km/h (0 Bft) N 5 ° 0 min 0,000 mm 0,0 UV-I 0 W/m² 1,9 °C 2,9 °C 0,0 km/h (0 Bft)
07.11.2017 16:54 2,9 °C 2,9 °C 93 % 1014,6 hPa 0,0 mm 0,5 km/h (0 Bft) N 5 ° 0 min 0,000 mm 0,0 UV-I 0 W/m² 1,9 °C 2,9 °C 1,6 km/h (1 Bft)
07.11.2017 16:55 2,9 °C 2,9 °C 93 % 1014,6 hPa 0,0 mm 0,0 km/h (0 Bft) N 5 ° 0 min 0,000 mm 0,0 UV-I 0 W/m² 1,9 °C 2,9 °C 0,0 km/h (0 Bft)
07.11.2017 16:56 2,9 °C 2,9 °C 93 % 1014,7 hPa 0,0 mm 0,0 km/h (0 Bft) N 5 ° 0 min 0,000 mm 0,0 UV-I 0 W/m² 1,9 °C 2,9 °C 0,0 km/h (0 Bft)
07.11.2017 16:57 2,9 °C 2,9 °C 93 % 1014,7 hPa 0,0 mm 0,0 km/h (0 Bft) N 5 ° 0 min 0,000 mm 0,0 UV-I 0 W/m² 1,9 °C 2,9 °C 0,0 km/h (0 Bft)
07.11.2017 16:58 2,9 °C 2,9 °C 93 % 1014,7 hPa 0,0 mm 0,0 km/h (0 Bft) N 5 ° 0 min 0,000 mm 0,0 UV-I 0 W/m² 1,9 °C 2,9 °C 0,0 km/h (0 Bft)
07.11.2017 16:59 2,9 °C 2,9 °C 93 % 1014,7 hPa 0,0 mm 0,0 km/h (0 Bft) N 5 ° 0 min 0,000 mm 0,0 UV-I 0 W/m² 1,9 °C 2,9 °C 0,0 km/h (0 Bft)
07.11.2017 17:00 2,9 °C 2,9 °C 93 % 1014,7 hPa 0,0 mm 0,0 km/h (0 Bft) N 5 ° 0 min 0,000 mm 0,0 UV-I 0 W/m² 1,9 °C 2,9 °C 0,0 km/h (0 Bft)
07.11.2017 17:01 2,9 °C 2,9 °C 93 % 1014,8 hPa 0,0 mm 0,0 km/h (0 Bft) N 5 ° 0 min 0,000 mm 0,0 UV-I 0 W/m² 1,9 °C 2,9 °C 0,0 km/h (0 Bft)
07.11.2017 17:02 2,9 °C 2,9 °C 93 % 1014,8 hPa 0,0 mm 0,0 km/h (0 Bft) N 5 ° 0 min 0,000 mm 0,0 UV-I 0 W/m² 1,9 °C 2,9 °C 0,0 km/h (0 Bft)
07.11.2017 17:03 2,9 °C 2,9 °C 93 % 1014,6 hPa 0,0 mm 0,0 km/h (0 Bft) N 5 ° 0 min 0,000 mm 0,0 UV-I 0 W/m² 1,9 °C 2,9 °C 0,0 km/h (0 Bft)
07.11.2017 17:04 2,9 °C 2,9 °C 93 % 1014,6 hPa 0,0 mm 0,0 km/h (0 Bft) N 5 ° 0 min 0,000 mm 0,0 UV-I 0 W/m² 1,9 °C 2,9 °C 0,0 km/h (0 Bft)
07.11.2017 17:05 2,9 °C 2,9 °C 93 % 1014,7 hPa 0,0 mm 0,0 km/h (0 Bft) N 5 ° 0 min 0,000 mm 0,0 UV-I 0 W/m² 1,9 °C 2,9 °C 0,0 km/h (0 Bft)
07.11.2017 17:06 2,9 °C 2,9 °C 93 % 1014,7 hPa 0,0 mm 0,0 km/h (0 Bft) N 5 ° 0 min 0,000 mm 0,0 UV-I 0 W/m² 1,9 °C 2,9 °C 0,0 km/h (0 Bft)
07.11.2017 17:07 2,9 °C 2,9 °C 93 % 1014,7 hPa 0,0 mm 0,0 km/h (0 Bft) N 5 ° 0 min 0,000 mm 0,0 UV-I 0 W/m² 1,9 °C 2,9 °C 0,0 km/h (0 Bft)
07.11.2017 17:08 2,9 °C 2,9 °C 93 % 1014,7 hPa 0,0 mm 0,0 km/h (0 Bft) N 5 ° 0 min 0,000 mm 0,0 UV-I 0 W/m² 1,9 °C 2,9 °C 0,0 km/h (0 Bft)
07.11.2017 17:09 2,9 °C 2,9 °C 93 % 1014,6 hPa 0,0 mm 0,0 km/h (0 Bft) N 5 ° 0 min 0,000 mm 0,0 UV-I 0 W/m² 1,9 °C 2,9 °C 0,0 km/h (0 Bft)
07.11.2017 17:10 2,9 °C 2,9 °C 93 % 1014,6 hPa 0,0 mm 1,5 km/h (1 Bft) N 355 ° 0 min 0,000 mm 0,0 UV-I 0 W/m² 1,9 °C 2,9 °C 3,2 km/h (1 Bft)
07.11.2017 17:11 2,9 °C 2,9 °C 93 % 1014,6 hPa 0,0 mm 1,7 km/h (1 Bft) N 355 ° 0 min 0,000 mm 0,0 UV-I 0 W/m² 1,9 °C 2,9 °C 3,2 km/h (1 Bft)
07.11.2017 17:12 2,9 °C 2,9 °C 93 % 1014,7 hPa 0,0 mm 0,1 km/h (0 Bft) N 355 ° 0 min 0,000 mm 0,0 UV-I 0 W/m² 1,9 °C 2,9 °C 1,6 km/h (1 Bft)
07.11.2017 17:13 2,9 °C 2,9 °C 93 % 1014,7 hPa 0,0 mm 0,8 km/h (0 Bft) N 355 ° 0 min 0,000 mm 0,0 UV-I 0 W/m² 1,9 °C 2,9 °C 3,2 km/h (1 Bft)
07.11.2017 17:14 2,9 °C 2,9 °C 93 % 1014,6 hPa 0,0 mm 0,3 km/h (0 Bft) N 355 ° 0 min 0,000 mm 0,0 UV-I 0 W/m² 1,9 °C 2,9 °C 1,6 km/h (1 Bft)
07.11.2017 17:15 2,9 °C 2,9 °C 93 % 1014,6 hPa 0,0 mm 0,3 km/h (0 Bft) N 355 ° 0 min 0,000 mm 0,0 UV-I 0 W/m² 1,9 °C 2,9 °C 3,2 km/h (1 Bft)
07.11.2017 17:16 2,9 °C 2,9 °C 93 % 1014,6 hPa 0,0 mm 2,0 km/h (1 Bft) N 355 ° 0 min 0,000 mm 0,0 UV-I 0 W/m² 1,9 °C 2,9 °C 3,2 km/h (1 Bft)
07.11.2017 17:17 2,9 °C 2,9 °C 93 % 1014,6 hPa 0,0 mm 1,0 km/h (0 Bft) N 355 ° 0 min 0,000 mm 0,0 UV-I 0 W/m² 1,9 °C 2,9 °C 3,2 km/h (1 Bft)
07.11.2017 17:18 2,9 °C 2,9 °C 93 % 1014,6 hPa 0,0 mm 1,1 km/h (1 Bft) N 355 ° 0 min 0,000 mm 0,0 UV-I 0 W/m² 1,9 °C 2,9 °C 3,2 km/h (1 Bft)
07.11.2017 17:19 2,9 °C 2,9 °C 93 % 1014,6 hPa 0,0 mm 0,0 km/h (0 Bft) N 355 ° 0 min 0,000 mm 0,0 UV-I 0 W/m² 1,9 °C 2,9 °C 0,0 km/h (0 Bft)
07.11.2017 17:20 2,8 °C 2,9 °C 93 % 1014,6 hPa 0,0 mm 0,0 km/h (0 Bft) N 355 ° 0 min 0,000 mm 0,0 UV-I 0 W/m² 1,8 °C 2,8 °C 0,0 km/h (0 Bft)
07.11.2017 17:21 2,8 °C 2,8 °C 93 % 1014,6 hPa 0,0 mm 0,0 km/h (0 Bft) N 355 ° 0 min 0,000 mm 0,0 UV-I 0 W/m² 1,8 °C 2,8 °C 0,0 km/h (0 Bft)
07.11.2017 17:22 2,8 °C 2,8 °C 93 % 1014,6 hPa 0,0 mm 0,0 km/h (0 Bft) N 355 ° 0 min 0,000 mm 0,0 UV-I 0 W/m² 1,8 °C 2,8 °C 0,0 km/h (0 Bft)
07.11.2017 17:23 2,8 °C 2,8 °C 93 % 1014,6 hPa 0,0 mm 0,0 km/h (0 Bft) N 355 ° 0 min 0,000 mm 0,0 UV-I 0 W/m² 1,8 °C 2,8 °C 0,0 km/h (0 Bft)
07.11.2017 17:24 2,8 °C 2,8 °C 93 % 1014,6 hPa 0,0 mm 0,0 km/h (0 Bft) N 355 ° 0 min 0,000 mm 0,0 UV-I 0 W/m² 1,8 °C 2,8 °C 0,0 km/h (0 Bft)
07.11.2017 17:25 2,8 °C 2,8 °C 93 % 1014,6 hPa 0,0 mm 0,0 km/h (0 Bft) N 355 ° 0 min 0,000 mm 0,0 UV-I 0 W/m² 1,8 °C 2,8 °C 0,0 km/h (0 Bft)
07.11.2017 17:26 2,8 °C 2,8 °C 93 % 1014,6 hPa 0,0 mm 0,0 km/h (0 Bft) N 355 ° 0 min 0,000 mm 0,0 UV-I 0 W/m² 1,8 °C 2,8 °C 0,0 km/h (0 Bft)
07.11.2017 17:27 2,8 °C 2,8 °C 93 % 1014,6 hPa 0,0 mm 0,0 km/h (0 Bft) N 355 ° 0 min 0,000 mm 0,0 UV-I 0 W/m² 1,8 °C 2,8 °C 0,0 km/h (0 Bft)
07.11.2017 17:28 2,8 °C 2,8 °C 93 % 1014,6 hPa 0,0 mm 0,0 km/h (0 Bft) N 355 ° 0 min 0,000 mm 0,0 UV-I 0 W/m² 1,8 °C 2,8 °C 0,0 km/h (0 Bft)
07.11.2017 17:29 2,8 °C 2,8 °C 93 % 1014,6 hPa 0,0 mm 0,0 km/h (0 Bft) N 355 ° 0 min 0,000 mm 0,0 UV-I 0 W/m² 1,8 °C 2,8 °C 0,0 km/h (0 Bft)
07.11.2017 17:30 2,8 °C 2,8 °C 93 % 1014,6 hPa 0,0 mm 0,0 km/h (0 Bft) N 355 ° 0 min 0,000 mm 0,0 UV-I 0 W/m² 1,8 °C 2,8 °C 0,0 km/h (0 Bft)
07.11.2017 17:31 2,8 °C 2,8 °C 93 % 1014,5 hPa 0,0 mm 1,8 km/h (1 Bft) N 355 ° 0 min 0,000 mm 0,0 UV-I 0 W/m² 1,8 °C 2,8 °C 4,8 km/h (1 Bft)
07.11.2017 17:32 2,8 °C 2,8 °C 93 % 1014,5 hPa 0,0 mm 2,7 km/h (1 Bft) N 355 ° 0 min 0,000 mm 0,0 UV-I 0 W/m² 1,8 °C 2,8 °C 3,2 km/h (1 Bft)
07.11.2017 17:33 2,8 °C 2,8 °C 93 % 1014,5 hPa 0,0 mm 0,6 km/h (0 Bft) N 355 ° 0 min 0,000 mm 0,0 UV-I 0 W/m² 1,8 °C 2,8 °C 3,2 km/h (1 Bft)
07.11.2017 17:34 2,8 °C 2,8 °C 93 % 1014,5 hPa 0,0 mm 0,7 km/h (0 Bft) N 355 ° 0 min 0,000 mm 0,0 UV-I 0 W/m² 1,8 °C 2,8 °C 1,6 km/h (1 Bft)
07.11.2017 17:35 2,8 °C 2,8 °C 93 % 1014,5 hPa 0,0 mm 0,2 km/h (0 Bft) N 355 ° 0 min 0,000 mm 0,0 UV-I 0 W/m² 1,8 °C 2,8 °C 1,6 km/h (1 Bft)
07.11.2017 17:36 2,8 °C 2,8 °C 93 % 1014,5 hPa 0,0 mm 0,0 km/h (0 Bft) N 355 ° 0 min 0,000 mm 0,0 UV-I 0 W/m² 1,8 °C 2,8 °C 0,0 km/h (0 Bft)
07.11.2017 17:37 2,8 °C 2,8 °C 93 % 1014,5 hPa 0,0 mm 0,8 km/h (0 Bft) N 355 ° 0 min 0,000 mm 0,0 UV-I 0 W/m² 1,8 °C 2,8 °C 3,2 km/h (1 Bft)
07.11.2017 17:38 2,8 °C 2,8 °C 93 % 1014,5 hPa 0,0 mm 0,0 km/h (0 Bft) N 355 ° 0 min 0,000 mm 0,0 UV-I 0 W/m² 1,8 °C 2,8 °C 0,0 km/h (0 Bft)
07.11.2017 17:39 2,8 °C 2,8 °C 93 % 1014,5 hPa 0,0 mm 0,3 km/h (0 Bft) N 355 ° 0 min 0,000 mm 0,0 UV-I 0 W/m² 1,8 °C 2,8 °C 1,6 km/h (1 Bft)
07.11.2017 17:40 2,7 °C 2,8 °C 93 % 1014,5 hPa 0,0 mm 0,0 km/h (0 Bft) N 355 ° 0 min 0,000 mm 0,0 UV-I 0 W/m² 1,7 °C 2,7 °C 0,0 km/h (0 Bft)
07.11.2017 17:41 2,8 °C 2,8 °C 93 % 1014,5 hPa 0,0 mm 0,5 km/h (0 Bft) N 355 ° 0 min 0,000 mm 0,0 UV-I 0 W/m² 1,8 °C 2,8 °C 1,6 km/h (1 Bft)
07.11.2017 17:42 2,8 °C 2,8 °C 94 % 1014,5 hPa 0,0 mm 0,9 km/h (0 Bft) N 355 ° 0 min 0,000 mm 0,0 UV-I 0 W/m² 1,9 °C 2,8 °C 1,6 km/h (1 Bft)
07.11.2017 17:43 2,7 °C 2,8 °C 94 % 1014,6 hPa 0,0 mm 0,0 km/h (0 Bft) N 355 ° 0 min 0,000 mm 0,0 UV-I 0 W/m² 1,8 °C 2,7 °C 0,0 km/h (0 Bft)
07.11.2017 17:44 2,7 °C 2,8 °C 94 % 1014,6 hPa 0,0 mm 0,0 km/h (0 Bft) N 355 ° 0 min 0,000 mm 0,0 UV-I 0 W/m² 1,8 °C 2,7 °C 0,0 km/h (0 Bft)
07.11.2017 17:45 2,8 °C 2,8 °C 94 % 1014,6 hPa 0,0 mm 0,0 km/h (0 Bft) N 355 ° 0 min 0,000 mm 0,0 UV-I 0 W/m² 1,9 °C 2,8 °C 0,0 km/h (0 Bft)
07.11.2017 17:46 2,8 °C 2,8 °C 94 % 1014,6 hPa 0,0 mm 0,0 km/h (0 Bft) N 355 ° 0 min 0,000 mm 0,0 UV-I 0 W/m² 1,9 °C 2,8 °C 0,0 km/h (0 Bft)
07.11.2017 17:47 2,7 °C 2,8 °C 94 % 1014,6 hPa 0,0 mm 0,0 km/h (0 Bft) N 355 ° 0 min 0,000 mm 0,0 UV-I 0 W/m² 1,8 °C 2,7 °C 0,0 km/h (0 Bft)
07.11.2017 17:48 2,7 °C 2,8 °C 94 % 1014,6 hPa 0,0 mm 0,0 km/h (0 Bft) N 355 ° 0 min 0,000 mm 0,0 UV-I 0 W/m² 1,8 °C 2,7 °C 0,0 km/h (0 Bft)
07.11.2017 17:49 2,7 °C 2,7 °C 94 % 1014,5 hPa 0,0 mm 0,0 km/h (0 Bft) N 355 ° 0 min 0,000 mm 0,0 UV-I 0 W/m² 1,8 °C 2,7 °C 0,0 km/h (0 Bft)
07.11.2017 17:50 2,7 °C 2,8 °C 94 % 1014,5 hPa 0,0 mm 0,0 km/h (0 Bft) N 355 ° 0 min 0,000 mm 0,0 UV-I 0 W/m² 1,8 °C 2,7 °C 0,0 km/h (0 Bft)
07.11.2017 17:51 2,7 °C 2,7 °C 94 % 1014,6 hPa 0,0 mm 0,0 km/h (0 Bft) N 355 ° 0 min 0,000 mm 0,0 UV-I 0 W/m² 1,8 °C 2,7 °C 0,0 km/h (0 Bft)
07.11.2017 17:52 2,7 °C 2,7 °C 94 % 1014,6 hPa 0,0 mm 0,0 km/h (0 Bft) N 355 ° 0 min 0,000 mm 0,0 UV-I 0 W/m² 1,8 °C 2,7 °C 0,0 km/h (0 Bft)
07.11.2017 17:53 2,7 °C 2,7 °C 94 % 1014,5 hPa 0,0 mm 0,0 km/h (0 Bft) N 355 ° 0 min 0,000 mm 0,0 UV-I 0 W/m² 1,8 °C 2,7 °C 0,0 km/h (0 Bft)
07.11.2017 17:54 2,7 °C 2,7 °C 94 % 1014,5 hPa 0,0 mm 0,0 km/h (0 Bft) N 355 ° 0 min 0,000 mm 0,0 UV-I 0 W/m² 1,8 °C 2,7 °C 0,0 km/h (0 Bft)
07.11.2017 17:55 2,7 °C 2,7 °C 94 % 1014,5 hPa 0,0 mm 0,0 km/h (0 Bft) N 355 ° 0 min 0,000 mm 0,0 UV-I 0 W/m² 1,8 °C 2,7 °C 0,0 km/h (0 Bft)
07.11.2017 17:56 2,7 °C 2,7 °C 94 % 1014,5 hPa 0,0 mm 0,0 km/h (0 Bft) N 355 ° 0 min 0,000 mm 0,0 UV-I 0 W/m² 1,8 °C 2,7 °C 0,0 km/h (0 Bft)
07.11.2017 17:57 2,7 °C 2,7 °C 94 % 1014,6 hPa 0,0 mm 0,0 km/h (0 Bft) N 355 ° 0 min 0,000 mm 0,0 UV-I 0 W/m² 1,8 °C 2,7 °C 0,0 km/h (0 Bft)
07.11.2017 17:58 2,7 °C 2,7 °C 94 % 1014,6 hPa 0,0 mm 0,0 km/h (0 Bft) N 355 ° 0 min 0,000 mm 0,0 UV-I 0 W/m² 1,8 °C 2,7 °C 0,0 km/h (0 Bft)
07.11.2017 17:59 2,7 °C 2,7 °C 94 % 1014,6 hPa 0,0 mm 0,0 km/h (0 Bft) N 355 ° 0 min 0,000 mm 0,0 UV-I 0 W/m² 1,8 °C 2,7 °C 0,0 km/h (0 Bft)
07.11.2017 18:00 2,7 °C 2,7 °C 94 % 1014,7 hPa 0,0 mm 0,0 km/h (0 Bft) N 355 ° 0 min 0,000 mm 0,0 UV-I 0 W/m² 1,8 °C 2,7 °C 0,0 km/h (0 Bft)
07.11.2017 18:01 2,7 °C 2,7 °C 94 % 1014,7 hPa 0,0 mm 0,0 km/h (0 Bft) N 355 ° 0 min 0,000 mm 0,0 UV-I 0 W/m² 1,8 °C 2,7 °C 0,0 km/h (0 Bft)
07.11.2017 18:02 2,7 °C 2,7 °C 94 % 1014,7 hPa 0,0 mm 0,0 km/h (0 Bft) N 355 ° 0 min 0,000 mm 0,0 UV-I 0 W/m² 1,8 °C 2,7 °C 0,0 km/h (0 Bft)
07.11.2017 18:03 2,7 °C 2,7 °C 94 % 1014,8 hPa 0,0 mm 0,0 km/h (0 Bft) N 355 ° 0 min 0,000 mm 0,0 UV-I 0 W/m² 1,8 °C 2,7 °C 0,0 km/h (0 Bft)
07.11.2017 18:04 2,7 °C 2,7 °C 94 % 1014,8 hPa 0,0 mm 0,0 km/h (0 Bft) N 355 ° 0 min 0,000 mm 0,0 UV-I 0 W/m² 1,8 °C 2,7 °C 0,0 km/h (0 Bft)
07.11.2017 18:05 2,7 °C 2,7 °C 94 % 1014,8 hPa 0,0 mm 0,0 km/h (0 Bft) N 355 ° 0 min 0,000 mm 0,0 UV-I 0 W/m² 1,8 °C 2,7 °C 0,0 km/h (0 Bft)
07.11.2017 18:06 2,7 °C 2,7 °C 94 % 1014,8 hPa 0,0 mm 0,0 km/h (0 Bft) N 355 ° 0 min 0,000 mm 0,0 UV-I 0 W/m² 1,8 °C 2,7 °C 0,0 km/h (0 Bft)
07.11.2017 18:07 2,7 °C 2,7 °C 94 % 1014,8 hPa 0,0 mm 0,0 km/h (0 Bft) N 355 ° 0 min 0,000 mm 0,0 UV-I 0 W/m² 1,8 °C 2,7 °C 0,0 km/h (0 Bft)
07.11.2017 18:08 2,7 °C 2,7 °C 94 % 1014,8 hPa 0,0 mm 0,0 km/h (0 Bft) N 355 ° 0 min 0,000 mm 0,0 UV-I 0 W/m² 1,8 °C 2,7 °C 0,0 km/h (0 Bft)
07.11.2017 18:09 2,7 °C 2,7 °C 94 % 1014,8 hPa 0,0 mm 0,0 km/h (0 Bft) N 355 ° 0 min 0,000 mm 0,0 UV-I 0 W/m² 1,8 °C 2,7 °C 0,0 km/h (0 Bft)
07.11.2017 18:10 2,7 °C 2,7 °C 94 % 1014,9 hPa 0,0 mm 0,0 km/h (0 Bft) N 355 ° 0 min 0,000 mm 0,0 UV-I 0 W/m² 1,8 °C 2,7 °C 0,0 km/h (0 Bft)
07.11.2017 18:11 2,7 °C 2,7 °C 94 % 1014,8 hPa 0,0 mm 0,0 km/h (0 Bft) N 355 ° 0 min 0,000 mm 0,0 UV-I 0 W/m² 1,8 °C 2,7 °C 0,0 km/h (0 Bft)
07.11.2017 18:12 2,7 °C 2,7 °C 94 % 1014,9 hPa 0,0 mm 0,0 km/h (0 Bft) N 355 ° 0 min 0,000 mm 0,0 UV-I 0 W/m² 1,8 °C 2,7 °C 0,0 km/h (0 Bft)
07.11.2017 18:13 2,7 °C 2,7 °C 94 % 1014,9 hPa 0,0 mm 0,0 km/h (0 Bft) N 355 ° 0 min 0,000 mm 0,0 UV-I 0 W/m² 1,8 °C 2,7 °C 0,0 km/h (0 Bft)
07.11.2017 18:14 2,7 °C 2,7 °C 94 % 1014,8 hPa 0,0 mm 0,0 km/h (0 Bft) N 355 ° 0 min 0,000 mm 0,0 UV-I 0 W/m² 1,8 °C 2,7 °C 0,0 km/h (0 Bft)
07.11.2017 18:15 2,6 °C 2,7 °C 94 % 1014,9 hPa 0,0 mm 0,0 km/h (0 Bft) N 355 ° 0 min 0,000 mm 0,0 UV-I 0 W/m² 1,7 °C 2,6 °C 0,0 km/h (0 Bft)
07.11.2017 18:16 2,6 °C 2,6 °C 94 % 1014,9 hPa 0,0 mm 0,0 km/h (0 Bft) N 355 ° 0 min 0,000 mm 0,0 UV-I 0 W/m² 1,7 °C 2,6 °C 0,0 km/h (0 Bft)
07.11.2017 18:17 2,6 °C 2,6 °C 94 % 1014,9 hPa 0,0 mm 0,0 km/h (0 Bft) N 355 ° 0 min 0,000 mm 0,0 UV-I 0 W/m² 1,7 °C 2,6 °C 0,0 km/h (0 Bft)
07.11.2017 18:18 2,6 °C 2,6 °C 94 % 1014,9 hPa 0,0 mm 0,0 km/h (0 Bft) N 355 ° 0 min 0,000 mm 0,0 UV-I 0 W/m² 1,7 °C 2,6 °C 0,0 km/h (0 Bft)
07.11.2017 18:19 2,6 °C 2,6 °C 94 % 1014,9 hPa 0,0 mm 0,0 km/h (0 Bft) N 355 ° 0 min 0,000 mm 0,0 UV-I 0 W/m² 1,7 °C 2,6 °C 0,0 km/h (0 Bft)
07.11.2017 18:20 2,6 °C 2,6 °C 94 % 1014,9 hPa 0,0 mm 0,0 km/h (0 Bft) N 355 ° 0 min 0,000 mm 0,0 UV-I 0 W/m² 1,7 °C 2,6 °C 0,0 km/h (0 Bft)
07.11.2017 18:21 2,6 °C 2,6 °C 94 % 1014,9 hPa 0,0 mm 0,0 km/h (0 Bft) N 355 ° 0 min 0,000 mm 0,0 UV-I 0 W/m² 1,7 °C 2,6 °C 0,0 km/h (0 Bft)
07.11.2017 18:22 2,6 °C 2,6 °C 94 % 1014,9 hPa 0,0 mm 1,3 km/h (1 Bft) N 355 ° 0 min 0,000 mm 0,0 UV-I 0 W/m² 1,7 °C 2,6 °C 3,2 km/h (1 Bft)
07.11.2017 18:23 2,6 °C 2,6 °C 94 % 1014,8 hPa 0,0 mm 1,9 km/h (1 Bft) N 355 ° 0 min 0,000 mm 0,0 UV-I 0 W/m² 1,7 °C 2,6 °C 3,2 km/h (1 Bft)
07.11.2017 18:24 2,6 °C 2,6 °C 94 % 1014,8 hPa 0,0 mm 0,8 km/h (0 Bft) N 355 ° 0 min 0,000 mm 0,0 UV-I 0 W/m² 1,7 °C 2,6 °C 1,6 km/h (1 Bft)
07.11.2017 18:25 2,6 °C 2,6 °C 94 % 1014,8 hPa 0,0 mm 0,7 km/h (0 Bft) N 355 ° 0 min 0,000 mm 0,0 UV-I 0 W/m² 1,7 °C 2,6 °C 1,6 km/h (1 Bft)
07.11.2017 18:26 2,6 °C 2,6 °C 94 % 1014,8 hPa 0,0 mm 0,1 km/h (0 Bft) N 355 ° 0 min 0,000 mm 0,0 UV-I 0 W/m² 1,7 °C 2,6 °C 1,6 km/h (1 Bft)
07.11.2017 18:27 2,6 °C 2,6 °C 94 % 1014,7 hPa 0,0 mm 0,0 km/h (0 Bft) N 355 ° 0 min 0,000 mm 0,0 UV-I 0 W/m² 1,7 °C 2,6 °C 0,0 km/h (0 Bft)
07.11.2017 18:28 2,6 °C 2,6 °C 94 % 1014,7 hPa 0,0 mm 0,0 km/h (0 Bft) N 355 ° 0 min 0,000 mm 0,0 UV-I 0 W/m² 1,7 °C 2,6 °C 0,0 km/h (0 Bft)
07.11.2017 18:29 2,6 °C 2,6 °C 94 % 1014,7 hPa 0,0 mm 0,0 km/h (0 Bft) N 355 ° 0 min 0,000 mm 0,0 UV-I 0 W/m² 1,7 °C 2,6 °C 0,0 km/h (0 Bft)
07.11.2017 18:30 2,6 °C 2,6 °C 94 % 1014,7 hPa 0,0 mm 0,0 km/h (0 Bft) N 355 ° 0 min 0,000 mm 0,0 UV-I 0 W/m² 1,7 °C 2,6 °C 0,0 km/h (0 Bft)
07.11.2017 18:31 2,6 °C 2,6 °C 94 % 1014,7 hPa 0,0 mm 0,0 km/h (0 Bft) N 355 ° 0 min 0,000 mm 0,0 UV-I 0 W/m² 1,7 °C 2,6 °C 0,0 km/h (0 Bft)
07.11.2017 18:32 2,6 °C 2,6 °C 94 % 1014,7 hPa 0,0 mm 0,0 km/h (0 Bft) N 355 ° 0 min 0,000 mm 0,0 UV-I 0 W/m² 1,7 °C 2,6 °C 0,0 km/h (0 Bft)
07.11.2017 18:33 2,7 °C 2,7 °C 94 % 1014,8 hPa 0,0 mm 0,0 km/h (0 Bft) N 355 ° 0 min 0,000 mm 0,0 UV-I 0 W/m² 1,8 °C 2,7 °C 0,0 km/h (0 Bft)
07.11.2017 18:34 2,7 °C 2,7 °C 94 % 1014,8 hPa 0,0 mm 0,0 km/h (0 Bft) N 355 ° 0 min 0,000 mm 0,0 UV-I 0 W/m² 1,8 °C 2,7 °C 0,0 km/h (0 Bft)
07.11.2017 18:35 2,7 °C 2,7 °C 94 % 1014,8 hPa 0,0 mm 0,0 km/h (0 Bft) N 355 ° 0 min 0,000 mm 0,0 UV-I 0 W/m² 1,8 °C 2,7 °C 0,0 km/h (0 Bft)
07.11.2017 18:36 2,7 °C 2,7 °C 94 % 1014,8 hPa 0,0 mm 0,0 km/h (0 Bft) N 355 ° 0 min 0,000 mm 0,0 UV-I 0 W/m² 1,8 °C 2,7 °C 0,0 km/h (0 Bft)
07.11.2017 18:37 2,7 °C 2,7 °C 94 % 1014,9 hPa 0,0 mm 2,1 km/h (1 Bft) N 355 ° 0 min 0,000 mm 0,0 UV-I 0 W/m² 1,8 °C 2,7 °C 3,2 km/h (1 Bft)
07.11.2017 18:38 2,7 °C 2,7 °C 94 % 1014,9 hPa 0,0 mm 2,2 km/h (1 Bft) N 355 ° 0 min 0,000 mm 0,0 UV-I 0 W/m² 1,8 °C 2,7 °C 3,2 km/h (1 Bft)
07.11.2017 18:39 2,7 °C 2,7 °C 94 % 1014,9 hPa 0,0 mm 0,6 km/h (0 Bft) N 355 ° 0 min 0,000 mm 0,0 UV-I 0 W/m² 1,8 °C 2,7 °C 1,6 km/h (1 Bft)
07.11.2017 18:40 2,7 °C 2,7 °C 94 % 1014,9 hPa 0,0 mm 1,7 km/h (1 Bft) N 355 ° 0 min 0,000 mm 0,0 UV-I 0 W/m² 1,8 °C 2,7 °C 4,8 km/h (1 Bft)
07.11.2017 18:41 2,7 °C 2,7 °C 94 % 1014,9 hPa 0,0 mm 1,6 km/h (1 Bft) N 355 ° 0 min 0,000 mm 0,0 UV-I 0 W/m² 1,8 °C 2,7 °C 3,2 km/h (1 Bft)
07.11.2017 18:42 2,7 °C 2,7 °C 94 % 1014,9 hPa 0,0 mm 2,0 km/h (1 Bft) W-NW 293 ° 0 min 0,000 mm 0,0 UV-I 0 W/m² 1,8 °C 2,7 °C 3,2 km/h (1 Bft)
07.11.2017 18:43 2,7 °C 2,7 °C 94 % 1014,9 hPa 0,0 mm 1,6 km/h (1 Bft) W-NW 293 ° 0 min 0,000 mm 0,0 UV-I 0 W/m² 1,8 °C 2,7 °C 3,2 km/h (1 Bft)
07.11.2017 18:44 2,7 °C 2,7 °C 94 % 1014,9 hPa 0,0 mm 1,2 km/h (1 Bft) W-SW 250 ° 0 min 0,000 mm 0,0 UV-I 0 W/m² 1,8 °C 2,7 °C 3,2 km/h (1 Bft)
07.11.2017 18:45 2,7 °C 2,7 °C 94 % 1014,9 hPa 0,0 mm 3,1 km/h (1 Bft) S-SW 200 ° 0 min 0,000 mm 0,0 UV-I 0 W/m² 1,8 °C 2,7 °C 4,8 km/h (1 Bft)
07.11.2017 18:46 2,7 °C 2,7 °C 94 % 1014,9 hPa 0,0 mm 2,5 km/h (1 Bft) S-SW 200 ° 0 min 0,000 mm 0,0 UV-I 0 W/m² 1,8 °C 2,7 °C 3,2 km/h (1 Bft)
07.11.2017 18:47 2,7 °C 2,7 °C 94 % 1014,8 hPa 0,0 mm 3,7 km/h (1 Bft) S-SW 200 ° 0 min 0,000 mm 0,0 UV-I 0 W/m² 1,8 °C 2,7 °C 4,8 km/h (1 Bft)
07.11.2017 18:48 2,7 °C 2,7 °C 94 % 1014,7 hPa 0,0 mm 2,1 km/h (1 Bft) S-SW 200 ° 0 min 0,000 mm 0,0 UV-I 0 W/m² 1,8 °C 2,7 °C 4,8 km/h (1 Bft)
07.11.2017 18:49 2,7 °C 2,7 °C 94 % 1014,7 hPa 0,0 mm 1,9 km/h (1 Bft) S-SW 200 ° 0 min 0,000 mm 0,0 UV-I 0 W/m² 1,8 °C 2,7 °C 3,2 km/h (1 Bft)
07.11.2017 18:50 2,7 °C 2,7 °C 94 % 1014,8 hPa 0,0 mm 2,9 km/h (1 Bft) S-SW 196 ° 0 min 0,000 mm 0,0 UV-I 0 W/m² 1,8 °C 2,7 °C 4,8 km/h (1 Bft)
07.11.2017 18:51 2,7 °C 2,7 °C 94 % 1014,8 hPa 0,0 mm 2,4 km/h (1 Bft) S-SW 196 ° 0 min 0,000 mm 0,0 UV-I 0 W/m² 1,8 °C 2,7 °C 4,8 km/h (1 Bft)
07.11.2017 18:52 2,7 °C 2,7 °C 94 % 1014,8 hPa 0,0 mm 1,4 km/h (1 Bft) S-SW 196 ° 0 min 0,000 mm 0,0 UV-I 0 W/m² 1,8 °C 2,7 °C 3,2 km/h (1 Bft)
07.11.2017 18:53 2,7 °C 2,7 °C 94 % 1014,9 hPa 0,0 mm 1,5 km/h (1 Bft) S-SW 196 ° 0 min 0,000 mm 0,0 UV-I 0 W/m² 1,8 °C 2,7 °C 3,2 km/h (1 Bft)
07.11.2017 18:54 2,7 °C 2,7 °C 94 % 1014,9 hPa 0,0 mm 1,7 km/h (1 Bft) S-SW 196 ° 0 min 0,000 mm 0,0 UV-I 0 W/m² 1,8 °C 2,7 °C 4,8 km/h (1 Bft)
07.11.2017 18:55 2,7 °C 2,7 °C 94 % 1014,9 hPa 0,0 mm 2,3 km/h (1 Bft) S-SW 196 ° 0 min 0,000 mm 0,0 UV-I 0 W/m² 1,8 °C 2,7 °C 4,8 km/h (1 Bft)
07.11.2017 18:56 2,7 °C 2,7 °C 94 % 1014,9 hPa 0,0 mm 2,4 km/h (1 Bft) S-SW 196 ° 0 min 0,000 mm 0,0 UV-I 0 W/m² 1,8 °C 2,7 °C 3,2 km/h (1 Bft)
07.11.2017 18:57 2,7 °C 2,7 °C 94 % 1014,9 hPa 0,0 mm 2,3 km/h (1 Bft) S-SW 196 ° 0 min 0,000 mm 0,0 UV-I 0 W/m² 1,8 °C 2,7 °C 3,2 km/h (1 Bft)
07.11.2017 18:58 2,7 °C 2,7 °C 94 % 1014,9 hPa 0,0 mm 2,7 km/h (1 Bft) S-SW 196 ° 0 min 0,000 mm 0,0 UV-I 0 W/m² 1,8 °C 2,7 °C 4,8 km/h (1 Bft)
07.11.2017 18:59 2,8 °C 2,8 °C 94 % 1014,9 hPa 0,0 mm 1,8 km/h (1 Bft) S-SW 196 ° 0 min 0,000 mm 0,0 UV-I 0 W/m² 1,9 °C 2,8 °C 3,2 km/h (1 Bft)
07.11.2017 19:00 2,7 °C 2,8 °C 94 % 1014,9 hPa 0,0 mm 2,6 km/h (1 Bft) S-SW 196 ° 0 min 0,000 mm 0,0 UV-I 0 W/m² 1,8 °C 2,7 °C 4,8 km/h (1 Bft)
07.11.2017 19:01 2,8 °C 2,8 °C 94 % 1014,8 hPa 0,0 mm 1,3 km/h (1 Bft) S-SW 196 ° 0 min 0,000 mm 0,0 UV-I 0 W/m² 1,9 °C 2,8 °C 3,2 km/h (1 Bft)
07.11.2017 19:02 2,8 °C 2,8 °C 94 % 1014,8 hPa 0,0 mm 3,9 km/h (1 Bft) S-SW 196 ° 0 min 0,000 mm 0,0 UV-I 0 W/m² 1,9 °C 2,8 °C 4,8 km/h (1 Bft)
07.11.2017 19:03 2,7 °C 2,8 °C 94 % 1014,8 hPa 0,0 mm 0,8 km/h (0 Bft) S-SW 196 ° 0 min 0,000 mm 0,0 UV-I 0 W/m² 1,8 °C 2,7 °C 1,6 km/h (1 Bft)
07.11.2017 19:04 2,8 °C 2,8 °C 94 % 1014,8 hPa 0,0 mm 2,4 km/h (1 Bft) S-SW 202 ° 0 min 0,000 mm 0,0 UV-I 0 W/m² 1,9 °C 2,8 °C 4,8 km/h (1 Bft)
07.11.2017 19:05 2,8 °C 2,8 °C 94 % 1014,8 hPa 0,0 mm 1,5 km/h (1 Bft) S-SW 202 ° 0 min 0,000 mm 0,0 UV-I 0 W/m² 1,9 °C 2,8 °C 3,2 km/h (1 Bft)
07.11.2017 19:06 2,7 °C 2,8 °C 94 % 1014,7 hPa 0,0 mm 3,1 km/h (1 Bft) S-SW 202 ° 0 min 0,000 mm 0,0 UV-I 0 W/m² 1,8 °C 2,7 °C 3,2 km/h (1 Bft)
07.11.2017 19:07 2,8 °C 2,8 °C 94 % 1014,7 hPa 0,0 mm 1,5 km/h (1 Bft) S-SW 202 ° 0 min 0,000 mm 0,0 UV-I 0 W/m² 1,9 °C 2,8 °C 4,8 km/h (1 Bft)
07.11.2017 19:08 2,7 °C 2,8 °C 94 % 1014,8 hPa 0,0 mm 2,8 km/h (1 Bft) S-SW 202 ° 0 min 0,000 mm 0,0 UV-I 0 W/m² 1,8 °C 2,7 °C 4,8 km/h (1 Bft)
07.11.2017 19:09 2,7 °C 2,8 °C 94 % 1014,7 hPa 0,0 mm 3,2 km/h (1 Bft) SW 228 ° 0 min 0,000 mm 0,0 UV-I 0 W/m² 1,8 °C 2,7 °C 4,8 km/h (1 Bft)
07.11.2017 19:10 2,7 °C 2,8 °C 94 % 1014,7 hPa 0,0 mm 3,1 km/h (1 Bft) SW 229 ° 0 min 0,000 mm 0,0 UV-I 0 W/m² 1,8 °C 2,7 °C 4,8 km/h (1 Bft)
07.11.2017 19:11 2,8 °C 2,8 °C 94 % 1014,7 hPa 0,0 mm 1,8 km/h (1 Bft) SW 229 ° 0 min 0,000 mm 0,0 UV-I 0 W/m² 1,9 °C 2,8 °C 4,8 km/h (1 Bft)
07.11.2017 19:12 2,8 °C 2,8 °C 94 % 1014,7 hPa 0,0 mm 3,1 km/h (1 Bft) SW 229 ° 0 min 0,000 mm 0,0 UV-I 0 W/m² 1,9 °C 2,8 °C 3,2 km/h (1 Bft)
07.11.2017 19:13 2,7 °C 2,8 °C 94 % 1014,7 hPa 0,0 mm 2,6 km/h (1 Bft) SW 229 ° 0 min 0,000 mm 0,0 UV-I 0 W/m² 1,8 °C 2,7 °C 4,8 km/h (1 Bft)
07.11.2017 19:14 2,7 °C 2,8 °C 94 % 1014,6 hPa 0,0 mm 3,0 km/h (1 Bft) S-SW 211 ° 0 min 0,000 mm 0,0 UV-I 0 W/m² 1,8 °C 2,7 °C 4,8 km/h (1 Bft)
07.11.2017 19:15 2,7 °C 2,8 °C 94 % 1014,6 hPa 0,0 mm 2,3 km/h (1 Bft) SW 227 ° 0 min 0,000 mm 0,0 UV-I 0 W/m² 1,8 °C 2,7 °C 4,8 km/h (1 Bft)
07.11.2017 19:16 2,8 °C 2,8 °C 94 % 1014,6 hPa 0,0 mm 1,5 km/h (1 Bft) SW 227 ° 0 min 0,000 mm 0,0 UV-I 0 W/m² 1,9 °C 2,8 °C 4,8 km/h (1 Bft)
07.11.2017 19:17 2,8 °C 2,8 °C 94 % 1014,5 hPa 0,0 mm 3,3 km/h (1 Bft) S-SW 209 ° 0 min 0,000 mm 0,0 UV-I 0 W/m² 1,9 °C 2,8 °C 6,4 km/h (2 Bft)
07.11.2017 19:18 2,7 °C 2,8 °C 94 % 1014,5 hPa 0,0 mm 2,7 km/h (1 Bft) W-SW 237 ° 0 min 0,000 mm 0,0 UV-I 0 W/m² 1,8 °C 2,7 °C 4,8 km/h (1 Bft)
07.11.2017 19:19 2,7 °C 2,8 °C 94 % 1014,5 hPa 0,0 mm 2,2 km/h (1 Bft) W-SW 237 ° 0 min 0,000 mm 0,0 UV-I 0 W/m² 1,8 °C 2,7 °C 4,8 km/h (1 Bft)
07.11.2017 19:20 2,7 °C 2,8 °C 94 % 1014,5 hPa 0,0 mm 3,2 km/h (1 Bft) W-SW 240 ° 0 min 0,000 mm 0,0 UV-I 0 W/m² 1,8 °C 2,7 °C 6,4 km/h (2 Bft)
07.11.2017 19:21 2,7 °C 2,7 °C 94 % 1014,5 hPa 0,0 mm 3,2 km/h (1 Bft) W-SW 237 ° 0 min 0,000 mm 0,0 UV-I 0 W/m² 1,8 °C 2,7 °C 6,4 km/h (2 Bft)
07.11.2017 19:22 2,7 °C 2,7 °C 94 % 1014,4 hPa 0,0 mm 3,3 km/h (1 Bft) W-SW 240 ° 0 min 0,000 mm 0,0 UV-I 0 W/m² 1,8 °C 2,7 °C 6,4 km/h (2 Bft)
07.11.2017 19:23 2,7 °C 2,7 °C 94 % 1014,4 hPa 0,0 mm 4,2 km/h (1 Bft) W-SW 245 ° 0 min 0,000 mm 0,0 UV-I 0 W/m² 1,8 °C 2,7 °C 6,4 km/h (2 Bft)
07.11.2017 19:24 2,7 °C 2,7 °C 94 % 1014,4 hPa 0,0 mm 1,1 km/h (1 Bft) W-SW 245 ° 0 min 0,000 mm 0,0 UV-I 0 W/m² 1,8 °C 2,7 °C 4,8 km/h (1 Bft)
07.11.2017 19:25 2,7 °C 2,7 °C 94 % 1014,4 hPa 0,0 mm 1,8 km/h (1 Bft) S-SW 211 ° 0 min 0,000 mm 0,0 UV-I 0 W/m² 1,8 °C 2,7 °C 4,8 km/h (1 Bft)
07.11.2017 19:26 2,7 °C 2,7 °C 94 % 1014,4 hPa 0,0 mm 1,7 km/h (1 Bft) S-SW 207 ° 0 min 0,000 mm 0,0 UV-I 0 W/m² 1,8 °C 2,7 °C 6,4 km/h (2 Bft)
07.11.2017 19:27 2,7 °C 2,7 °C 94 % 1014,4 hPa 0,0 mm 4,5 km/h (1 Bft) SW 219 ° 0 min 0,000 mm 0,0 UV-I 0 W/m² 1,8 °C 2,7 °C 9,7 km/h (2 Bft)
07.11.2017 19:28 2,7 °C 2,7 °C 94 % 1014,3 hPa 0,0 mm 3,2 km/h (1 Bft) W-SW 240 ° 0 min 0,000 mm 0,0 UV-I 0 W/m² 1,8 °C 2,7 °C 6,4 km/h (2 Bft)
07.11.2017 19:29 2,7 °C 2,7 °C 94 % 1014,3 hPa 0,0 mm 4,1 km/h (1 Bft) W-SW 241 ° 0 min 0,000 mm 0,0 UV-I 0 W/m² 1,8 °C 2,7 °C 6,4 km/h (2 Bft)
07.11.2017 19:30 2,7 °C 2,7 °C 94 % 1014,3 hPa 0,0 mm 2,3 km/h (1 Bft) W-SW 239 ° 0 min 0,000 mm 0,0 UV-I 0 W/m² 1,8 °C 2,7 °C 3,2 km/h (1 Bft)
07.11.2017 19:31 2,7 °C 2,7 °C 94 % 1014,3 hPa 0,0 mm 5,8 km/h (2 Bft) W-SW 240 ° 0 min 0,000 mm 0,0 UV-I 0 W/m² 1,8 °C 1,2 °C 9,7 km/h (2 Bft)
07.11.2017 19:32 2,7 °C 2,7 °C 94 % 1014,3 hPa 0,0 mm 5,0 km/h (1 Bft) W-SW 250 ° 0 min 0,000 mm 0,0 UV-I 0 W/m² 1,8 °C 1,5 °C 6,4 km/h (2 Bft)
07.11.2017 19:33 2,7 °C 2,7 °C 94 % 1014,3 hPa 0,0 mm 1,1 km/h (1 Bft) W-SW 250 ° 0 min 0,000 mm 0,0 UV-I 0 W/m² 1,8 °C 2,7 °C 3,2 km/h (1 Bft)
07.11.2017 19:34 2,7 °C 2,7 °C 94 % 1014,4 hPa 0,0 mm 0,2 km/h (0 Bft) W-SW 250 ° 0 min 0,000 mm 0,0 UV-I 0 W/m² 1,8 °C 2,7 °C 1,6 km/h (1 Bft)
07.11.2017 19:35 2,7 °C 2,7 °C 94 % 1014,4 hPa 0,0 mm 3,5 km/h (1 Bft) S-SW 196 ° 0 min 0,000 mm 0,0 UV-I 0 W/m² 1,8 °C 2,7 °C 4,8 km/h (1 Bft)
07.11.2017 19:36 2,7 °C 2,7 °C 94 % 1014,3 hPa 0,0 mm 2,1 km/h (1 Bft) SW 234 ° 0 min 0,000 mm 0,0 UV-I 0 W/m² 1,8 °C 2,7 °C 4,8 km/h (1 Bft)
07.11.2017 19:37 2,7 °C 2,7 °C 94 % 1014,4 hPa 0,0 mm 3,2 km/h (1 Bft) SW 232 ° 0 min 0,000 mm 0,0 UV-I 0 W/m² 1,8 °C 2,7 °C 6,4 km/h (2 Bft)
07.11.2017 19:38 2,7 °C 2,7 °C 94 % 1014,4 hPa 0,0 mm 4,1 km/h (1 Bft) SW 229 ° 0 min 0,000 mm 0,0 UV-I 0 W/m² 1,8 °C 2,7 °C 6,4 km/h (2 Bft)
07.11.2017 19:39 2,7 °C 2,7 °C 94 % 1014,3 hPa 0,0 mm 2,5 km/h (1 Bft) SW 229 ° 0 min 0,000 mm 0,0 UV-I 0 W/m² 1,8 °C 2,7 °C 4,8 km/h (1 Bft)
07.11.2017 19:40 2,7 °C 2,7 °C 94 % 1014,4 hPa 0,0 mm 2,5 km/h (1 Bft) SW 232 ° 0 min 0,000 mm 0,0 UV-I 0 W/m² 1,8 °C 2,7 °C 4,8 km/h (1 Bft)
07.11.2017 19:41 2,7 °C 2,7 °C 94 % 1014,3 hPa 0,0 mm 6,4 km/h (2 Bft) W 268 ° 0 min 0,000 mm 0,0 UV-I 0 W/m² 1,8 °C 0,9 °C 11,3 km/h (2 Bft)
07.11.2017 19:42 2,7 °C 2,7 °C 94 % 1014,3 hPa 0,0 mm 1,5 km/h (1 Bft) W 267 ° 0 min 0,000 mm 0,0 UV-I 0 W/m² 1,8 °C 2,7 °C 3,2 km/h (1 Bft)
07.11.2017 19:43 2,7 °C 2,7 °C 94 % 1014,3 hPa 0,0 mm 1,9 km/h (1 Bft) W 267 ° 0 min 0,000 mm 0,0 UV-I 0 W/m² 1,8 °C 2,7 °C 3,2 km/h (1 Bft)
07.11.2017 19:44 2,7 °C 2,7 °C 94 % 1014,3 hPa 0,0 mm 4,0 km/h (1 Bft) SW 231 ° 0 min 0,000 mm 0,0 UV-I 0 W/m² 1,8 °C 2,7 °C 6,4 km/h (2 Bft)
07.11.2017 19:45 2,7 °C 2,7 °C 94 % 1014,3 hPa 0,0 mm 2,7 km/h (1 Bft) SW 236 ° 0 min 0,000 mm 0,0 UV-I 0 W/m² 1,8 °C 2,7 °C 4,8 km/h (1 Bft)
07.11.2017 19:46 2,7 °C 2,7 °C 94 % 1014,3 hPa 0,0 mm 3,1 km/h (1 Bft) W-SW 240 ° 0 min 0,000 mm 0,0 UV-I 0 W/m² 1,8 °C 2,7 °C 4,8 km/h (1 Bft)
07.11.2017 19:47 2,7 °C 2,7 °C 94 % 1014,4 hPa 0,0 mm 2,8 km/h (1 Bft) W-SW 240 ° 0 min 0,000 mm 0,0 UV-I 0 W/m² 1,8 °C 2,7 °C 4,8 km/h (1 Bft)
07.11.2017 19:48 2,7 °C 2,7 °C 94 % 1014,4 hPa 0,0 mm 1,0 km/h (0 Bft) W-SW 240 ° 0 min 0,000 mm 0,0 UV-I 0 W/m² 1,8 °C 2,7 °C 3,2 km/h (1 Bft)
07.11.2017 19:49 2,7 °C 2,7 °C 94 % 1014,3 hPa 0,0 mm 2,5 km/h (1 Bft) W-SW 240 ° 0 min 0,000 mm 0,0 UV-I 0 W/m² 1,8 °C 2,7 °C 3,2 km/h (1 Bft)
07.11.2017 19:50 2,7 °C 2,7 °C 93 % 1014,4 hPa 0,0 mm 4,6 km/h (1 Bft) S-SW 210 ° 0 min 0,000 mm 0,0 UV-I 0 W/m² 1,7 °C 1,7 °C 8,0 km/h (2 Bft)
07.11.2017 19:51 2,7 °C 2,7 °C 94 % 1014,3 hPa 0,0 mm 4,0 km/h (1 Bft) S-SW 201 ° 0 min 0,000 mm 0,0 UV-I 0 W/m² 1,8 °C 2,7 °C 4,8 km/h (1 Bft)
07.11.2017 19:52 2,7 °C 2,7 °C 93 % 1014,4 hPa 0,0 mm 5,5 km/h (1 Bft) SW 232 ° 0 min 0,000 mm 0,0 UV-I 0 W/m² 1,7 °C 1,3 °C 6,4 km/h (2 Bft)
07.11.2017 19:53 2,7 °C 2,7 °C 93 % 1014,4 hPa 0,0 mm 2,7 km/h (1 Bft) SW 232 ° 0 min 0,000 mm 0,0 UV-I 0 W/m² 1,7 °C 2,7 °C 3,2 km/h (1 Bft)
07.11.2017 19:54 2,7 °C 2,7 °C 93 % 1014,5 hPa 0,0 mm 2,0 km/h (1 Bft) SW 232 ° 0 min 0,000 mm 0,0 UV-I 0 W/m² 1,7 °C 2,7 °C 3,2 km/h (1 Bft)
07.11.2017 19:55 2,7 °C 2,7 °C 93 % 1014,6 hPa 0,0 mm 0,5 km/h (0 Bft) SW 232 ° 0 min 0,000 mm 0,0 UV-I 0 W/m² 1,7 °C 2,7 °C 1,6 km/h (1 Bft)
07.11.2017 19:56 2,7 °C 2,7 °C 93 % 1014,5 hPa 0,0 mm 0,0 km/h (0 Bft) SW 232 ° 0 min 0,000 mm 0,0 UV-I 0 W/m² 1,7 °C 2,7 °C 0,0 km/h (0 Bft)
07.11.2017 19:57 2,7 °C 2,7 °C 93 % 1014,6 hPa 0,0 mm 0,0 km/h (0 Bft) SW 232 ° 0 min 0,000 mm 0,0 UV-I 0 W/m² 1,7 °C 2,7 °C 0,0 km/h (0 Bft)
07.11.2017 19:58 2,7 °C 2,7 °C 93 % 1014,6 hPa 0,0 mm 0,2 km/h (0 Bft) SW 232 ° 0 min 0,000 mm 0,0 UV-I 0 W/m² 1,7 °C 2,7 °C 1,6 km/h (1 Bft)
07.11.2017 19:59 2,7 °C 2,7 °C 93 % 1014,6 hPa 0,0 mm 0,0 km/h (0 Bft) SW 232 ° 0 min 0,000 mm 0,0 UV-I 0 W/m² 1,7 °C 2,7 °C 0,0 km/h (0 Bft)
07.11.2017 20:00 2,6 °C 2,7 °C 93 % 1014,5 hPa 0,0 mm 0,5 km/h (0 Bft) SW 232 ° 0 min 0,000 mm 0,0 UV-I 0 W/m² 1,6 °C 2,6 °C 1,6 km/h (1 Bft)
07.11.2017 20:01 2,6 °C 2,7 °C 93 % 1014,5 hPa 0,0 mm 1,6 km/h (1 Bft) SW 232 ° 0 min 0,000 mm 0,0 UV-I 0 W/m² 1,6 °C 2,6 °C 3,2 km/h (1 Bft)
07.11.2017 20:02 2,6 °C 2,6 °C 93 % 1014,5 hPa 0,0 mm 1,5 km/h (1 Bft) SW 232 ° 0 min 0,000 mm 0,0 UV-I 0 W/m² 1,6 °C 2,6 °C 3,2 km/h (1 Bft)
07.11.2017 20:03 2,6 °C 2,6 °C 93 % 1014,4 hPa 0,0 mm 0,0 km/h (0 Bft) SW 232 ° 0 min 0,000 mm 0,0 UV-I 0 W/m² 1,6 °C 2,6 °C 0,0 km/h (0 Bft)
07.11.2017 20:04 2,6 °C 2,6 °C 93 % 1014,4 hPa 0,0 mm 2,0 km/h (1 Bft) SW 232 ° 0 min 0,000 mm 0,0 UV-I 0 W/m² 1,6 °C 2,6 °C 4,8 km/h (1 Bft)
07.11.2017 20:05 2,6 °C 2,6 °C 93 % 1014,4 hPa 0,0 mm 0,1 km/h (0 Bft) SW 232 ° 0 min 0,000 mm 0,0 UV-I 0 W/m² 1,6 °C 2,6 °C 1,6 km/h (1 Bft)
07.11.2017 20:06 2,6 °C 2,6 °C 93 % 1014,4 hPa 0,0 mm 2,1 km/h (1 Bft) SW 232 ° 0 min 0,000 mm 0,0 UV-I 0 W/m² 1,6 °C 2,6 °C 3,2 km/h (1 Bft)
07.11.2017 20:07 2,6 °C 2,6 °C 93 % 1014,3 hPa 0,0 mm 4,1 km/h (1 Bft) W-SW 242 ° 0 min 0,000 mm 0,0 UV-I 0 W/m² 1,6 °C 2,6 °C 8,0 km/h (2 Bft)
07.11.2017 20:08 2,6 °C 2,6 °C 93 % 1014,2 hPa 0,0 mm 3,8 km/h (1 Bft) W-SW 246 ° 0 min 0,000 mm 0,0 UV-I 0 W/m² 1,6 °C 2,6 °C 6,4 km/h (2 Bft)
07.11.2017 20:09 2,6 °C 2,6 °C 93 % 1014,2 hPa 0,0 mm 4,4 km/h (1 Bft) W-SW 252 ° 0 min 0,000 mm 0,0 UV-I 0 W/m² 1,6 °C 2,6 °C 8,0 km/h (2 Bft)
07.11.2017 20:10 2,6 °C 2,6 °C 93 % 1014,1 hPa 0,0 mm 5,1 km/h (1 Bft) W 261 ° 0 min 0,000 mm 0,0 UV-I 0 W/m² 1,6 °C 1,3 °C 6,4 km/h (2 Bft)
07.11.2017 20:11 2,6 °C 2,6 °C 93 % 1014,1 hPa 0,0 mm 4,5 km/h (1 Bft) W 268 ° 0 min 0,000 mm 0,0 UV-I 0 W/m² 1,6 °C 2,6 °C 6,4 km/h (2 Bft)
07.11.2017 20:12 2,6 °C 2,6 °C 93 % 1014,2 hPa 0,0 mm 3,0 km/h (1 Bft) W 263 ° 0 min 0,000 mm 0,0 UV-I 0 W/m² 1,6 °C 2,6 °C 4,8 km/h (1 Bft)
07.11.2017 20:13 2,6 °C 2,6 °C 93 % 1014,3 hPa 0,0 mm 0,0 km/h (0 Bft) W 263 ° 0 min 0,000 mm 0,0 UV-I 0 W/m² 1,6 °C 2,6 °C 0,0 km/h (0 Bft)
07.11.2017 20:14 2,6 °C 2,6 °C 93 % 1014,5 hPa 0,0 mm 0,1 km/h (0 Bft) W 263 ° 0 min 0,000 mm 0,0 UV-I 0 W/m² 1,6 °C 2,6 °C 1,6 km/h (1 Bft)
07.11.2017 20:15 2,6 °C 2,6 °C 93 % 1014,6 hPa 0,0 mm 0,7 km/h (0 Bft) W 263 ° 0 min 0,000 mm 0,0 UV-I 0 W/m² 1,6 °C 2,6 °C 3,2 km/h (1 Bft)
07.11.2017 20:16 2,6 °C 2,6 °C 93 % 1014,7 hPa 0,0 mm 4,3 km/h (1 Bft) W 263 ° 0 min 0,000 mm 0,0 UV-I 0 W/m² 1,6 °C 2,6 °C 4,8 km/h (1 Bft)
07.11.2017 20:17 2,6 °C 2,6 °C 93 % 1014,8 hPa 0,0 mm 5,0 km/h (1 Bft) S-SO 167 ° 0 min 0,000 mm 0,0 UV-I 0 W/m² 1,6 °C 1,4 °C 6,4 km/h (2 Bft)
07.11.2017 20:18 2,6 °C 2,6 °C 94 % 1014,9 hPa 0,0 mm 5,4 km/h (1 Bft) S-SO 167 ° 0 min 0,000 mm 0,0 UV-I 0 W/m² 1,7 °C 1,2 °C 6,4 km/h (2 Bft)
07.11.2017 20:19 2,6 °C 2,6 °C 93 % 1014,9 hPa 0,0 mm 4,3 km/h (1 Bft) S-SO 167 ° 0 min 0,000 mm 0,0 UV-I 0 W/m² 1,6 °C 2,6 °C 4,8 km/h (1 Bft)
07.11.2017 20:20 2,5 °C 2,6 °C 93 % 1014,9 hPa 0,0 mm 3,9 km/h (1 Bft) S-SO 167 ° 0 min 0,000 mm 0,0 UV-I 0 W/m² 1,5 °C 2,5 °C 4,8 km/h (1 Bft)
07.11.2017 20:21 2,5 °C 2,6 °C 93 % 1014,9 hPa 0,0 mm 0,1 km/h (0 Bft) S-SO 167 ° 0 min 0,000 mm 0,0 UV-I 0 W/m² 1,5 °C 2,5 °C 1,6 km/h (1 Bft)
07.11.2017 20:22 2,6 °C 2,6 °C 94 % 1014,8 hPa 0,0 mm 0,0 km/h (0 Bft) S-SO 167 ° 0 min 0,000 mm 0,0 UV-I 0 W/m² 1,7 °C 2,6 °C 0,0 km/h (0 Bft)
07.11.2017 20:23 2,5 °C 2,6 °C 94 % 1014,8 hPa 0,0 mm 0,0 km/h (0 Bft) S-SO 167 ° 0 min 0,000 mm 0,0 UV-I 0 W/m² 1,6 °C 2,5 °C 0,0 km/h (0 Bft)
07.11.2017 20:24 2,5 °C 2,5 °C 94 % 1014,7 hPa 0,0 mm 0,9 km/h (0 Bft) S-SO 167 ° 0 min 0,000 mm 0,0 UV-I 0 W/m² 1,6 °C 2,5 °C 4,8 km/h (1 Bft)
07.11.2017 20:25 2,5 °C 2,5 °C 94 % 1014,6 hPa 0,0 mm 2,3 km/h (1 Bft) S-SO 167 ° 0 min 0,000 mm 0,0 UV-I 0 W/m² 1,6 °C 2,5 °C 4,8 km/h (1 Bft)
07.11.2017 20:26 2,5 °C 2,5 °C 94 % 1014,5 hPa 0,0 mm 3,1 km/h (1 Bft) S-SO 168 ° 0 min 0,000 mm 0,0 UV-I 0 W/m² 1,6 °C 2,5 °C 4,8 km/h (1 Bft)
07.11.2017 20:27 2,5 °C 2,5 °C 94 % 1014,5 hPa 0,0 mm 2,1 km/h (1 Bft) S-SO 168 ° 0 min 0,000 mm 0,0 UV-I 0 W/m² 1,6 °C 2,5 °C 3,2 km/h (1 Bft)
07.11.2017 20:28 2,5 °C 2,5 °C 94 % 1014,5 hPa 0,0 mm 0,9 km/h (0 Bft) S-SO 168 ° 0 min 0,000 mm 0,0 UV-I 0 W/m² 1,6 °C 2,5 °C 1,6 km/h (1 Bft)
07.11.2017 20:29 2,4 °C 2,5 °C 94 % 1014,5 hPa 0,0 mm 0,5 km/h (0 Bft) S-SO 168 ° 0 min 0,000 mm 0,0 UV-I 0 W/m² 1,5 °C 2,4 °C 1,6 km/h (1 Bft)
07.11.2017 20:30 2,5 °C 2,5 °C 94 % 1014,5 hPa 0,0 mm 1,7 km/h (1 Bft) S-SO 168 ° 0 min 0,000 mm 0,0 UV-I 0 W/m² 1,6 °C 2,5 °C 3,2 km/h (1 Bft)
07.11.2017 20:31 2,5 °C 2,5 °C 94 % 1014,5 hPa 0,0 mm 0,1 km/h (0 Bft) S-SO 168 ° 0 min 0,000 mm 0,0 UV-I 0 W/m² 1,6 °C 2,5 °C 1,6 km/h (1 Bft)
07.11.2017 20:32 2,5 °C 2,5 °C 94 % 1014,5 hPa 0,0 mm 3,0 km/h (1 Bft) W-SW 257 ° 0 min 0,000 mm 0,0 UV-I 0 W/m² 1,6 °C 2,5 °C 6,4 km/h (2 Bft)
07.11.2017 20:33 2,5 °C 2,5 °C 94 % 1014,5 hPa 0,0 mm 4,8 km/h (1 Bft) W 261 ° 0 min 0,000 mm 0,0 UV-I 0 W/m² 1,6 °C 1,3 °C 6,4 km/h (2 Bft)
07.11.2017 20:34 2,5 °C 2,5 °C 94 % 1014,4 hPa 0,0 mm 3,2 km/h (1 Bft) W 261 ° 0 min 0,000 mm 0,0 UV-I 0 W/m² 1,6 °C 2,5 °C 4,8 km/h (1 Bft)
07.11.2017 20:35 2,6 °C 2,6 °C 94 % 1014,5 hPa 0,0 mm 3,0 km/h (1 Bft) W 261 ° 0 min 0,000 mm 0,0 UV-I 0 W/m² 1,7 °C 2,6 °C 4,8 km/h (1 Bft)
07.11.2017 20:36 2,5 °C 2,6 °C 94 % 1014,4 hPa 0,0 mm 2,3 km/h (1 Bft) W 261 ° 0 min 0,000 mm 0,0 UV-I 0 W/m² 1,6 °C 2,5 °C 3,2 km/h (1 Bft)
07.11.2017 20:37 2,6 °C 2,6 °C 94 % 1014,4 hPa 0,0 mm 3,0 km/h (1 Bft) W 261 ° 0 min 0,000 mm 0,0 UV-I 0 W/m² 1,7 °C 2,6 °C 4,8 km/h (1 Bft)
07.11.2017 20:38 2,5 °C 2,6 °C 94 % 1014,4 hPa 0,0 mm 1,9 km/h (1 Bft) W 261 ° 0 min 0,000 mm 0,0 UV-I 0 W/m² 1,6 °C 2,5 °C 3,2 km/h (1 Bft)
07.11.2017 20:39 2,6 °C 2,6 °C 94 % 1014,2 hPa 0,0 mm 2,4 km/h (1 Bft) W 261 ° 0 min 0,000 mm 0,0 UV-I 0 W/m² 1,7 °C 2,6 °C 4,8 km/h (1 Bft)
07.11.2017 20:40 2,6 °C 2,6 °C 94 % 1014,2 hPa 0,0 mm 3,2 km/h (1 Bft) W 261 ° 0 min 0,000 mm 0,0 UV-I 0 W/m² 1,7 °C 2,6 °C 4,8 km/h (1 Bft)
07.11.2017 20:41 2,5 °C 2,6 °C 94 % 1014,2 hPa 0,0 mm 3,5 km/h (1 Bft) W 261 ° 0 min 0,000 mm 0,0 UV-I 0 W/m² 1,6 °C 2,5 °C 4,8 km/h (1 Bft)
07.11.2017 20:42 2,6 °C 2,6 °C 94 % 1014,2 hPa 0,0 mm 4,0 km/h (1 Bft) W 261 ° 0 min 0,000 mm 0,0 UV-I 0 W/m² 1,7 °C 2,6 °C 4,8 km/h (1 Bft)
07.11.2017 20:43 2,5 °C 2,6 °C 94 % 1014,1 hPa 0,0 mm 5,1 km/h (1 Bft) W 261 ° 0 min 0,000 mm 0,0 UV-I 0 W/m² 1,6 °C 1,2 °C 6,4 km/h (2 Bft)
07.11.2017 20:44 2,4 °C 2,5 °C 94 % 1014,0 hPa 0,0 mm 3,8 km/h (1 Bft) W 262 ° 0 min 0,000 mm 0,0 UV-I 0 W/m² 1,5 °C 2,4 °C 6,4 km/h (2 Bft)
07.11.2017 20:45 2,4 °C 2,4 °C 94 % 1014,0 hPa 0,0 mm 5,2 km/h (1 Bft) W 263 ° 0 min 0,000 mm 0,0 UV-I 0 W/m² 1,5 °C 1,0 °C 9,7 km/h (2 Bft)
07.11.2017 20:46 2,4 °C 2,4 °C 94 % 1013,8 hPa 0,0 mm 4,6 km/h (1 Bft) W 259 ° 0 min 0,000 mm 0,0 UV-I 0 W/m² 1,5 °C 1,3 °C 6,4 km/h (2 Bft)
07.11.2017 20:47 2,4 °C 2,4 °C 94 % 1013,8 hPa 0,0 mm 6,4 km/h (2 Bft) W 265 ° 0 min 0,000 mm 0,0 UV-I 0 W/m² 1,5 °C 0,6 °C 11,3 km/h (2 Bft)
07.11.2017 20:48 2,4 °C 2,4 °C 94 % 1013,8 hPa 0,0 mm 5,2 km/h (1 Bft) W 269 ° 0 min 0,000 mm 0,0 UV-I 0 W/m² 1,5 °C 1,0 °C 9,7 km/h (2 Bft)
07.11.2017 20:49 2,4 °C 2,4 °C 94 % 1013,8 hPa 0,0 mm 6,1 km/h (2 Bft) W 267 ° 0 min 0,000 mm 0,0 UV-I 0 W/m² 1,5 °C 0,7 °C 6,4 km/h (2 Bft)
07.11.2017 20:50 2,3 °C 2,4 °C 94 % 1013,8 hPa 0,0 mm 4,1 km/h (1 Bft) W-SW 244 ° 0 min 0,000 mm 0,0 UV-I 0 W/m² 1,4 °C 2,3 °C 6,4 km/h (2 Bft)
07.11.2017 20:51 2,3 °C 2,3 °C 94 % 1013,8 hPa 0,0 mm 3,2 km/h (1 Bft) W-SW 254 ° 0 min 0,000 mm 0,0 UV-I 0 W/m² 1,4 °C 2,3 °C 4,8 km/h (1 Bft)
07.11.2017 20:52 2,3 °C 2,3 °C 94 % 1013,9 hPa 0,0 mm 3,3 km/h (1 Bft) W-SW 254 ° 0 min 0,000 mm 0,0 UV-I 0 W/m² 1,4 °C 2,3 °C 4,8 km/h (1 Bft)
07.11.2017 20:53 2,3 °C 2,3 °C 94 % 1014,0 hPa 0,0 mm 2,2 km/h (1 Bft) W-SW 254 ° 0 min 0,000 mm 0,0 UV-I 0 W/m² 1,4 °C 2,3 °C 4,8 km/h (1 Bft)
07.11.2017 20:54 2,3 °C 2,3 °C 94 % 1014,1 hPa 0,0 mm 0,0 km/h (0 Bft) W-SW 254 ° 0 min 0,000 mm 0,0 UV-I 0 W/m² 1,4 °C 2,3 °C 0,0 km/h (0 Bft)
07.11.2017 20:55 2,3 °C 2,3 °C 94 % 1014,3 hPa 0,0 mm 1,5 km/h (1 Bft) W-SW 254 ° 0 min 0,000 mm 0,0 UV-I 0 W/m² 1,4 °C 2,3 °C 3,2 km/h (1 Bft)
07.11.2017 20:56 2,3 °C 2,3 °C 94 % 1014,5 hPa 0,0 mm 1,8 km/h (1 Bft) SW 236 ° 0 min 0,000 mm 0,0 UV-I 0 W/m² 1,4 °C 2,3 °C 3,2 km/h (1 Bft)
07.11.2017 20:57 2,3 °C 2,3 °C 94 % 1014,6 hPa 0,0 mm 2,7 km/h (1 Bft) S-SW 200 ° 0 min 0,000 mm 0,0 UV-I 0 W/m² 1,4 °C 2,3 °C 3,2 km/h (1 Bft)
07.11.2017 20:58 2,3 °C 2,3 °C 94 % 1014,7 hPa 0,0 mm 2,7 km/h (1 Bft) S-SW 200 ° 0 min 0,000 mm 0,0 UV-I 0 W/m² 1,4 °C 2,3 °C 3,2 km/h (1 Bft)
07.11.2017 20:59 2,3 °C 2,3 °C 94 % 1014,7 hPa 0,0 mm 3,4 km/h (1 Bft) S-SW 199 ° 0 min 0,000 mm 0,0 UV-I 0 W/m² 1,4 °C 2,3 °C 4,8 km/h (1 Bft)
07.11.2017 21:00 2,3 °C 2,3 °C 94 % 1014,8 hPa 0,0 mm 3,1 km/h (1 Bft) S 189 ° 0 min 0,000 mm 0,0 UV-I 0 W/m² 1,4 °C 2,3 °C 3,2 km/h (1 Bft)
07.11.2017 21:01 2,3 °C 2,3 °C 94 % 1014,9 hPa 0,0 mm 1,7 km/h (1 Bft) S 189 ° 0 min 0,000 mm 0,0 UV-I 0 W/m² 1,4 °C 2,3 °C 3,2 km/h (1 Bft)
07.11.2017 21:02 2,3 °C 2,4 °C 94 % 1014,9 hPa 0,0 mm 1,1 km/h (1 Bft) S 189 ° 0 min 0,000 mm 0,0 UV-I 0 W/m² 1,4 °C 2,3 °C 1,6 km/h (1 Bft)
07.11.2017 21:03 2,3 °C 2,3 °C 94 % 1014,9 hPa 0,0 mm 0,0 km/h (0 Bft) S 189 ° 0 min 0,000 mm 0,0 UV-I 0 W/m² 1,4 °C 2,3 °C 0,0 km/h (0 Bft)
07.11.2017 21:04 2,3 °C 2,3 °C 94 % 1014,8 hPa 0,0 mm 0,0 km/h (0 Bft) S 189 ° 0 min 0,000 mm 0,0 UV-I 0 W/m² 1,4 °C 2,3 °C 0,0 km/h (0 Bft)
07.11.2017 21:05 2,4 °C 2,4 °C 94 % 1014,8 hPa 0,0 mm 0,9 km/h (0 Bft) S 189 ° 0 min 0,000 mm 0,0 UV-I 0 W/m² 1,5 °C 2,4 °C 3,2 km/h (1 Bft)
07.11.2017 21:06 2,4 °C 2,4 °C 94 % 1014,7 hPa 0,0 mm 2,6 km/h (1 Bft) W-SW 249 ° 0 min 0,000 mm 0,0 UV-I 0 W/m² 1,5 °C 2,4 °C 4,8 km/h (1 Bft)
07.11.2017 21:07 2,4 °C 2,4 °C 94 % 1014,7 hPa 0,0 mm 3,2 km/h (1 Bft) W-SW 249 ° 0 min 0,000 mm 0,0 UV-I 0 W/m² 1,5 °C 2,4 °C 4,8 km/h (1 Bft)
07.11.2017 21:08 2,4 °C 2,4 °C 94 % 1014,6 hPa 0,0 mm 3,5 km/h (1 Bft) W-SW 249 ° 0 min 0,000 mm 0,0 UV-I 0 W/m² 1,5 °C 2,4 °C 4,8 km/h (1 Bft)
07.11.2017 21:09 2,4 °C 2,4 °C 94 % 1014,6 hPa 0,0 mm 3,2 km/h (1 Bft) W-SW 249 ° 0 min 0,000 mm 0,0 UV-I 0 W/m² 1,5 °C 2,4 °C 4,8 km/h (1 Bft)
07.11.2017 21:10 2,4 °C 2,4 °C 94 % 1014,5 hPa 0,0 mm 4,2 km/h (1 Bft) W 261 ° 0 min 0,000 mm 0,0 UV-I 0 W/m² 1,5 °C 2,4 °C 6,4 km/h (2 Bft)
07.11.2017 21:11 2,4 °C 2,4 °C 94 % 1014,4 hPa 0,0 mm 4,2 km/h (1 Bft) W-SW 251 ° 0 min 0,000 mm 0,0 UV-I 0 W/m² 1,5 °C 2,4 °C 4,8 km/h (1 Bft)
07.11.2017 21:12 2,5 °C 2,5 °C 94 % 1014,4 hPa 0,0 mm 6,0 km/h (2 Bft) W-SW 258 ° 0 min 0,000 mm 0,0 UV-I 0 W/m² 1,6 °C 0,8 °C 9,7 km/h (2 Bft)
07.11.2017 21:13 2,5 °C 2,5 °C 94 % 1014,2 hPa 0,0 mm 6,2 km/h (2 Bft) W-SW 254 ° 0 min 0,000 mm 0,0 UV-I 0 W/m² 1,6 °C 0,8 °C 9,7 km/h (2 Bft)
07.11.2017 21:14 2,5 °C 2,5 °C 94 % 1014,2 hPa 0,0 mm 5,4 km/h (1 Bft) W 264 ° 0 min 0,000 mm 0,0 UV-I 0 W/m² 1,6 °C 1,1 °C 6,4 km/h (2 Bft)
07.11.2017 21:15 2,6 °C 2,6 °C 94 % 1014,2 hPa 0,0 mm 4,4 km/h (1 Bft) W 266 ° 0 min 0,000 mm 0,0 UV-I 0 W/m² 1,7 °C 2,6 °C 6,4 km/h (2 Bft)
07.11.2017 21:16 2,6 °C 2,6 °C 94 % 1014,1 hPa 0,0 mm 8,1 km/h (2 Bft) W 260 ° 0 min 0,000 mm 0,0 UV-I 0 W/m² 1,7 °C 0,3 °C 11,3 km/h (2 Bft)
07.11.2017 21:17 2,6 °C 2,6 °C 94 % 1014,1 hPa 0,0 mm 4,2 km/h (1 Bft) W-SW 257 ° 0 min 0,000 mm 0,0 UV-I 0 W/m² 1,7 °C 2,6 °C 11,3 km/h (2 Bft)
07.11.2017 21:18 2,6 °C 2,6 °C 94 % 1014,1 hPa 0,0 mm 1,8 km/h (1 Bft) W-SW 257 ° 0 min 0,000 mm 0,0 UV-I 0 W/m² 1,7 °C 2,6 °C 4,8 km/h (1 Bft)
07.11.2017 21:19 2,6 °C 2,6 °C 94 % 1014,2 hPa 0,0 mm 1,3 km/h (1 Bft) W-SW 257 ° 0 min 0,000 mm 0,0 UV-I 0 W/m² 1,7 °C 2,6 °C 1,6 km/h (1 Bft)
07.11.2017 21:20 2,6 °C 2,6 °C 94 % 1014,2 hPa 0,0 mm 1,3 km/h (1 Bft) W-SW 257 ° 0 min 0,000 mm 0,0 UV-I 0 W/m² 1,7 °C 2,6 °C 3,2 km/h (1 Bft)
07.11.2017 21:21 2,6 °C 2,6 °C 94 % 1014,2 hPa 0,0 mm 2,4 km/h (1 Bft) W 259 ° 0 min 0,000 mm 0,0 UV-I 0 W/m² 1,7 °C 2,6 °C 4,8 km/h (1 Bft)
07.11.2017 21:22 2,6 °C 2,6 °C 94 % 1014,2 hPa 0,0 mm 0,9 km/h (0 Bft) W 259 ° 0 min 0,000 mm 0,0 UV-I 0 W/m² 1,7 °C 2,6 °C 3,2 km/h (1 Bft)
07.11.2017 21:23 2,6 °C 2,6 °C 94 % 1014,2 hPa 0,0 mm 0,3 km/h (0 Bft) W 259 ° 0 min 0,000 mm 0,0 UV-I 0 W/m² 1,7 °C 2,6 °C 1,6 km/h (1 Bft)
07.11.2017 21:24 2,6 °C 2,6 °C 94 % 1014,2 hPa 0,0 mm 0,2 km/h (0 Bft) W 259 ° 0 min 0,000 mm 0,0 UV-I 0 W/m² 1,7 °C 2,6 °C 1,6 km/h (1 Bft)
07.11.2017 21:25 2,6 °C 2,6 °C 94 % 1014,1 hPa 0,0 mm 2,3 km/h (1 Bft) W-SW 258 ° 0 min 0,000 mm 0,0 UV-I 0 W/m² 1,7 °C 2,6 °C 4,8 km/h (1 Bft)
07.11.2017 21:26 2,6 °C 2,6 °C 94 % 1014,1 hPa 0,0 mm 1,6 km/h (1 Bft) W-SW 258 ° 0 min 0,000 mm 0,0 UV-I 0 W/m² 1,7 °C 2,6 °C 3,2 km/h (1 Bft)
07.11.2017 21:27 2,6 °C 2,6 °C 94 % 1014,2 hPa 0,0 mm 0,1 km/h (0 Bft) W-SW 258 ° 0 min 0,000 mm 0,0 UV-I 0 W/m² 1,7 °C 2,6 °C 1,6 km/h (1 Bft)
07.11.2017 21:28 2,6 °C 2,6 °C 94 % 1014,1 hPa 0,0 mm 0,7 km/h (0 Bft) W-SW 258 ° 0 min 0,000 mm 0,0 UV-I 0 W/m² 1,7 °C 2,6 °C 1,6 km/h (1 Bft)
07.11.2017 21:29 2,6 °C 2,6 °C 94 % 1014,1 hPa 0,0 mm 2,0 km/h (1 Bft) W-SW 258 ° 0 min 0,000 mm 0,0 UV-I 0 W/m² 1,7 °C 2,6 °C 4,8 km/h (1 Bft)
07.11.2017 21:30 2,6 °C 2,6 °C 94 % 1014,1 hPa 0,0 mm 0,1 km/h (0 Bft) W-SW 258 ° 0 min 0,000 mm 0,0 UV-I 0 W/m² 1,7 °C 2,6 °C 1,6 km/h (1 Bft)
07.11.2017 21:31 2,6 °C 2,6 °C 94 % 1014,2 hPa 0,0 mm 1,7 km/h (1 Bft) W-SW 258 ° 0 min 0,000 mm 0,0 UV-I 0 W/m² 1,7 °C 2,6 °C 3,2 km/h (1 Bft)
07.11.2017 21:32 2,6 °C 2,7 °C 93 % 1014,2 hPa 0,0 mm 1,9 km/h (1 Bft) W-SW 258 ° 0 min 0,000 mm 0,0 UV-I 0 W/m² 1,6 °C 2,6 °C 3,2 km/h (1 Bft)
07.11.2017 21:33 2,7 °C 2,7 °C 93 % 1014,2 hPa 0,0 mm 0,7 km/h (0 Bft) W-SW 258 ° 0 min 0,000 mm 0,0 UV-I 0 W/m² 1,7 °C 2,7 °C 1,6 km/h (1 Bft)
07.11.2017 21:34 2,7 °C 2,7 °C 93 % 1014,2 hPa 0,0 mm 0,0 km/h (0 Bft) W-SW 258 ° 0 min 0,000 mm 0,0 UV-I 0 W/m² 1,7 °C 2,7 °C 0,0 km/h (0 Bft)
07.11.2017 21:35 2,7 °C 2,7 °C 93 % 1014,3 hPa 0,0 mm 0,0 km/h (0 Bft) W-SW 258 ° 0 min 0,000 mm 0,0 UV-I 0 W/m² 1,7 °C 2,7 °C 0,0 km/h (0 Bft)
07.11.2017 21:36 2,7 °C 2,7 °C 93 % 1014,3 hPa 0,0 mm 0,0 km/h (0 Bft) W-SW 258 ° 0 min 0,000 mm 0,0 UV-I 0 W/m² 1,7 °C 2,7 °C 0,0 km/h (0 Bft)
07.11.2017 21:37 2,7 °C 2,7 °C 93 % 1014,3 hPa 0,0 mm 0,0 km/h (0 Bft) W-SW 258 ° 0 min 0,000 mm 0,0 UV-I 0 W/m² 1,7 °C 2,7 °C 0,0 km/h (0 Bft)
07.11.2017 21:38 2,7 °C 2,7 °C 93 % 1014,4 hPa 0,0 mm 0,0 km/h (0 Bft) W-SW 258 ° 0 min 0,000 mm 0,0 UV-I 0 W/m² 1,7 °C 2,7 °C 0,0 km/h (0 Bft)
07.11.2017 21:39 2,6 °C 2,7 °C 93 % 1014,4 hPa 0,0 mm 0,0 km/h (0 Bft) W-SW 258 ° 0 min 0,000 mm 0,0 UV-I 0 W/m² 1,6 °C 2,6 °C 0,0 km/h (0 Bft)
07.11.2017 21:40 2,6 °C 2,6 °C 94 % 1014,4 hPa 0,0 mm 0,0 km/h (0 Bft) W-SW 258 ° 0 min 0,000 mm 0,0 UV-I 0 W/m² 1,7 °C 2,6 °C 0,0 km/h (0 Bft)
07.11.2017 21:41 2,6 °C 2,6 °C 94 % 1014,5 hPa 0,0 mm 2,7 km/h (1 Bft) W-SW 250 ° 0 min 0,000 mm 0,0 UV-I 0 W/m² 1,7 °C 2,6 °C 4,8 km/h (1 Bft)
07.11.2017 21:42 2,6 °C 2,6 °C 94 % 1014,5 hPa 0,0 mm 2,6 km/h (1 Bft) W-SW 245 ° 0 min 0,000 mm 0,0 UV-I 0 W/m² 1,7 °C 2,6 °C 3,2 km/h (1 Bft)
07.11.2017 21:43 2,6 °C 2,6 °C 94 % 1014,7 hPa 0,0 mm 4,5 km/h (1 Bft) S-SW 203 ° 0 min 0,000 mm 0,0 UV-I 0 W/m² 1,7 °C 2,6 °C 6,4 km/h (2 Bft)
07.11.2017 21:44 2,6 °C 2,6 °C 94 % 1014,7 hPa 0,0 mm 1,9 km/h (1 Bft) S-SW 202 ° 0 min 0,000 mm 0,0 UV-I 0 W/m² 1,7 °C 2,6 °C 3,2 km/h (1 Bft)
07.11.2017 21:45 2,6 °C 2,6 °C 94 % 1014,7 hPa 0,0 mm 2,4 km/h (1 Bft) S-SW 202 ° 0 min 0,000 mm 0,0 UV-I 0 W/m² 1,7 °C 2,6 °C 3,2 km/h (1 Bft)
07.11.2017 21:46 2,7 °C 2,7 °C 94 % 1014,7 hPa 0,0 mm 2,3 km/h (1 Bft) S-SW 211 ° 0 min 0,000 mm 0,0 UV-I 0 W/m² 1,8 °C 2,7 °C 3,2 km/h (1 Bft)
07.11.2017 21:47 2,6 °C 2,7 °C 94 % 1014,7 hPa 0,0 mm 2,0 km/h (1 Bft) S-SW 207 ° 0 min 0,000 mm 0,0 UV-I 0 W/m² 1,7 °C 2,6 °C 3,2 km/h (1 Bft)
07.11.2017 21:48 2,7 °C 2,7 °C 94 % 1014,7 hPa 0,0 mm 0,9 km/h (0 Bft) S-SW 207 ° 0 min 0,000 mm 0,0 UV-I 0 W/m² 1,8 °C 2,7 °C 3,2 km/h (1 Bft)
07.11.2017 21:49 2,6 °C 2,7 °C 94 % 1014,6 hPa 0,0 mm 1,4 km/h (1 Bft) S-SW 208 ° 0 min 0,000 mm 0,0 UV-I 0 W/m² 1,7 °C 2,6 °C 3,2 km/h (1 Bft)
07.11.2017 21:50 2,7 °C 2,7 °C 93 % 1014,6 hPa 0,0 mm 1,9 km/h (1 Bft) S-SW 208 ° 0 min 0,000 mm 0,0 UV-I 0 W/m² 1,7 °C 2,7 °C 3,2 km/h (1 Bft)
07.11.2017 21:51 2,7 °C 2,7 °C 93 % 1014,5 hPa 0,0 mm 1,1 km/h (1 Bft) S-SW 208 ° 0 min 0,000 mm 0,0 UV-I 0 W/m² 1,7 °C 2,7 °C 3,2 km/h (1 Bft)
07.11.2017 21:52 2,7 °C 2,7 °C 93 % 1014,5 hPa 0,0 mm 0,0 km/h (0 Bft) S-SW 208 ° 0 min 0,000 mm 0,0 UV-I 0 W/m² 1,7 °C 2,7 °C 0,0 km/h (0 Bft)
07.11.2017 21:53 2,7 °C 2,7 °C 93 % 1014,5 hPa 0,0 mm 2,5 km/h (1 Bft) W-SW 247 ° 0 min 0,000 mm 0,0 UV-I 0 W/m² 1,7 °C 2,7 °C 4,8 km/h (1 Bft)
07.11.2017 21:54 2,7 °C 2,7 °C 93 % 1014,5 hPa 0,0 mm 2,9 km/h (1 Bft) W-SW 247 ° 0 min 0,000 mm 0,0 UV-I 0 W/m² 1,7 °C 2,7 °C 4,8 km/h (1 Bft)
07.11.2017 21:55 2,8 °C 2,8 °C 93 % 1014,5 hPa 0,0 mm 0,9 km/h (0 Bft) W-SW 247 ° 0 min 0,000 mm 0,0 UV-I 0 W/m² 1,8 °C 2,8 °C 3,2 km/h (1 Bft)
07.11.2017 21:56 2,8 °C 2,8 °C 93 % 1014,4 hPa 0,0 mm 1,5 km/h (1 Bft) W-SW 247 ° 0 min 0,000 mm 0,0 UV-I 0 W/m² 1,8 °C 2,8 °C 3,2 km/h (1 Bft)
07.11.2017 21:57 2,8 °C 2,8 °C 93 % 1014,5 hPa 0,0 mm 1,2 km/h (1 Bft) W-SW 247 ° 0 min 0,000 mm 0,0 UV-I 0 W/m² 1,8 °C 2,8 °C 3,2 km/h (1 Bft)
07.11.2017 21:58 2,8 °C 2,8 °C 92 % 1014,5 hPa 0,0 mm 0,0 km/h (0 Bft) W-SW 247 ° 0 min 0,000 mm 0,0 UV-I 0 W/m² 1,6 °C 2,8 °C 0,0 km/h (0 Bft)
07.11.2017 21:59 2,8 °C 2,8 °C 92 % 1014,5 hPa 0,0 mm 0,4 km/h (0 Bft) W-SW 247 ° 0 min 0,000 mm 0,0 UV-I 0 W/m² 1,6 °C 2,8 °C 1,6 km/h (1 Bft)
07.11.2017 22:00 2,8 °C 2,9 °C 92 % 1014,6 hPa 0,0 mm 0,7 km/h (0 Bft) W-SW 247 ° 0 min 0,000 mm 0,0 UV-I 0 W/m² 1,6 °C 2,8 °C 1,6 km/h (1 Bft)
07.11.2017 22:01 2,9 °C 2,9 °C 92 % 1014,6 hPa 0,0 mm 0,1 km/h (0 Bft) W-SW 247 ° 0 min 0,000 mm 0,0 UV-I 0 W/m² 1,7 °C 2,9 °C 1,6 km/h (1 Bft)
07.11.2017 22:02 2,9 °C 2,9 °C 92 % 1014,6 hPa 0,0 mm 0,0 km/h (0 Bft) W-SW 247 ° 0 min 0,000 mm 0,0 UV-I 0 W/m² 1,7 °C 2,9 °C 0,0 km/h (0 Bft)
07.11.2017 22:03 2,9 °C 2,9 °C 92 % 1014,7 hPa 0,0 mm 0,0 km/h (0 Bft) W-SW 247 ° 0 min 0,000 mm 0,0 UV-I 0 W/m² 1,7 °C 2,9 °C 0,0 km/h (0 Bft)
07.11.2017 22:04 2,8 °C 2,9 °C 92 % 1014,7 hPa 0,0 mm 0,8 km/h (0 Bft) W-SW 247 ° 0 min 0,000 mm 0,0 UV-I 0 W/m² 1,6 °C 2,8 °C 3,2 km/h (1 Bft)
07.11.2017 22:05 2,8 °C 2,8 °C 92 % 1014,7 hPa 0,0 mm 0,2 km/h (0 Bft) W-SW 247 ° 0 min 0,000 mm 0,0 UV-I 0 W/m² 1,6 °C 2,8 °C 1,6 km/h (1 Bft)
07.11.2017 22:06 2,8 °C 2,8 °C 92 % 1014,7 hPa 0,0 mm 0,0 km/h (0 Bft) W-SW 247 ° 0 min 0,000 mm 0,0 UV-I 0 W/m² 1,6 °C 2,8 °C 0,0 km/h (0 Bft)
07.11.2017 22:07 2,8 °C 2,8 °C 92 % 1014,6 hPa 0,0 mm 0,7 km/h (0 Bft) W-SW 247 ° 0 min 0,000 mm 0,0 UV-I 0 W/m² 1,6 °C 2,8 °C 3,2 km/h (1 Bft)
07.11.2017 22:08 2,8 °C 2,8 °C 92 % 1014,7 hPa 0,0 mm 0,1 km/h (0 Bft) W-SW 247 ° 0 min 0,000 mm 0,0 UV-I 0 W/m² 1,6 °C 2,8 °C 1,6 km/h (1 Bft)
07.11.2017 22:09 2,8 °C 2,8 °C 92 % 1014,7 hPa 0,0 mm 0,0 km/h (0 Bft) W-SW 247 ° 0 min 0,000 mm 0,0 UV-I 0 W/m² 1,6 °C 2,8 °C 0,0 km/h (0 Bft)
07.11.2017 22:10 2,8 °C 2,8 °C 92 % 1014,7 hPa 0,0 mm 1,0 km/h (0 Bft) W-SW 247 ° 0 min 0,000 mm 0,0 UV-I 0 W/m² 1,6 °C 2,8 °C 3,2 km/h (1 Bft)
07.11.2017 22:11 2,8 °C 2,8 °C 92 % 1014,7 hPa 0,0 mm 0,0 km/h (0 Bft) W-SW 247 ° 0 min 0,000 mm 0,0 UV-I 0 W/m² 1,6 °C 2,8 °C 0,0 km/h (0 Bft)
07.11.2017 22:12 2,8 °C 2,8 °C 92 % 1014,7 hPa 0,0 mm 0,0 km/h (0 Bft) W-SW 247 ° 0 min 0,000 mm 0,0 UV-I 0 W/m² 1,6 °C 2,8 °C 0,0 km/h (0 Bft)
07.11.2017 22:13 2,8 °C 2,8 °C 92 % 1014,7 hPa 0,0 mm 0,0 km/h (0 Bft) W-SW 247 ° 0 min 0,000 mm 0,0 UV-I 0 W/m² 1,6 °C 2,8 °C 0,0 km/h (0 Bft)
07.11.2017 22:14 2,8 °C 2,8 °C 92 % 1014,7 hPa 0,0 mm 0,0 km/h (0 Bft) W-SW 247 ° 0 min 0,000 mm 0,0 UV-I 0 W/m² 1,6 °C 2,8 °C 0,0 km/h (0 Bft)
07.11.2017 22:15 2,8 °C 2,8 °C 92 % 1014,7 hPa 0,0 mm 0,5 km/h (0 Bft) SW 236 ° 0 min 0,000 mm 0,0 UV-I 0 W/m² 1,6 °C 2,8 °C 3,2 km/h (1 Bft)
07.11.2017 22:16 2,8 °C 2,8 °C 92 % 1014,7 hPa 0,0 mm 1,4 km/h (1 Bft) SW 219 ° 0 min 0,000 mm 0,0 UV-I 0 W/m² 1,6 °C 2,8 °C 4,8 km/h (1 Bft)
07.11.2017 22:17 2,8 °C 2,8 °C 92 % 1014,7 hPa 0,0 mm 2,1 km/h (1 Bft) SW 219 ° 0 min 0,000 mm 0,0 UV-I 0 W/m² 1,6 °C 2,8 °C 3,2 km/h (1 Bft)
07.11.2017 22:18 2,8 °C 2,8 °C 92 % 1014,7 hPa 0,0 mm 0,0 km/h (0 Bft) SW 219 ° 0 min 0,000 mm 0,0 UV-I 0 W/m² 1,6 °C 2,8 °C 0,0 km/h (0 Bft)
07.11.2017 22:19 2,8 °C 2,8 °C 93 % 1014,7 hPa 0,0 mm 0,0 km/h (0 Bft) SW 219 ° 0 min 0,000 mm 0,0 UV-I 0 W/m² 1,8 °C 2,8 °C 0,0 km/h (0 Bft)
07.11.2017 22:20 2,8 °C 2,8 °C 93 % 1014,7 hPa 0,0 mm 1,4 km/h (1 Bft) W-SW 250 ° 0 min 0,000 mm 0,0 UV-I 0 W/m² 1,8 °C 2,8 °C 6,4 km/h (2 Bft)
07.11.2017 22:21 2,8 °C 2,8 °C 93 % 1014,7 hPa 0,0 mm 1,9 km/h (1 Bft) W-SW 250 ° 0 min 0,000 mm 0,0 UV-I 0 W/m² 1,8 °C 2,8 °C 4,8 km/h (1 Bft)
07.11.2017 22:22 2,8 °C 2,8 °C 93 % 1014,7 hPa 0,0 mm 0,5 km/h (0 Bft) W-SW 250 ° 0 min 0,000 mm 0,0 UV-I 0 W/m² 1,8 °C 2,8 °C 1,6 km/h (1 Bft)
07.11.2017 22:23 2,8 °C 2,8 °C 93 % 1014,6 hPa 0,0 mm 0,1 km/h (0 Bft) W-SW 250 ° 0 min 0,000 mm 0,0 UV-I 0 W/m² 1,8 °C 2,8 °C 1,6 km/h (1 Bft)
07.11.2017 22:24 2,8 °C 2,8 °C 92 % 1014,6 hPa 0,0 mm 1,4 km/h (1 Bft) W 261 ° 0 min 0,000 mm 0,0 UV-I 0 W/m² 1,6 °C 2,8 °C 4,8 km/h (1 Bft)
07.11.2017 22:25 2,9 °C 2,9 °C 92 % 1014,6 hPa 0,0 mm 3,8 km/h (1 Bft) W 261 ° 0 min 0,000 mm 0,0 UV-I 0 W/m² 1,7 °C 2,9 °C 4,8 km/h (1 Bft)
07.11.2017 22:26 2,8 °C 2,9 °C 92 % 1014,5 hPa 0,0 mm 2,0 km/h (1 Bft) W 261 ° 0 min 0,000 mm 0,0 UV-I 0 W/m² 1,6 °C 2,8 °C 4,8 km/h (1 Bft)
07.11.2017 22:27 2,9 °C 2,9 °C 92 % 1014,5 hPa 0,0 mm 2,1 km/h (1 Bft) W 261 ° 0 min 0,000 mm 0,0 UV-I 0 W/m² 1,7 °C 2,9 °C 4,8 km/h (1 Bft)
07.11.2017 22:28 2,9 °C 2,9 °C 92 % 1014,5 hPa 0,0 mm 1,8 km/h (1 Bft) W 261 ° 0 min 0,000 mm 0,0 UV-I 0 W/m² 1,7 °C 2,9 °C 3,2 km/h (1 Bft)
07.11.2017 22:29 2,9 °C 2,9 °C 92 % 1014,5 hPa 0,0 mm 2,3 km/h (1 Bft) W 261 ° 0 min 0,000 mm 0,0 UV-I 0 W/m² 1,7 °C 2,9 °C 4,8 km/h (1 Bft)
07.11.2017 22:30 2,9 °C 2,9 °C 92 % 1014,5 hPa 0,0 mm 3,2 km/h (1 Bft) SW 223 ° 0 min 0,000 mm 0,0 UV-I 0 W/m² 1,7 °C 2,9 °C 4,8 km/h (1 Bft)
07.11.2017 22:31 2,9 °C 2,9 °C 92 % 1014,5 hPa 0,0 mm 3,6 km/h (1 Bft) W-SW 244 ° 0 min 0,000 mm 0,0 UV-I 0 W/m² 1,7 °C 2,9 °C 4,8 km/h (1 Bft)
07.11.2017 22:32 2,9 °C 2,9 °C 92 % 1014,5 hPa 0,0 mm 2,1 km/h (1 Bft) W-SW 244 ° 0 min 0,000 mm 0,0 UV-I 0 W/m² 1,7 °C 2,9 °C 3,2 km/h (1 Bft)
07.11.2017 22:33 2,9 °C 2,9 °C 92 % 1014,5 hPa 0,0 mm 2,7 km/h (1 Bft) W-SW 244 ° 0 min 0,000 mm 0,0 UV-I 0 W/m² 1,7 °C 2,9 °C 4,8 km/h (1 Bft)
07.11.2017 22:34 2,9 °C 2,9 °C 92 % 1014,4 hPa 0,0 mm 3,3 km/h (1 Bft) W-SW 245 ° 0 min 0,000 mm 0,0 UV-I 0 W/m² 1,7 °C 2,9 °C 4,8 km/h (1 Bft)
07.11.2017 22:35 2,9 °C 3,0 °C 92 % 1014,5 hPa 0,0 mm 2,3 km/h (1 Bft) W-SW 245 ° 0 min 0,000 mm 0,0 UV-I 0 W/m² 1,7 °C 2,9 °C 3,2 km/h (1 Bft)
07.11.2017 22:36 2,9 °C 2,9 °C 92 % 1014,4 hPa 0,0 mm 2,7 km/h (1 Bft) W-SW 245 ° 0 min 0,000 mm 0,0 UV-I 0 W/m² 1,7 °C 2,9 °C 4,8 km/h (1 Bft)
07.11.2017 22:37 3,0 °C 3,0 °C 92 % 1014,4 hPa 0,0 mm 4,6 km/h (1 Bft) W-SW 258 ° 0 min 0,000 mm 0,0 UV-I 0 W/m² 1,8 °C 2,0 °C 8,0 km/h (2 Bft)
07.11.2017 22:38 2,9 °C 3,0 °C 92 % 1014,4 hPa 0,0 mm 2,8 km/h (1 Bft) W-SW 258 ° 0 min 0,000 mm 0,0 UV-I 0 W/m² 1,7 °C 2,9 °C 4,8 km/h (1 Bft)
07.11.2017 22:39 2,9 °C 3,0 °C 92 % 1014,5 hPa 0,0 mm 4,1 km/h (1 Bft) SW 221 ° 0 min 0,000 mm 0,0 UV-I 0 W/m² 1,7 °C 2,9 °C 9,7 km/h (2 Bft)
07.11.2017 22:40 3,0 °C 3,0 °C 92 % 1014,5 hPa 0,0 mm 3,7 km/h (1 Bft) S-SW 213 ° 0 min 0,000 mm 0,0 UV-I 0 W/m² 1,8 °C 3,0 °C 8,0 km/h (2 Bft)
07.11.2017 22:41 3,0 °C 3,0 °C 92 % 1014,5 hPa 0,0 mm 3,3 km/h (1 Bft) W-SW 257 ° 0 min 0,000 mm 0,0 UV-I 0 W/m² 1,8 °C 3,0 °C 6,4 km/h (2 Bft)
07.11.2017 22:42 3,0 °C 3,0 °C 92 % 1014,5 hPa 0,0 mm 5,4 km/h (1 Bft) W 263 ° 0 min 0,000 mm 0,0 UV-I 0 W/m² 1,8 °C 1,7 °C 9,7 km/h (2 Bft)
07.11.2017 22:43 3,0 °C 3,0 °C 92 % 1014,5 hPa 0,0 mm 3,8 km/h (1 Bft) W-SW 247 ° 0 min 0,000 mm 0,0 UV-I 0 W/m² 1,8 °C 3,0 °C 6,4 km/h (2 Bft)
07.11.2017 22:44 3,0 °C 3,0 °C 92 % 1014,6 hPa 0,0 mm 4,0 km/h (1 Bft) W-SW 257 ° 0 min 0,000 mm 0,0 UV-I 0 W/m² 1,8 °C 3,0 °C 6,4 km/h (2 Bft)
07.11.2017 22:45 3,0 °C 3,0 °C 92 % 1014,5 hPa 0,0 mm 4,8 km/h (1 Bft) S-SW 193 ° 0 min 0,000 mm 0,0 UV-I 0 W/m² 1,8 °C 1,9 °C 8,0 km/h (2 Bft)
07.11.2017 22:46 3,0 °C 3,1 °C 92 % 1014,5 hPa 0,0 mm 6,6 km/h (2 Bft) W-SW 237 ° 0 min 0,000 mm 0,0 UV-I 0 W/m² 1,8 °C 1,2 °C 11,3 km/h (2 Bft)
07.11.2017 22:47 3,1 °C 3,1 °C 92 % 1014,5 hPa 0,0 mm 4,2 km/h (1 Bft) W-SW 257 ° 0 min 0,000 mm 0,0 UV-I 0 W/m² 1,9 °C 3,1 °C 4,8 km/h (1 Bft)
07.11.2017 22:48 3,1 °C 3,1 °C 92 % 1014,5 hPa 0,0 mm 3,8 km/h (1 Bft) SW 224 ° 0 min 0,000 mm 0,0 UV-I 0 W/m² 1,9 °C 3,1 °C 4,8 km/h (1 Bft)
07.11.2017 22:49 3,0 °C 3,1 °C 92 % 1014,5 hPa 0,0 mm 5,2 km/h (1 Bft) W-SW 245 ° 0 min 0,000 mm 0,0 UV-I 0 W/m² 1,8 °C 1,7 °C 9,7 km/h (2 Bft)
07.11.2017 22:50 3,0 °C 3,1 °C 92 % 1014,5 hPa 0,0 mm 4,8 km/h (1 Bft) W-SW 251 ° 0 min 0,000 mm 0,0 UV-I 0 W/m² 1,8 °C 1,9 °C 6,4 km/h (2 Bft)
07.11.2017 22:51 3,0 °C 3,1 °C 92 % 1014,5 hPa 0,0 mm 4,7 km/h (1 Bft) W 261 ° 0 min 0,000 mm 0,0 UV-I 0 W/m² 1,8 °C 1,9 °C 6,4 km/h (2 Bft)
07.11.2017 22:52 3,0 °C 3,1 °C 92 % 1014,5 hPa 0,0 mm 5,2 km/h (1 Bft) W-SW 242 ° 0 min 0,000 mm 0,0 UV-I 0 W/m² 1,8 °C 1,7 °C 9,7 km/h (2 Bft)
07.11.2017 22:53 3,0 °C 3,1 °C 92 % 1014,4 hPa 0,0 mm 5,1 km/h (1 Bft) SW 236 ° 0 min 0,000 mm 0,0 UV-I 0 W/m² 1,8 °C 1,8 °C 9,7 km/h (2 Bft)
07.11.2017 22:54 3,1 °C 3,1 °C 92 % 1014,4 hPa 0,0 mm 4,9 km/h (1 Bft) W-SW 238 ° 0 min 0,000 mm 0,0 UV-I 0 W/m² 1,9 °C 2,0 °C 9,7 km/h (2 Bft)
07.11.2017 22:55 3,1 °C 3,1 °C 92 % 1014,4 hPa 0,0 mm 7,6 km/h (2 Bft) W 263 ° 0 min 0,000 mm 0,0 UV-I 0 W/m² 1,9 °C 1,0 °C 12,9 km/h (3 Bft)
07.11.2017 22:56 3,0 °C 3,1 °C 92 % 1014,3 hPa 0,0 mm 7,5 km/h (2 Bft) W 266 ° 0 min 0,000 mm 0,0 UV-I 0 W/m² 1,8 °C 0,9 °C 11,3 km/h (2 Bft)
07.11.2017 22:57 3,0 °C 3,1 °C 92 % 1014,3 hPa 0,0 mm 5,4 km/h (1 Bft) W 261 ° 0 min 0,000 mm 0,0 UV-I 0 W/m² 1,8 °C 1,7 °C 8,0 km/h (2 Bft)
07.11.2017 22:58 3,0 °C 3,0 °C 92 % 1014,2 hPa 0,0 mm 4,8 km/h (1 Bft) W-SW 244 ° 0 min 0,000 mm 0,0 UV-I 0 W/m² 1,8 °C 1,9 °C 6,4 km/h (2 Bft)
07.11.2017 22:59 3,0 °C 3,1 °C 92 % 1014,2 hPa 0,0 mm 4,6 km/h (1 Bft) W 262 ° 0 min 0,000 mm 0,0 UV-I 0 W/m² 1,8 °C 2,0 °C 9,7 km/h (2 Bft)
07.11.2017 23:00 3,0 °C 3,0 °C 92 % 1014,2 hPa 0,0 mm 3,8 km/h (1 Bft) W-SW 257 ° 0 min 0,000 mm 0,0 UV-I 0 W/m² 1,8 °C 3,0 °C 6,4 km/h (2 Bft)
07.11.2017 23:01 3,0 °C 3,0 °C 92 % 1014,2 hPa 0,0 mm 3,0 km/h (1 Bft) W-SW 244 ° 0 min 0,000 mm 0,0 UV-I 0 W/m² 1,8 °C 3,0 °C 6,4 km/h (2 Bft)
07.11.2017 23:02 3,0 °C 3,0 °C 92 % 1014,2 hPa 0,0 mm 3,3 km/h (1 Bft) W-SW 244 ° 0 min 0,000 mm 0,0 UV-I 0 W/m² 1,8 °C 3,0 °C 4,8 km/h (1 Bft)
07.11.2017 23:03 3,0 °C 3,0 °C 92 % 1014,2 hPa 0,0 mm 2,3 km/h (1 Bft) W-SW 244 ° 0 min 0,000 mm 0,0 UV-I 0 W/m² 1,8 °C 3,0 °C 3,2 km/h (1 Bft)
07.11.2017 23:04 2,9 °C 3,0 °C 92 % 1014,2 hPa 0,0 mm 3,3 km/h (1 Bft) W-SW 247 ° 0 min 0,000 mm 0,0 UV-I 0 W/m² 1,7 °C 2,9 °C 4,8 km/h (1 Bft)
07.11.2017 23:05 3,0 °C 3,0 °C 92 % 1014,2 hPa 0,0 mm 4,0 km/h (1 Bft) W 268 ° 0 min 0,000 mm 0,0 UV-I 0 W/m² 1,8 °C 3,0 °C 6,4 km/h (2 Bft)
07.11.2017 23:06 2,9 °C 3,0 °C 92 % 1014,2 hPa 0,0 mm 2,3 km/h (1 Bft) W-SW 241 ° 0 min 0,000 mm 0,0 UV-I 0 W/m² 1,7 °C 2,9 °C 3,2 km/h (1 Bft)
07.11.2017 23:07 2,9 °C 2,9 °C 92 % 1014,3 hPa 0,0 mm 2,8 km/h (1 Bft) W-SW 241 ° 0 min 0,000 mm 0,0 UV-I 0 W/m² 1,7 °C 2,9 °C 4,8 km/h (1 Bft)
07.11.2017 23:08 2,9 °C 2,9 °C 92 % 1014,3 hPa 0,0 mm 1,5 km/h (1 Bft) W-SW 238 ° 0 min 0,000 mm 0,0 UV-I 0 W/m² 1,7 °C 2,9 °C 3,2 km/h (1 Bft)
07.11.2017 23:09 2,9 °C 2,9 °C 92 % 1014,3 hPa 0,0 mm 2,0 km/h (1 Bft) S-SW 207 ° 0 min 0,000 mm 0,0 UV-I 0 W/m² 1,7 °C 2,9 °C 4,8 km/h (1 Bft)
07.11.2017 23:10 2,9 °C 2,9 °C 92 % 1014,3 hPa 0,0 mm 3,4 km/h (1 Bft) S-SW 198 ° 0 min 0,000 mm 0,0 UV-I 0 W/m² 1,7 °C 2,9 °C 6,4 km/h (2 Bft)
07.11.2017 23:11 2,9 °C 2,9 °C 92 % 1014,3 hPa 0,0 mm 4,5 km/h (1 Bft) S-SW 201 ° 0 min 0,000 mm 0,0 UV-I 0 W/m² 1,7 °C 2,9 °C 8,0 km/h (2 Bft)
07.11.2017 23:12 2,9 °C 2,9 °C 92 % 1014,3 hPa 0,0 mm 5,8 km/h (2 Bft) S 186 ° 0 min 0,000 mm 0,0 UV-I 0 W/m² 1,7 °C 1,4 °C 6,4 km/h (2 Bft)
07.11.2017 23:13 2,9 °C 2,9 °C 92 % 1014,3 hPa 0,0 mm 2,5 km/h (1 Bft) S 186 ° 0 min 0,000 mm 0,0 UV-I 0 W/m² 1,7 °C 2,9 °C 4,8 km/h (1 Bft)
07.11.2017 23:14 2,9 °C 2,9 °C 92 % 1014,3 hPa 0,0 mm 0,3 km/h (0 Bft) S 186 ° 0 min 0,000 mm 0,0 UV-I 0 W/m² 1,7 °C 2,9 °C 1,6 km/h (1 Bft)
07.11.2017 23:15 2,9 °C 2,9 °C 92 % 1014,3 hPa 0,0 mm 0,3 km/h (0 Bft) S 186 ° 0 min 0,000 mm 0,0 UV-I 0 W/m² 1,7 °C 2,9 °C 1,6 km/h (1 Bft)
07.11.2017 23:16 2,9 °C 2,9 °C 92 % 1014,4 hPa 0,0 mm 3,3 km/h (1 Bft) S 186 ° 0 min 0,000 mm 0,0 UV-I 0 W/m² 1,7 °C 2,9 °C 4,8 km/h (1 Bft)
07.11.2017 23:17 2,9 °C 2,9 °C 92 % 1014,3 hPa 0,0 mm 5,4 km/h (1 Bft) S-SW 197 ° 0 min 0,000 mm 0,0 UV-I 0 W/m² 1,7 °C 1,5 °C 8,0 km/h (2 Bft)
07.11.2017 23:18 2,9 °C 2,9 °C 92 % 1014,4 hPa 0,0 mm 2,7 km/h (1 Bft) S-SW 197 ° 0 min 0,000 mm 0,0 UV-I 0 W/m² 1,7 °C 2,9 °C 3,2 km/h (1 Bft)
07.11.2017 23:19 2,9 °C 2,9 °C 92 % 1014,4 hPa 0,0 mm 2,2 km/h (1 Bft) S-SW 197 ° 0 min 0,000 mm 0,0 UV-I 0 W/m² 1,7 °C 2,9 °C 3,2 km/h (1 Bft)
07.11.2017 23:20 2,9 °C 2,9 °C 92 % 1014,4 hPa 0,0 mm 2,3 km/h (1 Bft) S-SW 201 ° 0 min 0,000 mm 0,0 UV-I 0 W/m² 1,7 °C 2,9 °C 6,4 km/h (2 Bft)
07.11.2017 23:21 2,9 °C 2,9 °C 92 % 1014,4 hPa 0,0 mm 4,7 km/h (1 Bft) S-SW 206 ° 0 min 0,000 mm 0,0 UV-I 0 W/m² 1,7 °C 1,8 °C 8,0 km/h (2 Bft)
07.11.2017 23:22 2,9 °C 2,9 °C 92 % 1014,4 hPa 0,0 mm 0,4 km/h (0 Bft) S-SW 206 ° 0 min 0,000 mm 0,0 UV-I 0 W/m² 1,7 °C 2,9 °C 1,6 km/h (1 Bft)
07.11.2017 23:23 2,9 °C 2,9 °C 92 % 1014,4 hPa 0,0 mm 1,7 km/h (1 Bft) S-SW 206 ° 0 min 0,000 mm 0,0 UV-I 0 W/m² 1,7 °C 2,9 °C 4,8 km/h (1 Bft)
07.11.2017 23:24 2,9 °C 2,9 °C 92 % 1014,4 hPa 0,0 mm 2,9 km/h (1 Bft) S-SW 206 ° 0 min 0,000 mm 0,0 UV-I 0 W/m² 1,7 °C 2,9 °C 4,8 km/h (1 Bft)
07.11.2017 23:25 2,9 °C 2,9 °C 92 % 1014,3 hPa 0,0 mm 2,2 km/h (1 Bft) S-SW 206 ° 0 min 0,000 mm 0,0 UV-I 0 W/m² 1,7 °C 2,9 °C 4,8 km/h (1 Bft)
07.11.2017 23:26 2,9 °C 2,9 °C 92 % 1014,4 hPa 0,0 mm 3,6 km/h (1 Bft) S-SW 192 ° 0 min 0,000 mm 0,0 UV-I 0 W/m² 1,7 °C 2,9 °C 8,0 km/h (2 Bft)
07.11.2017 23:27 2,9 °C 3,0 °C 92 % 1014,4 hPa 0,0 mm 2,5 km/h (1 Bft) S-SW 192 ° 0 min 0,000 mm 0,0 UV-I 0 W/m² 1,7 °C 2,9 °C 4,8 km/h (1 Bft)
07.11.2017 23:28 3,0 °C 3,0 °C 92 % 1014,4 hPa 0,0 mm 2,9 km/h (1 Bft) S-SW 192 ° 0 min 0,000 mm 0,0 UV-I 0 W/m² 1,8 °C 3,0 °C 4,8 km/h (1 Bft)
07.11.2017 23:29 3,0 °C 3,0 °C 92 % 1014,4 hPa 0,0 mm 2,9 km/h (1 Bft) S-SW 198 ° 0 min 0,000 mm 0,0 UV-I 0 W/m² 1,8 °C 3,0 °C 4,8 km/h (1 Bft)
07.11.2017 23:30 2,9 °C 3,0 °C 92 % 1014,4 hPa 0,0 mm 1,0 km/h (0 Bft) S-SW 197 ° 0 min 0,000 mm 0,0 UV-I 0 W/m² 1,7 °C 2,9 °C 3,2 km/h (1 Bft)
07.11.2017 23:31 2,9 °C 2,9 °C 92 % 1014,4 hPa 0,0 mm 2,0 km/h (1 Bft) S-SW 197 ° 0 min 0,000 mm 0,0 UV-I 0 W/m² 1,7 °C 2,9 °C 4,8 km/h (1 Bft)
07.11.2017 23:32 2,9 °C 2,9 °C 92 % 1014,4 hPa 0,0 mm 5,5 km/h (1 Bft) S-SO 148 ° 0 min 0,000 mm 0,0 UV-I 0 W/m² 1,7 °C 1,5 °C 9,7 km/h (2 Bft)
07.11.2017 23:33 2,9 °C 2,9 °C 92 % 1014,4 hPa 0,0 mm 5,1 km/h (1 Bft) S-SW 198 ° 0 min 0,000 mm 0,0 UV-I 0 W/m² 1,7 °C 1,7 °C 6,4 km/h (2 Bft)
07.11.2017 23:34 2,8 °C 2,9 °C 92 % 1014,5 hPa 0,0 mm 3,6 km/h (1 Bft) S-SW 198 ° 0 min 0,000 mm 0,0 UV-I 0 W/m² 1,6 °C 2,8 °C 4,8 km/h (1 Bft)
07.11.2017 23:35 2,8 °C 2,8 °C 92 % 1014,4 hPa 0,0 mm 4,4 km/h (1 Bft) S-SW 202 ° 0 min 0,000 mm 0,0 UV-I 0 W/m² 1,6 °C 2,8 °C 6,4 km/h (2 Bft)
07.11.2017 23:36 2,8 °C 2,8 °C 92 % 1014,4 hPa 0,0 mm 3,2 km/h (1 Bft) S-SW 208 ° 0 min 0,000 mm 0,0 UV-I 0 W/m² 1,6 °C 2,8 °C 4,8 km/h (1 Bft)
07.11.2017 23:37 2,7 °C 2,8 °C 92 % 1014,4 hPa 0,0 mm 1,9 km/h (1 Bft) S-SW 208 ° 0 min 0,000 mm 0,0 UV-I 0 W/m² 1,5 °C 2,7 °C 3,2 km/h (1 Bft)
07.11.2017 23:38 2,7 °C 2,7 °C 92 % 1014,4 hPa 0,0 mm 1,0 km/h (0 Bft) S-SW 208 ° 0 min 0,000 mm 0,0 UV-I 0 W/m² 1,5 °C 2,7 °C 3,2 km/h (1 Bft)
07.11.2017 23:39 2,7 °C 2,7 °C 92 % 1014,3 hPa 0,0 mm 1,1 km/h (1 Bft) S-SW 208 ° 0 min 0,000 mm 0,0 UV-I 0 W/m² 1,5 °C 2,7 °C 3,2 km/h (1 Bft)
07.11.2017 23:40 2,7 °C 2,7 °C 92 % 1014,3 hPa 0,0 mm 4,4 km/h (1 Bft) S-SW 211 ° 0 min 0,000 mm 0,0 UV-I 0 W/m² 1,5 °C 2,7 °C 6,4 km/h (2 Bft)
07.11.2017 23:41 2,7 °C 2,7 °C 92 % 1014,3 hPa 0,0 mm 3,4 km/h (1 Bft) SW 227 ° 0 min 0,000 mm 0,0 UV-I 0 W/m² 1,5 °C 2,7 °C 4,8 km/h (1 Bft)
07.11.2017 23:42 2,7 °C 2,7 °C 92 % 1014,3 hPa 0,0 mm 0,9 km/h (0 Bft) SW 227 ° 0 min 0,000 mm 0,0 UV-I 0 W/m² 1,5 °C 2,7 °C 3,2 km/h (1 Bft)
07.11.2017 23:43 2,7 °C 2,7 °C 92 % 1014,3 hPa 0,0 mm 0,3 km/h (0 Bft) SW 227 ° 0 min 0,000 mm 0,0 UV-I 0 W/m² 1,5 °C 2,7 °C 3,2 km/h (1 Bft)
07.11.2017 23:44 2,7 °C 2,7 °C 92 % 1014,3 hPa 0,0 mm 0,9 km/h (0 Bft) SW 227 ° 0 min 0,000 mm 0,0 UV-I 0 W/m² 1,5 °C 2,7 °C 3,2 km/h (1 Bft)
07.11.2017 23:45 2,7 °C 2,7 °C 92 % 1014,3 hPa 0,0 mm 2,3 km/h (1 Bft) W-SW 240 ° 0 min 0,000 mm 0,0 UV-I 0 W/m² 1,5 °C 2,7 °C 4,8 km/h (1 Bft)
07.11.2017 23:46 2,7 °C 2,7 °C 92 % 1014,2 hPa 0,0 mm 3,0 km/h (1 Bft) W-SW 240 ° 0 min 0,000 mm 0,0 UV-I 0 W/m² 1,5 °C 2,7 °C 3,2 km/h (1 Bft)
07.11.2017 23:47 2,7 °C 2,7 °C 92 % 1014,2 hPa 0,0 mm 4,2 km/h (1 Bft) W-SW 246 ° 0 min 0,000 mm 0,0 UV-I 0 W/m² 1,5 °C 2,7 °C 8,0 km/h (2 Bft)
07.11.2017 23:48 2,7 °C 2,8 °C 92 % 1014,2 hPa 0,0 mm 4,6 km/h (1 Bft) W 267 ° 0 min 0,000 mm 0,0 UV-I 0 W/m² 1,5 °C 1,7 °C 6,4 km/h (2 Bft)
07.11.2017 23:49 2,7 °C 2,8 °C 92 % 1014,3 hPa 0,0 mm 4,0 km/h (1 Bft) W 267 ° 0 min 0,000 mm 0,0 UV-I 0 W/m² 1,5 °C 2,7 °C 4,8 km/h (1 Bft)
07.11.2017 23:50 2,7 °C 2,7 °C 92 % 1014,2 hPa 0,0 mm 3,0 km/h (1 Bft) W 267 ° 0 min 0,000 mm 0,0 UV-I 0 W/m² 1,5 °C 2,7 °C 4,8 km/h (1 Bft)
07.11.2017 23:51 2,7 °C 2,7 °C 92 % 1014,2 hPa 0,0 mm 1,1 km/h (1 Bft) W 267 ° 0 min 0,000 mm 0,0 UV-I 0 W/m² 1,5 °C 2,7 °C 3,2 km/h (1 Bft)
07.11.2017 23:52 2,7 °C 2,7 °C 92 % 1014,2 hPa 0,0 mm 3,0 km/h (1 Bft) SW 232 ° 0 min 0,000 mm 0,0 UV-I 0 W/m² 1,5 °C 2,7 °C 4,8 km/h (1 Bft)
07.11.2017 23:53 2,7 °C 2,7 °C 92 % 1014,3 hPa 0,0 mm 2,1 km/h (1 Bft) W-SW 255 ° 0 min 0,000 mm 0,0 UV-I 0 W/m² 1,5 °C 2,7 °C 4,8 km/h (1 Bft)
07.11.2017 23:54 2,7 °C 2,7 °C 92 % 1014,2 hPa 0,0 mm 2,2 km/h (1 Bft) W-SW 240 ° 0 min 0,000 mm 0,0 UV-I 0 W/m² 1,5 °C 2,7 °C 4,8 km/h (1 Bft)
07.11.2017 23:55 2,7 °C 2,8 °C 93 % 1014,3 hPa 0,0 mm 4,0 km/h (1 Bft) S-SW 200 ° 0 min 0,000 mm 0,0 UV-I 0 W/m² 1,7 °C 2,7 °C 6,4 km/h (2 Bft)
07.11.2017 23:56 2,7 °C 2,8 °C 93 % 1014,3 hPa 0,0 mm 2,4 km/h (1 Bft) W 259 ° 0 min 0,000 mm 0,0 UV-I 0 W/m² 1,7 °C 2,7 °C 6,4 km/h (2 Bft)
07.11.2017 23:57 2,8 °C 2,8 °C 92 % 1014,3 hPa 0,0 mm 3,5 km/h (1 Bft) W 261 ° 0 min 0,000 mm 0,0 UV-I 0 W/m² 1,6 °C 2,8 °C 6,4 km/h (2 Bft)
07.11.2017 23:58 2,8 °C 2,8 °C 92 % 1014,3 hPa 0,0 mm 3,4 km/h (1 Bft) W-SW 252 ° 0 min 0,000 mm 0,0 UV-I 0 W/m² 1,6 °C 2,8 °C 6,4 km/h (2 Bft)
07.11.2017 23:59 2,8 °C 2,8 °C 93 % 1014,3 hPa 0,0 mm 3,4 km/h (1 Bft) W-SW 257 ° 0 min 0,000 mm 0,0 UV-I 0 W/m² 1,8 °C 2,8 °C 6,4 km/h (2 Bft)
_ Min-Zeit 02:26 02:14 23:58 20:51 - 22:19 - - - - - - 00:27 05:12 22:19
Minimum _ 1,4 °C 1,4 °C 92 % 1013,8 hPa - 0,0 km/h (0 Bft) - - - - - - 0,7 °C -0,9 °C 0,0 km/h (0 Bft)
_ Max-Zeit 15:27 15:28 10:18 00:03 10:49 21:16 - - 23:59 12:01 11:17 10:20 15:15 15:27 01:26
Maximum _ 3,3 °C 3,3 °C 96 % 1020,9 hPa 0,2 mm 8,1 km/h
W (2 Bft)
- - 0 min 0,051 mm 1,2 UV-I 192 W/m² 2,3 °C 3,3 °C 14,5 km/h
NO (3 Bft)
Durchschnitt _ 2,3 °C 2,3 °C 94 % 1016,7 hPa #1,8 mm 2,8 km/h (1 Bft) O-NO - #0 min. #0,229 mm 0,7 UV-I 23 W/m² 1,5 °C 2,1 °C 4,9 km/h (1 Bft)